<?xml version='1.0' encoding='UTF-8'?><gpx version="1.1" creator="JPX - https://github.com/jenetics/jpx" xmlns="http://www.topografix.com/GPX/1/1"><trk><trkseg><trkpt lat="44.4128508" lon="9.1593071"><ele>324.0</ele><time>2026-04-28T14:43:20.924Z</time></trkpt><trkpt lat="44.4128089" lon="9.1592385"><ele>324.0</ele><time>2026-04-28T14:44:09.908Z</time></trkpt><trkpt lat="44.4128396" lon="9.1593183"><ele>324.0</ele><time>2026-04-28T14:44:40.882Z</time></trkpt><trkpt lat="44.4127604" lon="9.1593688"><ele>324.0</ele><time>2026-04-28T14:46:00.882Z</time></trkpt><trkpt lat="44.4128106" lon="9.1592794"><ele>324.0</ele><time>2026-04-28T14:46:05.899Z</time></trkpt><trkpt lat="44.4128696" lon="9.1592375"><ele>324.0</ele><time>2026-04-28T14:46:07.91Z</time></trkpt><trkpt lat="44.4129441" lon="9.159171"><ele>324.0</ele><time>2026-04-28T14:46:09.92Z</time></trkpt><trkpt lat="44.4129815" lon="9.1590645"><ele>324.0</ele><time>2026-04-28T14:46:11.93Z</time></trkpt><trkpt lat="44.4129233" lon="9.1590067"><ele>324.0</ele><time>2026-04-28T14:46:14.879Z</time></trkpt><trkpt lat="44.4128617" lon="9.1590533"><ele>324.0</ele><time>2026-04-28T14:46:15.88Z</time></trkpt><trkpt lat="44.4127783" lon="9.1590867"><ele>324.0</ele><time>2026-04-28T14:46:16.875Z</time></trkpt><trkpt lat="44.4126967" lon="9.159125"><ele>324.0</ele><time>2026-04-28T14:46:17.876Z</time></trkpt><trkpt lat="44.4126183" lon="9.1591733"><ele>324.0</ele><time>2026-04-28T14:46:18.878Z</time></trkpt><trkpt lat="44.4125417" lon="9.1592217"><ele>324.0</ele><time>2026-04-28T14:46:19.878Z</time></trkpt><trkpt lat="44.412465" lon="9.1592717"><ele>324.0</ele><time>2026-04-28T14:46:20.875Z</time></trkpt><trkpt lat="44.4123917" lon="9.1593267"><ele>324.0</ele><time>2026-04-28T14:46:21.877Z</time></trkpt><trkpt lat="44.412325" lon="9.1593833"><ele>324.0</ele><time>2026-04-28T14:46:22.874Z</time></trkpt><trkpt lat="44.4122617" lon="9.159445"><ele>324.0</ele><time>2026-04-28T14:46:23.876Z</time></trkpt><trkpt lat="44.41221" lon="9.1595217"><ele>324.0</ele><time>2026-04-28T14:46:24.876Z</time></trkpt><trkpt lat="44.4121817" lon="9.1596133"><ele>324.0</ele><time>2026-04-28T14:46:25.874Z</time></trkpt><trkpt lat="44.4121733" lon="9.1597133"><ele>324.0</ele><time>2026-04-28T14:46:26.876Z</time></trkpt><trkpt lat="44.4121733" lon="9.15981"><ele>324.0</ele><time>2026-04-28T14:46:27.877Z</time></trkpt><trkpt lat="44.4121883" lon="9.1599017"><ele>324.0</ele><time>2026-04-28T14:46:28.874Z</time></trkpt><trkpt lat="44.412245" lon="9.1600333"><ele>324.0</ele><time>2026-04-28T14:46:30.876Z</time></trkpt><trkpt lat="44.412355" lon="9.1601117"><ele>324.7142857142857</ele><time>2026-04-28T14:46:32.876Z</time></trkpt><trkpt lat="44.4124283" lon="9.1601517"><ele>325.42857142857144</ele><time>2026-04-28T14:46:33.879Z</time></trkpt><trkpt lat="44.4124983" lon="9.1602033"><ele>326.1428571428571</ele><time>2026-04-28T14:46:34.874Z</time></trkpt><trkpt lat="44.4125667" lon="9.1602567"><ele>326.8571428571429</ele><time>2026-04-28T14:46:35.875Z</time></trkpt><trkpt lat="44.4126217" lon="9.1603133"><ele>327.57142857142856</ele><time>2026-04-28T14:46:36.875Z</time></trkpt><trkpt lat="44.41266" lon="9.1603867"><ele>328.2857142857143</ele><time>2026-04-28T14:46:37.876Z</time></trkpt><trkpt lat="44.412675" lon="9.1604767"><ele>329.0</ele><time>2026-04-28T14:46:38.876Z</time></trkpt><trkpt lat="44.4126517" lon="9.1606217"><ele>329.0</ele><time>2026-04-28T14:46:40.874Z</time></trkpt><trkpt lat="44.4127033" lon="9.16052"><ele>329.0</ele><time>2026-04-28T14:46:46.874Z</time></trkpt><trkpt lat="44.412665" lon="9.1604"><ele>329.0</ele><time>2026-04-28T14:46:47.876Z</time></trkpt><trkpt lat="44.4125767" lon="9.160285"><ele>329.0</ele><time>2026-04-28T14:46:48.876Z</time></trkpt><trkpt lat="44.4124717" lon="9.1602033"><ele>329.0</ele><time>2026-04-28T14:46:49.876Z</time></trkpt><trkpt lat="44.4123767" lon="9.1601367"><ele>329.0</ele><time>2026-04-28T14:46:50.876Z</time></trkpt><trkpt lat="44.4122983" lon="9.1600883"><ele>329.0</ele><time>2026-04-28T14:46:51.876Z</time></trkpt><trkpt lat="44.412245" lon="9.1599883"><ele>329.0</ele><time>2026-04-28T14:46:52.874Z</time></trkpt><trkpt lat="44.4122033" lon="9.159885"><ele>329.0</ele><time>2026-04-28T14:46:53.877Z</time></trkpt><trkpt lat="44.4121833" lon="9.15976"><ele>329.0</ele><time>2026-04-28T14:46:54.876Z</time></trkpt><trkpt lat="44.4121833" lon="9.1596417"><ele>329.0</ele><time>2026-04-28T14:46:55.876Z</time></trkpt><trkpt lat="44.4122167" lon="9.159545"><ele>328.0</ele><time>2026-04-28T14:46:56.875Z</time></trkpt><trkpt lat="44.41228" lon="9.1594567"><ele>327.0</ele><time>2026-04-28T14:46:57.874Z</time></trkpt><trkpt lat="44.4123567" lon="9.1593883"><ele>326.0</ele><time>2026-04-28T14:46:58.876Z</time></trkpt><trkpt lat="44.4124417" lon="9.1593183"><ele>325.0</ele><time>2026-04-28T14:46:59.876Z</time></trkpt><trkpt lat="44.4125317" lon="9.1592533"><ele>324.0</ele><time>2026-04-28T14:47:00.875Z</time></trkpt><trkpt lat="44.41262" lon="9.15919"><ele>324.0</ele><time>2026-04-28T14:47:01.874Z</time></trkpt><trkpt lat="44.4127083" lon="9.1591283"><ele>324.0</ele><time>2026-04-28T14:47:02.875Z</time></trkpt><trkpt lat="44.4127917" lon="9.1590683"><ele>324.0</ele><time>2026-04-28T14:47:03.875Z</time></trkpt><trkpt lat="44.412865" lon="9.1590283"><ele>324.0</ele><time>2026-04-28T14:47:04.874Z</time></trkpt><trkpt lat="44.41293" lon="9.159055"><ele>324.0</ele><time>2026-04-28T14:47:06.875Z</time></trkpt><trkpt lat="44.412825" lon="9.15915"><ele>324.0</ele><time>2026-04-28T14:47:09.877Z</time></trkpt><trkpt lat="44.4127617" lon="9.1591983"><ele>324.0</ele><time>2026-04-28T14:47:10.875Z</time></trkpt><trkpt lat="44.4127" lon="9.159265"><ele>324.0</ele><time>2026-04-28T14:47:12.877Z</time></trkpt><trkpt lat="44.4127933" lon="9.1592117"><ele>324.0</ele><time>2026-04-28T14:48:05.88Z</time></trkpt><trkpt lat="44.412875" lon="9.15915"><ele>324.0</ele><time>2026-04-28T14:48:07.875Z</time></trkpt><trkpt lat="44.412935" lon="9.1591067"><ele>324.0</ele><time>2026-04-28T14:48:09.876Z</time></trkpt><trkpt lat="44.412895" lon="9.1590333"><ele>324.0</ele><time>2026-04-28T14:48:15.876Z</time></trkpt><trkpt lat="44.4128183" lon="9.1590733"><ele>324.0</ele><time>2026-04-28T14:48:18.879Z</time></trkpt><trkpt lat="44.4127417" lon="9.1591367"><ele>324.0</ele><time>2026-04-28T14:48:21.877Z</time></trkpt><trkpt lat="44.412675" lon="9.15918"><ele>324.0</ele><time>2026-04-28T14:48:23.876Z</time></trkpt><trkpt lat="44.4125683" lon="9.1592467"><ele>324.0</ele><time>2026-04-28T14:48:25.877Z</time></trkpt><trkpt lat="44.4124983" lon="9.15928"><ele>324.0</ele><time>2026-04-28T14:48:26.878Z</time></trkpt><trkpt lat="44.4124233" lon="9.1593283"><ele>324.0</ele><time>2026-04-28T14:48:27.874Z</time></trkpt><trkpt lat="44.4123517" lon="9.1593833"><ele>324.0</ele><time>2026-04-28T14:48:28.876Z</time></trkpt><trkpt lat="44.4122783" lon="9.159445"><ele>324.0</ele><time>2026-04-28T14:48:29.875Z</time></trkpt><trkpt lat="44.41222" lon="9.1595233"><ele>324.0</ele><time>2026-04-28T14:48:30.875Z</time></trkpt><trkpt lat="44.4121833" lon="9.15962"><ele>324.0</ele><time>2026-04-28T14:48:31.875Z</time></trkpt><trkpt lat="44.412165" lon="9.1597283"><ele>324.0</ele><time>2026-04-28T14:48:32.877Z</time></trkpt><trkpt lat="44.41217" lon="9.1598467"><ele>324.8333333333333</ele><time>2026-04-28T14:48:33.875Z</time></trkpt><trkpt lat="44.4121867" lon="9.1599467"><ele>325.6666666666667</ele><time>2026-04-28T14:48:34.876Z</time></trkpt><trkpt lat="44.4122133" lon="9.1600317"><ele>326.5</ele><time>2026-04-28T14:48:35.875Z</time></trkpt><trkpt lat="44.4123167" lon="9.1601217"><ele>327.33333333333337</ele><time>2026-04-28T14:48:37.875Z</time></trkpt><trkpt lat="44.4124" lon="9.1601567"><ele>328.1666666666667</ele><time>2026-04-28T14:48:38.875Z</time></trkpt><trkpt lat="44.412485" lon="9.1602033"><ele>329.0</ele><time>2026-04-28T14:48:39.875Z</time></trkpt><trkpt lat="44.4125633" lon="9.1602617"><ele>329.0</ele><time>2026-04-28T14:48:40.874Z</time></trkpt><trkpt lat="44.4126317" lon="9.1603333"><ele>329.0</ele><time>2026-04-28T14:48:41.875Z</time></trkpt><trkpt lat="44.412665" lon="9.1604267"><ele>329.0</ele><time>2026-04-28T14:48:42.875Z</time></trkpt><trkpt lat="44.4126683" lon="9.1605333"><ele>329.0</ele><time>2026-04-28T14:48:43.876Z</time></trkpt><trkpt lat="44.4126317" lon="9.1606667"><ele>329.0</ele><time>2026-04-28T14:48:44.875Z</time></trkpt><trkpt lat="44.4125983" lon="9.1608283"><ele>328.79999999999995</ele><time>2026-04-28T14:48:45.876Z</time></trkpt><trkpt lat="44.4125767" lon="9.1609933"><ele>328.59999999999997</ele><time>2026-04-28T14:48:46.875Z</time></trkpt><trkpt lat="44.4125633" lon="9.1611533"><ele>328.4</ele><time>2026-04-28T14:48:47.875Z</time></trkpt><trkpt lat="44.4125483" lon="9.1612983"><ele>328.2</ele><time>2026-04-28T14:48:48.876Z</time></trkpt><trkpt lat="44.412525" lon="9.1614333"><ele>328.0</ele><time>2026-04-28T14:48:49.876Z</time></trkpt><trkpt lat="44.4124833" lon="9.1615517"><ele>330.2</ele><time>2026-04-28T14:48:50.874Z</time></trkpt><trkpt lat="44.4124383" lon="9.1616417"><ele>332.4</ele><time>2026-04-28T14:48:51.875Z</time></trkpt><trkpt lat="44.412395" lon="9.1617217"><ele>334.59999999999997</ele><time>2026-04-28T14:48:53.876Z</time></trkpt><trkpt lat="44.4123267" lon="9.1618633"><ele>336.79999999999995</ele><time>2026-04-28T14:48:58.876Z</time></trkpt><trkpt lat="44.41227" lon="9.1619883"><ele>339.0</ele><time>2026-04-28T14:48:59.875Z</time></trkpt><trkpt lat="44.4122067" lon="9.1621533"><ele>339.0</ele><time>2026-04-28T14:49:00.876Z</time></trkpt><trkpt lat="44.4121567" lon="9.1623317"><ele>339.0</ele><time>2026-04-28T14:49:01.875Z</time></trkpt><trkpt lat="44.4121233" lon="9.162515"><ele>339.0</ele><time>2026-04-28T14:49:02.876Z</time></trkpt><trkpt lat="44.4121033" lon="9.162695"><ele>339.0</ele><time>2026-04-28T14:49:03.875Z</time></trkpt><trkpt lat="44.4120933" lon="9.16287"><ele>341.0</ele><time>2026-04-28T14:49:04.874Z</time></trkpt><trkpt lat="44.4120983" lon="9.1630383"><ele>343.0</ele><time>2026-04-28T14:49:05.876Z</time></trkpt><trkpt lat="44.41212" lon="9.1632"><ele>345.0</ele><time>2026-04-28T14:49:06.875Z</time></trkpt><trkpt lat="44.4121417" lon="9.1633467"><ele>347.0</ele><time>2026-04-28T14:49:07.875Z</time></trkpt><trkpt lat="44.412165" lon="9.1634833"><ele>349.0</ele><time>2026-04-28T14:49:08.875Z</time></trkpt><trkpt lat="44.41219" lon="9.1636067"><ele>349.0</ele><time>2026-04-28T14:49:09.875Z</time></trkpt><trkpt lat="44.41221" lon="9.1637117"><ele>349.0</ele><time>2026-04-28T14:49:10.874Z</time></trkpt><trkpt lat="44.412215" lon="9.1638567"><ele>349.0</ele><time>2026-04-28T14:49:12.875Z</time></trkpt><trkpt lat="44.412155" lon="9.1639267"><ele>349.0</ele><time>2026-04-28T14:49:14.876Z</time></trkpt><trkpt lat="44.4120367" lon="9.163915"><ele>349.0</ele><time>2026-04-28T14:49:15.875Z</time></trkpt><trkpt lat="44.411925" lon="9.1639333"><ele>346.25</ele><time>2026-04-28T14:49:16.874Z</time></trkpt><trkpt lat="44.4118" lon="9.16397"><ele>343.5</ele><time>2026-04-28T14:49:17.876Z</time></trkpt><trkpt lat="44.4116783" lon="9.16403"><ele>340.75</ele><time>2026-04-28T14:49:18.877Z</time></trkpt><trkpt lat="44.4115533" lon="9.164085"><ele>338.0</ele><time>2026-04-28T14:49:19.875Z</time></trkpt><trkpt lat="44.4114367" lon="9.164105"><ele>338.0</ele><time>2026-04-28T14:49:20.875Z</time></trkpt><trkpt lat="44.4113267" lon="9.1640983"><ele>338.0</ele><time>2026-04-28T14:49:21.875Z</time></trkpt><trkpt lat="44.41123" lon="9.1640783"><ele>338.0</ele><time>2026-04-28T14:49:22.876Z</time></trkpt><trkpt lat="44.41116" lon="9.16407"><ele>338.0</ele><time>2026-04-28T14:49:23.877Z</time></trkpt><trkpt lat="44.411085" lon="9.1640883"><ele>338.0</ele><time>2026-04-28T14:49:25.875Z</time></trkpt><trkpt lat="44.4110983" lon="9.1641833"><ele>338.0</ele><time>2026-04-28T14:49:27.876Z</time></trkpt><trkpt lat="44.4112433" lon="9.1643067"><ele>338.0</ele><time>2026-04-28T14:49:29.876Z</time></trkpt><trkpt lat="44.4113533" lon="9.16435"><ele>338.0</ele><time>2026-04-28T14:49:30.876Z</time></trkpt><trkpt lat="44.411475" lon="9.1643633"><ele>338.0</ele><time>2026-04-28T14:49:31.875Z</time></trkpt><trkpt lat="44.411585" lon="9.1643333"><ele>338.0</ele><time>2026-04-28T14:49:32.877Z</time></trkpt><trkpt lat="44.4116733" lon="9.1642817"><ele>338.0</ele><time>2026-04-28T14:49:33.876Z</time></trkpt><trkpt lat="44.4117567" lon="9.1642517"><ele>338.0</ele><time>2026-04-28T14:49:34.874Z</time></trkpt><trkpt lat="44.411835" lon="9.16424"><ele>338.0</ele><time>2026-04-28T14:49:35.876Z</time></trkpt><trkpt lat="44.411825" lon="9.1643717"><ele>338.0</ele><time>2026-04-28T14:49:37.874Z</time></trkpt><trkpt lat="44.4117533" lon="9.1644167"><ele>338.0</ele><time>2026-04-28T14:49:38.877Z</time></trkpt><trkpt lat="44.41166" lon="9.1644383"><ele>338.0</ele><time>2026-04-28T14:49:39.877Z</time></trkpt><trkpt lat="44.4115483" lon="9.1644417"><ele>338.0</ele><time>2026-04-28T14:49:40.875Z</time></trkpt><trkpt lat="44.4114167" lon="9.1644417"><ele>338.0</ele><time>2026-04-28T14:49:41.875Z</time></trkpt><trkpt lat="44.4112867" lon="9.1644617"><ele>338.0</ele><time>2026-04-28T14:49:42.876Z</time></trkpt><trkpt lat="44.41117" lon="9.16453"><ele>338.0</ele><time>2026-04-28T14:49:43.876Z</time></trkpt><trkpt lat="44.411065" lon="9.1646317"><ele>339.0</ele><time>2026-04-28T14:49:44.876Z</time></trkpt><trkpt lat="44.4109917" lon="9.1647533"><ele>340.0</ele><time>2026-04-28T14:49:45.875Z</time></trkpt><trkpt lat="44.4109717" lon="9.1648967"><ele>341.0</ele><time>2026-04-28T14:49:46.874Z</time></trkpt><trkpt lat="44.41099" lon="9.16503"><ele>342.0</ele><time>2026-04-28T14:49:47.873Z</time></trkpt><trkpt lat="44.4110333" lon="9.1651667"><ele>343.0</ele><time>2026-04-28T14:49:48.874Z</time></trkpt><trkpt lat="44.41108" lon="9.1653067"><ele>343.0</ele><time>2026-04-28T14:49:49.875Z</time></trkpt><trkpt lat="44.41111" lon="9.1654283"><ele>343.0</ele><time>2026-04-28T14:49:50.877Z</time></trkpt><trkpt lat="44.411115" lon="9.1655417"><ele>343.0</ele><time>2026-04-28T14:49:51.875Z</time></trkpt><trkpt lat="44.411075" lon="9.1656417"><ele>343.0</ele><time>2026-04-28T14:49:52.875Z</time></trkpt><trkpt lat="44.411025" lon="9.16575"><ele>343.0</ele><time>2026-04-28T14:49:53.875Z</time></trkpt><trkpt lat="44.4109833" lon="9.1658667"><ele>343.0</ele><time>2026-04-28T14:49:54.876Z</time></trkpt><trkpt lat="44.410955" lon="9.16599"><ele>343.5</ele><time>2026-04-28T14:49:55.876Z</time></trkpt><trkpt lat="44.4109167" lon="9.1661083"><ele>344.0</ele><time>2026-04-28T14:49:56.875Z</time></trkpt><trkpt lat="44.4108883" lon="9.1662283"><ele>344.5</ele><time>2026-04-28T14:49:57.875Z</time></trkpt><trkpt lat="44.4108617" lon="9.1663517"><ele>345.0</ele><time>2026-04-28T14:49:58.875Z</time></trkpt><trkpt lat="44.4108517" lon="9.166475"><ele>345.5</ele><time>2026-04-28T14:49:59.875Z</time></trkpt><trkpt lat="44.41085" lon="9.166585"><ele>346.0</ele><time>2026-04-28T14:50:00.875Z</time></trkpt><trkpt lat="44.4108617" lon="9.1666867"><ele>346.0</ele><time>2026-04-28T14:50:01.877Z</time></trkpt><trkpt lat="44.4109267" lon="9.1667883"><ele>346.0</ele><time>2026-04-28T14:50:03.876Z</time></trkpt><trkpt lat="44.4109667" lon="9.1667133"><ele>346.0</ele><time>2026-04-28T14:50:06.876Z</time></trkpt><trkpt lat="44.411135" lon="9.1663317"><ele>346.0</ele><time>2026-04-28T14:50:08.874Z</time></trkpt><trkpt lat="44.4112467" lon="9.1661683"><ele>346.0</ele><time>2026-04-28T14:50:09.877Z</time></trkpt><trkpt lat="44.411395" lon="9.166"><ele>346.0</ele><time>2026-04-28T14:50:10.875Z</time></trkpt><trkpt lat="44.41151" lon="9.1659317"><ele>348.8</ele><time>2026-04-28T14:50:11.876Z</time></trkpt><trkpt lat="44.4116033" lon="9.1658517"><ele>351.6</ele><time>2026-04-28T14:50:12.875Z</time></trkpt><trkpt lat="44.41166" lon="9.165755"><ele>354.4</ele><time>2026-04-28T14:50:13.875Z</time></trkpt><trkpt lat="44.41167" lon="9.1656417"><ele>357.2</ele><time>2026-04-28T14:50:14.872Z</time></trkpt><trkpt lat="44.411655" lon="9.1655133"><ele>360.0</ele><time>2026-04-28T14:50:15.875Z</time></trkpt><trkpt lat="44.4116517" lon="9.1653617"><ele>360.0</ele><time>2026-04-28T14:50:16.874Z</time></trkpt><trkpt lat="44.4116733" lon="9.1652017"><ele>360.0</ele><time>2026-04-28T14:50:17.876Z</time></trkpt><trkpt lat="44.4117083" lon="9.165045"><ele>360.0</ele><time>2026-04-28T14:50:18.876Z</time></trkpt><trkpt lat="44.411785" lon="9.16491"><ele>360.0</ele><time>2026-04-28T14:50:19.877Z</time></trkpt><trkpt lat="44.4118833" lon="9.1648217"><ele>360.25</ele><time>2026-04-28T14:50:20.876Z</time></trkpt><trkpt lat="44.412" lon="9.164755"><ele>360.5</ele><time>2026-04-28T14:50:21.874Z</time></trkpt><trkpt lat="44.4121283" lon="9.1647217"><ele>360.75</ele><time>2026-04-28T14:50:22.876Z</time></trkpt><trkpt lat="44.4122617" lon="9.1646867"><ele>361.0</ele><time>2026-04-28T14:50:23.875Z</time></trkpt><trkpt lat="44.4124067" lon="9.1646333"><ele>361.0</ele><time>2026-04-28T14:50:24.874Z</time></trkpt><trkpt lat="44.4125533" lon="9.1645783"><ele>361.0</ele><time>2026-04-28T14:50:25.875Z</time></trkpt><trkpt lat="44.412695" lon="9.1645333"><ele>361.0</ele><time>2026-04-28T14:50:26.876Z</time></trkpt><trkpt lat="44.4128267" lon="9.1645117"><ele>361.0</ele><time>2026-04-28T14:50:27.873Z</time></trkpt><trkpt lat="44.4129417" lon="9.1644883"><ele>367.75</ele><time>2026-04-28T14:50:28.875Z</time></trkpt><trkpt lat="44.4130367" lon="9.164415"><ele>374.5</ele><time>2026-04-28T14:50:29.874Z</time></trkpt><trkpt lat="44.413115" lon="9.1642867"><ele>381.25</ele><time>2026-04-28T14:50:30.877Z</time></trkpt><trkpt lat="44.4131783" lon="9.1641217"><ele>388.0</ele><time>2026-04-28T14:50:31.874Z</time></trkpt><trkpt lat="44.4132317" lon="9.163955"><ele>388.0</ele><time>2026-04-28T14:50:32.876Z</time></trkpt><trkpt lat="44.41328" lon="9.1637933"><ele>388.0</ele><time>2026-04-28T14:50:33.875Z</time></trkpt><trkpt lat="44.413305" lon="9.1636283"><ele>388.0</ele><time>2026-04-28T14:50:34.874Z</time></trkpt><trkpt lat="44.413305" lon="9.1634667"><ele>388.0</ele><time>2026-04-28T14:50:35.875Z</time></trkpt><trkpt lat="44.4132933" lon="9.16331"><ele>387.79999999999995</ele><time>2026-04-28T14:50:36.874Z</time></trkpt><trkpt lat="44.41328" lon="9.16317"><ele>387.6</ele><time>2026-04-28T14:50:37.874Z</time></trkpt><trkpt lat="44.41326" lon="9.16305"><ele>387.4</ele><time>2026-04-28T14:50:38.875Z</time></trkpt><trkpt lat="44.4132433" lon="9.1629483"><ele>387.20000000000005</ele><time>2026-04-28T14:50:39.875Z</time></trkpt><trkpt lat="44.413285" lon="9.1630417"><ele>387.0</ele><time>2026-04-28T14:50:43.876Z</time></trkpt><trkpt lat="44.4133033" lon="9.1631933"><ele>387.20000000000005</ele><time>2026-04-28T14:50:44.876Z</time></trkpt><trkpt lat="44.4133217" lon="9.1633583"><ele>387.4</ele><time>2026-04-28T14:50:45.874Z</time></trkpt><trkpt lat="44.41334" lon="9.163525"><ele>387.6</ele><time>2026-04-28T14:50:46.872Z</time></trkpt><trkpt lat="44.4133417" lon="9.1636583"><ele>387.79999999999995</ele><time>2026-04-28T14:50:47.874Z</time></trkpt><trkpt lat="44.41331" lon="9.163785"><ele>388.0</ele><time>2026-04-28T14:50:48.875Z</time></trkpt><trkpt lat="44.4132667" lon="9.1639067"><ele>389.2</ele><time>2026-04-28T14:50:49.875Z</time></trkpt><trkpt lat="44.4132333" lon="9.1640317"><ele>390.4</ele><time>2026-04-28T14:50:50.876Z</time></trkpt><trkpt lat="44.4132217" lon="9.16416"><ele>391.59999999999997</ele><time>2026-04-28T14:50:51.875Z</time></trkpt><trkpt lat="44.4132333" lon="9.164325"><ele>392.79999999999995</ele><time>2026-04-28T14:50:52.876Z</time></trkpt><trkpt lat="44.4132533" lon="9.1645"><ele>394.0</ele><time>2026-04-28T14:50:53.875Z</time></trkpt><trkpt lat="44.4132567" lon="9.16467"><ele>394.0</ele><time>2026-04-28T14:50:54.876Z</time></trkpt><trkpt lat="44.413245" lon="9.164815"><ele>394.0</ele><time>2026-04-28T14:50:55.875Z</time></trkpt><trkpt lat="44.41321" lon="9.1649217"><ele>394.0</ele><time>2026-04-28T14:50:56.876Z</time></trkpt><trkpt lat="44.4131683" lon="9.1650083"><ele>394.0</ele><time>2026-04-28T14:50:57.874Z</time></trkpt><trkpt lat="44.4130483" lon="9.165045"><ele>394.0</ele><time>2026-04-28T14:50:59.876Z</time></trkpt><trkpt lat="44.4129883" lon="9.165105"><ele>392.5</ele><time>2026-04-28T14:51:00.876Z</time></trkpt><trkpt lat="44.412925" lon="9.165215"><ele>391.0</ele><time>2026-04-28T14:51:01.876Z</time></trkpt><trkpt lat="44.4128683" lon="9.1653583"><ele>389.5</ele><time>2026-04-28T14:51:02.871Z</time></trkpt><trkpt lat="44.412795" lon="9.1655167"><ele>388.0</ele><time>2026-04-28T14:51:03.875Z</time></trkpt><trkpt lat="44.412735" lon="9.1656733"><ele>390.0</ele><time>2026-04-28T14:51:04.874Z</time></trkpt><trkpt lat="44.412685" lon="9.165835"><ele>392.0</ele><time>2026-04-28T14:51:05.876Z</time></trkpt><trkpt lat="44.4126433" lon="9.1659917"><ele>394.0</ele><time>2026-04-28T14:51:06.876Z</time></trkpt><trkpt lat="44.4126083" lon="9.1661533"><ele>396.0</ele><time>2026-04-28T14:51:07.876Z</time></trkpt><trkpt lat="44.4125833" lon="9.16631"><ele>396.0</ele><time>2026-04-28T14:51:08.875Z</time></trkpt><trkpt lat="44.4125733" lon="9.16646"><ele>396.0</ele><time>2026-04-28T14:51:09.878Z</time></trkpt><trkpt lat="44.4125783" lon="9.1667283"><ele>396.0</ele><time>2026-04-28T14:51:11.877Z</time></trkpt><trkpt lat="44.4126017" lon="9.1668433"><ele>396.0</ele><time>2026-04-28T14:51:12.877Z</time></trkpt><trkpt lat="44.4126417" lon="9.1669367"><ele>397.3333333333333</ele><time>2026-04-28T14:51:13.875Z</time></trkpt><trkpt lat="44.4126783" lon="9.16701"><ele>398.66666666666663</ele><time>2026-04-28T14:51:14.876Z</time></trkpt><trkpt lat="44.4127383" lon="9.16716"><ele>400.0</ele><time>2026-04-28T14:51:16.874Z</time></trkpt><trkpt lat="44.412765" lon="9.167245"><ele>401.3333333333333</ele><time>2026-04-28T14:51:17.875Z</time></trkpt><trkpt lat="44.4127883" lon="9.1674117"><ele>402.66666666666663</ele><time>2026-04-28T14:51:19.875Z</time></trkpt><trkpt lat="44.4127933" lon="9.1675017"><ele>404.0</ele><time>2026-04-28T14:51:20.875Z</time></trkpt><trkpt lat="44.41281" lon="9.1675983"><ele>404.49999999999994</ele><time>2026-04-28T14:51:21.876Z</time></trkpt><trkpt lat="44.4128317" lon="9.1676817"><ele>405.0</ele><time>2026-04-28T14:51:22.875Z</time></trkpt><trkpt lat="44.4128917" lon="9.1678383"><ele>405.5</ele><time>2026-04-28T14:51:24.875Z</time></trkpt><trkpt lat="44.4129433" lon="9.1679167"><ele>406.0</ele><time>2026-04-28T14:51:25.874Z</time></trkpt><trkpt lat="44.413" lon="9.1679817"><ele>406.49999999999994</ele><time>2026-04-28T14:51:26.876Z</time></trkpt><trkpt lat="44.41306" lon="9.16803"><ele>407.0</ele><time>2026-04-28T14:51:27.876Z</time></trkpt><trkpt lat="44.4131283" lon="9.16808"><ele>410.66666666666663</ele><time>2026-04-28T14:51:28.877Z</time></trkpt><trkpt lat="44.413185" lon="9.1681417"><ele>414.3333333333333</ele><time>2026-04-28T14:51:29.874Z</time></trkpt><trkpt lat="44.41322" lon="9.1682167"><ele>418.0</ele><time>2026-04-28T14:51:30.877Z</time></trkpt><trkpt lat="44.4132383" lon="9.16836"><ele>421.66666666666663</ele><time>2026-04-28T14:51:32.873Z</time></trkpt><trkpt lat="44.4132617" lon="9.1684783"><ele>425.3333333333333</ele><time>2026-04-28T14:51:34.876Z</time></trkpt><trkpt lat="44.4133083" lon="9.1685383"><ele>429.0</ele><time>2026-04-28T14:51:36.878Z</time></trkpt><trkpt lat="44.4133967" lon="9.1686067"><ele>429.0</ele><time>2026-04-28T14:51:39.876Z</time></trkpt><trkpt lat="44.4134683" lon="9.1686633"><ele>429.0</ele><time>2026-04-28T14:51:41.877Z</time></trkpt><trkpt lat="44.4135817" lon="9.1688117"><ele>429.0</ele><time>2026-04-28T14:52:05.876Z</time></trkpt><trkpt lat="44.4135917" lon="9.168945"><ele>429.0</ele><time>2026-04-28T14:52:08.878Z</time></trkpt><trkpt lat="44.4135733" lon="9.1691217"><ele>430.0</ele><time>2026-04-28T14:52:10.876Z</time></trkpt><trkpt lat="44.413555" lon="9.1692633"><ele>431.0</ele><time>2026-04-28T14:52:12.876Z</time></trkpt><trkpt lat="44.4135633" lon="9.1693567"><ele>432.0</ele><time>2026-04-28T14:52:14.876Z</time></trkpt><trkpt lat="44.4136283" lon="9.16942"><ele>433.0</ele><time>2026-04-28T14:52:18.877Z</time></trkpt><trkpt lat="44.4136933" lon="9.1694433"><ele>434.0</ele><time>2026-04-28T14:52:22.876Z</time></trkpt><trkpt lat="44.413755" lon="9.16958"><ele>435.0</ele><time>2026-04-28T14:52:24.877Z</time></trkpt><trkpt lat="44.41381" lon="9.169715"><ele>440.3333333333333</ele><time>2026-04-28T14:52:26.877Z</time></trkpt><trkpt lat="44.4138533" lon="9.1698533"><ele>445.66666666666663</ele><time>2026-04-28T14:52:28.876Z</time></trkpt><trkpt lat="44.413895" lon="9.1700133"><ele>451.0</ele><time>2026-04-28T14:52:30.878Z</time></trkpt><trkpt lat="44.4139233" lon="9.1701033"><ele>456.3333333333333</ele><time>2026-04-28T14:52:31.875Z</time></trkpt><trkpt lat="44.4139433" lon="9.1701917"><ele>461.66666666666663</ele><time>2026-04-28T14:52:32.876Z</time></trkpt><trkpt lat="44.413965" lon="9.170275"><ele>467.0</ele><time>2026-04-28T14:52:33.874Z</time></trkpt><trkpt lat="44.4140133" lon="9.170435"><ele>468.8333333333333</ele><time>2026-04-28T14:52:35.875Z</time></trkpt><trkpt lat="44.41404" lon="9.1705217"><ele>470.66666666666663</ele><time>2026-04-28T14:52:36.877Z</time></trkpt><trkpt lat="44.41407" lon="9.1706583"><ele>472.5</ele><time>2026-04-28T14:52:38.876Z</time></trkpt><trkpt lat="44.4140867" lon="9.1708017"><ele>474.33333333333337</ele><time>2026-04-28T14:52:40.874Z</time></trkpt><trkpt lat="44.414105" lon="9.1709"><ele>476.1666666666667</ele><time>2026-04-28T14:52:42.876Z</time></trkpt><trkpt lat="44.41413" lon="9.1710033"><ele>478.0</ele><time>2026-04-28T14:52:45.879Z</time></trkpt><trkpt lat="44.4140983" lon="9.1710833"><ele>479.7142857142858</ele><time>2026-04-28T14:52:51.877Z</time></trkpt><trkpt lat="44.4140567" lon="9.171155"><ele>481.42857142857144</ele><time>2026-04-28T14:53:15.875Z</time></trkpt><trkpt lat="44.4140217" lon="9.17124"><ele>483.14285714285717</ele><time>2026-04-28T14:53:21.873Z</time></trkpt><trkpt lat="44.413985" lon="9.1713233"><ele>484.8571428571429</ele><time>2026-04-28T14:53:27.876Z</time></trkpt><trkpt lat="44.4139517" lon="9.1714133"><ele>486.57142857142856</ele><time>2026-04-28T14:53:33.872Z</time></trkpt><trkpt lat="44.4139333" lon="9.1714983"><ele>488.2857142857143</ele><time>2026-04-28T14:53:43.877Z</time></trkpt><trkpt lat="44.4138517" lon="9.1715483"><ele>490.0</ele><time>2026-04-28T14:54:38.879Z</time></trkpt><trkpt lat="44.4138633" lon="9.1716367"><ele>490.00000000000006</ele><time>2026-04-28T14:55:59.876Z</time></trkpt><trkpt lat="44.4138283" lon="9.1715417"><ele>490.0</ele><time>2026-04-28T14:56:46.877Z</time></trkpt><trkpt lat="44.4138033" lon="9.17143"><ele>490.0</ele><time>2026-04-28T14:56:49.876Z</time></trkpt><trkpt lat="44.4138167" lon="9.17133"><ele>490.0</ele><time>2026-04-28T14:56:52.876Z</time></trkpt><trkpt lat="44.413845" lon="9.1712067"><ele>490.00000000000006</ele><time>2026-04-28T14:56:55.874Z</time></trkpt><trkpt lat="44.413855" lon="9.1711067"><ele>490.0</ele><time>2026-04-28T14:56:57.874Z</time></trkpt><trkpt lat="44.4138483" lon="9.1710133"><ele>484.50000000000006</ele><time>2026-04-28T14:56:59.876Z</time></trkpt><trkpt lat="44.4138167" lon="9.1709317"><ele>479.0</ele><time>2026-04-28T14:57:06.876Z</time></trkpt><trkpt lat="44.4137617" lon="9.1708833"><ele>473.5</ele><time>2026-04-28T14:57:23.875Z</time></trkpt><trkpt lat="44.413685" lon="9.1708383"><ele>468.0</ele><time>2026-04-28T14:57:26.877Z</time></trkpt><trkpt lat="44.4136017" lon="9.170875"><ele>462.50000000000006</ele><time>2026-04-28T14:57:28.875Z</time></trkpt><trkpt lat="44.4135217" lon="9.170935"><ele>457.0</ele><time>2026-04-28T14:57:30.876Z</time></trkpt><trkpt lat="44.4134517" lon="9.1710133"><ele>457.00000000000006</ele><time>2026-04-28T14:57:32.875Z</time></trkpt><trkpt lat="44.4133867" lon="9.1711033"><ele>457.0</ele><time>2026-04-28T14:57:34.873Z</time></trkpt><trkpt lat="44.4133183" lon="9.1712333"><ele>457.0</ele><time>2026-04-28T14:57:36.877Z</time></trkpt><trkpt lat="44.41326" lon="9.1713167"><ele>457.0</ele><time>2026-04-28T14:57:38.876Z</time></trkpt><trkpt lat="44.4131967" lon="9.1713217"><ele>457.00000000000006</ele><time>2026-04-28T14:57:40.877Z</time></trkpt><trkpt lat="44.41313" lon="9.1712967"><ele>457.0</ele><time>2026-04-28T14:57:42.876Z</time></trkpt><trkpt lat="44.4130633" lon="9.17127"><ele>452.20000000000005</ele><time>2026-04-28T14:57:44.876Z</time></trkpt><trkpt lat="44.4129833" lon="9.17117"><ele>447.40000000000003</ele><time>2026-04-28T14:57:47.875Z</time></trkpt><trkpt lat="44.412935" lon="9.1710317"><ele>442.59999999999997</ele><time>2026-04-28T14:57:49.875Z</time></trkpt><trkpt lat="44.4129267" lon="9.1709267"><ele>437.79999999999995</ele><time>2026-04-28T14:57:50.879Z</time></trkpt><trkpt lat="44.4129317" lon="9.1708133"><ele>433.0</ele><time>2026-04-28T14:57:51.876Z</time></trkpt><trkpt lat="44.4129467" lon="9.1706833"><ele>430.50000000000006</ele><time>2026-04-28T14:57:52.875Z</time></trkpt><trkpt lat="44.4129733" lon="9.1705567"><ele>428.0</ele><time>2026-04-28T14:57:53.876Z</time></trkpt><trkpt lat="44.4129833" lon="9.17045"><ele>425.5</ele><time>2026-04-28T14:57:54.876Z</time></trkpt><trkpt lat="44.4129833" lon="9.170335"><ele>423.0</ele><time>2026-04-28T14:57:55.872Z</time></trkpt><trkpt lat="44.412965" lon="9.1702117"><ele>420.50000000000006</ele><time>2026-04-28T14:57:56.876Z</time></trkpt><trkpt lat="44.41293" lon="9.1701017"><ele>418.0</ele><time>2026-04-28T14:57:57.875Z</time></trkpt><trkpt lat="44.4129" lon="9.1699917"><ele>418.00000000000006</ele><time>2026-04-28T14:57:58.875Z</time></trkpt><trkpt lat="44.4128983" lon="9.1698767"><ele>418.0</ele><time>2026-04-28T14:57:59.876Z</time></trkpt><trkpt lat="44.41292" lon="9.169745"><ele>418.0</ele><time>2026-04-28T14:58:00.876Z</time></trkpt><trkpt lat="44.4129383" lon="9.169625"><ele>418.0</ele><time>2026-04-28T14:58:01.874Z</time></trkpt><trkpt lat="44.4129517" lon="9.16951"><ele>418.00000000000006</ele><time>2026-04-28T14:58:02.875Z</time></trkpt><trkpt lat="44.4129733" lon="9.1693883"><ele>418.0</ele><time>2026-04-28T14:58:03.878Z</time></trkpt><trkpt lat="44.4129933" lon="9.1692683"><ele>419.83333333333337</ele><time>2026-04-28T14:58:04.874Z</time></trkpt><trkpt lat="44.41302" lon="9.16915"><ele>421.6666666666667</ele><time>2026-04-28T14:58:05.878Z</time></trkpt><trkpt lat="44.4130567" lon="9.1690433"><ele>423.5</ele><time>2026-04-28T14:58:06.875Z</time></trkpt><trkpt lat="44.4131067" lon="9.168945"><ele>425.33333333333337</ele><time>2026-04-28T14:58:07.874Z</time></trkpt><trkpt lat="44.4131583" lon="9.16885"><ele>427.1666666666667</ele><time>2026-04-28T14:58:08.876Z</time></trkpt><trkpt lat="44.4132033" lon="9.168745"><ele>429.0</ele><time>2026-04-28T14:58:09.874Z</time></trkpt><trkpt lat="44.4132283" lon="9.1686383"><ele>429.0</ele><time>2026-04-28T14:58:10.875Z</time></trkpt><trkpt lat="44.4132283" lon="9.168535"><ele>429.0</ele><time>2026-04-28T14:58:11.875Z</time></trkpt><trkpt lat="44.4132217" lon="9.16843"><ele>429.0</ele><time>2026-04-28T14:58:12.874Z</time></trkpt><trkpt lat="44.4132083" lon="9.1683283"><ele>429.0</ele><time>2026-04-28T14:58:13.874Z</time></trkpt><trkpt lat="44.4131967" lon="9.168235"><ele>429.0</ele><time>2026-04-28T14:58:14.875Z</time></trkpt><trkpt lat="44.41315" lon="9.168105"><ele>429.0</ele><time>2026-04-28T14:58:16.874Z</time></trkpt><trkpt lat="44.41307" lon="9.1681167"><ele>429.0</ele><time>2026-04-28T14:58:19.876Z</time></trkpt><trkpt lat="44.4130317" lon="9.1683017"><ele>429.0</ele><time>2026-04-28T14:58:21.877Z</time></trkpt><trkpt lat="44.413025" lon="9.16841"><ele>429.0</ele><time>2026-04-28T14:58:22.876Z</time></trkpt><trkpt lat="44.4130133" lon="9.1685133"><ele>429.0</ele><time>2026-04-28T14:58:23.875Z</time></trkpt><trkpt lat="44.4129817" lon="9.1686083"><ele>429.0</ele><time>2026-04-28T14:58:24.874Z</time></trkpt><trkpt lat="44.4129183" lon="9.1686983"><ele>425.3333333333333</ele><time>2026-04-28T14:58:25.873Z</time></trkpt><trkpt lat="44.4128633" lon="9.168795"><ele>421.66666666666663</ele><time>2026-04-28T14:58:26.875Z</time></trkpt><trkpt lat="44.4128167" lon="9.168895"><ele>418.0</ele><time>2026-04-28T14:58:27.873Z</time></trkpt><trkpt lat="44.412775" lon="9.1689917"><ele>414.3333333333333</ele><time>2026-04-28T14:58:28.873Z</time></trkpt><trkpt lat="44.4127317" lon="9.16908"><ele>410.66666666666663</ele><time>2026-04-28T14:58:29.875Z</time></trkpt><trkpt lat="44.412685" lon="9.1691633"><ele>407.0</ele><time>2026-04-28T14:58:30.875Z</time></trkpt><trkpt lat="44.4126317" lon="9.1692283"><ele>406.99999999999994</ele><time>2026-04-28T14:58:31.875Z</time></trkpt><trkpt lat="44.4125717" lon="9.1692967"><ele>407.0</ele><time>2026-04-28T14:58:32.875Z</time></trkpt><trkpt lat="44.41253" lon="9.1693883"><ele>407.0</ele><time>2026-04-28T14:58:33.875Z</time></trkpt><trkpt lat="44.41251" lon="9.1694933"><ele>407.0</ele><time>2026-04-28T14:58:34.875Z</time></trkpt><trkpt lat="44.4124967" lon="9.16961"><ele>406.99999999999994</ele><time>2026-04-28T14:58:35.875Z</time></trkpt><trkpt lat="44.412485" lon="9.1697167"><ele>407.0</ele><time>2026-04-28T14:58:36.873Z</time></trkpt><trkpt lat="44.412465" lon="9.1698183"><ele>408.8333333333333</ele><time>2026-04-28T14:58:37.873Z</time></trkpt><trkpt lat="44.4124333" lon="9.1699283"><ele>410.66666666666663</ele><time>2026-04-28T14:58:38.875Z</time></trkpt><trkpt lat="44.412395" lon="9.170035"><ele>412.5</ele><time>2026-04-28T14:58:39.872Z</time></trkpt><trkpt lat="44.4123533" lon="9.1701333"><ele>414.33333333333337</ele><time>2026-04-28T14:58:40.874Z</time></trkpt><trkpt lat="44.4122983" lon="9.17021"><ele>416.1666666666667</ele><time>2026-04-28T14:58:41.874Z</time></trkpt><trkpt lat="44.4122233" lon="9.1702717"><ele>418.0</ele><time>2026-04-28T14:58:42.875Z</time></trkpt><trkpt lat="44.41214" lon="9.1703467"><ele>416.2</ele><time>2026-04-28T14:58:43.874Z</time></trkpt><trkpt lat="44.4120467" lon="9.1704317"><ele>414.4</ele><time>2026-04-28T14:58:44.875Z</time></trkpt><trkpt lat="44.4119583" lon="9.1705233"><ele>412.59999999999997</ele><time>2026-04-28T14:58:45.874Z</time></trkpt><trkpt lat="44.4118767" lon="9.1706083"><ele>410.79999999999995</ele><time>2026-04-28T14:58:46.874Z</time></trkpt><trkpt lat="44.4117983" lon="9.1706817"><ele>409.0</ele><time>2026-04-28T14:58:47.874Z</time></trkpt><trkpt lat="44.4117217" lon="9.1707383"><ele>409.0</ele><time>2026-04-28T14:58:48.876Z</time></trkpt><trkpt lat="44.4116467" lon="9.170785"><ele>409.0</ele><time>2026-04-28T14:58:49.875Z</time></trkpt><trkpt lat="44.4115717" lon="9.1708383"><ele>409.0</ele><time>2026-04-28T14:58:50.875Z</time></trkpt><trkpt lat="44.41148" lon="9.1709417"><ele>409.0</ele><time>2026-04-28T14:58:51.874Z</time></trkpt><trkpt lat="44.4113867" lon="9.1710583"><ele>409.0</ele><time>2026-04-28T14:58:52.874Z</time></trkpt><trkpt lat="44.4112967" lon="9.1711633"><ele>405.0</ele><time>2026-04-28T14:58:53.875Z</time></trkpt><trkpt lat="44.4112083" lon="9.1712517"><ele>401.0</ele><time>2026-04-28T14:58:54.876Z</time></trkpt><trkpt lat="44.4111317" lon="9.171335"><ele>397.0</ele><time>2026-04-28T14:58:55.877Z</time></trkpt><trkpt lat="44.4110683" lon="9.17142"><ele>393.0</ele><time>2026-04-28T14:58:56.874Z</time></trkpt><trkpt lat="44.4110167" lon="9.171525"><ele>389.0</ele><time>2026-04-28T14:58:57.874Z</time></trkpt><trkpt lat="44.4109817" lon="9.171645"><ele>389.0</ele><time>2026-04-28T14:58:58.874Z</time></trkpt><trkpt lat="44.4109733" lon="9.1717833"><ele>389.0</ele><time>2026-04-28T14:58:59.875Z</time></trkpt><trkpt lat="44.4109683" lon="9.17192"><ele>389.0</ele><time>2026-04-28T14:59:00.874Z</time></trkpt><trkpt lat="44.4109483" lon="9.1720517"><ele>389.0</ele><time>2026-04-28T14:59:01.884Z</time></trkpt><trkpt lat="44.4109067" lon="9.1721817"><ele>389.0</ele><time>2026-04-28T14:59:02.876Z</time></trkpt><trkpt lat="44.4108533" lon="9.1723"><ele>390.16666666666663</ele><time>2026-04-28T14:59:03.875Z</time></trkpt><trkpt lat="44.41079" lon="9.1724083"><ele>391.3333333333333</ele><time>2026-04-28T14:59:04.877Z</time></trkpt><trkpt lat="44.4107333" lon="9.1725117"><ele>392.5</ele><time>2026-04-28T14:59:05.876Z</time></trkpt><trkpt lat="44.4106967" lon="9.17262"><ele>393.66666666666663</ele><time>2026-04-28T14:59:06.875Z</time></trkpt><trkpt lat="44.410675" lon="9.1727383"><ele>394.8333333333333</ele><time>2026-04-28T14:59:07.874Z</time></trkpt><trkpt lat="44.41065" lon="9.1728483"><ele>396.0</ele><time>2026-04-28T14:59:08.874Z</time></trkpt><trkpt lat="44.41061" lon="9.1729467"><ele>396.0</ele><time>2026-04-28T14:59:09.875Z</time></trkpt><trkpt lat="44.4105483" lon="9.1730133"><ele>396.0</ele><time>2026-04-28T14:59:10.874Z</time></trkpt><trkpt lat="44.4104933" lon="9.17309"><ele>396.0</ele><time>2026-04-28T14:59:11.873Z</time></trkpt><trkpt lat="44.41043" lon="9.1731767"><ele>396.0</ele><time>2026-04-28T14:59:12.874Z</time></trkpt><trkpt lat="44.4103717" lon="9.1732833"><ele>396.0</ele><time>2026-04-28T14:59:13.874Z</time></trkpt><trkpt lat="44.4103217" lon="9.1734017"><ele>396.0</ele><time>2026-04-28T14:59:14.875Z</time></trkpt><trkpt lat="44.4102767" lon="9.1735267"><ele>394.6</ele><time>2026-04-28T14:59:15.874Z</time></trkpt><trkpt lat="44.410255" lon="9.1736583"><ele>393.20000000000005</ele><time>2026-04-28T14:59:16.875Z</time></trkpt><trkpt lat="44.4102483" lon="9.1737883"><ele>391.79999999999995</ele><time>2026-04-28T14:59:17.874Z</time></trkpt><trkpt lat="44.4102283" lon="9.1739017"><ele>390.4</ele><time>2026-04-28T14:59:18.874Z</time></trkpt><trkpt lat="44.4101983" lon="9.173985"><ele>389.0</ele><time>2026-04-28T14:59:19.874Z</time></trkpt><trkpt lat="44.4100633" lon="9.1740017"><ele>389.0</ele><time>2026-04-28T14:59:21.874Z</time></trkpt><trkpt lat="44.4099867" lon="9.1739583"><ele>389.0</ele><time>2026-04-28T14:59:22.875Z</time></trkpt><trkpt lat="44.4099067" lon="9.1738883"><ele>389.0</ele><time>2026-04-28T14:59:23.875Z</time></trkpt><trkpt lat="44.4098217" lon="9.1737967"><ele>389.0</ele><time>2026-04-28T14:59:24.874Z</time></trkpt><trkpt lat="44.4097133" lon="9.1736883"><ele>389.0</ele><time>2026-04-28T14:59:25.875Z</time></trkpt><trkpt lat="44.4096233" lon="9.1735983"><ele>388.0</ele><time>2026-04-28T14:59:26.874Z</time></trkpt><trkpt lat="44.4095133" lon="9.1735417"><ele>387.0</ele><time>2026-04-28T14:59:27.876Z</time></trkpt><trkpt lat="44.4094117" lon="9.1735283"><ele>386.0</ele><time>2026-04-28T14:59:28.874Z</time></trkpt><trkpt lat="44.409285" lon="9.173585"><ele>385.0</ele><time>2026-04-28T14:59:29.879Z</time></trkpt><trkpt lat="44.40914" lon="9.1736867"><ele>385.0</ele><time>2026-04-28T14:59:30.876Z</time></trkpt><trkpt lat="44.4090033" lon="9.1738033"><ele>385.0</ele><time>2026-04-28T14:59:31.875Z</time></trkpt><trkpt lat="44.40887" lon="9.1739333"><ele>385.0</ele><time>2026-04-28T14:59:32.875Z</time></trkpt><trkpt lat="44.4087417" lon="9.1740683"><ele>390.0</ele><time>2026-04-28T14:59:33.875Z</time></trkpt><trkpt lat="44.408615" lon="9.174225"><ele>395.0</ele><time>2026-04-28T14:59:34.876Z</time></trkpt><trkpt lat="44.4084933" lon="9.1743733"><ele>400.0</ele><time>2026-04-28T14:59:35.876Z</time></trkpt><trkpt lat="44.4084017" lon="9.1745183"><ele>400.0</ele><time>2026-04-28T14:59:36.873Z</time></trkpt><trkpt lat="44.408315" lon="9.1746367"><ele>400.0</ele><time>2026-04-28T14:59:37.874Z</time></trkpt><trkpt lat="44.4082233" lon="9.1747217"><ele>400.0</ele><time>2026-04-28T14:59:38.877Z</time></trkpt><trkpt lat="44.408125" lon="9.1747567"><ele>400.0</ele><time>2026-04-28T14:59:39.874Z</time></trkpt><trkpt lat="44.4080317" lon="9.1748067"><ele>400.0</ele><time>2026-04-28T14:59:40.874Z</time></trkpt><trkpt lat="44.4079517" lon="9.17489"><ele>402.25</ele><time>2026-04-28T14:59:41.875Z</time></trkpt><trkpt lat="44.4079017" lon="9.1750117"><ele>404.5</ele><time>2026-04-28T14:59:42.875Z</time></trkpt><trkpt lat="44.40789" lon="9.1751817"><ele>406.75</ele><time>2026-04-28T14:59:43.875Z</time></trkpt><trkpt lat="44.4078917" lon="9.1753667"><ele>409.0</ele><time>2026-04-28T14:59:44.875Z</time></trkpt><trkpt lat="44.4079033" lon="9.1755533"><ele>412.4</ele><time>2026-04-28T14:59:45.874Z</time></trkpt><trkpt lat="44.4079067" lon="9.1757283"><ele>415.79999999999995</ele><time>2026-04-28T14:59:46.874Z</time></trkpt><trkpt lat="44.4078833" lon="9.1758767"><ele>419.20000000000005</ele><time>2026-04-28T14:59:47.874Z</time></trkpt><trkpt lat="44.407835" lon="9.17599"><ele>422.6</ele><time>2026-04-28T14:59:48.875Z</time></trkpt><trkpt lat="44.4077633" lon="9.1760633"><ele>426.0</ele><time>2026-04-28T14:59:49.874Z</time></trkpt><trkpt lat="44.40768" lon="9.1761133"><ele>426.0</ele><time>2026-04-28T14:59:50.874Z</time></trkpt><trkpt lat="44.4075833" lon="9.176135"><ele>426.0</ele><time>2026-04-28T14:59:51.875Z</time></trkpt><trkpt lat="44.4074917" lon="9.1761483"><ele>426.0</ele><time>2026-04-28T14:59:52.874Z</time></trkpt><trkpt lat="44.407405" lon="9.1761117"><ele>426.0</ele><time>2026-04-28T14:59:53.875Z</time></trkpt><trkpt lat="44.4073183" lon="9.1761017"><ele>426.0</ele><time>2026-04-28T14:59:54.877Z</time></trkpt><trkpt lat="44.40724" lon="9.1761483"><ele>426.0</ele><time>2026-04-28T14:59:55.877Z</time></trkpt><trkpt lat="44.4071683" lon="9.1762583"><ele>426.0</ele><time>2026-04-28T14:59:56.875Z</time></trkpt><trkpt lat="44.4071167" lon="9.1763833"><ele>426.0</ele><time>2026-04-28T14:59:57.876Z</time></trkpt><trkpt lat="44.407095" lon="9.1765283"><ele>426.0</ele><time>2026-04-28T14:59:58.874Z</time></trkpt><trkpt lat="44.4071033" lon="9.1766767"><ele>426.0</ele><time>2026-04-28T14:59:59.874Z</time></trkpt><trkpt lat="44.4071083" lon="9.1768133"><ele>427.6</ele><time>2026-04-28T15:00:00.872Z</time></trkpt><trkpt lat="44.4070833" lon="9.1769267"><ele>429.20000000000005</ele><time>2026-04-28T15:00:01.871Z</time></trkpt><trkpt lat="44.407045" lon="9.1770283"><ele>430.79999999999995</ele><time>2026-04-28T15:00:02.875Z</time></trkpt><trkpt lat="44.4069817" lon="9.177085"><ele>432.4</ele><time>2026-04-28T15:00:03.875Z</time></trkpt><trkpt lat="44.40688" lon="9.1770617"><ele>434.0</ele><time>2026-04-28T15:00:04.875Z</time></trkpt><trkpt lat="44.4067633" lon="9.1770267"><ele>434.0</ele><time>2026-04-28T15:00:05.876Z</time></trkpt><trkpt lat="44.4066433" lon="9.1770067"><ele>434.0</ele><time>2026-04-28T15:00:06.876Z</time></trkpt><trkpt lat="44.4065267" lon="9.17701"><ele>434.0</ele><time>2026-04-28T15:00:07.875Z</time></trkpt><trkpt lat="44.40642" lon="9.1770917"><ele>434.0</ele><time>2026-04-28T15:00:08.876Z</time></trkpt><trkpt lat="44.4063033" lon="9.17718"><ele>433.75</ele><time>2026-04-28T15:00:09.876Z</time></trkpt><trkpt lat="44.4061833" lon="9.177245"><ele>433.5</ele><time>2026-04-28T15:00:10.887Z</time></trkpt><trkpt lat="44.4060767" lon="9.1772683"><ele>433.25</ele><time>2026-04-28T15:00:11.877Z</time></trkpt><trkpt lat="44.405965" lon="9.1772917"><ele>433.0</ele><time>2026-04-28T15:00:12.875Z</time></trkpt><trkpt lat="44.4058467" lon="9.1773483"><ele>437.0</ele><time>2026-04-28T15:00:13.876Z</time></trkpt><trkpt lat="44.4057417" lon="9.1774383"><ele>441.0</ele><time>2026-04-28T15:00:14.877Z</time></trkpt><trkpt lat="44.4056517" lon="9.1775383"><ele>445.0</ele><time>2026-04-28T15:00:15.876Z</time></trkpt><trkpt lat="44.405585" lon="9.1776633"><ele>449.0</ele><time>2026-04-28T15:00:16.877Z</time></trkpt><trkpt lat="44.4055433" lon="9.1778083"><ele>449.0</ele><time>2026-04-28T15:00:17.876Z</time></trkpt><trkpt lat="44.4055017" lon="9.1779767"><ele>449.0</ele><time>2026-04-28T15:00:18.874Z</time></trkpt><trkpt lat="44.405465" lon="9.178155"><ele>449.0</ele><time>2026-04-28T15:00:19.878Z</time></trkpt><trkpt lat="44.405445" lon="9.1783367"><ele>449.0</ele><time>2026-04-28T15:00:20.877Z</time></trkpt><trkpt lat="44.4054417" lon="9.1785183"><ele>446.79999999999995</ele><time>2026-04-28T15:00:21.875Z</time></trkpt><trkpt lat="44.405455" lon="9.1786833"><ele>444.59999999999997</ele><time>2026-04-28T15:00:22.876Z</time></trkpt><trkpt lat="44.4054817" lon="9.1788217"><ele>442.4</ele><time>2026-04-28T15:00:23.875Z</time></trkpt><trkpt lat="44.4055367" lon="9.1789333"><ele>440.2</ele><time>2026-04-28T15:00:24.876Z</time></trkpt><trkpt lat="44.40562" lon="9.1790383"><ele>438.0</ele><time>2026-04-28T15:00:25.877Z</time></trkpt><trkpt lat="44.405715" lon="9.1791583"><ele>445.2</ele><time>2026-04-28T15:00:26.875Z</time></trkpt><trkpt lat="44.4058117" lon="9.1792917"><ele>452.4</ele><time>2026-04-28T15:00:27.875Z</time></trkpt><trkpt lat="44.4058967" lon="9.1793867"><ele>459.59999999999997</ele><time>2026-04-28T15:00:28.876Z</time></trkpt><trkpt lat="44.4059583" lon="9.1794567"><ele>466.79999999999995</ele><time>2026-04-28T15:00:29.876Z</time></trkpt><trkpt lat="44.4060133" lon="9.17952"><ele>474.0</ele><time>2026-04-28T15:00:30.877Z</time></trkpt><trkpt lat="44.4060883" lon="9.17956"><ele>474.0</ele><time>2026-04-28T15:00:32.875Z</time></trkpt><trkpt lat="44.4060467" lon="9.1793467"><ele>474.0</ele><time>2026-04-28T15:00:34.874Z</time></trkpt><trkpt lat="44.4060217" lon="9.1792417"><ele>474.0</ele><time>2026-04-28T15:00:35.876Z</time></trkpt><trkpt lat="44.40607" lon="9.1790967"><ele>474.0</ele><time>2026-04-28T15:00:37.876Z</time></trkpt><trkpt lat="44.4061483" lon="9.17916"><ele>474.0</ele><time>2026-04-28T15:00:40.875Z</time></trkpt><trkpt lat="44.40618" lon="9.1792883"><ele>474.0</ele><time>2026-04-28T15:00:41.875Z</time></trkpt><trkpt lat="44.406215" lon="9.1793933"><ele>474.0</ele><time>2026-04-28T15:00:42.876Z</time></trkpt><trkpt lat="44.4062417" lon="9.1795033"><ele>474.0</ele><time>2026-04-28T15:00:43.876Z</time></trkpt><trkpt lat="44.406245" lon="9.1796117"><ele>474.0</ele><time>2026-04-28T15:00:44.877Z</time></trkpt><trkpt lat="44.4062333" lon="9.1797167"><ele>474.0</ele><time>2026-04-28T15:00:45.876Z</time></trkpt><trkpt lat="44.40618" lon="9.1798367"><ele>474.0</ele><time>2026-04-28T15:00:46.875Z</time></trkpt><trkpt lat="44.406105" lon="9.17997"><ele>476.79999999999995</ele><time>2026-04-28T15:00:47.876Z</time></trkpt><trkpt lat="44.406045" lon="9.1800983"><ele>479.59999999999997</ele><time>2026-04-28T15:00:48.877Z</time></trkpt><trkpt lat="44.4059967" lon="9.18021"><ele>482.4</ele><time>2026-04-28T15:00:49.875Z</time></trkpt><trkpt lat="44.4059517" lon="9.1803017"><ele>485.2</ele><time>2026-04-28T15:00:50.876Z</time></trkpt><trkpt lat="44.4058667" lon="9.1803867"><ele>488.0</ele><time>2026-04-28T15:00:52.876Z</time></trkpt><trkpt lat="44.4057567" lon="9.1804617"><ele>487.99999999999994</ele><time>2026-04-28T15:00:54.877Z</time></trkpt><trkpt lat="44.40569" lon="9.180495"><ele>488.0</ele><time>2026-04-28T15:00:55.875Z</time></trkpt><trkpt lat="44.40563" lon="9.180535"><ele>488.0</ele><time>2026-04-28T15:00:56.877Z</time></trkpt><trkpt lat="44.4055283" lon="9.1806383"><ele>488.0</ele><time>2026-04-28T15:00:58.875Z</time></trkpt><trkpt lat="44.4054767" lon="9.180695"><ele>487.99999999999994</ele><time>2026-04-28T15:00:59.876Z</time></trkpt><trkpt lat="44.405425" lon="9.1807517"><ele>488.0</ele><time>2026-04-28T15:01:00.876Z</time></trkpt><trkpt lat="44.405375" lon="9.1808067"><ele>485.79999999999995</ele><time>2026-04-28T15:01:01.875Z</time></trkpt><trkpt lat="44.4053033" lon="9.18097"><ele>483.59999999999997</ele><time>2026-04-28T15:01:03.876Z</time></trkpt><trkpt lat="44.4052833" lon="9.1810717"><ele>481.40000000000003</ele><time>2026-04-28T15:01:04.876Z</time></trkpt><trkpt lat="44.4052617" lon="9.181165"><ele>479.20000000000005</ele><time>2026-04-28T15:01:05.875Z</time></trkpt><trkpt lat="44.4052383" lon="9.1812533"><ele>477.0</ele><time>2026-04-28T15:01:06.877Z</time></trkpt><trkpt lat="44.4051883" lon="9.181385"><ele>477.0</ele><time>2026-04-28T15:01:08.876Z</time></trkpt><trkpt lat="44.4051167" lon="9.1814317"><ele>477.00000000000006</ele><time>2026-04-28T15:01:10.875Z</time></trkpt><trkpt lat="44.4050317" lon="9.18145"><ele>477.00000000000006</ele><time>2026-04-28T15:01:13.877Z</time></trkpt><trkpt lat="44.4049917" lon="9.1813367"><ele>477.0</ele><time>2026-04-28T15:01:15.876Z</time></trkpt><trkpt lat="44.4049683" lon="9.1811867"><ele>477.0</ele><time>2026-04-28T15:01:17.877Z</time></trkpt><trkpt lat="44.4049283" lon="9.1810517"><ele>477.0</ele><time>2026-04-28T15:01:19.874Z</time></trkpt><trkpt lat="44.404865" lon="9.1809767"><ele>477.0</ele><time>2026-04-28T15:01:21.875Z</time></trkpt><trkpt lat="44.4047733" lon="9.1809533"><ele>477.0</ele><time>2026-04-28T15:01:23.875Z</time></trkpt><trkpt lat="44.4047167" lon="9.1809083"><ele>477.0</ele><time>2026-04-28T15:01:25.875Z</time></trkpt><trkpt lat="44.4047017" lon="9.1808183"><ele>477.0</ele><time>2026-04-28T15:01:27.877Z</time></trkpt><trkpt lat="44.404665" lon="9.1806917"><ele>477.0</ele><time>2026-04-28T15:01:29.876Z</time></trkpt><trkpt lat="44.404635" lon="9.180545"><ele>478.6</ele><time>2026-04-28T15:01:31.879Z</time></trkpt><trkpt lat="44.4046367" lon="9.1803867"><ele>480.20000000000005</ele><time>2026-04-28T15:01:33.876Z</time></trkpt><trkpt lat="44.4046233" lon="9.18024"><ele>481.8</ele><time>2026-04-28T15:01:35.874Z</time></trkpt><trkpt lat="44.4045567" lon="9.18013"><ele>483.4</ele><time>2026-04-28T15:01:37.874Z</time></trkpt><trkpt lat="44.4045067" lon="9.1800733"><ele>485.0</ele><time>2026-04-28T15:01:38.876Z</time></trkpt><trkpt lat="44.40443" lon="9.1799683"><ele>485.0</ele><time>2026-04-28T15:01:40.875Z</time></trkpt><trkpt lat="44.4043833" lon="9.1798517"><ele>485.0</ele><time>2026-04-28T15:01:42.873Z</time></trkpt><trkpt lat="44.4043033" lon="9.1797483"><ele>485.0</ele><time>2026-04-28T15:01:44.875Z</time></trkpt><trkpt lat="44.4042683" lon="9.17964"><ele>485.0</ele><time>2026-04-28T15:01:46.874Z</time></trkpt><trkpt lat="44.4042917" lon="9.1795183"><ele>485.0</ele><time>2026-04-28T15:01:48.876Z</time></trkpt><trkpt lat="44.4043067" lon="9.179405"><ele>481.8333333333333</ele><time>2026-04-28T15:01:50.875Z</time></trkpt><trkpt lat="44.4043017" lon="9.1792383"><ele>478.66666666666663</ele><time>2026-04-28T15:01:52.873Z</time></trkpt><trkpt lat="44.4042667" lon="9.1791317"><ele>475.5</ele><time>2026-04-28T15:01:54.878Z</time></trkpt><trkpt lat="44.4042" lon="9.179105"><ele>472.33333333333337</ele><time>2026-04-28T15:01:56.876Z</time></trkpt><trkpt lat="44.40413" lon="9.1790967"><ele>469.1666666666667</ele><time>2026-04-28T15:01:57.874Z</time></trkpt><trkpt lat="44.4040533" lon="9.17909"><ele>466.0</ele><time>2026-04-28T15:01:58.873Z</time></trkpt><trkpt lat="44.4039383" lon="9.1790267"><ele>466.00000000000006</ele><time>2026-04-28T15:02:00.877Z</time></trkpt><trkpt lat="44.4038833" lon="9.1789683"><ele>466.0</ele><time>2026-04-28T15:02:01.876Z</time></trkpt><trkpt lat="44.4038383" lon="9.1789"><ele>466.0</ele><time>2026-04-28T15:02:02.875Z</time></trkpt><trkpt lat="44.40373" lon="9.1787917"><ele>466.0</ele><time>2026-04-28T15:02:04.875Z</time></trkpt><trkpt lat="44.4036717" lon="9.1787333"><ele>466.00000000000006</ele><time>2026-04-28T15:02:05.876Z</time></trkpt><trkpt lat="44.4036167" lon="9.17866"><ele>466.0</ele><time>2026-04-28T15:02:06.877Z</time></trkpt><trkpt lat="44.403575" lon="9.17858"><ele>466.00000000000006</ele><time>2026-04-28T15:02:07.875Z</time></trkpt><trkpt lat="44.4035367" lon="9.17849"><ele>466.0</ele><time>2026-04-28T15:02:08.876Z</time></trkpt><trkpt lat="44.40349" lon="9.1784033"><ele>466.0</ele><time>2026-04-28T15:02:09.876Z</time></trkpt><trkpt lat="44.403455" lon="9.1782967"><ele>466.0</ele><time>2026-04-28T15:02:10.876Z</time></trkpt><trkpt lat="44.4034317" lon="9.1782017"><ele>466.00000000000006</ele><time>2026-04-28T15:02:11.875Z</time></trkpt><trkpt lat="44.4033967" lon="9.178125"><ele>466.0</ele><time>2026-04-28T15:02:12.88Z</time></trkpt><trkpt lat="44.4033217" lon="9.1779817"><ele>463.0</ele><time>2026-04-28T15:02:14.876Z</time></trkpt><trkpt lat="44.4032517" lon="9.1778817"><ele>460.0</ele><time>2026-04-28T15:02:16.876Z</time></trkpt><trkpt lat="44.403205" lon="9.17776"><ele>457.0</ele><time>2026-04-28T15:02:19.876Z</time></trkpt><trkpt lat="44.4031517" lon="9.1776083"><ele>454.0</ele><time>2026-04-28T15:02:21.875Z</time></trkpt><trkpt lat="44.4031383" lon="9.1775067"><ele>451.0</ele><time>2026-04-28T15:02:22.875Z</time></trkpt><trkpt lat="44.4031217" lon="9.1773967"><ele>451.50000000000006</ele><time>2026-04-28T15:02:23.876Z</time></trkpt><trkpt lat="44.4031117" lon="9.1773"><ele>452.0</ele><time>2026-04-28T15:02:24.876Z</time></trkpt><trkpt lat="44.4031083" lon="9.1772117"><ele>452.5</ele><time>2026-04-28T15:02:25.875Z</time></trkpt><trkpt lat="44.4030767" lon="9.1770533"><ele>453.0</ele><time>2026-04-28T15:02:27.876Z</time></trkpt><trkpt lat="44.403045" lon="9.176945"><ele>453.50000000000006</ele><time>2026-04-28T15:02:28.877Z</time></trkpt><trkpt lat="44.40303" lon="9.1768583"><ele>454.0</ele><time>2026-04-28T15:02:29.874Z</time></trkpt><trkpt lat="44.402995" lon="9.1767267"><ele>454.0</ele><time>2026-04-28T15:02:31.877Z</time></trkpt><trkpt lat="44.4029317" lon="9.1765917"><ele>454.0</ele><time>2026-04-28T15:02:33.875Z</time></trkpt><trkpt lat="44.40286" lon="9.176455"><ele>454.0</ele><time>2026-04-28T15:02:35.873Z</time></trkpt><trkpt lat="44.40282" lon="9.1763767"><ele>454.0</ele><time>2026-04-28T15:02:36.877Z</time></trkpt><trkpt lat="44.402775" lon="9.1762367"><ele>454.0</ele><time>2026-04-28T15:02:38.876Z</time></trkpt><trkpt lat="44.4027333" lon="9.1760833"><ele>453.00000000000006</ele><time>2026-04-28T15:02:40.874Z</time></trkpt><trkpt lat="44.4026833" lon="9.17595"><ele>452.0</ele><time>2026-04-28T15:02:42.877Z</time></trkpt><trkpt lat="44.4026183" lon="9.1758883"><ele>451.0</ele><time>2026-04-28T15:02:44.877Z</time></trkpt><trkpt lat="44.402555" lon="9.175915"><ele>450.0</ele><time>2026-04-28T15:02:54.875Z</time></trkpt><trkpt lat="44.4025717" lon="9.1760217"><ele>449.00000000000006</ele><time>2026-04-28T15:02:58.876Z</time></trkpt><trkpt lat="44.4025417" lon="9.1761167"><ele>448.0</ele><time>2026-04-28T15:03:00.879Z</time></trkpt><trkpt lat="44.402515" lon="9.1762883"><ele>448.0</ele><time>2026-04-28T15:03:02.876Z</time></trkpt><trkpt lat="44.40249" lon="9.1764533"><ele>447.99999999999994</ele><time>2026-04-28T15:03:04.876Z</time></trkpt><trkpt lat="44.4024833" lon="9.1765417"><ele>447.99999999999994</ele><time>2026-04-28T15:03:05.876Z</time></trkpt><trkpt lat="44.402485" lon="9.1767"><ele>448.0</ele><time>2026-04-28T15:03:07.876Z</time></trkpt><trkpt lat="44.4025183" lon="9.176835"><ele>448.0</ele><time>2026-04-28T15:03:09.876Z</time></trkpt><trkpt lat="44.4025817" lon="9.1769783"><ele>448.8571428571429</ele><time>2026-04-28T15:03:11.875Z</time></trkpt><trkpt lat="44.4026067" lon="9.1770617"><ele>449.7142857142857</ele><time>2026-04-28T15:03:12.874Z</time></trkpt><trkpt lat="44.4026317" lon="9.1771533"><ele>450.57142857142856</ele><time>2026-04-28T15:03:13.871Z</time></trkpt><trkpt lat="44.402655" lon="9.177245"><ele>451.42857142857144</ele><time>2026-04-28T15:03:14.872Z</time></trkpt><trkpt lat="44.40268" lon="9.177335"><ele>452.28571428571433</ele><time>2026-04-28T15:03:15.875Z</time></trkpt><trkpt lat="44.4027117" lon="9.1774133"><ele>453.14285714285717</ele><time>2026-04-28T15:03:16.876Z</time></trkpt><trkpt lat="44.402745" lon="9.1775"><ele>454.0</ele><time>2026-04-28T15:03:17.876Z</time></trkpt><trkpt lat="44.4027767" lon="9.1775983"><ele>454.0</ele><time>2026-04-28T15:03:18.877Z</time></trkpt><trkpt lat="44.4028" lon="9.1776983"><ele>454.0</ele><time>2026-04-28T15:03:19.876Z</time></trkpt><trkpt lat="44.4028233" lon="9.1777833"><ele>454.0</ele><time>2026-04-28T15:03:20.876Z</time></trkpt><trkpt lat="44.402845" lon="9.17793"><ele>454.0</ele><time>2026-04-28T15:03:22.875Z</time></trkpt><trkpt lat="44.4028567" lon="9.17806"><ele>454.0</ele><time>2026-04-28T15:03:24.88Z</time></trkpt><trkpt lat="44.4028833" lon="9.1782267"><ele>454.1666666666667</ele><time>2026-04-28T15:03:26.877Z</time></trkpt><trkpt lat="44.4029167" lon="9.1783467"><ele>454.33333333333337</ele><time>2026-04-28T15:03:28.872Z</time></trkpt><trkpt lat="44.4029583" lon="9.1784417"><ele>454.5</ele><time>2026-04-28T15:03:30.876Z</time></trkpt><trkpt lat="44.4029733" lon="9.1785683"><ele>454.66666666666663</ele><time>2026-04-28T15:03:32.874Z</time></trkpt><trkpt lat="44.402975" lon="9.1786633"><ele>454.8333333333333</ele><time>2026-04-28T15:03:33.876Z</time></trkpt><trkpt lat="44.402975" lon="9.17876"><ele>455.0</ele><time>2026-04-28T15:03:34.873Z</time></trkpt><trkpt lat="44.4029733" lon="9.178895"><ele>456.8333333333333</ele><time>2026-04-28T15:03:36.876Z</time></trkpt><trkpt lat="44.4030017" lon="9.1789767"><ele>458.66666666666663</ele><time>2026-04-28T15:03:38.876Z</time></trkpt><trkpt lat="44.403055" lon="9.1790533"><ele>460.5</ele><time>2026-04-28T15:03:40.876Z</time></trkpt><trkpt lat="44.4031167" lon="9.1791133"><ele>462.33333333333337</ele><time>2026-04-28T15:03:42.875Z</time></trkpt><trkpt lat="44.40319" lon="9.179245"><ele>464.1666666666667</ele><time>2026-04-28T15:03:44.875Z</time></trkpt><trkpt lat="44.4032417" lon="9.17931"><ele>466.0</ele><time>2026-04-28T15:03:45.877Z</time></trkpt><trkpt lat="44.4033017" lon="9.1793683"><ele>470.00000000000006</ele><time>2026-04-28T15:03:46.875Z</time></trkpt><trkpt lat="44.40336" lon="9.1794383"><ele>474.0</ele><time>2026-04-28T15:03:47.876Z</time></trkpt><trkpt lat="44.4034133" lon="9.179505"><ele>478.0</ele><time>2026-04-28T15:03:48.877Z</time></trkpt><trkpt lat="44.403465" lon="9.1795783"><ele>482.0</ele><time>2026-04-28T15:03:49.876Z</time></trkpt><trkpt lat="44.4035383" lon="9.179695"><ele>486.00000000000006</ele><time>2026-04-28T15:03:51.876Z</time></trkpt><trkpt lat="44.4035733" lon="9.1797967"><ele>490.0</ele><time>2026-04-28T15:03:53.876Z</time></trkpt><trkpt lat="44.4035983" lon="9.1799283"><ele>489.0</ele><time>2026-04-28T15:03:55.876Z</time></trkpt><trkpt lat="44.4036517" lon="9.1800617"><ele>488.0</ele><time>2026-04-28T15:03:57.876Z</time></trkpt><trkpt lat="44.40372" lon="9.1802"><ele>487.0</ele><time>2026-04-28T15:03:59.875Z</time></trkpt><trkpt lat="44.403765" lon="9.1802633"><ele>486.0</ele><time>2026-04-28T15:04:00.875Z</time></trkpt><trkpt lat="44.4038517" lon="9.18041"><ele>485.0</ele><time>2026-04-28T15:04:02.877Z</time></trkpt><trkpt lat="44.4038933" lon="9.180495"><ele>485.0</ele><time>2026-04-28T15:04:03.876Z</time></trkpt><trkpt lat="44.4039183" lon="9.1805783"><ele>485.0</ele><time>2026-04-28T15:04:04.875Z</time></trkpt><trkpt lat="44.4039233" lon="9.18077"><ele>485.0</ele><time>2026-04-28T15:04:06.875Z</time></trkpt><trkpt lat="44.4039267" lon="9.1808933"><ele>485.0</ele><time>2026-04-28T15:04:07.873Z</time></trkpt><trkpt lat="44.4039333" lon="9.1810133"><ele>485.0</ele><time>2026-04-28T15:04:08.876Z</time></trkpt><trkpt lat="44.40394" lon="9.1811183"><ele>488.66666666666663</ele><time>2026-04-28T15:04:09.875Z</time></trkpt><trkpt lat="44.4039433" lon="9.181215"><ele>492.3333333333333</ele><time>2026-04-28T15:04:10.875Z</time></trkpt><trkpt lat="44.4039417" lon="9.1813733"><ele>496.0</ele><time>2026-04-28T15:04:12.876Z</time></trkpt><trkpt lat="44.4039267" lon="9.1814983"><ele>499.66666666666663</ele><time>2026-04-28T15:04:14.877Z</time></trkpt><trkpt lat="44.4039083" lon="9.181615"><ele>503.3333333333333</ele><time>2026-04-28T15:04:16.874Z</time></trkpt><trkpt lat="44.4039" lon="9.1817267"><ele>507.0</ele><time>2026-04-28T15:04:18.876Z</time></trkpt><trkpt lat="44.403905" lon="9.1818233"><ele>509.5</ele><time>2026-04-28T15:04:20.879Z</time></trkpt><trkpt lat="44.4038933" lon="9.1819267"><ele>512.0</ele><time>2026-04-28T15:04:22.876Z</time></trkpt><trkpt lat="44.4039183" lon="9.182015"><ele>514.5</ele><time>2026-04-28T15:04:25.879Z</time></trkpt><trkpt lat="44.4039633" lon="9.1821383"><ele>517.0</ele><time>2026-04-28T15:04:28.875Z</time></trkpt><trkpt lat="44.40399" lon="9.1822283"><ele>519.5</ele><time>2026-04-28T15:04:30.877Z</time></trkpt><trkpt lat="44.4040117" lon="9.1823417"><ele>522.0</ele><time>2026-04-28T15:04:32.877Z</time></trkpt><trkpt lat="44.404005" lon="9.182435"><ele>526.25</ele><time>2026-04-28T15:04:33.875Z</time></trkpt><trkpt lat="44.4039717" lon="9.1825917"><ele>530.5</ele><time>2026-04-28T15:04:35.876Z</time></trkpt><trkpt lat="44.4039867" lon="9.1827533"><ele>534.75</ele><time>2026-04-28T15:04:37.877Z</time></trkpt><trkpt lat="44.4040367" lon="9.18291"><ele>539.0</ele><time>2026-04-28T15:04:39.875Z</time></trkpt><trkpt lat="44.404085" lon="9.1830683"><ele>539.0</ele><time>2026-04-28T15:04:41.875Z</time></trkpt><trkpt lat="44.40412" lon="9.1831517"><ele>539.0</ele><time>2026-04-28T15:04:42.877Z</time></trkpt><trkpt lat="44.40416" lon="9.183235"><ele>539.0</ele><time>2026-04-28T15:04:43.875Z</time></trkpt><trkpt lat="44.4042017" lon="9.1833283"><ele>539.0</ele><time>2026-04-28T15:04:44.876Z</time></trkpt><trkpt lat="44.4042367" lon="9.1834317"><ele>539.0</ele><time>2026-04-28T15:04:45.877Z</time></trkpt><trkpt lat="44.4042617" lon="9.1835467"><ele>539.0</ele><time>2026-04-28T15:04:46.876Z</time></trkpt><trkpt lat="44.4042833" lon="9.1836683"><ele>539.3333333333333</ele><time>2026-04-28T15:04:47.875Z</time></trkpt><trkpt lat="44.4042983" lon="9.1837883"><ele>539.6666666666666</ele><time>2026-04-28T15:04:48.877Z</time></trkpt><trkpt lat="44.4043133" lon="9.183895"><ele>540.0</ele><time>2026-04-28T15:04:49.877Z</time></trkpt><trkpt lat="44.40433" lon="9.183985"><ele>540.3333333333334</ele><time>2026-04-28T15:04:50.875Z</time></trkpt><trkpt lat="44.40437" lon="9.184085"><ele>540.6666666666667</ele><time>2026-04-28T15:04:51.877Z</time></trkpt><trkpt lat="44.40443" lon="9.1841783"><ele>541.0</ele><time>2026-04-28T15:04:52.875Z</time></trkpt><trkpt lat="44.4045067" lon="9.1842583"><ele>537.2</ele><time>2026-04-28T15:04:53.877Z</time></trkpt><trkpt lat="44.4045867" lon="9.18433"><ele>533.4000000000001</ele><time>2026-04-28T15:04:54.876Z</time></trkpt><trkpt lat="44.4046633" lon="9.1844067"><ele>529.6</ele><time>2026-04-28T15:04:55.876Z</time></trkpt><trkpt lat="44.4047367" lon="9.184485"><ele>525.8000000000001</ele><time>2026-04-28T15:04:56.878Z</time></trkpt><trkpt lat="44.4048083" lon="9.1845767"><ele>522.0</ele><time>2026-04-28T15:04:57.88Z</time></trkpt><trkpt lat="44.4048767" lon="9.184675"><ele>523.0</ele><time>2026-04-28T15:04:58.875Z</time></trkpt><trkpt lat="44.4049417" lon="9.1847833"><ele>524.0</ele><time>2026-04-28T15:04:59.874Z</time></trkpt><trkpt lat="44.405" lon="9.184885"><ele>525.0</ele><time>2026-04-28T15:05:00.875Z</time></trkpt><trkpt lat="44.4050533" lon="9.18499"><ele>526.0</ele><time>2026-04-28T15:05:01.874Z</time></trkpt><trkpt lat="44.4050883" lon="9.1850917"><ele>527.0</ele><time>2026-04-28T15:05:02.877Z</time></trkpt><trkpt lat="44.4051033" lon="9.1852033"><ele>528.0</ele><time>2026-04-28T15:05:03.876Z</time></trkpt><trkpt lat="44.40511" lon="9.18532"><ele>528.0</ele><time>2026-04-28T15:05:04.876Z</time></trkpt><trkpt lat="44.4051333" lon="9.1854417"><ele>528.0</ele><time>2026-04-28T15:05:05.876Z</time></trkpt><trkpt lat="44.4051767" lon="9.18556"><ele>528.0</ele><time>2026-04-28T15:05:06.876Z</time></trkpt><trkpt lat="44.40522" lon="9.185685"><ele>528.0</ele><time>2026-04-28T15:05:07.878Z</time></trkpt><trkpt lat="44.4052433" lon="9.1858117"><ele>528.0</ele><time>2026-04-28T15:05:08.876Z</time></trkpt><trkpt lat="44.405245" lon="9.1859383"><ele>524.0</ele><time>2026-04-28T15:05:09.875Z</time></trkpt><trkpt lat="44.4052433" lon="9.1860717"><ele>520.0</ele><time>2026-04-28T15:05:10.876Z</time></trkpt><trkpt lat="44.405245" lon="9.186205"><ele>516.0</ele><time>2026-04-28T15:05:11.876Z</time></trkpt><trkpt lat="44.4052667" lon="9.18634"><ele>512.0</ele><time>2026-04-28T15:05:12.876Z</time></trkpt><trkpt lat="44.4052933" lon="9.186475"><ele>508.0</ele><time>2026-04-28T15:05:13.877Z</time></trkpt><trkpt lat="44.4053233" lon="9.1866133"><ele>505.79999999999995</ele><time>2026-04-28T15:05:14.876Z</time></trkpt><trkpt lat="44.4053483" lon="9.1867517"><ele>503.59999999999997</ele><time>2026-04-28T15:05:15.875Z</time></trkpt><trkpt lat="44.4053767" lon="9.1868917"><ele>501.40000000000003</ele><time>2026-04-28T15:05:16.878Z</time></trkpt><trkpt lat="44.4054217" lon="9.187035"><ele>499.20000000000005</ele><time>2026-04-28T15:05:17.877Z</time></trkpt><trkpt lat="44.40546" lon="9.1871667"><ele>497.0</ele><time>2026-04-28T15:05:18.875Z</time></trkpt><trkpt lat="44.4055033" lon="9.1872917"><ele>500.66666666666663</ele><time>2026-04-28T15:05:19.876Z</time></trkpt><trkpt lat="44.4055433" lon="9.18742"><ele>504.3333333333333</ele><time>2026-04-28T15:05:20.876Z</time></trkpt><trkpt lat="44.4055817" lon="9.1875433"><ele>508.0</ele><time>2026-04-28T15:05:21.877Z</time></trkpt><trkpt lat="44.4056133" lon="9.1876417"><ele>511.66666666666663</ele><time>2026-04-28T15:05:22.875Z</time></trkpt><trkpt lat="44.40564" lon="9.1877333"><ele>515.3333333333334</ele><time>2026-04-28T15:05:23.876Z</time></trkpt><trkpt lat="44.4056633" lon="9.187855"><ele>519.0</ele><time>2026-04-28T15:05:25.877Z</time></trkpt><trkpt lat="44.4057117" lon="9.1879767"><ele>519.0</ele><time>2026-04-28T15:05:27.875Z</time></trkpt><trkpt lat="44.4057783" lon="9.1881133"><ele>519.0</ele><time>2026-04-28T15:05:29.875Z</time></trkpt><trkpt lat="44.405855" lon="9.18824"><ele>519.0</ele><time>2026-04-28T15:05:31.876Z</time></trkpt><trkpt lat="44.4059117" lon="9.1883617"><ele>519.0</ele><time>2026-04-28T15:05:33.876Z</time></trkpt><trkpt lat="44.4059817" lon="9.1884467"><ele>519.0</ele><time>2026-04-28T15:05:35.876Z</time></trkpt><trkpt lat="44.4060783" lon="9.18847"><ele>518.6666666666666</ele><time>2026-04-28T15:05:37.875Z</time></trkpt><trkpt lat="44.406145" lon="9.1884483"><ele>518.3333333333334</ele><time>2026-04-28T15:05:39.875Z</time></trkpt><trkpt lat="44.4062083" lon="9.1884317"><ele>518.0</ele><time>2026-04-28T15:06:01.876Z</time></trkpt><trkpt lat="44.4062733" lon="9.1883767"><ele>517.6666666666667</ele><time>2026-04-28T15:06:05.873Z</time></trkpt><trkpt lat="44.40634" lon="9.1882567"><ele>517.3333333333334</ele><time>2026-04-28T15:06:08.877Z</time></trkpt><trkpt lat="44.4063867" lon="9.1881367"><ele>517.0</ele><time>2026-04-28T15:06:10.875Z</time></trkpt><trkpt lat="44.40644" lon="9.1880717"><ele>517.0</ele><time>2026-04-28T15:06:12.876Z</time></trkpt><trkpt lat="44.4065" lon="9.1880067"><ele>517.0</ele><time>2026-04-28T15:06:14.872Z</time></trkpt><trkpt lat="44.406575" lon="9.1879633"><ele>517.0</ele><time>2026-04-28T15:06:16.875Z</time></trkpt><trkpt lat="44.40666" lon="9.187905"><ele>517.0</ele><time>2026-04-28T15:06:18.875Z</time></trkpt><trkpt lat="44.40675" lon="9.1878217"><ele>517.0</ele><time>2026-04-28T15:06:20.876Z</time></trkpt><trkpt lat="44.4068017" lon="9.1876767"><ele>517.0</ele><time>2026-04-28T15:06:22.875Z</time></trkpt><trkpt lat="44.4068333" lon="9.1875117"><ele>517.0</ele><time>2026-04-28T15:06:24.876Z</time></trkpt><trkpt lat="44.4068667" lon="9.18738"><ele>517.0</ele><time>2026-04-28T15:06:26.875Z</time></trkpt><trkpt lat="44.4069233" lon="9.1873217"><ele>517.0</ele><time>2026-04-28T15:06:28.875Z</time></trkpt><trkpt lat="44.4069983" lon="9.1872467"><ele>517.0</ele><time>2026-04-28T15:06:30.877Z</time></trkpt><trkpt lat="44.40709" lon="9.18719"><ele>518.4</ele><time>2026-04-28T15:06:32.877Z</time></trkpt><trkpt lat="44.407145" lon="9.1871467"><ele>519.8000000000001</ele><time>2026-04-28T15:06:33.877Z</time></trkpt><trkpt lat="44.4072367" lon="9.187045"><ele>521.2</ele><time>2026-04-28T15:06:35.875Z</time></trkpt><trkpt lat="44.4072817" lon="9.1869733"><ele>522.6</ele><time>2026-04-28T15:06:36.876Z</time></trkpt><trkpt lat="44.4073517" lon="9.1868383"><ele>524.0</ele><time>2026-04-28T15:06:38.876Z</time></trkpt><trkpt lat="44.4074183" lon="9.18672"><ele>524.0</ele><time>2026-04-28T15:06:40.874Z</time></trkpt><trkpt lat="44.4075" lon="9.1866567"><ele>524.0</ele><time>2026-04-28T15:06:42.877Z</time></trkpt><trkpt lat="44.407585" lon="9.1866167"><ele>524.0</ele><time>2026-04-28T15:06:44.876Z</time></trkpt><trkpt lat="44.4076767" lon="9.1865617"><ele>524.0</ele><time>2026-04-28T15:06:46.876Z</time></trkpt><trkpt lat="44.4077517" lon="9.186585"><ele>524.0</ele><time>2026-04-28T15:06:48.875Z</time></trkpt><trkpt lat="44.4078533" lon="9.1866417"><ele>524.0</ele><time>2026-04-28T15:06:50.875Z</time></trkpt><trkpt lat="44.4079217" lon="9.186745"><ele>524.0</ele><time>2026-04-28T15:06:52.876Z</time></trkpt><trkpt lat="44.407985" lon="9.1868667"><ele>524.0</ele><time>2026-04-28T15:06:54.877Z</time></trkpt><trkpt lat="44.408005" lon="9.186985"><ele>524.0</ele><time>2026-04-28T15:06:56.877Z</time></trkpt><trkpt lat="44.4080467" lon="9.1870883"><ele>524.0</ele><time>2026-04-28T15:06:58.876Z</time></trkpt><trkpt lat="44.4081133" lon="9.18716"><ele>522.5</ele><time>2026-04-28T15:07:00.876Z</time></trkpt><trkpt lat="44.4081783" lon="9.1872117"><ele>521.0</ele><time>2026-04-28T15:07:02.876Z</time></trkpt><trkpt lat="44.4082617" lon="9.1872383"><ele>519.5</ele><time>2026-04-28T15:07:04.876Z</time></trkpt><trkpt lat="44.408325" lon="9.18724"><ele>518.0</ele><time>2026-04-28T15:07:06.876Z</time></trkpt><trkpt lat="44.4084033" lon="9.187205"><ele>516.5</ele><time>2026-04-28T15:07:08.877Z</time></trkpt><trkpt lat="44.4084967" lon="9.1871733"><ele>515.0</ele><time>2026-04-28T15:07:10.875Z</time></trkpt><trkpt lat="44.4085917" lon="9.18714"><ele>515.0</ele><time>2026-04-28T15:07:12.876Z</time></trkpt><trkpt lat="44.408695" lon="9.1871483"><ele>515.0</ele><time>2026-04-28T15:07:14.878Z</time></trkpt><trkpt lat="44.4087817" lon="9.1871667"><ele>515.0</ele><time>2026-04-28T15:07:16.875Z</time></trkpt><trkpt lat="44.4088517" lon="9.187185"><ele>515.0</ele><time>2026-04-28T15:07:18.876Z</time></trkpt><trkpt lat="44.4089233" lon="9.187185"><ele>515.0</ele><time>2026-04-28T15:07:20.877Z</time></trkpt><trkpt lat="44.4090267" lon="9.1871183"><ele>515.0</ele><time>2026-04-28T15:07:22.875Z</time></trkpt><trkpt lat="44.4090883" lon="9.1870717"><ele>513.5714285714286</ele><time>2026-04-28T15:07:23.875Z</time></trkpt><trkpt lat="44.4091617" lon="9.1870267"><ele>512.1428571428571</ele><time>2026-04-28T15:07:24.875Z</time></trkpt><trkpt lat="44.4092233" lon="9.1869733"><ele>510.71428571428567</ele><time>2026-04-28T15:07:25.868Z</time></trkpt><trkpt lat="44.4092833" lon="9.186915"><ele>509.2857142857143</ele><time>2026-04-28T15:07:26.876Z</time></trkpt><trkpt lat="44.4093417" lon="9.18685"><ele>507.8571428571428</ele><time>2026-04-28T15:07:27.875Z</time></trkpt><trkpt lat="44.40939" lon="9.1867883"><ele>506.4285714285714</ele><time>2026-04-28T15:07:28.87Z</time></trkpt><trkpt lat="44.4094367" lon="9.186725"><ele>505.0</ele><time>2026-04-28T15:07:29.878Z</time></trkpt><trkpt lat="44.409505" lon="9.1866167"><ele>505.00000000000006</ele><time>2026-04-28T15:07:31.876Z</time></trkpt><trkpt lat="44.409605" lon="9.1865283"><ele>505.0</ele><time>2026-04-28T15:07:33.874Z</time></trkpt><trkpt lat="44.4096617" lon="9.1864717"><ele>505.0</ele><time>2026-04-28T15:07:34.875Z</time></trkpt><trkpt lat="44.4097167" lon="9.1863917"><ele>505.0</ele><time>2026-04-28T15:07:35.87Z</time></trkpt><trkpt lat="44.40976" lon="9.1863233"><ele>505.00000000000006</ele><time>2026-04-28T15:07:36.876Z</time></trkpt><trkpt lat="44.4098183" lon="9.1862367"><ele>505.0</ele><time>2026-04-28T15:07:38.876Z</time></trkpt><trkpt lat="44.4098867" lon="9.18621"><ele>506.00000000000006</ele><time>2026-04-28T15:07:40.876Z</time></trkpt><trkpt lat="44.409965" lon="9.1862367"><ele>507.0</ele><time>2026-04-28T15:07:42.878Z</time></trkpt><trkpt lat="44.410035" lon="9.1862167"><ele>508.0</ele><time>2026-04-28T15:07:44.879Z</time></trkpt><trkpt lat="44.4101033" lon="9.1861967"><ele>509.0</ele><time>2026-04-28T15:07:46.879Z</time></trkpt><trkpt lat="44.41017" lon="9.186255"><ele>510.00000000000006</ele><time>2026-04-28T15:07:48.876Z</time></trkpt><trkpt lat="44.4102083" lon="9.1863567"><ele>511.0</ele><time>2026-04-28T15:07:50.876Z</time></trkpt><trkpt lat="44.4102283" lon="9.186495"><ele>509.00000000000006</ele><time>2026-04-28T15:07:52.875Z</time></trkpt><trkpt lat="44.4102683" lon="9.18662"><ele>507.0</ele><time>2026-04-28T15:07:54.875Z</time></trkpt><trkpt lat="44.410355" lon="9.1866933"><ele>505.0</ele><time>2026-04-28T15:07:56.876Z</time></trkpt><trkpt lat="44.4104083" lon="9.1867417"><ele>503.0</ele><time>2026-04-28T15:07:57.876Z</time></trkpt><trkpt lat="44.41048" lon="9.1867983"><ele>501.00000000000006</ele><time>2026-04-28T15:07:59.877Z</time></trkpt><trkpt lat="44.4105167" lon="9.18687"><ele>499.0</ele><time>2026-04-28T15:08:01.877Z</time></trkpt><trkpt lat="44.4105417" lon="9.18699"><ele>499.00000000000006</ele><time>2026-04-28T15:08:03.876Z</time></trkpt><trkpt lat="44.4105667" lon="9.1871117"><ele>499.0</ele><time>2026-04-28T15:08:05.876Z</time></trkpt><trkpt lat="44.4105967" lon="9.1871983"><ele>499.00000000000006</ele><time>2026-04-28T15:08:07.878Z</time></trkpt><trkpt lat="44.4106167" lon="9.1872833"><ele>499.00000000000006</ele><time>2026-04-28T15:08:09.877Z</time></trkpt><trkpt lat="44.4106367" lon="9.1873683"><ele>499.0</ele><time>2026-04-28T15:08:11.878Z</time></trkpt><trkpt lat="44.410685" lon="9.1874533"><ele>499.00000000000006</ele><time>2026-04-28T15:08:13.876Z</time></trkpt><trkpt lat="44.4107483" lon="9.18753"><ele>499.00000000000006</ele><time>2026-04-28T15:08:15.876Z</time></trkpt><trkpt lat="44.410795" lon="9.18762"><ele>495.6666666666667</ele><time>2026-04-28T15:08:17.875Z</time></trkpt><trkpt lat="44.4108217" lon="9.18772"><ele>492.33333333333337</ele><time>2026-04-28T15:08:19.877Z</time></trkpt><trkpt lat="44.4108167" lon="9.1878233"><ele>489.0</ele><time>2026-04-28T15:08:21.876Z</time></trkpt><trkpt lat="44.4108117" lon="9.1879367"><ele>485.66666666666663</ele><time>2026-04-28T15:08:23.876Z</time></trkpt><trkpt lat="44.4108283" lon="9.188045"><ele>482.3333333333333</ele><time>2026-04-28T15:08:25.877Z</time></trkpt><trkpt lat="44.4108383" lon="9.188135"><ele>479.0</ele><time>2026-04-28T15:08:27.878Z</time></trkpt><trkpt lat="44.4108417" lon="9.18827"><ele>476.79999999999995</ele><time>2026-04-28T15:08:29.878Z</time></trkpt><trkpt lat="44.4108167" lon="9.188415"><ele>474.59999999999997</ele><time>2026-04-28T15:08:31.877Z</time></trkpt><trkpt lat="44.410805" lon="9.1885517"><ele>472.4</ele><time>2026-04-28T15:08:33.875Z</time></trkpt><trkpt lat="44.410825" lon="9.1886733"><ele>470.2</ele><time>2026-04-28T15:08:35.876Z</time></trkpt><trkpt lat="44.4108733" lon="9.1888017"><ele>468.0</ele><time>2026-04-28T15:08:37.876Z</time></trkpt><trkpt lat="44.4109067" lon="9.1889217"><ele>465.2</ele><time>2026-04-28T15:08:39.877Z</time></trkpt><trkpt lat="44.4109483" lon="9.1890417"><ele>462.4</ele><time>2026-04-28T15:08:41.874Z</time></trkpt><trkpt lat="44.4109617" lon="9.1891633"><ele>459.59999999999997</ele><time>2026-04-28T15:08:43.875Z</time></trkpt><trkpt lat="44.41093" lon="9.1893083"><ele>456.79999999999995</ele><time>2026-04-28T15:08:45.876Z</time></trkpt><trkpt lat="44.410905" lon="9.1894767"><ele>454.0</ele><time>2026-04-28T15:08:47.878Z</time></trkpt><trkpt lat="44.410905" lon="9.189565"><ele>454.00000000000006</ele><time>2026-04-28T15:08:48.878Z</time></trkpt><trkpt lat="44.4109033" lon="9.1896583"><ele>454.0</ele><time>2026-04-28T15:08:49.877Z</time></trkpt><trkpt lat="44.4109167" lon="9.18982"><ele>454.0</ele><time>2026-04-28T15:08:51.877Z</time></trkpt><trkpt lat="44.4109217" lon="9.1899183"><ele>454.0</ele><time>2026-04-28T15:08:52.877Z</time></trkpt><trkpt lat="44.41093" lon="9.1900083"><ele>454.00000000000006</ele><time>2026-04-28T15:08:53.876Z</time></trkpt><trkpt lat="44.4109467" lon="9.1901467"><ele>454.0</ele><time>2026-04-28T15:08:55.874Z</time></trkpt><trkpt lat="44.4109767" lon="9.1903133"><ele>455.6</ele><time>2026-04-28T15:08:57.874Z</time></trkpt><trkpt lat="44.41101" lon="9.1903883"><ele>457.2</ele><time>2026-04-28T15:08:58.875Z</time></trkpt><trkpt lat="44.4110833" lon="9.1905267"><ele>458.80000000000007</ele><time>2026-04-28T15:09:00.874Z</time></trkpt><trkpt lat="44.41117" lon="9.1906267"><ele>460.40000000000003</ele><time>2026-04-28T15:09:02.876Z</time></trkpt><trkpt lat="44.411265" lon="9.1907283"><ele>462.0</ele><time>2026-04-28T15:09:04.876Z</time></trkpt><trkpt lat="44.41137" lon="9.190825"><ele>462.0</ele><time>2026-04-28T15:09:06.875Z</time></trkpt><trkpt lat="44.41143" lon="9.1908817"><ele>462.0</ele><time>2026-04-28T15:09:07.876Z</time></trkpt><trkpt lat="44.41148" lon="9.190945"><ele>462.0</ele><time>2026-04-28T15:09:08.876Z</time></trkpt><trkpt lat="44.4115217" lon="9.1910133"><ele>462.0</ele><time>2026-04-28T15:09:09.875Z</time></trkpt><trkpt lat="44.4115567" lon="9.1911233"><ele>462.0</ele><time>2026-04-28T15:09:11.878Z</time></trkpt><trkpt lat="44.41155" lon="9.1912383"><ele>462.0</ele><time>2026-04-28T15:09:13.873Z</time></trkpt><trkpt lat="44.411515" lon="9.19138"><ele>459.6</ele><time>2026-04-28T15:09:15.877Z</time></trkpt><trkpt lat="44.4114617" lon="9.1915183"><ele>457.20000000000005</ele><time>2026-04-28T15:09:17.876Z</time></trkpt><trkpt lat="44.4114233" lon="9.19165"><ele>454.8</ele><time>2026-04-28T15:09:19.875Z</time></trkpt><trkpt lat="44.4113883" lon="9.1917583"><ele>452.4</ele><time>2026-04-28T15:09:21.876Z</time></trkpt><trkpt lat="44.41138" lon="9.1918933"><ele>450.0</ele><time>2026-04-28T15:09:23.877Z</time></trkpt><trkpt lat="44.4114083" lon="9.1920083"><ele>450.0</ele><time>2026-04-28T15:09:25.875Z</time></trkpt><trkpt lat="44.4114183" lon="9.19213"><ele>450.0</ele><time>2026-04-28T15:09:27.875Z</time></trkpt><trkpt lat="44.411395" lon="9.192295"><ele>450.0</ele><time>2026-04-28T15:09:29.877Z</time></trkpt><trkpt lat="44.4113583" lon="9.1924617"><ele>450.0</ele><time>2026-04-28T15:09:31.877Z</time></trkpt><trkpt lat="44.4113417" lon="9.192555"><ele>450.0</ele><time>2026-04-28T15:09:32.878Z</time></trkpt><trkpt lat="44.411325" lon="9.1926567"><ele>442.1428571428572</ele><time>2026-04-28T15:09:33.876Z</time></trkpt><trkpt lat="44.4113133" lon="9.1927517"><ele>434.28571428571433</ele><time>2026-04-28T15:09:34.875Z</time></trkpt><trkpt lat="44.411305" lon="9.19285"><ele>426.42857142857144</ele><time>2026-04-28T15:09:35.876Z</time></trkpt><trkpt lat="44.4112983" lon="9.1929417"><ele>418.5714285714286</ele><time>2026-04-28T15:09:36.876Z</time></trkpt><trkpt lat="44.4113033" lon="9.1930317"><ele>410.7142857142858</ele><time>2026-04-28T15:09:37.876Z</time></trkpt><trkpt lat="44.4112917" lon="9.1931417"><ele>402.85714285714283</ele><time>2026-04-28T15:09:38.874Z</time></trkpt><trkpt lat="44.411275" lon="9.1932367"><ele>395.0</ele><time>2026-04-28T15:09:39.876Z</time></trkpt><trkpt lat="44.411255" lon="9.1933233"><ele>394.6</ele><time>2026-04-28T15:09:40.873Z</time></trkpt><trkpt lat="44.41124" lon="9.1934517"><ele>394.2</ele><time>2026-04-28T15:09:42.876Z</time></trkpt><trkpt lat="44.4112433" lon="9.1935717"><ele>393.79999999999995</ele><time>2026-04-28T15:09:44.875Z</time></trkpt><trkpt lat="44.4112917" lon="9.1937283"><ele>393.4</ele><time>2026-04-28T15:09:46.874Z</time></trkpt><trkpt lat="44.411325" lon="9.1938033"><ele>393.0</ele><time>2026-04-28T15:09:47.875Z</time></trkpt><trkpt lat="44.4113783" lon="9.1939567"><ele>398.79999999999995</ele><time>2026-04-28T15:09:49.876Z</time></trkpt><trkpt lat="44.411435" lon="9.194095"><ele>404.6</ele><time>2026-04-28T15:09:51.875Z</time></trkpt><trkpt lat="44.4114883" lon="9.1942"><ele>410.4</ele><time>2026-04-28T15:09:53.875Z</time></trkpt><trkpt lat="44.411545" lon="9.1942867"><ele>416.20000000000005</ele><time>2026-04-28T15:09:55.875Z</time></trkpt><trkpt lat="44.4116333" lon="9.1943217"><ele>422.0</ele><time>2026-04-28T15:09:57.876Z</time></trkpt><trkpt lat="44.4117317" lon="9.1943533"><ele>421.99999999999994</ele><time>2026-04-28T15:09:59.875Z</time></trkpt><trkpt lat="44.4118217" lon="9.1944133"><ele>422.0</ele><time>2026-04-28T15:10:01.875Z</time></trkpt><trkpt lat="44.4118933" lon="9.19446"><ele>422.0</ele><time>2026-04-28T15:10:03.877Z</time></trkpt><trkpt lat="44.4119833" lon="9.1944217"><ele>422.0</ele><time>2026-04-28T15:10:05.877Z</time></trkpt><trkpt lat="44.4120483" lon="9.1943783"><ele>421.99999999999994</ele><time>2026-04-28T15:10:06.877Z</time></trkpt><trkpt lat="44.4121117" lon="9.1943433"><ele>422.0</ele><time>2026-04-28T15:10:07.875Z</time></trkpt><trkpt lat="44.4121833" lon="9.194295"><ele>423.6</ele><time>2026-04-28T15:10:08.877Z</time></trkpt><trkpt lat="44.4122533" lon="9.1942433"><ele>425.20000000000005</ele><time>2026-04-28T15:10:09.874Z</time></trkpt><trkpt lat="44.4123233" lon="9.1942017"><ele>426.8</ele><time>2026-04-28T15:10:10.876Z</time></trkpt><trkpt lat="44.412425" lon="9.1941367"><ele>428.4</ele><time>2026-04-28T15:10:12.876Z</time></trkpt><trkpt lat="44.4124833" lon="9.19405"><ele>430.0</ele><time>2026-04-28T15:10:14.876Z</time></trkpt><trkpt lat="44.4125367" lon="9.193935"><ele>430.0</ele><time>2026-04-28T15:10:16.876Z</time></trkpt><trkpt lat="44.4126267" lon="9.1939017"><ele>430.0</ele><time>2026-04-28T15:10:18.876Z</time></trkpt><trkpt lat="44.4127733" lon="9.1938167"><ele>430.0</ele><time>2026-04-28T15:10:20.876Z</time></trkpt><trkpt lat="44.4128683" lon="9.19372"><ele>430.0</ele><time>2026-04-28T15:10:21.877Z</time></trkpt><trkpt lat="44.4129533" lon="9.1936167"><ele>425.00000000000006</ele><time>2026-04-28T15:10:22.876Z</time></trkpt><trkpt lat="44.4130283" lon="9.1935283"><ele>420.0</ele><time>2026-04-28T15:10:23.877Z</time></trkpt><trkpt lat="44.4130933" lon="9.1934717"><ele>415.0</ele><time>2026-04-28T15:10:24.876Z</time></trkpt><trkpt lat="44.4131533" lon="9.1934217"><ele>410.0</ele><time>2026-04-28T15:10:25.875Z</time></trkpt><trkpt lat="44.4132183" lon="9.193495"><ele>405.00000000000006</ele><time>2026-04-28T15:10:27.876Z</time></trkpt><trkpt lat="44.4133367" lon="9.1935033"><ele>400.0</ele><time>2026-04-28T15:10:29.875Z</time></trkpt><trkpt lat="44.4134217" lon="9.1934933"><ele>400.0</ele><time>2026-04-28T15:10:30.876Z</time></trkpt><trkpt lat="44.4135" lon="9.19349"><ele>400.0</ele><time>2026-04-28T15:10:31.875Z</time></trkpt><trkpt lat="44.413595" lon="9.1934717"><ele>400.0</ele><time>2026-04-28T15:10:32.876Z</time></trkpt><trkpt lat="44.4136933" lon="9.1934317"><ele>400.0</ele><time>2026-04-28T15:10:33.877Z</time></trkpt><trkpt lat="44.4138033" lon="9.1933867"><ele>400.0</ele><time>2026-04-28T15:10:34.875Z</time></trkpt><trkpt lat="44.4139083" lon="9.1933117"><ele>401.0</ele><time>2026-04-28T15:10:35.874Z</time></trkpt><trkpt lat="44.4140017" lon="9.1932367"><ele>402.0</ele><time>2026-04-28T15:10:36.876Z</time></trkpt><trkpt lat="44.41409" lon="9.1931683"><ele>403.0</ele><time>2026-04-28T15:10:37.875Z</time></trkpt><trkpt lat="44.4141767" lon="9.193125"><ele>404.0</ele><time>2026-04-28T15:10:38.878Z</time></trkpt><trkpt lat="44.414255" lon="9.1930767"><ele>405.0</ele><time>2026-04-28T15:10:39.877Z</time></trkpt><trkpt lat="44.4143217" lon="9.1930267"><ele>405.0</ele><time>2026-04-28T15:10:40.875Z</time></trkpt><trkpt lat="44.4143817" lon="9.1929717"><ele>405.0</ele><time>2026-04-28T15:10:41.876Z</time></trkpt><trkpt lat="44.414435" lon="9.1929233"><ele>405.0</ele><time>2026-04-28T15:10:42.877Z</time></trkpt><trkpt lat="44.414505" lon="9.192835"><ele>405.0</ele><time>2026-04-28T15:10:44.876Z</time></trkpt><trkpt lat="44.4145133" lon="9.192735"><ele>405.0</ele><time>2026-04-28T15:10:46.875Z</time></trkpt><trkpt lat="44.41449" lon="9.1925817"><ele>405.0</ele><time>2026-04-28T15:10:48.874Z</time></trkpt><trkpt lat="44.41448" lon="9.1924933"><ele>405.0</ele><time>2026-04-28T15:10:49.877Z</time></trkpt><trkpt lat="44.4144683" lon="9.1923983"><ele>405.0</ele><time>2026-04-28T15:10:50.876Z</time></trkpt><trkpt lat="44.4144633" lon="9.1923033"><ele>405.0</ele><time>2026-04-28T15:10:51.873Z</time></trkpt><trkpt lat="44.414475" lon="9.192205"><ele>405.0</ele><time>2026-04-28T15:10:52.875Z</time></trkpt><trkpt lat="44.414475" lon="9.192115"><ele>405.0</ele><time>2026-04-28T15:10:53.876Z</time></trkpt><trkpt lat="44.4144833" lon="9.1919783"><ele>405.0</ele><time>2026-04-28T15:10:54.877Z</time></trkpt><trkpt lat="44.4144767" lon="9.191855"><ele>410.0</ele><time>2026-04-28T15:10:55.874Z</time></trkpt><trkpt lat="44.4144733" lon="9.1917117"><ele>415.0</ele><time>2026-04-28T15:10:56.875Z</time></trkpt><trkpt lat="44.4144767" lon="9.1915033"><ele>420.0</ele><time>2026-04-28T15:10:57.875Z</time></trkpt><trkpt lat="44.41447" lon="9.1913267"><ele>425.0</ele><time>2026-04-28T15:10:58.879Z</time></trkpt><trkpt lat="44.4144483" lon="9.19119"><ele>425.6</ele><time>2026-04-28T15:10:59.88Z</time></trkpt><trkpt lat="44.4144283" lon="9.1910617"><ele>426.2</ele><time>2026-04-28T15:11:00.876Z</time></trkpt><trkpt lat="44.4144267" lon="9.1909433"><ele>426.79999999999995</ele><time>2026-04-28T15:11:01.875Z</time></trkpt><trkpt lat="44.4144367" lon="9.190825"><ele>427.4</ele><time>2026-04-28T15:11:02.874Z</time></trkpt><trkpt lat="44.41443" lon="9.19069"><ele>428.0</ele><time>2026-04-28T15:11:03.875Z</time></trkpt><trkpt lat="44.41441" lon="9.19053"><ele>428.0</ele><time>2026-04-28T15:11:04.875Z</time></trkpt><trkpt lat="44.4143817" lon="9.1903683"><ele>427.99999999999994</ele><time>2026-04-28T15:11:05.874Z</time></trkpt><trkpt lat="44.41436" lon="9.1902117"><ele>427.99999999999994</ele><time>2026-04-28T15:11:06.874Z</time></trkpt><trkpt lat="44.4143417" lon="9.1900683"><ele>428.0</ele><time>2026-04-28T15:11:07.874Z</time></trkpt><trkpt lat="44.4143367" lon="9.189955"><ele>428.0</ele><time>2026-04-28T15:11:08.875Z</time></trkpt><trkpt lat="44.41433" lon="9.1898467"><ele>429.16666666666663</ele><time>2026-04-28T15:11:09.874Z</time></trkpt><trkpt lat="44.414315" lon="9.1897417"><ele>430.3333333333333</ele><time>2026-04-28T15:11:10.875Z</time></trkpt><trkpt lat="44.4142867" lon="9.189645"><ele>431.5</ele><time>2026-04-28T15:11:11.876Z</time></trkpt><trkpt lat="44.4142483" lon="9.1895483"><ele>432.66666666666663</ele><time>2026-04-28T15:11:12.875Z</time></trkpt><trkpt lat="44.4142017" lon="9.1894583"><ele>433.8333333333333</ele><time>2026-04-28T15:11:13.875Z</time></trkpt><trkpt lat="44.4141633" lon="9.1893883"><ele>435.0</ele><time>2026-04-28T15:11:14.876Z</time></trkpt><trkpt lat="44.414275" lon="9.1893783"><ele>435.0</ele><time>2026-04-28T15:11:18.875Z</time></trkpt><trkpt lat="44.41434" lon="9.18938"><ele>435.0</ele><time>2026-04-28T15:11:19.875Z</time></trkpt><trkpt lat="44.41446" lon="9.1893417"><ele>435.0</ele><time>2026-04-28T15:11:21.875Z</time></trkpt><trkpt lat="44.414515" lon="9.1892967"><ele>435.0</ele><time>2026-04-28T15:11:22.877Z</time></trkpt><trkpt lat="44.4145567" lon="9.189225"><ele>435.0</ele><time>2026-04-28T15:11:23.876Z</time></trkpt><trkpt lat="44.414585" lon="9.1891367"><ele>435.0</ele><time>2026-04-28T15:11:24.877Z</time></trkpt><trkpt lat="44.4145983" lon="9.189045"><ele>436.5</ele><time>2026-04-28T15:11:25.876Z</time></trkpt><trkpt lat="44.41461" lon="9.1889217"><ele>438.0</ele><time>2026-04-28T15:11:26.877Z</time></trkpt><trkpt lat="44.414605" lon="9.18881"><ele>439.5</ele><time>2026-04-28T15:11:27.876Z</time></trkpt><trkpt lat="44.4145983" lon="9.18871"><ele>441.0</ele><time>2026-04-28T15:11:28.876Z</time></trkpt><trkpt lat="44.4145967" lon="9.18862"><ele>442.5</ele><time>2026-04-28T15:11:29.874Z</time></trkpt><trkpt lat="44.4145983" lon="9.18853"><ele>444.0</ele><time>2026-04-28T15:11:30.875Z</time></trkpt><trkpt lat="44.41461" lon="9.1883633"><ele>444.0</ele><time>2026-04-28T15:11:32.875Z</time></trkpt><trkpt lat="44.4146183" lon="9.1882"><ele>444.0</ele><time>2026-04-28T15:11:34.873Z</time></trkpt><trkpt lat="44.41463" lon="9.1881067"><ele>444.0</ele><time>2026-04-28T15:11:35.875Z</time></trkpt><trkpt lat="44.4146317" lon="9.18801"><ele>444.0</ele><time>2026-04-28T15:11:36.875Z</time></trkpt><trkpt lat="44.414615" lon="9.187885"><ele>444.0</ele><time>2026-04-28T15:11:37.875Z</time></trkpt><trkpt lat="44.4145917" lon="9.1877533"><ele>444.0</ele><time>2026-04-28T15:11:38.877Z</time></trkpt><trkpt lat="44.4145683" lon="9.18763"><ele>444.6666666666667</ele><time>2026-04-28T15:11:39.874Z</time></trkpt><trkpt lat="44.41454" lon="9.1875183"><ele>445.33333333333337</ele><time>2026-04-28T15:11:40.874Z</time></trkpt><trkpt lat="44.4144967" lon="9.1874167"><ele>446.0</ele><time>2026-04-28T15:11:41.875Z</time></trkpt><trkpt lat="44.4144433" lon="9.1873517"><ele>446.6666666666667</ele><time>2026-04-28T15:11:42.875Z</time></trkpt><trkpt lat="44.4143917" lon="9.1872917"><ele>447.33333333333337</ele><time>2026-04-28T15:11:43.876Z</time></trkpt><trkpt lat="44.4143333" lon="9.1871617"><ele>448.0</ele><time>2026-04-28T15:11:45.875Z</time></trkpt><trkpt lat="44.4143533" lon="9.1870333"><ele>448.0</ele><time>2026-04-28T15:11:47.875Z</time></trkpt><trkpt lat="44.41433" lon="9.1869083"><ele>447.99999999999994</ele><time>2026-04-28T15:11:49.877Z</time></trkpt><trkpt lat="44.4142283" lon="9.1868033"><ele>447.99999999999994</ele><time>2026-04-28T15:11:51.874Z</time></trkpt><trkpt lat="44.4141717" lon="9.1867383"><ele>448.0</ele><time>2026-04-28T15:11:52.875Z</time></trkpt><trkpt lat="44.4141017" lon="9.1866133"><ele>448.0</ele><time>2026-04-28T15:11:54.875Z</time></trkpt><trkpt lat="44.4141167" lon="9.1865267"><ele>444.75</ele><time>2026-04-28T15:11:56.876Z</time></trkpt><trkpt lat="44.41414" lon="9.1863967"><ele>441.5</ele><time>2026-04-28T15:11:58.874Z</time></trkpt><trkpt lat="44.4141" lon="9.1861967"><ele>438.25</ele><time>2026-04-28T15:12:00.877Z</time></trkpt><trkpt lat="44.414045" lon="9.186065"><ele>435.0</ele><time>2026-04-28T15:12:01.875Z</time></trkpt><trkpt lat="44.4139683" lon="9.185945"><ele>435.0</ele><time>2026-04-28T15:12:02.876Z</time></trkpt><trkpt lat="44.413895" lon="9.1858533"><ele>435.0</ele><time>2026-04-28T15:12:03.875Z</time></trkpt><trkpt lat="44.413835" lon="9.185765"><ele>435.0</ele><time>2026-04-28T15:12:04.875Z</time></trkpt><trkpt lat="44.4137933" lon="9.1856633"><ele>435.0</ele><time>2026-04-28T15:12:05.874Z</time></trkpt><trkpt lat="44.413765" lon="9.1855833"><ele>435.0</ele><time>2026-04-28T15:12:06.877Z</time></trkpt><trkpt lat="44.4137483" lon="9.1854117"><ele>441.3333333333333</ele><time>2026-04-28T15:12:08.876Z</time></trkpt><trkpt lat="44.4137583" lon="9.1853083"><ele>447.66666666666663</ele><time>2026-04-28T15:12:09.877Z</time></trkpt><trkpt lat="44.4137767" lon="9.1852067"><ele>454.0</ele><time>2026-04-28T15:12:10.875Z</time></trkpt><trkpt lat="44.4138017" lon="9.1850817"><ele>460.3333333333333</ele><time>2026-04-28T15:12:11.876Z</time></trkpt><trkpt lat="44.41381" lon="9.1849667"><ele>466.66666666666663</ele><time>2026-04-28T15:12:12.877Z</time></trkpt><trkpt lat="44.4138033" lon="9.184845"><ele>473.0</ele><time>2026-04-28T15:12:13.875Z</time></trkpt><trkpt lat="44.4138017" lon="9.1846967"><ele>473.0</ele><time>2026-04-28T15:12:14.88Z</time></trkpt><trkpt lat="44.41379" lon="9.18453"><ele>472.99999999999994</ele><time>2026-04-28T15:12:15.88Z</time></trkpt><trkpt lat="44.4137733" lon="9.1843633"><ele>472.99999999999994</ele><time>2026-04-28T15:12:16.876Z</time></trkpt><trkpt lat="44.41375" lon="9.1842417"><ele>473.0</ele><time>2026-04-28T15:12:17.88Z</time></trkpt><trkpt lat="44.4137233" lon="9.1841217"><ele>473.0</ele><time>2026-04-28T15:12:18.875Z</time></trkpt><trkpt lat="44.4136817" lon="9.1840017"><ele>469.59999999999997</ele><time>2026-04-28T15:12:19.875Z</time></trkpt><trkpt lat="44.413625" lon="9.1838817"><ele>466.19999999999993</ele><time>2026-04-28T15:12:20.877Z</time></trkpt><trkpt lat="44.41357" lon="9.1837767"><ele>462.8</ele><time>2026-04-28T15:12:21.875Z</time></trkpt><trkpt lat="44.4135283" lon="9.18366"><ele>459.4</ele><time>2026-04-28T15:12:22.88Z</time></trkpt><trkpt lat="44.41348" lon="9.183535"><ele>456.0</ele><time>2026-04-28T15:12:23.875Z</time></trkpt><trkpt lat="44.4134317" lon="9.1834333"><ele>456.0</ele><time>2026-04-28T15:12:24.875Z</time></trkpt><trkpt lat="44.4133767" lon="9.1833567"><ele>456.0</ele><time>2026-04-28T15:12:25.875Z</time></trkpt><trkpt lat="44.4133233" lon="9.1832917"><ele>456.0</ele><time>2026-04-28T15:12:26.879Z</time></trkpt><trkpt lat="44.413275" lon="9.1832317"><ele>456.0</ele><time>2026-04-28T15:12:27.877Z</time></trkpt><trkpt lat="44.4131767" lon="9.1831533"><ele>456.0</ele><time>2026-04-28T15:12:29.874Z</time></trkpt><trkpt lat="44.413085" lon="9.1831167"><ele>456.0</ele><time>2026-04-28T15:12:31.877Z</time></trkpt><trkpt lat="44.4130117" lon="9.1830933"><ele>455.3333333333333</ele><time>2026-04-28T15:12:33.878Z</time></trkpt><trkpt lat="44.41298" lon="9.183015"><ele>454.66666666666663</ele><time>2026-04-28T15:12:36.875Z</time></trkpt><trkpt lat="44.4129933" lon="9.1828817"><ele>454.0</ele><time>2026-04-28T15:12:39.877Z</time></trkpt><trkpt lat="44.4129733" lon="9.1827517"><ele>453.3333333333333</ele><time>2026-04-28T15:12:41.877Z</time></trkpt><trkpt lat="44.412925" lon="9.18263"><ele>452.66666666666663</ele><time>2026-04-28T15:12:43.876Z</time></trkpt><trkpt lat="44.412865" lon="9.1825333"><ele>452.0</ele><time>2026-04-28T15:12:45.875Z</time></trkpt><trkpt lat="44.4128383" lon="9.18245"><ele>452.0</ele><time>2026-04-28T15:12:47.878Z</time></trkpt><trkpt lat="44.4128933" lon="9.1823717"><ele>452.00000000000006</ele><time>2026-04-28T15:12:50.876Z</time></trkpt><trkpt lat="44.4129883" lon="9.182365"><ele>452.00000000000006</ele><time>2026-04-28T15:12:52.877Z</time></trkpt><trkpt lat="44.4130933" lon="9.1823717"><ele>452.0</ele><time>2026-04-28T15:12:54.876Z</time></trkpt><trkpt lat="44.41322" lon="9.182345"><ele>452.0</ele><time>2026-04-28T15:12:56.875Z</time></trkpt><trkpt lat="44.4132833" lon="9.1823217"><ele>460.40000000000003</ele><time>2026-04-28T15:12:57.876Z</time></trkpt><trkpt lat="44.41337" lon="9.1822317"><ele>468.80000000000007</ele><time>2026-04-28T15:12:59.874Z</time></trkpt><trkpt lat="44.41348" lon="9.1821117"><ele>477.2</ele><time>2026-04-28T15:13:01.875Z</time></trkpt><trkpt lat="44.4135433" lon="9.182055"><ele>485.6</ele><time>2026-04-28T15:13:02.876Z</time></trkpt><trkpt lat="44.4136167" lon="9.1820067"><ele>494.0</ele><time>2026-04-28T15:13:03.875Z</time></trkpt><trkpt lat="44.4136783" lon="9.1819567"><ele>494.0</ele><time>2026-04-28T15:13:04.876Z</time></trkpt><trkpt lat="44.41375" lon="9.181815"><ele>494.0</ele><time>2026-04-28T15:13:06.874Z</time></trkpt><trkpt lat="44.413775" lon="9.1816533"><ele>494.0</ele><time>2026-04-28T15:13:08.877Z</time></trkpt><trkpt lat="44.413785" lon="9.181565"><ele>494.0</ele><time>2026-04-28T15:13:09.876Z</time></trkpt><trkpt lat="44.4138017" lon="9.18141"><ele>494.0</ele><time>2026-04-28T15:13:11.875Z</time></trkpt><trkpt lat="44.4138183" lon="9.18125"><ele>492.8333333333333</ele><time>2026-04-28T15:13:13.875Z</time></trkpt><trkpt lat="44.4138367" lon="9.1811433"><ele>491.66666666666663</ele><time>2026-04-28T15:13:14.874Z</time></trkpt><trkpt lat="44.41385" lon="9.1810417"><ele>490.5</ele><time>2026-04-28T15:13:15.874Z</time></trkpt><trkpt lat="44.4138733" lon="9.180925"><ele>489.33333333333337</ele><time>2026-04-28T15:13:17.875Z</time></trkpt><trkpt lat="44.413945" lon="9.1808683"><ele>488.1666666666667</ele><time>2026-04-28T15:13:19.875Z</time></trkpt><trkpt lat="44.4140333" lon="9.1808283"><ele>487.0</ele><time>2026-04-28T15:13:21.876Z</time></trkpt><trkpt lat="44.4141183" lon="9.1808467"><ele>487.0</ele><time>2026-04-28T15:13:23.874Z</time></trkpt><trkpt lat="44.4142233" lon="9.1808817"><ele>487.00000000000006</ele><time>2026-04-28T15:13:25.878Z</time></trkpt><trkpt lat="44.4143633" lon="9.18091"><ele>487.00000000000006</ele><time>2026-04-28T15:13:27.874Z</time></trkpt><trkpt lat="44.4144467" lon="9.1809267"><ele>487.0</ele><time>2026-04-28T15:13:28.876Z</time></trkpt><trkpt lat="44.4145267" lon="9.1809383"><ele>487.0</ele><time>2026-04-28T15:13:29.873Z</time></trkpt><trkpt lat="44.41459" lon="9.1809333"><ele>487.00000000000006</ele><time>2026-04-28T15:13:30.876Z</time></trkpt><trkpt lat="44.4146483" lon="9.1808817"><ele>487.0</ele><time>2026-04-28T15:13:32.876Z</time></trkpt><trkpt lat="44.4147133" lon="9.18075"><ele>487.0</ele><time>2026-04-28T15:13:34.875Z</time></trkpt><trkpt lat="44.4147583" lon="9.18067"><ele>487.0</ele><time>2026-04-28T15:13:35.875Z</time></trkpt><trkpt lat="44.414805" lon="9.18058"><ele>487.00000000000006</ele><time>2026-04-28T15:13:36.874Z</time></trkpt><trkpt lat="44.414845" lon="9.18049"><ele>487.0</ele><time>2026-04-28T15:13:37.873Z</time></trkpt><trkpt lat="44.4148883" lon="9.1803883"><ele>488.6666666666667</ele><time>2026-04-28T15:13:38.877Z</time></trkpt><trkpt lat="44.41493" lon="9.18029"><ele>490.33333333333337</ele><time>2026-04-28T15:13:39.877Z</time></trkpt><trkpt lat="44.4149967" lon="9.1802017"><ele>492.0</ele><time>2026-04-28T15:13:40.875Z</time></trkpt><trkpt lat="44.4150617" lon="9.18013"><ele>493.66666666666663</ele><time>2026-04-28T15:13:41.875Z</time></trkpt><trkpt lat="44.4151333" lon="9.180055"><ele>495.3333333333333</ele><time>2026-04-28T15:13:42.875Z</time></trkpt><trkpt lat="44.4151933" lon="9.179985"><ele>497.0</ele><time>2026-04-28T15:13:43.876Z</time></trkpt><trkpt lat="44.4152533" lon="9.1799117"><ele>501.8</ele><time>2026-04-28T15:13:44.875Z</time></trkpt><trkpt lat="44.415305" lon="9.1798267"><ele>506.6</ele><time>2026-04-28T15:13:45.875Z</time></trkpt><trkpt lat="44.41535" lon="9.179725"><ele>511.40000000000003</ele><time>2026-04-28T15:13:46.874Z</time></trkpt><trkpt lat="44.4154083" lon="9.1796233"><ele>516.2</ele><time>2026-04-28T15:13:47.877Z</time></trkpt><trkpt lat="44.4154883" lon="9.1794717"><ele>521.0</ele><time>2026-04-28T15:13:48.874Z</time></trkpt><trkpt lat="44.415535" lon="9.1793867"><ele>516.1666666666666</ele><time>2026-04-28T15:13:49.873Z</time></trkpt><trkpt lat="44.4155667" lon="9.1792917"><ele>511.3333333333333</ele><time>2026-04-28T15:13:50.876Z</time></trkpt><trkpt lat="44.4155633" lon="9.1792033"><ele>506.5</ele><time>2026-04-28T15:13:51.877Z</time></trkpt><trkpt lat="44.41556" lon="9.17909"><ele>501.66666666666663</ele><time>2026-04-28T15:13:52.876Z</time></trkpt><trkpt lat="44.4155383" lon="9.178985"><ele>496.8333333333333</ele><time>2026-04-28T15:13:53.876Z</time></trkpt><trkpt lat="44.4155233" lon="9.1788883"><ele>492.0</ele><time>2026-04-28T15:13:54.879Z</time></trkpt><trkpt lat="44.4155517" lon="9.178745"><ele>492.0</ele><time>2026-04-28T15:13:56.875Z</time></trkpt><trkpt lat="44.4156167" lon="9.1786317"><ele>492.00000000000006</ele><time>2026-04-28T15:13:58.873Z</time></trkpt><trkpt lat="44.415665" lon="9.1785"><ele>492.00000000000006</ele><time>2026-04-28T15:14:00.876Z</time></trkpt><trkpt lat="44.4156817" lon="9.1784133"><ele>492.0</ele><time>2026-04-28T15:14:01.876Z</time></trkpt><trkpt lat="44.415705" lon="9.1782883"><ele>492.0</ele><time>2026-04-28T15:14:02.876Z</time></trkpt><trkpt lat="44.4157417" lon="9.17809"><ele>493.0</ele><time>2026-04-28T15:14:03.875Z</time></trkpt><trkpt lat="44.4157667" lon="9.1779433"><ele>494.0</ele><time>2026-04-28T15:14:04.875Z</time></trkpt><trkpt lat="44.4158" lon="9.1777683"><ele>495.0</ele><time>2026-04-28T15:14:05.871Z</time></trkpt><trkpt lat="44.4157967" lon="9.1776083"><ele>496.0</ele><time>2026-04-28T15:14:06.874Z</time></trkpt><trkpt lat="44.4157317" lon="9.177485"><ele>496.0</ele><time>2026-04-28T15:14:07.873Z</time></trkpt><trkpt lat="44.415665" lon="9.1773583"><ele>496.0</ele><time>2026-04-28T15:14:08.876Z</time></trkpt><trkpt lat="44.415575" lon="9.1772183"><ele>496.0</ele><time>2026-04-28T15:14:09.875Z</time></trkpt><trkpt lat="44.415505" lon="9.1770617"><ele>496.0</ele><time>2026-04-28T15:14:10.873Z</time></trkpt><trkpt lat="44.4154517" lon="9.1768917"><ele>504.25</ele><time>2026-04-28T15:14:11.875Z</time></trkpt><trkpt lat="44.4154033" lon="9.1766983"><ele>512.5</ele><time>2026-04-28T15:14:12.873Z</time></trkpt><trkpt lat="44.4153783" lon="9.1765117"><ele>520.75</ele><time>2026-04-28T15:14:13.873Z</time></trkpt><trkpt lat="44.4153733" lon="9.1763667"><ele>529.0</ele><time>2026-04-28T15:14:14.874Z</time></trkpt><trkpt lat="44.4153667" lon="9.1762617"><ele>529.2</ele><time>2026-04-28T15:14:15.876Z</time></trkpt><trkpt lat="44.4153533" lon="9.1761533"><ele>529.4</ele><time>2026-04-28T15:14:16.875Z</time></trkpt><trkpt lat="44.4153383" lon="9.1760183"><ele>529.6</ele><time>2026-04-28T15:14:17.873Z</time></trkpt><trkpt lat="44.415335" lon="9.1758517"><ele>529.8</ele><time>2026-04-28T15:14:18.876Z</time></trkpt><trkpt lat="44.4153433" lon="9.1756467"><ele>530.0</ele><time>2026-04-28T15:14:19.873Z</time></trkpt><trkpt lat="44.4153533" lon="9.175445"><ele>532.75</ele><time>2026-04-28T15:14:20.872Z</time></trkpt><trkpt lat="44.4153733" lon="9.1752583"><ele>535.5</ele><time>2026-04-28T15:14:21.877Z</time></trkpt><trkpt lat="44.4154167" lon="9.1751017"><ele>538.25</ele><time>2026-04-28T15:14:22.877Z</time></trkpt><trkpt lat="44.4154733" lon="9.174955"><ele>541.0</ele><time>2026-04-28T15:14:23.876Z</time></trkpt><trkpt lat="44.4155483" lon="9.1748367"><ele>536.3333333333334</ele><time>2026-04-28T15:14:24.874Z</time></trkpt><trkpt lat="44.4156017" lon="9.174745"><ele>531.6666666666667</ele><time>2026-04-28T15:14:25.874Z</time></trkpt><trkpt lat="44.4156417" lon="9.17466"><ele>527.0</ele><time>2026-04-28T15:14:26.875Z</time></trkpt><trkpt lat="44.4156767" lon="9.1745867"><ele>522.3333333333334</ele><time>2026-04-28T15:14:27.875Z</time></trkpt><trkpt lat="44.41571" lon="9.1744433"><ele>517.6666666666666</ele><time>2026-04-28T15:14:29.877Z</time></trkpt><trkpt lat="44.4157083" lon="9.17429"><ele>513.0</ele><time>2026-04-28T15:14:31.876Z</time></trkpt><trkpt lat="44.415665" lon="9.1741183"><ele>513.0</ele><time>2026-04-28T15:14:33.875Z</time></trkpt><trkpt lat="44.4156283" lon="9.1740217"><ele>513.0</ele><time>2026-04-28T15:14:34.877Z</time></trkpt><trkpt lat="44.4155767" lon="9.1739333"><ele>513.0</ele><time>2026-04-28T15:14:35.877Z</time></trkpt><trkpt lat="44.4155167" lon="9.173835"><ele>513.0</ele><time>2026-04-28T15:14:36.875Z</time></trkpt><trkpt lat="44.41546" lon="9.1737517"><ele>513.0</ele><time>2026-04-28T15:14:37.873Z</time></trkpt><trkpt lat="44.4153933" lon="9.1736717"><ele>513.0</ele><time>2026-04-28T15:14:38.875Z</time></trkpt><trkpt lat="44.4153233" lon="9.1735933"><ele>515.3333333333334</ele><time>2026-04-28T15:14:39.875Z</time></trkpt><trkpt lat="44.415255" lon="9.17352"><ele>517.6666666666666</ele><time>2026-04-28T15:14:40.875Z</time></trkpt><trkpt lat="44.4151867" lon="9.1734517"><ele>520.0</ele><time>2026-04-28T15:14:41.877Z</time></trkpt><trkpt lat="44.41513" lon="9.1733817"><ele>522.3333333333333</ele><time>2026-04-28T15:14:42.875Z</time></trkpt><trkpt lat="44.4150617" lon="9.1732833"><ele>524.6666666666666</ele><time>2026-04-28T15:14:44.875Z</time></trkpt><trkpt lat="44.4150367" lon="9.173145"><ele>527.0</ele><time>2026-04-28T15:14:47.872Z</time></trkpt><trkpt lat="44.4150367" lon="9.1730217"><ele>527.0</ele><time>2026-04-28T15:14:49.876Z</time></trkpt><trkpt lat="44.4150183" lon="9.1728983"><ele>527.0</ele><time>2026-04-28T15:14:51.877Z</time></trkpt><trkpt lat="44.4149783" lon="9.1727617"><ele>527.0</ele><time>2026-04-28T15:14:53.876Z</time></trkpt><trkpt lat="44.4149433" lon="9.17262"><ele>527.0</ele><time>2026-04-28T15:14:55.875Z</time></trkpt><trkpt lat="44.414875" lon="9.1725133"><ele>527.0</ele><time>2026-04-28T15:14:57.873Z</time></trkpt><trkpt lat="44.4148733" lon="9.1724183"><ele>528.2</ele><time>2026-04-28T15:14:59.874Z</time></trkpt><trkpt lat="44.414975" lon="9.1722817"><ele>529.4000000000001</ele><time>2026-04-28T15:15:02.879Z</time></trkpt><trkpt lat="44.4150383" lon="9.1721933"><ele>530.5999999999999</ele><time>2026-04-28T15:15:03.876Z</time></trkpt><trkpt lat="44.4150917" lon="9.1721067"><ele>531.8</ele><time>2026-04-28T15:15:04.885Z</time></trkpt><trkpt lat="44.4151433" lon="9.171995"><ele>533.0</ele><time>2026-04-28T15:15:05.877Z</time></trkpt><trkpt lat="44.4152" lon="9.1718717"><ele>533.0</ele><time>2026-04-28T15:15:06.876Z</time></trkpt><trkpt lat="44.4152433" lon="9.1717683"><ele>533.0</ele><time>2026-04-28T15:15:07.879Z</time></trkpt><trkpt lat="44.4152917" lon="9.171665"><ele>533.0</ele><time>2026-04-28T15:15:08.876Z</time></trkpt><trkpt lat="44.4153283" lon="9.17156"><ele>533.0</ele><time>2026-04-28T15:15:09.876Z</time></trkpt><trkpt lat="44.4153583" lon="9.171415"><ele>533.0</ele><time>2026-04-28T15:15:11.875Z</time></trkpt><trkpt lat="44.4153633" lon="9.1713117"><ele>533.0</ele><time>2026-04-28T15:15:13.876Z</time></trkpt><trkpt lat="44.4153917" lon="9.1711833"><ele>533.0</ele><time>2026-04-28T15:15:15.876Z</time></trkpt><trkpt lat="44.4154283" lon="9.171065"><ele>533.0</ele><time>2026-04-28T15:15:17.876Z</time></trkpt><trkpt lat="44.4154533" lon="9.1709833"><ele>533.0</ele><time>2026-04-28T15:15:18.878Z</time></trkpt><trkpt lat="44.4154767" lon="9.1708917"><ele>533.0</ele><time>2026-04-28T15:15:19.874Z</time></trkpt><trkpt lat="44.4154983" lon="9.1707967"><ele>533.0</ele><time>2026-04-28T15:15:20.876Z</time></trkpt><trkpt lat="44.4155117" lon="9.1707033"><ele>533.0</ele><time>2026-04-28T15:15:21.878Z</time></trkpt><trkpt lat="44.415525" lon="9.1705933"><ele>533.0</ele><time>2026-04-28T15:15:22.873Z</time></trkpt><trkpt lat="44.4155417" lon="9.1704433"><ele>533.0</ele><time>2026-04-28T15:15:23.874Z</time></trkpt><trkpt lat="44.4155467" lon="9.1702683"><ele>533.0</ele><time>2026-04-28T15:15:24.877Z</time></trkpt><trkpt lat="44.415535" lon="9.170125"><ele>533.0</ele><time>2026-04-28T15:15:25.875Z</time></trkpt><trkpt lat="44.4155233" lon="9.1700133"><ele>533.0</ele><time>2026-04-28T15:15:26.875Z</time></trkpt><trkpt lat="44.4155183" lon="9.1698617"><ele>533.0</ele><time>2026-04-28T15:15:28.876Z</time></trkpt><trkpt lat="44.4156" lon="9.1697417"><ele>535.1999999999999</ele><time>2026-04-28T15:15:30.877Z</time></trkpt><trkpt lat="44.4156867" lon="9.1696083"><ele>537.4</ele><time>2026-04-28T15:15:32.876Z</time></trkpt><trkpt lat="44.4157567" lon="9.1694667"><ele>539.5999999999999</ele><time>2026-04-28T15:15:34.873Z</time></trkpt><trkpt lat="44.4157917" lon="9.1693883"><ele>541.8</ele><time>2026-04-28T15:15:35.877Z</time></trkpt><trkpt lat="44.415835" lon="9.1692417"><ele>544.0</ele><time>2026-04-28T15:15:37.874Z</time></trkpt><trkpt lat="44.4159" lon="9.1690967"><ele>544.0</ele><time>2026-04-28T15:15:39.874Z</time></trkpt><trkpt lat="44.4159633" lon="9.1690283"><ele>544.0</ele><time>2026-04-28T15:15:40.875Z</time></trkpt><trkpt lat="44.4160283" lon="9.1689717"><ele>544.0</ele><time>2026-04-28T15:15:41.88Z</time></trkpt><trkpt lat="44.4160867" lon="9.16892"><ele>544.0</ele><time>2026-04-28T15:15:42.877Z</time></trkpt><trkpt lat="44.416195" lon="9.1688483"><ele>544.0</ele><time>2026-04-28T15:15:44.878Z</time></trkpt><trkpt lat="44.4162783" lon="9.1687817"><ele>544.0</ele><time>2026-04-28T15:15:46.876Z</time></trkpt><trkpt lat="44.4163267" lon="9.1686333"><ele>543.8</ele><time>2026-04-28T15:15:48.875Z</time></trkpt><trkpt lat="44.416335" lon="9.168545"><ele>543.5999999999999</ele><time>2026-04-28T15:15:49.875Z</time></trkpt><trkpt lat="44.4163583" lon="9.1683867"><ele>543.4</ele><time>2026-04-28T15:15:51.876Z</time></trkpt><trkpt lat="44.416335" lon="9.1682033"><ele>543.1999999999999</ele><time>2026-04-28T15:15:53.875Z</time></trkpt><trkpt lat="44.4163067" lon="9.1681017"><ele>543.0</ele><time>2026-04-28T15:15:54.877Z</time></trkpt><trkpt lat="44.4162667" lon="9.168005"><ele>543.0</ele><time>2026-04-28T15:15:55.873Z</time></trkpt><trkpt lat="44.416235" lon="9.1679183"><ele>543.0</ele><time>2026-04-28T15:15:56.873Z</time></trkpt><trkpt lat="44.41621" lon="9.1677833"><ele>543.0</ele><time>2026-04-28T15:15:58.877Z</time></trkpt><trkpt lat="44.416265" lon="9.167705"><ele>543.0</ele><time>2026-04-28T15:16:01.875Z</time></trkpt><trkpt lat="44.4163217" lon="9.1676133"><ele>543.0</ele><time>2026-04-28T15:16:03.876Z</time></trkpt><trkpt lat="44.416365" lon="9.1674917"><ele>543.0</ele><time>2026-04-28T15:16:05.876Z</time></trkpt><trkpt lat="44.4164417" lon="9.16738"><ele>541.8333333333334</ele><time>2026-04-28T15:16:07.878Z</time></trkpt><trkpt lat="44.41649" lon="9.1673183"><ele>540.6666666666666</ele><time>2026-04-28T15:16:08.877Z</time></trkpt><trkpt lat="44.4165333" lon="9.167205"><ele>539.5</ele><time>2026-04-28T15:16:10.877Z</time></trkpt><trkpt lat="44.41658" lon="9.167075"><ele>538.3333333333333</ele><time>2026-04-28T15:16:12.876Z</time></trkpt><trkpt lat="44.4166217" lon="9.166995"><ele>537.1666666666666</ele><time>2026-04-28T15:16:14.875Z</time></trkpt><trkpt lat="44.4166367" lon="9.1669083"><ele>536.0</ele><time>2026-04-28T15:16:17.877Z</time></trkpt><trkpt lat="44.416725" lon="9.1668833"><ele>536.0</ele><time>2026-04-28T15:16:20.878Z</time></trkpt><trkpt lat="44.41682" lon="9.1668683"><ele>536.0</ele><time>2026-04-28T15:16:22.877Z</time></trkpt><trkpt lat="44.4169033" lon="9.1668183"><ele>536.0</ele><time>2026-04-28T15:16:23.877Z</time></trkpt><trkpt lat="44.41698" lon="9.16675"><ele>536.0</ele><time>2026-04-28T15:16:24.879Z</time></trkpt><trkpt lat="44.4170533" lon="9.1666767"><ele>536.0</ele><time>2026-04-28T15:16:25.875Z</time></trkpt><trkpt lat="44.4171217" lon="9.1665733"><ele>535.6666666666666</ele><time>2026-04-28T15:16:26.883Z</time></trkpt><trkpt lat="44.417175" lon="9.166455"><ele>535.3333333333333</ele><time>2026-04-28T15:16:27.875Z</time></trkpt><trkpt lat="44.4172283" lon="9.1663583"><ele>535.0</ele><time>2026-04-28T15:16:28.875Z</time></trkpt><trkpt lat="44.4172817" lon="9.1663033"><ele>534.6666666666666</ele><time>2026-04-28T15:16:31.878Z</time></trkpt><trkpt lat="44.4173083" lon="9.1664033"><ele>534.3333333333334</ele><time>2026-04-28T15:16:33.877Z</time></trkpt><trkpt lat="44.4173267" lon="9.16649"><ele>534.0</ele><time>2026-04-28T15:16:34.876Z</time></trkpt><trkpt lat="44.4173517" lon="9.1666217"><ele>530.6666666666666</ele><time>2026-04-28T15:16:35.877Z</time></trkpt><trkpt lat="44.4173667" lon="9.16676"><ele>527.3333333333334</ele><time>2026-04-28T15:16:36.877Z</time></trkpt><trkpt lat="44.4173683" lon="9.1668633"><ele>524.0</ele><time>2026-04-28T15:16:37.875Z</time></trkpt><trkpt lat="44.4173117" lon="9.1670317"><ele>520.6666666666667</ele><time>2026-04-28T15:16:39.876Z</time></trkpt><trkpt lat="44.4172633" lon="9.1671117"><ele>517.3333333333334</ele><time>2026-04-28T15:16:40.874Z</time></trkpt><trkpt lat="44.4172267" lon="9.1671917"><ele>514.0</ele><time>2026-04-28T15:16:41.874Z</time></trkpt><trkpt lat="44.4171633" lon="9.1673517"><ele>516.5</ele><time>2026-04-28T15:16:43.874Z</time></trkpt><trkpt lat="44.4171467" lon="9.1674633"><ele>519.0</ele><time>2026-04-28T15:16:44.876Z</time></trkpt><trkpt lat="44.4171283" lon="9.16762"><ele>521.5</ele><time>2026-04-28T15:16:45.874Z</time></trkpt><trkpt lat="44.4171217" lon="9.16775"><ele>524.0</ele><time>2026-04-28T15:16:46.875Z</time></trkpt><trkpt lat="44.417115" lon="9.1678667"><ele>526.5</ele><time>2026-04-28T15:16:47.876Z</time></trkpt><trkpt lat="44.4171117" lon="9.167955"><ele>529.0</ele><time>2026-04-28T15:16:48.875Z</time></trkpt><trkpt lat="44.4171483" lon="9.1680317"><ele>520.8</ele><time>2026-04-28T15:16:51.873Z</time></trkpt><trkpt lat="44.4172183" lon="9.1678917"><ele>512.5999999999999</ele><time>2026-04-28T15:16:54.878Z</time></trkpt><trkpt lat="44.417265" lon="9.1677983"><ele>504.4</ele><time>2026-04-28T15:16:55.877Z</time></trkpt><trkpt lat="44.417315" lon="9.1677083"><ele>496.2</ele><time>2026-04-28T15:16:56.877Z</time></trkpt><trkpt lat="44.4173767" lon="9.1676283"><ele>488.0</ele><time>2026-04-28T15:16:57.874Z</time></trkpt><trkpt lat="44.4174467" lon="9.1675633"><ele>488.0</ele><time>2026-04-28T15:16:58.87Z</time></trkpt><trkpt lat="44.4175217" lon="9.1675067"><ele>487.99999999999994</ele><time>2026-04-28T15:16:59.875Z</time></trkpt><trkpt lat="44.41762" lon="9.1674683"><ele>487.99999999999994</ele><time>2026-04-28T15:17:00.877Z</time></trkpt><trkpt lat="44.417715" lon="9.1674317"><ele>488.0</ele><time>2026-04-28T15:17:01.875Z</time></trkpt><trkpt lat="44.4178033" lon="9.1674133"><ele>488.0</ele><time>2026-04-28T15:17:02.872Z</time></trkpt><trkpt lat="44.4178883" lon="9.167385"><ele>483.99999999999994</ele><time>2026-04-28T15:17:03.878Z</time></trkpt><trkpt lat="44.417965" lon="9.16734"><ele>480.0</ele><time>2026-04-28T15:17:04.876Z</time></trkpt><trkpt lat="44.4180217" lon="9.1672067"><ele>476.0</ele><time>2026-04-28T15:17:06.876Z</time></trkpt><trkpt lat="44.4180117" lon="9.1670967"><ele>472.0</ele><time>2026-04-28T15:17:07.875Z</time></trkpt><trkpt lat="44.418015" lon="9.1669917"><ele>467.99999999999994</ele><time>2026-04-28T15:17:08.876Z</time></trkpt><trkpt lat="44.4180033" lon="9.1668817"><ele>464.0</ele><time>2026-04-28T15:17:09.874Z</time></trkpt><trkpt lat="44.4180317" lon="9.1667267"><ele>464.0</ele><time>2026-04-28T15:17:11.875Z</time></trkpt><trkpt lat="44.4181067" lon="9.166635"><ele>464.0</ele><time>2026-04-28T15:17:13.874Z</time></trkpt><trkpt lat="44.4182117" lon="9.1665483"><ele>464.0</ele><time>2026-04-28T15:17:15.874Z</time></trkpt><trkpt lat="44.418345" lon="9.1664833"><ele>464.0</ele><time>2026-04-28T15:17:17.875Z</time></trkpt><trkpt lat="44.4184233" lon="9.1664567"><ele>464.0</ele><time>2026-04-28T15:17:18.876Z</time></trkpt><trkpt lat="44.4184883" lon="9.1664233"><ele>466.99999999999994</ele><time>2026-04-28T15:17:19.874Z</time></trkpt><trkpt lat="44.4185417" lon="9.166265"><ele>470.0</ele><time>2026-04-28T15:17:21.876Z</time></trkpt><trkpt lat="44.4185317" lon="9.1661417"><ele>473.0</ele><time>2026-04-28T15:17:22.874Z</time></trkpt><trkpt lat="44.418515" lon="9.16603"><ele>476.0</ele><time>2026-04-28T15:17:23.874Z</time></trkpt><trkpt lat="44.4184917" lon="9.1659267"><ele>478.99999999999994</ele><time>2026-04-28T15:17:24.874Z</time></trkpt><trkpt lat="44.4184783" lon="9.165835"><ele>482.0</ele><time>2026-04-28T15:17:25.876Z</time></trkpt><trkpt lat="44.4184983" lon="9.1657267"><ele>478.66666666666663</ele><time>2026-04-28T15:17:27.871Z</time></trkpt><trkpt lat="44.418545" lon="9.1656517"><ele>475.3333333333333</ele><time>2026-04-28T15:17:30.876Z</time></trkpt><trkpt lat="44.4186267" lon="9.16563"><ele>472.0</ele><time>2026-04-28T15:17:32.879Z</time></trkpt><trkpt lat="44.4187" lon="9.1656383"><ele>468.66666666666663</ele><time>2026-04-28T15:17:34.876Z</time></trkpt><trkpt lat="44.4187633" lon="9.16563"><ele>465.3333333333333</ele><time>2026-04-28T15:17:36.878Z</time></trkpt><trkpt lat="44.418845" lon="9.16559"><ele>462.0</ele><time>2026-04-28T15:17:38.876Z</time></trkpt><trkpt lat="44.41892" lon="9.16546"><ele>462.0</ele><time>2026-04-28T15:17:40.873Z</time></trkpt><trkpt lat="44.41895" lon="9.16534"><ele>462.00000000000006</ele><time>2026-04-28T15:17:41.874Z</time></trkpt><trkpt lat="44.4189717" lon="9.1652317"><ele>462.00000000000006</ele><time>2026-04-28T15:17:42.876Z</time></trkpt><trkpt lat="44.418995" lon="9.1651367"><ele>462.0</ele><time>2026-04-28T15:17:43.877Z</time></trkpt><trkpt lat="44.4190517" lon="9.1649917"><ele>462.0</ele><time>2026-04-28T15:17:45.876Z</time></trkpt><trkpt lat="44.41913" lon="9.1649317"><ele>462.0</ele><time>2026-04-28T15:17:47.877Z</time></trkpt><trkpt lat="44.4192067" lon="9.16498"><ele>462.0</ele><time>2026-04-28T15:17:50.877Z</time></trkpt><trkpt lat="44.4192667" lon="9.1650317"><ele>462.0</ele><time>2026-04-28T15:17:52.877Z</time></trkpt><trkpt lat="44.4193567" lon="9.1651283"><ele>462.0</ele><time>2026-04-28T15:17:54.878Z</time></trkpt><trkpt lat="44.4194267" lon="9.1652117"><ele>462.0</ele><time>2026-04-28T15:17:55.876Z</time></trkpt><trkpt lat="44.4194933" lon="9.165295"><ele>462.0</ele><time>2026-04-28T15:17:56.876Z</time></trkpt><trkpt lat="44.4195867" lon="9.1654167"><ele>463.25</ele><time>2026-04-28T15:17:57.877Z</time></trkpt><trkpt lat="44.4196967" lon="9.16554"><ele>464.5</ele><time>2026-04-28T15:17:58.876Z</time></trkpt><trkpt lat="44.419795" lon="9.1656283"><ele>465.75</ele><time>2026-04-28T15:17:59.875Z</time></trkpt><trkpt lat="44.4198883" lon="9.1657083"><ele>467.0</ele><time>2026-04-28T15:18:00.873Z</time></trkpt><trkpt lat="44.41999" lon="9.1657817"><ele>460.8</ele><time>2026-04-28T15:18:01.875Z</time></trkpt><trkpt lat="44.42009" lon="9.1658367"><ele>454.6</ele><time>2026-04-28T15:18:02.878Z</time></trkpt><trkpt lat="44.4202017" lon="9.165865"><ele>448.40000000000003</ele><time>2026-04-28T15:18:03.878Z</time></trkpt><trkpt lat="44.420305" lon="9.1658833"><ele>442.20000000000005</ele><time>2026-04-28T15:18:04.876Z</time></trkpt><trkpt lat="44.42039" lon="9.1659083"><ele>436.0</ele><time>2026-04-28T15:18:05.876Z</time></trkpt><trkpt lat="44.42047" lon="9.16595"><ele>440.20000000000005</ele><time>2026-04-28T15:18:06.877Z</time></trkpt><trkpt lat="44.4205567" lon="9.1660083"><ele>444.40000000000003</ele><time>2026-04-28T15:18:07.875Z</time></trkpt><trkpt lat="44.4206483" lon="9.166075"><ele>448.6</ele><time>2026-04-28T15:18:08.875Z</time></trkpt><trkpt lat="44.4207283" lon="9.1661433"><ele>452.8</ele><time>2026-04-28T15:18:09.876Z</time></trkpt><trkpt lat="44.420805" lon="9.1662333"><ele>457.0</ele><time>2026-04-28T15:18:10.875Z</time></trkpt><trkpt lat="44.420875" lon="9.1663167"><ele>457.0</ele><time>2026-04-28T15:18:11.876Z</time></trkpt><trkpt lat="44.4209367" lon="9.1663917"><ele>457.00000000000006</ele><time>2026-04-28T15:18:12.875Z</time></trkpt><trkpt lat="44.4209933" lon="9.1664383"><ele>457.00000000000006</ele><time>2026-04-28T15:18:13.877Z</time></trkpt><trkpt lat="44.4211083" lon="9.1664433"><ele>457.0</ele><time>2026-04-28T15:18:15.875Z</time></trkpt><trkpt lat="44.421185" lon="9.166385"><ele>457.0</ele><time>2026-04-28T15:18:16.874Z</time></trkpt><trkpt lat="44.4212717" lon="9.166315"><ele>454.20000000000005</ele><time>2026-04-28T15:18:17.878Z</time></trkpt><trkpt lat="44.4213667" lon="9.1662367"><ele>451.40000000000003</ele><time>2026-04-28T15:18:18.876Z</time></trkpt><trkpt lat="44.42146" lon="9.1661617"><ele>448.59999999999997</ele><time>2026-04-28T15:18:19.874Z</time></trkpt><trkpt lat="44.4215467" lon="9.16609"><ele>445.79999999999995</ele><time>2026-04-28T15:18:20.877Z</time></trkpt><trkpt lat="44.4216267" lon="9.1660233"><ele>443.0</ele><time>2026-04-28T15:18:21.875Z</time></trkpt><trkpt lat="44.4217083" lon="9.1659283"><ele>443.0</ele><time>2026-04-28T15:18:22.873Z</time></trkpt><trkpt lat="44.4217933" lon="9.1658183"><ele>442.99999999999994</ele><time>2026-04-28T15:18:23.874Z</time></trkpt><trkpt lat="44.4218633" lon="9.1657267"><ele>442.99999999999994</ele><time>2026-04-28T15:18:24.874Z</time></trkpt><trkpt lat="44.42192" lon="9.1656683"><ele>443.0</ele><time>2026-04-28T15:18:25.876Z</time></trkpt><trkpt lat="44.42199" lon="9.165615"><ele>443.0</ele><time>2026-04-28T15:18:26.878Z</time></trkpt><trkpt lat="44.4220767" lon="9.1655633"><ele>443.49999999999994</ele><time>2026-04-28T15:18:27.876Z</time></trkpt><trkpt lat="44.4221567" lon="9.16549"><ele>444.0</ele><time>2026-04-28T15:18:28.874Z</time></trkpt><trkpt lat="44.42222" lon="9.1653983"><ele>444.5</ele><time>2026-04-28T15:18:29.875Z</time></trkpt><trkpt lat="44.4222717" lon="9.1653167"><ele>445.0</ele><time>2026-04-28T15:18:30.875Z</time></trkpt><trkpt lat="44.4223367" lon="9.1652367"><ele>445.49999999999994</ele><time>2026-04-28T15:18:31.877Z</time></trkpt><trkpt lat="44.42241" lon="9.1651667"><ele>446.0</ele><time>2026-04-28T15:18:32.877Z</time></trkpt><trkpt lat="44.422475" lon="9.16511"><ele>446.0</ele><time>2026-04-28T15:18:33.876Z</time></trkpt><trkpt lat="44.42255" lon="9.1651083"><ele>446.0</ele><time>2026-04-28T15:18:34.875Z</time></trkpt><trkpt lat="44.422625" lon="9.1650933"><ele>446.0</ele><time>2026-04-28T15:18:35.876Z</time></trkpt><trkpt lat="44.422755" lon="9.1652517"><ele>446.0</ele><time>2026-04-28T15:18:36.877Z</time></trkpt><trkpt lat="44.4228967" lon="9.1654317"><ele>445.6</ele><time>2026-04-28T15:18:37.875Z</time></trkpt><trkpt lat="44.4229983" lon="9.1655483"><ele>445.20000000000005</ele><time>2026-04-28T15:18:38.877Z</time></trkpt><trkpt lat="44.4230833" lon="9.1656483"><ele>444.79999999999995</ele><time>2026-04-28T15:18:39.877Z</time></trkpt><trkpt lat="44.4231567" lon="9.1657117"><ele>444.4</ele><time>2026-04-28T15:18:40.874Z</time></trkpt><trkpt lat="44.4232167" lon="9.1657667"><ele>444.0</ele><time>2026-04-28T15:18:41.875Z</time></trkpt><trkpt lat="44.4231917" lon="9.165645"><ele>444.0</ele><time>2026-04-28T15:18:47.876Z</time></trkpt><trkpt lat="44.4231467" lon="9.1654817"><ele>444.0</ele><time>2026-04-28T15:18:49.877Z</time></trkpt><trkpt lat="44.42311" lon="9.1653767"><ele>444.0</ele><time>2026-04-28T15:18:50.876Z</time></trkpt><trkpt lat="44.423075" lon="9.1652683"><ele>444.0</ele><time>2026-04-28T15:18:51.875Z</time></trkpt><trkpt lat="44.4230417" lon="9.1651717"><ele>444.0</ele><time>2026-04-28T15:18:52.873Z</time></trkpt><trkpt lat="44.4230217" lon="9.1650617"><ele>444.0</ele><time>2026-04-28T15:18:53.876Z</time></trkpt><trkpt lat="44.4230133" lon="9.1649517"><ele>444.0</ele><time>2026-04-28T15:18:54.874Z</time></trkpt><trkpt lat="44.4230017" lon="9.1648467"><ele>444.0</ele><time>2026-04-28T15:18:55.877Z</time></trkpt><trkpt lat="44.422975" lon="9.164745"><ele>444.0</ele><time>2026-04-28T15:18:56.877Z</time></trkpt><trkpt lat="44.42293" lon="9.16464"><ele>444.0</ele><time>2026-04-28T15:18:57.876Z</time></trkpt><trkpt lat="44.422875" lon="9.1645383"><ele>444.0</ele><time>2026-04-28T15:18:58.876Z</time></trkpt><trkpt lat="44.4228083" lon="9.1644583"><ele>448.75</ele><time>2026-04-28T15:18:59.876Z</time></trkpt><trkpt lat="44.4227283" lon="9.1643917"><ele>453.5</ele><time>2026-04-28T15:19:00.877Z</time></trkpt><trkpt lat="44.4226317" lon="9.1643217"><ele>458.25</ele><time>2026-04-28T15:19:01.876Z</time></trkpt><trkpt lat="44.4224983" lon="9.1642683"><ele>463.0</ele><time>2026-04-28T15:19:02.879Z</time></trkpt><trkpt lat="44.4223517" lon="9.164225"><ele>463.0</ele><time>2026-04-28T15:19:03.876Z</time></trkpt><trkpt lat="44.4222183" lon="9.1642367"><ele>462.99999999999994</ele><time>2026-04-28T15:19:04.873Z</time></trkpt><trkpt lat="44.422115" lon="9.1642733"><ele>462.99999999999994</ele><time>2026-04-28T15:19:05.878Z</time></trkpt><trkpt lat="44.4220067" lon="9.16434"><ele>463.0</ele><time>2026-04-28T15:19:06.876Z</time></trkpt><trkpt lat="44.4219317" lon="9.1643917"><ele>463.0</ele><time>2026-04-28T15:19:07.877Z</time></trkpt><trkpt lat="44.4218433" lon="9.1644233"><ele>467.33333333333337</ele><time>2026-04-28T15:19:08.878Z</time></trkpt><trkpt lat="44.42175" lon="9.164425"><ele>471.6666666666667</ele><time>2026-04-28T15:19:09.878Z</time></trkpt><trkpt lat="44.421675" lon="9.16441"><ele>476.0</ele><time>2026-04-28T15:19:10.882Z</time></trkpt><trkpt lat="44.4217333" lon="9.1642833"><ele>480.33333333333337</ele><time>2026-04-28T15:19:15.876Z</time></trkpt><trkpt lat="44.421805" lon="9.1642333"><ele>484.6666666666667</ele><time>2026-04-28T15:19:16.877Z</time></trkpt><trkpt lat="44.4218617" lon="9.16417"><ele>489.0</ele><time>2026-04-28T15:19:17.877Z</time></trkpt><trkpt lat="44.4218967" lon="9.1640967"><ele>490.6</ele><time>2026-04-28T15:19:18.878Z</time></trkpt><trkpt lat="44.4218983" lon="9.1639383"><ele>492.2</ele><time>2026-04-28T15:19:20.876Z</time></trkpt><trkpt lat="44.421825" lon="9.1638083"><ele>493.80000000000007</ele><time>2026-04-28T15:19:22.877Z</time></trkpt><trkpt lat="44.4217583" lon="9.163675"><ele>495.40000000000003</ele><time>2026-04-28T15:19:24.875Z</time></trkpt><trkpt lat="44.4217617" lon="9.163555"><ele>497.0</ele><time>2026-04-28T15:19:26.876Z</time></trkpt><trkpt lat="44.421785" lon="9.163405"><ele>497.0</ele><time>2026-04-28T15:19:28.875Z</time></trkpt><trkpt lat="44.4217717" lon="9.1633"><ele>497.00000000000006</ele><time>2026-04-28T15:19:29.878Z</time></trkpt><trkpt lat="44.4217433" lon="9.1632"><ele>497.00000000000006</ele><time>2026-04-28T15:19:30.875Z</time></trkpt><trkpt lat="44.4216867" lon="9.1631067"><ele>497.0</ele><time>2026-04-28T15:19:31.877Z</time></trkpt><trkpt lat="44.4215817" lon="9.1629867"><ele>497.0</ele><time>2026-04-28T15:19:32.876Z</time></trkpt><trkpt lat="44.4214783" lon="9.1628767"><ele>494.40000000000003</ele><time>2026-04-28T15:19:33.874Z</time></trkpt><trkpt lat="44.42139" lon="9.1628033"><ele>491.80000000000007</ele><time>2026-04-28T15:19:34.875Z</time></trkpt><trkpt lat="44.4212967" lon="9.16278"><ele>489.2</ele><time>2026-04-28T15:19:35.877Z</time></trkpt><trkpt lat="44.4211967" lon="9.1627717"><ele>486.6</ele><time>2026-04-28T15:19:36.875Z</time></trkpt><trkpt lat="44.4211217" lon="9.1627517"><ele>484.0</ele><time>2026-04-28T15:19:37.875Z</time></trkpt><trkpt lat="44.4210533" lon="9.1627067"><ele>493.2</ele><time>2026-04-28T15:19:38.876Z</time></trkpt><trkpt lat="44.4209817" lon="9.1625783"><ele>502.4</ele><time>2026-04-28T15:19:40.875Z</time></trkpt><trkpt lat="44.4208917" lon="9.1624733"><ele>511.6</ele><time>2026-04-28T15:19:42.879Z</time></trkpt><trkpt lat="44.420855" lon="9.162385"><ele>520.8</ele><time>2026-04-28T15:19:43.877Z</time></trkpt><trkpt lat="44.4208367" lon="9.162285"><ele>530.0</ele><time>2026-04-28T15:19:44.875Z</time></trkpt><trkpt lat="44.4208267" lon="9.162185"><ele>530.0</ele><time>2026-04-28T15:19:45.876Z</time></trkpt><trkpt lat="44.4208217" lon="9.162095"><ele>530.0</ele><time>2026-04-28T15:19:46.881Z</time></trkpt><trkpt lat="44.420815" lon="9.1619967"><ele>530.0</ele><time>2026-04-28T15:19:48.876Z</time></trkpt><trkpt lat="44.4207817" lon="9.1619033"><ele>530.0</ele><time>2026-04-28T15:19:52.877Z</time></trkpt><trkpt lat="44.420735" lon="9.1619833"><ele>530.0</ele><time>2026-04-28T15:19:56.877Z</time></trkpt><trkpt lat="44.4206683" lon="9.1620533"><ele>530.0</ele><time>2026-04-28T15:19:58.878Z</time></trkpt><trkpt lat="44.420615" lon="9.1621717"><ele>530.0</ele><time>2026-04-28T15:20:04.875Z</time></trkpt><trkpt lat="44.4206133" lon="9.1623333"><ele>530.0</ele><time>2026-04-28T15:20:08.878Z</time></trkpt><trkpt lat="44.4206933" lon="9.162415"><ele>530.0</ele><time>2026-04-28T15:20:10.877Z</time></trkpt><trkpt lat="44.4207583" lon="9.1625283"><ele>530.0</ele><time>2026-04-28T15:20:12.874Z</time></trkpt><trkpt lat="44.42077" lon="9.16263"><ele>530.0</ele><time>2026-04-28T15:20:14.876Z</time></trkpt><trkpt lat="44.4207417" lon="9.1627233"><ele>530.0</ele><time>2026-04-28T15:20:16.876Z</time></trkpt><trkpt lat="44.42071" lon="9.1628617"><ele>530.0</ele><time>2026-04-28T15:20:18.877Z</time></trkpt><trkpt lat="44.42069" lon="9.1629967"><ele>530.0</ele><time>2026-04-28T15:20:20.877Z</time></trkpt><trkpt lat="44.4206833" lon="9.16313"><ele>530.0</ele><time>2026-04-28T15:20:22.875Z</time></trkpt><trkpt lat="44.4206683" lon="9.16326"><ele>530.0</ele><time>2026-04-28T15:20:24.877Z</time></trkpt><trkpt lat="44.4206367" lon="9.16334"><ele>530.0</ele><time>2026-04-28T15:20:27.877Z</time></trkpt><trkpt lat="44.420585" lon="9.16327"><ele>530.0</ele><time>2026-04-28T15:20:31.878Z</time></trkpt><trkpt lat="44.4205317" lon="9.163195"><ele>530.0</ele><time>2026-04-28T15:20:33.875Z</time></trkpt><trkpt lat="44.4204867" lon="9.1631183"><ele>530.0</ele><time>2026-04-28T15:20:37.877Z</time></trkpt><trkpt lat="44.42045" lon="9.1630067"><ele>530.0</ele><time>2026-04-28T15:20:40.875Z</time></trkpt><trkpt lat="44.420415" lon="9.1629033"><ele>530.0</ele><time>2026-04-28T15:20:43.88Z</time></trkpt><trkpt lat="44.4203667" lon="9.1628017"><ele>536.2</ele><time>2026-04-28T15:20:46.877Z</time></trkpt><trkpt lat="44.4203483" lon="9.1626633"><ele>542.4</ele><time>2026-04-28T15:20:48.878Z</time></trkpt><trkpt lat="44.4203217" lon="9.1625317"><ele>548.6</ele><time>2026-04-28T15:20:50.875Z</time></trkpt><trkpt lat="44.4202867" lon="9.16242"><ele>554.8</ele><time>2026-04-28T15:20:52.878Z</time></trkpt><trkpt lat="44.4202533" lon="9.1623067"><ele>561.0</ele><time>2026-04-28T15:20:54.879Z</time></trkpt><trkpt lat="44.4202083" lon="9.1621633"><ele>564.4</ele><time>2026-04-28T15:20:56.876Z</time></trkpt><trkpt lat="44.4202317" lon="9.1620417"><ele>567.8</ele><time>2026-04-28T15:20:58.877Z</time></trkpt><trkpt lat="44.420265" lon="9.1618983"><ele>571.1999999999999</ele><time>2026-04-28T15:21:00.877Z</time></trkpt><trkpt lat="44.4202483" lon="9.1617317"><ele>574.6</ele><time>2026-04-28T15:21:02.878Z</time></trkpt><trkpt lat="44.420215" lon="9.1616533"><ele>578.0</ele><time>2026-04-28T15:21:03.876Z</time></trkpt><trkpt lat="44.4201617" lon="9.1615367"><ele>578.4</ele><time>2026-04-28T15:21:05.877Z</time></trkpt><trkpt lat="44.4201383" lon="9.1614533"><ele>578.8</ele><time>2026-04-28T15:21:07.877Z</time></trkpt><trkpt lat="44.42016" lon="9.1613183"><ele>579.2</ele><time>2026-04-28T15:21:09.877Z</time></trkpt><trkpt lat="44.420165" lon="9.16114"><ele>579.6</ele><time>2026-04-28T15:21:11.874Z</time></trkpt><trkpt lat="44.4201633" lon="9.1610467"><ele>580.0</ele><time>2026-04-28T15:21:12.878Z</time></trkpt><trkpt lat="44.420145" lon="9.16089"><ele>580.0</ele><time>2026-04-28T15:21:14.876Z</time></trkpt><trkpt lat="44.42015" lon="9.16076"><ele>580.0</ele><time>2026-04-28T15:21:16.877Z</time></trkpt><trkpt lat="44.4202017" lon="9.1606167"><ele>580.0</ele><time>2026-04-28T15:21:18.876Z</time></trkpt><trkpt lat="44.4202167" lon="9.16053"><ele>580.0</ele><time>2026-04-28T15:21:19.876Z</time></trkpt><trkpt lat="44.4202517" lon="9.1604083"><ele>580.0</ele><time>2026-04-28T15:21:20.879Z</time></trkpt><trkpt lat="44.4202667" lon="9.160305"><ele>580.0</ele><time>2026-04-28T15:21:21.876Z</time></trkpt><trkpt lat="44.42027" lon="9.1602167"><ele>578.8333333333334</ele><time>2026-04-28T15:21:22.877Z</time></trkpt><trkpt lat="44.4202617" lon="9.1601267"><ele>577.6666666666667</ele><time>2026-04-28T15:21:23.876Z</time></trkpt><trkpt lat="44.4202367" lon="9.1600317"><ele>576.5</ele><time>2026-04-28T15:21:24.875Z</time></trkpt><trkpt lat="44.4202267" lon="9.1599283"><ele>575.3333333333334</ele><time>2026-04-28T15:21:25.875Z</time></trkpt><trkpt lat="44.42021" lon="9.159835"><ele>574.1666666666666</ele><time>2026-04-28T15:21:26.875Z</time></trkpt><trkpt lat="44.4201617" lon="9.159685"><ele>573.0</ele><time>2026-04-28T15:21:28.877Z</time></trkpt><trkpt lat="44.4201267" lon="9.1596083"><ele>570.3333333333334</ele><time>2026-04-28T15:21:29.876Z</time></trkpt><trkpt lat="44.4200883" lon="9.15953"><ele>567.6666666666666</ele><time>2026-04-28T15:21:30.876Z</time></trkpt><trkpt lat="44.420055" lon="9.159435"><ele>565.0</ele><time>2026-04-28T15:21:31.875Z</time></trkpt><trkpt lat="44.420025" lon="9.1593367"><ele>562.3333333333333</ele><time>2026-04-28T15:21:32.88Z</time></trkpt><trkpt lat="44.4199967" lon="9.1592467"><ele>559.6666666666666</ele><time>2026-04-28T15:21:33.875Z</time></trkpt><trkpt lat="44.4199767" lon="9.15916"><ele>557.0</ele><time>2026-04-28T15:21:34.876Z</time></trkpt><trkpt lat="44.4199617" lon="9.1590033"><ele>555.1666666666666</ele><time>2026-04-28T15:21:36.875Z</time></trkpt><trkpt lat="44.4199833" lon="9.1588533"><ele>553.3333333333333</ele><time>2026-04-28T15:21:38.878Z</time></trkpt><trkpt lat="44.42004" lon="9.1587233"><ele>551.5</ele><time>2026-04-28T15:21:40.874Z</time></trkpt><trkpt lat="44.4200883" lon="9.1586333"><ele>549.6666666666666</ele><time>2026-04-28T15:21:42.876Z</time></trkpt><trkpt lat="44.420145" lon="9.1585567"><ele>547.8333333333334</ele><time>2026-04-28T15:21:44.879Z</time></trkpt><trkpt lat="44.4201767" lon="9.1584683"><ele>546.0</ele><time>2026-04-28T15:21:46.876Z</time></trkpt><trkpt lat="44.42016" lon="9.15834"><ele>546.0</ele><time>2026-04-28T15:21:48.878Z</time></trkpt><trkpt lat="44.42013" lon="9.1582517"><ele>546.0</ele><time>2026-04-28T15:21:49.878Z</time></trkpt><trkpt lat="44.4200967" lon="9.1581683"><ele>546.0</ele><time>2026-04-28T15:21:50.876Z</time></trkpt><trkpt lat="44.4200583" lon="9.1580933"><ele>546.0</ele><time>2026-04-28T15:21:51.872Z</time></trkpt><trkpt lat="44.41999" lon="9.1579733"><ele>546.0</ele><time>2026-04-28T15:21:53.875Z</time></trkpt><trkpt lat="44.41992" lon="9.1578883"><ele>546.0</ele><time>2026-04-28T15:21:55.876Z</time></trkpt><trkpt lat="44.4198867" lon="9.1578033"><ele>545.0</ele><time>2026-04-28T15:21:57.877Z</time></trkpt><trkpt lat="44.419925" lon="9.157695"><ele>544.0</ele><time>2026-04-28T15:22:00.877Z</time></trkpt><trkpt lat="44.4199617" lon="9.157575"><ele>543.0</ele><time>2026-04-28T15:22:02.878Z</time></trkpt><trkpt lat="44.41998" lon="9.1574467"><ele>542.0</ele><time>2026-04-28T15:22:04.876Z</time></trkpt><trkpt lat="44.4200117" lon="9.1573067"><ele>541.0</ele><time>2026-04-28T15:22:06.879Z</time></trkpt><trkpt lat="44.420035" lon="9.157145"><ele>541.0</ele><time>2026-04-28T15:22:08.877Z</time></trkpt><trkpt lat="44.4200417" lon="9.1569717"><ele>541.0</ele><time>2026-04-28T15:22:10.876Z</time></trkpt><trkpt lat="44.4200583" lon="9.1568783"><ele>541.0</ele><time>2026-04-28T15:22:11.875Z</time></trkpt><trkpt lat="44.4200733" lon="9.1567867"><ele>541.0</ele><time>2026-04-28T15:22:12.876Z</time></trkpt><trkpt lat="44.4200967" lon="9.1566333"><ele>541.0</ele><time>2026-04-28T15:22:14.876Z</time></trkpt><trkpt lat="44.4201783" lon="9.1564967"><ele>542.5</ele><time>2026-04-28T15:22:16.874Z</time></trkpt><trkpt lat="44.4202733" lon="9.1564917"><ele>544.0</ele><time>2026-04-28T15:22:18.877Z</time></trkpt><trkpt lat="44.4203433" lon="9.1564217"><ele>545.5</ele><time>2026-04-28T15:22:21.878Z</time></trkpt><trkpt lat="44.420405" lon="9.1563117"><ele>547.0</ele><time>2026-04-28T15:22:23.877Z</time></trkpt><trkpt lat="44.4204717" lon="9.1562317"><ele>548.5</ele><time>2026-04-28T15:22:25.878Z</time></trkpt><trkpt lat="44.4205233" lon="9.1561783"><ele>550.0</ele><time>2026-04-28T15:22:27.875Z</time></trkpt><trkpt lat="44.42056" lon="9.1561"><ele>549.0</ele><time>2026-04-28T15:22:29.875Z</time></trkpt><trkpt lat="44.4205867" lon="9.1560183"><ele>548.0</ele><time>2026-04-28T15:22:31.877Z</time></trkpt><trkpt lat="44.420655" lon="9.155935"><ele>547.0</ele><time>2026-04-28T15:22:34.877Z</time></trkpt><trkpt lat="44.4207233" lon="9.15586"><ele>546.0</ele><time>2026-04-28T15:22:36.876Z</time></trkpt><trkpt lat="44.4207783" lon="9.155745"><ele>545.0</ele><time>2026-04-28T15:22:38.877Z</time></trkpt><trkpt lat="44.420875" lon="9.1556883"><ele>544.0</ele><time>2026-04-28T15:22:40.877Z</time></trkpt><trkpt lat="44.4209533" lon="9.155685"><ele>544.0</ele><time>2026-04-28T15:22:41.872Z</time></trkpt><trkpt lat="44.4210683" lon="9.1556717"><ele>544.0</ele><time>2026-04-28T15:22:43.877Z</time></trkpt><trkpt lat="44.4211567" lon="9.1555933"><ele>544.0</ele><time>2026-04-28T15:22:45.877Z</time></trkpt><trkpt lat="44.4212167" lon="9.155545"><ele>544.0</ele><time>2026-04-28T15:22:46.871Z</time></trkpt><trkpt lat="44.4212833" lon="9.1554983"><ele>544.0</ele><time>2026-04-28T15:22:47.874Z</time></trkpt><trkpt lat="44.4213517" lon="9.1554667"><ele>544.0</ele><time>2026-04-28T15:22:48.876Z</time></trkpt><trkpt lat="44.4214633" lon="9.1554883"><ele>539.0</ele><time>2026-04-28T15:22:50.871Z</time></trkpt><trkpt lat="44.42155" lon="9.15553"><ele>534.0</ele><time>2026-04-28T15:22:52.876Z</time></trkpt><trkpt lat="44.4216567" lon="9.1554517"><ele>529.0</ele><time>2026-04-28T15:22:54.871Z</time></trkpt><trkpt lat="44.4217633" lon="9.1554267"><ele>524.0</ele><time>2026-04-28T15:22:56.876Z</time></trkpt><trkpt lat="44.4218267" lon="9.1554367"><ele>519.0</ele><time>2026-04-28T15:22:57.871Z</time></trkpt><trkpt lat="44.421945" lon="9.1554633"><ele>519.0</ele><time>2026-04-28T15:22:59.877Z</time></trkpt><trkpt lat="44.42201" lon="9.1554717"><ele>519.0</ele><time>2026-04-28T15:23:00.869Z</time></trkpt><trkpt lat="44.4220733" lon="9.155475"><ele>519.0</ele><time>2026-04-28T15:23:01.876Z</time></trkpt><trkpt lat="44.42219" lon="9.1554433"><ele>519.0</ele><time>2026-04-28T15:23:03.874Z</time></trkpt><trkpt lat="44.422295" lon="9.1553667"><ele>519.0</ele><time>2026-04-28T15:23:05.877Z</time></trkpt><trkpt lat="44.422375" lon="9.1552783"><ele>515.6</ele><time>2026-04-28T15:23:07.875Z</time></trkpt><trkpt lat="44.4224317" lon="9.15516"><ele>512.2</ele><time>2026-04-28T15:23:09.878Z</time></trkpt><trkpt lat="44.422455" lon="9.1550117"><ele>508.80000000000007</ele><time>2026-04-28T15:23:11.876Z</time></trkpt><trkpt lat="44.4224133" lon="9.154885"><ele>505.40000000000003</ele><time>2026-04-28T15:23:13.875Z</time></trkpt><trkpt lat="44.4223633" lon="9.1548017"><ele>502.0</ele><time>2026-04-28T15:23:15.868Z</time></trkpt><trkpt lat="44.4223433" lon="9.1546617"><ele>499.6666666666667</ele><time>2026-04-28T15:23:17.875Z</time></trkpt><trkpt lat="44.4223133" lon="9.1545233"><ele>497.33333333333337</ele><time>2026-04-28T15:23:19.871Z</time></trkpt><trkpt lat="44.4222783" lon="9.154385"><ele>495.0</ele><time>2026-04-28T15:23:21.876Z</time></trkpt><trkpt lat="44.4222517" lon="9.1542917"><ele>492.66666666666663</ele><time>2026-04-28T15:23:23.877Z</time></trkpt><trkpt lat="44.4223383" lon="9.1542283"><ele>490.3333333333333</ele><time>2026-04-28T15:23:27.874Z</time></trkpt><trkpt lat="44.4224033" lon="9.1542517"><ele>488.0</ele><time>2026-04-28T15:23:28.876Z</time></trkpt><trkpt lat="44.4224717" lon="9.1542717"><ele>487.99999999999994</ele><time>2026-04-28T15:23:29.875Z</time></trkpt><trkpt lat="44.4225367" lon="9.1542933"><ele>488.0</ele><time>2026-04-28T15:23:30.876Z</time></trkpt><trkpt lat="44.4226017" lon="9.1543283"><ele>488.0</ele><time>2026-04-28T15:23:31.877Z</time></trkpt><trkpt lat="44.42266" lon="9.1543617"><ele>488.0</ele><time>2026-04-28T15:23:32.877Z</time></trkpt><trkpt lat="44.4227667" lon="9.1544417"><ele>487.99999999999994</ele><time>2026-04-28T15:23:34.874Z</time></trkpt><trkpt lat="44.4228767" lon="9.15448"><ele>488.0</ele><time>2026-04-28T15:23:36.876Z</time></trkpt><trkpt lat="44.4229783" lon="9.1545317"><ele>485.16666666666663</ele><time>2026-04-28T15:23:38.875Z</time></trkpt><trkpt lat="44.42305" lon="9.1546083"><ele>482.3333333333333</ele><time>2026-04-28T15:23:40.876Z</time></trkpt><trkpt lat="44.4231033" lon="9.1546917"><ele>479.5</ele><time>2026-04-28T15:23:43.876Z</time></trkpt><trkpt lat="44.423165" lon="9.1546533"><ele>476.66666666666663</ele><time>2026-04-28T15:23:47.876Z</time></trkpt><trkpt lat="44.42323" lon="9.1545967"><ele>473.8333333333333</ele><time>2026-04-28T15:23:49.876Z</time></trkpt><trkpt lat="44.42332" lon="9.15455"><ele>471.0</ele><time>2026-04-28T15:23:51.875Z</time></trkpt><trkpt lat="44.4234067" lon="9.1545433"><ele>471.0</ele><time>2026-04-28T15:23:53.878Z</time></trkpt><trkpt lat="44.4235067" lon="9.1545833"><ele>471.0</ele><time>2026-04-28T15:23:55.876Z</time></trkpt><trkpt lat="44.4236083" lon="9.15458"><ele>471.0</ele><time>2026-04-28T15:23:57.874Z</time></trkpt><trkpt lat="44.4236733" lon="9.1544833"><ele>471.0</ele><time>2026-04-28T15:23:59.875Z</time></trkpt><trkpt lat="44.4237267" lon="9.154375"><ele>471.0</ele><time>2026-04-28T15:24:01.877Z</time></trkpt><trkpt lat="44.4238067" lon="9.1543917"><ele>467.0</ele><time>2026-04-28T15:24:04.875Z</time></trkpt><trkpt lat="44.4238633" lon="9.1544317"><ele>463.0</ele><time>2026-04-28T15:24:06.878Z</time></trkpt><trkpt lat="44.4239417" lon="9.1543617"><ele>459.0</ele><time>2026-04-28T15:24:09.876Z</time></trkpt><trkpt lat="44.42404" lon="9.1543217"><ele>455.0</ele><time>2026-04-28T15:24:11.878Z</time></trkpt><trkpt lat="44.42414" lon="9.1542983"><ele>451.0</ele><time>2026-04-28T15:24:13.873Z</time></trkpt><trkpt lat="44.424255" lon="9.1542617"><ele>451.0</ele><time>2026-04-28T15:24:15.874Z</time></trkpt><trkpt lat="44.4243633" lon="9.1542033"><ele>451.0</ele><time>2026-04-28T15:24:17.876Z</time></trkpt><trkpt lat="44.424485" lon="9.154165"><ele>451.0</ele><time>2026-04-28T15:24:19.875Z</time></trkpt><trkpt lat="44.4245483" lon="9.1542"><ele>451.0</ele><time>2026-04-28T15:24:20.875Z</time></trkpt><trkpt lat="44.42462" lon="9.1542483"><ele>451.0</ele><time>2026-04-28T15:24:21.875Z</time></trkpt><trkpt lat="44.424685" lon="9.1542733"><ele>449.50000000000006</ele><time>2026-04-28T15:24:22.873Z</time></trkpt><trkpt lat="44.4248" lon="9.1542733"><ele>448.0</ele><time>2026-04-28T15:24:24.875Z</time></trkpt><trkpt lat="44.4248917" lon="9.154265"><ele>446.5</ele><time>2026-04-28T15:24:26.876Z</time></trkpt><trkpt lat="44.424955" lon="9.15423"><ele>445.0</ele><time>2026-04-28T15:24:28.878Z</time></trkpt><trkpt lat="44.4250033" lon="9.154155"><ele>443.50000000000006</ele><time>2026-04-28T15:24:30.875Z</time></trkpt><trkpt lat="44.4250783" lon="9.1540667"><ele>442.0</ele><time>2026-04-28T15:24:32.875Z</time></trkpt><trkpt lat="44.4251317" lon="9.1539833"><ele>438.40000000000003</ele><time>2026-04-28T15:24:33.874Z</time></trkpt><trkpt lat="44.4251933" lon="9.1539117"><ele>434.80000000000007</ele><time>2026-04-28T15:24:34.877Z</time></trkpt><trkpt lat="44.425245" lon="9.153845"><ele>431.2</ele><time>2026-04-28T15:24:35.87Z</time></trkpt><trkpt lat="44.4253167" lon="9.1537517"><ele>427.6</ele><time>2026-04-28T15:24:37.875Z</time></trkpt><trkpt lat="44.4254" lon="9.1537167"><ele>424.0</ele><time>2026-04-28T15:24:39.876Z</time></trkpt><trkpt lat="44.425525" lon="9.1537417"><ele>422.1666666666667</ele><time>2026-04-28T15:24:41.875Z</time></trkpt><trkpt lat="44.4256383" lon="9.1537417"><ele>420.33333333333337</ele><time>2026-04-28T15:24:43.874Z</time></trkpt><trkpt lat="44.4257033" lon="9.153785"><ele>418.5</ele><time>2026-04-28T15:24:45.877Z</time></trkpt><trkpt lat="44.4257617" lon="9.1538367"><ele>416.66666666666663</ele><time>2026-04-28T15:24:47.876Z</time></trkpt><trkpt lat="44.4258333" lon="9.1538717"><ele>414.8333333333333</ele><time>2026-04-28T15:24:51.877Z</time></trkpt><trkpt lat="44.425895" lon="9.1539383"><ele>413.0</ele><time>2026-04-28T15:24:53.877Z</time></trkpt><trkpt lat="44.4259633" lon="9.1540067"><ele>413.2857142857143</ele><time>2026-04-28T15:24:55.876Z</time></trkpt><trkpt lat="44.4259967" lon="9.1540817"><ele>413.57142857142856</ele><time>2026-04-28T15:24:57.876Z</time></trkpt><trkpt lat="44.4260383" lon="9.1541733"><ele>413.8571428571429</ele><time>2026-04-28T15:25:00.878Z</time></trkpt><trkpt lat="44.4260683" lon="9.1542633"><ele>414.1428571428571</ele><time>2026-04-28T15:25:02.876Z</time></trkpt><trkpt lat="44.4261433" lon="9.15423"><ele>414.42857142857144</ele><time>2026-04-28T15:25:06.877Z</time></trkpt><trkpt lat="44.4262267" lon="9.15422"><ele>414.7142857142857</ele><time>2026-04-28T15:25:09.876Z</time></trkpt><trkpt lat="44.4262917" lon="9.154245"><ele>415.0</ele><time>2026-04-28T15:25:11.877Z</time></trkpt><trkpt lat="44.4263667" lon="9.1542217"><ele>415.00000000000006</ele><time>2026-04-28T15:25:13.875Z</time></trkpt><trkpt lat="44.4264217" lon="9.1541567"><ele>415.0</ele><time>2026-04-28T15:25:15.876Z</time></trkpt><trkpt lat="44.42647" lon="9.1540517"><ele>415.0</ele><time>2026-04-28T15:25:17.878Z</time></trkpt><trkpt lat="44.4264867" lon="9.1539267"><ele>415.0</ele><time>2026-04-28T15:25:19.878Z</time></trkpt><trkpt lat="44.426495" lon="9.1537917"><ele>415.00000000000006</ele><time>2026-04-28T15:25:21.876Z</time></trkpt><trkpt lat="44.4264817" lon="9.1536567"><ele>415.0</ele><time>2026-04-28T15:25:24.877Z</time></trkpt><trkpt lat="44.4265017" lon="9.15351"><ele>412.00000000000006</ele><time>2026-04-28T15:25:26.877Z</time></trkpt><trkpt lat="44.426535" lon="9.153405"><ele>409.0</ele><time>2026-04-28T15:25:28.876Z</time></trkpt><trkpt lat="44.4266217" lon="9.1533583"><ele>406.0</ele><time>2026-04-28T15:25:30.877Z</time></trkpt><trkpt lat="44.4266867" lon="9.153315"><ele>403.0</ele><time>2026-04-28T15:25:32.875Z</time></trkpt><trkpt lat="44.4266683" lon="9.15321"><ele>400.00000000000006</ele><time>2026-04-28T15:25:35.879Z</time></trkpt><trkpt lat="44.4266017" lon="9.1531517"><ele>397.0</ele><time>2026-04-28T15:25:37.876Z</time></trkpt><trkpt lat="44.4265183" lon="9.1531517"><ele>393.00000000000006</ele><time>2026-04-28T15:25:40.877Z</time></trkpt><trkpt lat="44.426495" lon="9.1530567"><ele>389.0</ele><time>2026-04-28T15:25:42.876Z</time></trkpt><trkpt lat="44.4265217" lon="9.1529217"><ele>385.0</ele><time>2026-04-28T15:25:44.876Z</time></trkpt><trkpt lat="44.4265583" lon="9.1528133"><ele>381.0</ele><time>2026-04-28T15:25:46.875Z</time></trkpt><trkpt lat="44.4265817" lon="9.1526883"><ele>377.0</ele><time>2026-04-28T15:25:48.876Z</time></trkpt><trkpt lat="44.4265983" lon="9.1526"><ele>373.0</ele><time>2026-04-28T15:25:49.876Z</time></trkpt><trkpt lat="44.4266067" lon="9.1525083"><ele>369.0</ele><time>2026-04-28T15:25:50.875Z</time></trkpt><trkpt lat="44.4266017" lon="9.1523333"><ele>365.0</ele><time>2026-04-28T15:25:52.873Z</time></trkpt><trkpt lat="44.4266083" lon="9.152165"><ele>361.0</ele><time>2026-04-28T15:25:54.875Z</time></trkpt><trkpt lat="44.4266367" lon="9.1520317"><ele>357.0</ele><time>2026-04-28T15:25:56.877Z</time></trkpt><trkpt lat="44.4266467" lon="9.1518933"><ele>353.0</ele><time>2026-04-28T15:25:58.873Z</time></trkpt><trkpt lat="44.426645" lon="9.1517617"><ele>353.0</ele><time>2026-04-28T15:26:00.874Z</time></trkpt><trkpt lat="44.4266383" lon="9.1516133"><ele>353.0</ele><time>2026-04-28T15:26:02.876Z</time></trkpt><trkpt lat="44.4266283" lon="9.151475"><ele>353.0</ele><time>2026-04-28T15:26:04.874Z</time></trkpt><trkpt lat="44.4266483" lon="9.1513267"><ele>353.0</ele><time>2026-04-28T15:26:06.875Z</time></trkpt><trkpt lat="44.4266583" lon="9.1512333"><ele>353.0</ele><time>2026-04-28T15:26:07.871Z</time></trkpt><trkpt lat="44.4266767" lon="9.1511317"><ele>350.0</ele><time>2026-04-28T15:26:08.874Z</time></trkpt><trkpt lat="44.42669" lon="9.1510333"><ele>347.0</ele><time>2026-04-28T15:26:09.874Z</time></trkpt><trkpt lat="44.426715" lon="9.150875"><ele>344.0</ele><time>2026-04-28T15:26:11.875Z</time></trkpt><trkpt lat="44.4267667" lon="9.1507383"><ele>341.0</ele><time>2026-04-28T15:26:13.884Z</time></trkpt><trkpt lat="44.4268317" lon="9.1506017"><ele>338.0</ele><time>2026-04-28T15:26:15.874Z</time></trkpt><trkpt lat="44.4269033" lon="9.1505033"><ele>335.83333333333337</ele><time>2026-04-28T15:26:17.875Z</time></trkpt><trkpt lat="44.4269917" lon="9.1504833"><ele>333.6666666666667</ele><time>2026-04-28T15:26:19.878Z</time></trkpt><trkpt lat="44.4271017" lon="9.1504467"><ele>331.5</ele><time>2026-04-28T15:26:21.875Z</time></trkpt><trkpt lat="44.4271717" lon="9.1504217"><ele>329.3333333333333</ele><time>2026-04-28T15:26:22.873Z</time></trkpt><trkpt lat="44.42725" lon="9.1504167"><ele>327.16666666666663</ele><time>2026-04-28T15:26:23.875Z</time></trkpt><trkpt lat="44.427325" lon="9.1504133"><ele>325.0</ele><time>2026-04-28T15:26:24.877Z</time></trkpt><trkpt lat="44.4273967" lon="9.1504167"><ele>322.5</ele><time>2026-04-28T15:26:25.868Z</time></trkpt><trkpt lat="44.4274833" lon="9.1503667"><ele>320.0</ele><time>2026-04-28T15:26:27.875Z</time></trkpt><trkpt lat="44.42759" lon="9.15034"><ele>317.5</ele><time>2026-04-28T15:26:29.876Z</time></trkpt><trkpt lat="44.4276267" lon="9.1504167"><ele>315.0</ele><time>2026-04-28T15:26:31.875Z</time></trkpt><trkpt lat="44.4276517" lon="9.15051"><ele>312.5</ele><time>2026-04-28T15:26:33.878Z</time></trkpt><trkpt lat="44.4277367" lon="9.15055"><ele>310.0</ele><time>2026-04-28T15:26:37.872Z</time></trkpt><trkpt lat="44.4278317" lon="9.1505017"><ele>310.0</ele><time>2026-04-28T15:26:39.878Z</time></trkpt><trkpt lat="44.4279033" lon="9.150455"><ele>310.0</ele><time>2026-04-28T15:26:40.875Z</time></trkpt><trkpt lat="44.4279717" lon="9.1504233"><ele>310.0</ele><time>2026-04-28T15:26:41.874Z</time></trkpt><trkpt lat="44.4280833" lon="9.1503533"><ele>310.0</ele><time>2026-04-28T15:26:43.875Z</time></trkpt><trkpt lat="44.4281683" lon="9.1502883"><ele>310.0</ele><time>2026-04-28T15:26:45.874Z</time></trkpt><trkpt lat="44.428245" lon="9.15023"><ele>309.2857142857143</ele><time>2026-04-28T15:26:47.875Z</time></trkpt><trkpt lat="44.42832" lon="9.1502133"><ele>308.57142857142856</ele><time>2026-04-28T15:26:49.878Z</time></trkpt><trkpt lat="44.4283833" lon="9.15019"><ele>307.8571428571429</ele><time>2026-04-28T15:26:51.877Z</time></trkpt><trkpt lat="44.42845" lon="9.150185"><ele>307.1428571428571</ele><time>2026-04-28T15:26:54.876Z</time></trkpt><trkpt lat="44.4285067" lon="9.1502517"><ele>306.4285714285714</ele><time>2026-04-28T15:27:03.876Z</time></trkpt><trkpt lat="44.42853" lon="9.15037"><ele>305.7142857142857</ele><time>2026-04-28T15:27:14.875Z</time></trkpt><trkpt lat="44.4285267" lon="9.150465"><ele>305.0</ele><time>2026-04-28T15:27:17.877Z</time></trkpt><trkpt lat="44.4285517" lon="9.15057"><ele>305.0</ele><time>2026-04-28T15:27:20.877Z</time></trkpt><trkpt lat="44.42862" lon="9.15063"><ele>305.0</ele><time>2026-04-28T15:27:34.875Z</time></trkpt><trkpt lat="44.428685" lon="9.1506683"><ele>305.0</ele><time>2026-04-28T15:27:46.877Z</time></trkpt><trkpt lat="44.4287817" lon="9.1506517"><ele>305.0</ele><time>2026-04-28T15:27:59.873Z</time></trkpt><trkpt lat="44.4288483" lon="9.15065"><ele>305.0</ele><time>2026-04-28T15:28:02.881Z</time></trkpt><trkpt lat="44.428915" lon="9.1506383"><ele>305.0</ele><time>2026-04-28T15:28:05.876Z</time></trkpt><trkpt lat="44.4289917" lon="9.1506167"><ele>305.14285714285717</ele><time>2026-04-28T15:28:10.875Z</time></trkpt><trkpt lat="44.429035" lon="9.150545"><ele>305.2857142857143</ele><time>2026-04-28T15:28:15.878Z</time></trkpt><trkpt lat="44.42898" lon="9.150595"><ele>305.42857142857144</ele><time>2026-04-28T15:28:25.877Z</time></trkpt><trkpt lat="44.42893" lon="9.1506633"><ele>305.57142857142856</ele><time>2026-04-28T15:28:28.874Z</time></trkpt><trkpt lat="44.4289083" lon="9.1507483"><ele>305.7142857142857</ele><time>2026-04-28T15:28:32.873Z</time></trkpt><trkpt lat="44.4288533" lon="9.1507967"><ele>305.85714285714283</ele><time>2026-04-28T15:28:40.877Z</time></trkpt><trkpt lat="44.428805" lon="9.1508533"><ele>306.0</ele><time>2026-04-28T15:28:48.876Z</time></trkpt><trkpt lat="44.4287483" lon="9.1509167"><ele>305.8333333333333</ele><time>2026-04-28T15:28:52.877Z</time></trkpt><trkpt lat="44.4286417" lon="9.1508883"><ele>305.6666666666667</ele><time>2026-04-28T15:29:06.875Z</time></trkpt><trkpt lat="44.428625" lon="9.150795"><ele>305.5</ele><time>2026-04-28T15:29:10.876Z</time></trkpt><trkpt lat="44.4286117" lon="9.1506833"><ele>305.33333333333337</ele><time>2026-04-28T15:29:16.874Z</time></trkpt><trkpt lat="44.4286033" lon="9.1505817"><ele>305.1666666666667</ele><time>2026-04-28T15:29:19.872Z</time></trkpt><trkpt lat="44.4285883" lon="9.1504783"><ele>305.0</ele><time>2026-04-28T15:29:22.876Z</time></trkpt><trkpt lat="44.4285817" lon="9.1503533"><ele>305.0</ele><time>2026-04-28T15:29:25.876Z</time></trkpt><trkpt lat="44.4285933" lon="9.1502517"><ele>305.0</ele><time>2026-04-28T15:29:27.877Z</time></trkpt><trkpt lat="44.4286317" lon="9.150135"><ele>305.0</ele><time>2026-04-28T15:29:30.878Z</time></trkpt><trkpt lat="44.428675" lon="9.15006"><ele>305.0</ele><time>2026-04-28T15:29:32.874Z</time></trkpt><trkpt lat="44.4287217" lon="9.1499917"><ele>305.0</ele><time>2026-04-28T15:29:34.877Z</time></trkpt><trkpt lat="44.4287867" lon="9.1499167"><ele>305.0</ele><time>2026-04-28T15:29:37.874Z</time></trkpt><trkpt lat="44.4288483" lon="9.1498683"><ele>304.0</ele><time>2026-04-28T15:29:39.876Z</time></trkpt><trkpt lat="44.4289217" lon="9.1498183"><ele>303.0</ele><time>2026-04-28T15:29:41.875Z</time></trkpt><trkpt lat="44.4290083" lon="9.1497767"><ele>302.0</ele><time>2026-04-28T15:29:44.877Z</time></trkpt><trkpt lat="44.429055" lon="9.1496817"><ele>301.0</ele><time>2026-04-28T15:29:48.875Z</time></trkpt><trkpt lat="44.4290717" lon="9.1495333"><ele>300.0</ele><time>2026-04-28T15:29:51.878Z</time></trkpt><trkpt lat="44.42907" lon="9.14943"><ele>299.0</ele><time>2026-04-28T15:29:53.874Z</time></trkpt><trkpt lat="44.4290517" lon="9.149325"><ele>299.0</ele><time>2026-04-28T15:29:56.877Z</time></trkpt><trkpt lat="44.4290167" lon="9.149245"><ele>299.0</ele><time>2026-04-28T15:30:00.877Z</time></trkpt><trkpt lat="44.428945" lon="9.1492067"><ele>299.0</ele><time>2026-04-28T15:30:06.877Z</time></trkpt><trkpt lat="44.4289133" lon="9.14913"><ele>299.0</ele><time>2026-04-28T15:30:09.877Z</time></trkpt><trkpt lat="44.428885" lon="9.1490483"><ele>299.0</ele><time>2026-04-28T15:30:16.877Z</time></trkpt><trkpt lat="44.4288583" lon="9.1491383"><ele>299.0</ele><time>2026-04-28T15:30:25.875Z</time></trkpt><trkpt lat="44.4288317" lon="9.1492217"><ele>299.0</ele><time>2026-04-28T15:30:28.878Z</time></trkpt><trkpt lat="44.4288367" lon="9.149315"><ele>299.0</ele><time>2026-04-28T15:30:38.878Z</time></trkpt><trkpt lat="44.4288717" lon="9.149405"><ele>299.0</ele><time>2026-04-28T15:30:41.875Z</time></trkpt><trkpt lat="44.428895" lon="9.1494917"><ele>299.0</ele><time>2026-04-28T15:30:44.877Z</time></trkpt><trkpt lat="44.4289567" lon="9.1495383"><ele>299.0</ele><time>2026-04-28T15:30:47.876Z</time></trkpt><trkpt lat="44.429055" lon="9.149555"><ele>299.0</ele><time>2026-04-28T15:30:50.875Z</time></trkpt><trkpt lat="44.4291267" lon="9.1494983"><ele>299.0</ele><time>2026-04-28T15:30:53.876Z</time></trkpt><trkpt lat="44.4292033" lon="9.1494417"><ele>299.0</ele><time>2026-04-28T15:30:56.876Z</time></trkpt><trkpt lat="44.4292633" lon="9.1493667"><ele>299.0</ele><time>2026-04-28T15:30:59.878Z</time></trkpt><trkpt lat="44.4293117" lon="9.1492717"><ele>299.0</ele><time>2026-04-28T15:31:01.876Z</time></trkpt><trkpt lat="44.429345" lon="9.14919"><ele>299.0</ele><time>2026-04-28T15:31:02.876Z</time></trkpt><trkpt lat="44.4294033" lon="9.1490883"><ele>299.0</ele><time>2026-04-28T15:31:04.89Z</time></trkpt><trkpt lat="44.429455" lon="9.1489817"><ele>299.0</ele><time>2026-04-28T15:31:07.875Z</time></trkpt><trkpt lat="44.429515" lon="9.1489"><ele>296.5</ele><time>2026-04-28T15:31:09.88Z</time></trkpt><trkpt lat="44.4295967" lon="9.14881"><ele>294.0</ele><time>2026-04-28T15:31:11.875Z</time></trkpt><trkpt lat="44.4296667" lon="9.1487383"><ele>291.5</ele><time>2026-04-28T15:31:13.873Z</time></trkpt><trkpt lat="44.42972" lon="9.1486783"><ele>289.0</ele><time>2026-04-28T15:31:15.876Z</time></trkpt><trkpt lat="44.42978" lon="9.1486017"><ele>286.5</ele><time>2026-04-28T15:31:17.875Z</time></trkpt><trkpt lat="44.4298133" lon="9.148525"><ele>284.0</ele><time>2026-04-28T15:31:19.875Z</time></trkpt><trkpt lat="44.4298667" lon="9.148405"><ele>280.5</ele><time>2026-04-28T15:31:22.877Z</time></trkpt><trkpt lat="44.4299233" lon="9.1483317"><ele>277.0</ele><time>2026-04-28T15:31:24.876Z</time></trkpt><trkpt lat="44.42995" lon="9.1482283"><ele>273.5</ele><time>2026-04-28T15:31:26.875Z</time></trkpt><trkpt lat="44.4299517" lon="9.1481267"><ele>270.0</ele><time>2026-04-28T15:31:28.875Z</time></trkpt><trkpt lat="44.4299567" lon="9.1480183"><ele>266.5</ele><time>2026-04-28T15:31:31.874Z</time></trkpt><trkpt lat="44.4300067" lon="9.1479317"><ele>263.0</ele><time>2026-04-28T15:31:34.879Z</time></trkpt><trkpt lat="44.430055" lon="9.1478617"><ele>259.8</ele><time>2026-04-28T15:31:37.878Z</time></trkpt><trkpt lat="44.4300967" lon="9.1477783"><ele>256.6</ele><time>2026-04-28T15:31:39.876Z</time></trkpt><trkpt lat="44.4301383" lon="9.1476917"><ele>253.39999999999998</ele><time>2026-04-28T15:31:43.874Z</time></trkpt><trkpt lat="44.4301783" lon="9.1475083"><ele>250.2</ele><time>2026-04-28T15:32:27.877Z</time></trkpt><trkpt lat="44.4302667" lon="9.14745"><ele>247.0</ele><time>2026-04-28T15:33:16.876Z</time></trkpt><trkpt lat="44.4301967" lon="9.1475217"><ele>247.0</ele><time>2026-04-28T16:14:38.877Z</time></trkpt><trkpt lat="44.43026" lon="9.1475017"><ele>247.0</ele><time>2026-04-28T16:15:00.622Z</time></trkpt><trkpt lat="44.4302617" lon="9.1474033"><ele>247.0</ele><time>2026-04-28T16:17:33.876Z</time></trkpt><trkpt lat="44.4302667" lon="9.1473133"><ele>247.0</ele><time>2026-04-28T16:17:36.875Z</time></trkpt><trkpt lat="44.4302717" lon="9.1472183"><ele>247.0</ele><time>2026-04-28T16:17:44.877Z</time></trkpt><trkpt lat="44.4302083" lon="9.1472433"><ele>247.0</ele><time>2026-04-28T16:18:10.876Z</time></trkpt><trkpt lat="44.4301767" lon="9.147355"><ele>247.0</ele><time>2026-04-28T16:18:13.874Z</time></trkpt><trkpt lat="44.430135" lon="9.147445"><ele>247.0</ele><time>2026-04-28T16:18:16.875Z</time></trkpt><trkpt lat="44.4301033" lon="9.14754"><ele>247.0</ele><time>2026-04-28T16:18:20.877Z</time></trkpt><trkpt lat="44.4300667" lon="9.1476133"><ele>247.0</ele><time>2026-04-28T16:18:22.875Z</time></trkpt><trkpt lat="44.4300517" lon="9.1477"><ele>247.0</ele><time>2026-04-28T16:18:29.874Z</time></trkpt><trkpt lat="44.4300267" lon="9.1478067"><ele>247.0</ele><time>2026-04-28T16:18:47.874Z</time></trkpt><trkpt lat="44.4299933" lon="9.1479"><ele>247.0</ele><time>2026-04-28T16:18:52.875Z</time></trkpt><trkpt lat="44.4299567" lon="9.1479767"><ele>247.0</ele><time>2026-04-28T16:18:55.875Z</time></trkpt><trkpt lat="44.42991" lon="9.14807"><ele>246.99999999999997</ele><time>2026-04-28T16:18:59.876Z</time></trkpt><trkpt lat="44.4298783" lon="9.148155"><ele>247.0</ele><time>2026-04-28T16:19:02.877Z</time></trkpt><trkpt lat="44.4298333" lon="9.1482417"><ele>247.0</ele><time>2026-04-28T16:19:04.875Z</time></trkpt><trkpt lat="44.4297783" lon="9.1483433"><ele>247.0</ele><time>2026-04-28T16:19:06.876Z</time></trkpt><trkpt lat="44.4297283" lon="9.1484367"><ele>246.99999999999997</ele><time>2026-04-28T16:19:08.878Z</time></trkpt><trkpt lat="44.4296883" lon="9.1485167"><ele>247.0</ele><time>2026-04-28T16:19:10.876Z</time></trkpt><trkpt lat="44.4296267" lon="9.1485933"><ele>253.16666666666666</ele><time>2026-04-28T16:19:12.877Z</time></trkpt><trkpt lat="44.4295867" lon="9.1486733"><ele>259.3333333333333</ele><time>2026-04-28T16:19:14.875Z</time></trkpt><trkpt lat="44.429555" lon="9.1487583"><ele>265.5</ele><time>2026-04-28T16:19:16.874Z</time></trkpt><trkpt lat="44.4294917" lon="9.1488667"><ele>271.6666666666667</ele><time>2026-04-28T16:19:19.877Z</time></trkpt><trkpt lat="44.4294267" lon="9.1489717"><ele>277.83333333333337</ele><time>2026-04-28T16:19:22.873Z</time></trkpt><trkpt lat="44.4294017" lon="9.149075"><ele>284.0</ele><time>2026-04-28T16:19:25.874Z</time></trkpt><trkpt lat="44.4293733" lon="9.149165"><ele>286.1428571428571</ele><time>2026-04-28T16:19:29.876Z</time></trkpt><trkpt lat="44.42941" lon="9.1492533"><ele>288.2857142857143</ele><time>2026-04-28T16:19:37.875Z</time></trkpt><trkpt lat="44.4294" lon="9.1493417"><ele>290.42857142857144</ele><time>2026-04-28T16:19:43.875Z</time></trkpt><trkpt lat="44.4293667" lon="9.1494383"><ele>292.57142857142856</ele><time>2026-04-28T16:19:47.879Z</time></trkpt><trkpt lat="44.4293133" lon="9.1494967"><ele>294.7142857142857</ele><time>2026-04-28T16:19:51.874Z</time></trkpt><trkpt lat="44.4292533" lon="9.1495417"><ele>296.85714285714283</ele><time>2026-04-28T16:19:54.876Z</time></trkpt><trkpt lat="44.4291917" lon="9.1495683"><ele>299.0</ele><time>2026-04-28T16:19:56.878Z</time></trkpt><trkpt lat="44.4291167" lon="9.149605"><ele>299.0</ele><time>2026-04-28T16:19:58.873Z</time></trkpt><trkpt lat="44.4290583" lon="9.1496483"><ele>299.0</ele><time>2026-04-28T16:19:59.874Z</time></trkpt><trkpt lat="44.428955" lon="9.1497367"><ele>299.0</ele><time>2026-04-28T16:20:01.868Z</time></trkpt><trkpt lat="44.4288633" lon="9.1498133"><ele>299.0</ele><time>2026-04-28T16:20:03.874Z</time></trkpt><trkpt lat="44.42875" lon="9.149855"><ele>299.0</ele><time>2026-04-28T16:20:05.875Z</time></trkpt><trkpt lat="44.4286783" lon="9.149885"><ele>299.85714285714283</ele><time>2026-04-28T16:20:06.875Z</time></trkpt><trkpt lat="44.42861" lon="9.1499133"><ele>300.7142857142857</ele><time>2026-04-28T16:20:07.876Z</time></trkpt><trkpt lat="44.428545" lon="9.1499433"><ele>301.57142857142856</ele><time>2026-04-28T16:20:08.869Z</time></trkpt><trkpt lat="44.4284867" lon="9.1499833"><ele>302.42857142857144</ele><time>2026-04-28T16:20:09.872Z</time></trkpt><trkpt lat="44.4284167" lon="9.15002"><ele>303.2857142857143</ele><time>2026-04-28T16:20:10.873Z</time></trkpt><trkpt lat="44.428335" lon="9.1500583"><ele>304.14285714285717</ele><time>2026-04-28T16:20:11.868Z</time></trkpt><trkpt lat="44.4282633" lon="9.15009"><ele>305.0</ele><time>2026-04-28T16:20:12.878Z</time></trkpt><trkpt lat="44.4281633" lon="9.150145"><ele>305.0</ele><time>2026-04-28T16:20:13.875Z</time></trkpt><trkpt lat="44.428015" lon="9.1502633"><ele>305.0</ele><time>2026-04-28T16:20:14.875Z</time></trkpt><trkpt lat="44.4279417" lon="9.150325"><ele>305.0</ele><time>2026-04-28T16:20:15.875Z</time></trkpt><trkpt lat="44.4278483" lon="9.150415"><ele>305.0</ele><time>2026-04-28T16:20:16.875Z</time></trkpt><trkpt lat="44.4277317" lon="9.15048"><ele>305.83333333333337</ele><time>2026-04-28T16:20:17.875Z</time></trkpt><trkpt lat="44.4276583" lon="9.15043"><ele>306.6666666666667</ele><time>2026-04-28T16:20:19.875Z</time></trkpt><trkpt lat="44.4276217" lon="9.150325"><ele>307.5</ele><time>2026-04-28T16:20:22.875Z</time></trkpt><trkpt lat="44.427545" lon="9.15035"><ele>308.3333333333333</ele><time>2026-04-28T16:20:25.875Z</time></trkpt><trkpt lat="44.4274683" lon="9.1504083"><ele>309.16666666666663</ele><time>2026-04-28T16:20:28.888Z</time></trkpt><trkpt lat="44.4273617" lon="9.1504217"><ele>310.0</ele><time>2026-04-28T16:20:30.876Z</time></trkpt><trkpt lat="44.4272683" lon="9.1504417"><ele>310.0</ele><time>2026-04-28T16:20:31.874Z</time></trkpt><trkpt lat="44.4271667" lon="9.1504667"><ele>310.0</ele><time>2026-04-28T16:20:32.875Z</time></trkpt><trkpt lat="44.427105" lon="9.150485"><ele>310.0</ele><time>2026-04-28T16:20:33.873Z</time></trkpt><trkpt lat="44.4270133" lon="9.1504967"><ele>310.0</ele><time>2026-04-28T16:20:35.876Z</time></trkpt><trkpt lat="44.4269117" lon="9.150525"><ele>310.0</ele><time>2026-04-28T16:20:37.874Z</time></trkpt><trkpt lat="44.4268083" lon="9.1506283"><ele>315.6</ele><time>2026-04-28T16:20:39.875Z</time></trkpt><trkpt lat="44.4267617" lon="9.1507183"><ele>321.2</ele><time>2026-04-28T16:20:40.875Z</time></trkpt><trkpt lat="44.4267033" lon="9.1508533"><ele>326.79999999999995</ele><time>2026-04-28T16:20:42.876Z</time></trkpt><trkpt lat="44.4266633" lon="9.1510067"><ele>332.4</ele><time>2026-04-28T16:20:44.874Z</time></trkpt><trkpt lat="44.4266183" lon="9.15113"><ele>338.0</ele><time>2026-04-28T16:20:46.875Z</time></trkpt><trkpt lat="44.426585" lon="9.1512483"><ele>338.0</ele><time>2026-04-28T16:20:48.874Z</time></trkpt><trkpt lat="44.4265533" lon="9.1513733"><ele>338.0</ele><time>2026-04-28T16:20:50.876Z</time></trkpt><trkpt lat="44.426545" lon="9.151475"><ele>338.0</ele><time>2026-04-28T16:20:53.876Z</time></trkpt><trkpt lat="44.4265733" lon="9.1515733"><ele>338.0</ele><time>2026-04-28T16:20:56.878Z</time></trkpt><trkpt lat="44.426585" lon="9.1516667"><ele>338.0</ele><time>2026-04-28T16:20:59.876Z</time></trkpt><trkpt lat="44.4265617" lon="9.1517983"><ele>338.0</ele><time>2026-04-28T16:21:02.871Z</time></trkpt><trkpt lat="44.42656" lon="9.1519017"><ele>340.5</ele><time>2026-04-28T16:21:04.875Z</time></trkpt><trkpt lat="44.4265483" lon="9.1520267"><ele>343.0</ele><time>2026-04-28T16:21:06.874Z</time></trkpt><trkpt lat="44.42653" lon="9.1521483"><ele>345.5</ele><time>2026-04-28T16:21:08.877Z</time></trkpt><trkpt lat="44.4265317" lon="9.152255"><ele>348.0</ele><time>2026-04-28T16:21:10.874Z</time></trkpt><trkpt lat="44.4265333" lon="9.15237"><ele>350.5</ele><time>2026-04-28T16:21:13.875Z</time></trkpt><trkpt lat="44.4265167" lon="9.1524583"><ele>353.0</ele><time>2026-04-28T16:21:15.874Z</time></trkpt><trkpt lat="44.4264967" lon="9.1525633"><ele>356.33333333333337</ele><time>2026-04-28T16:21:18.877Z</time></trkpt><trkpt lat="44.426485" lon="9.1526833"><ele>359.6666666666667</ele><time>2026-04-28T16:21:21.874Z</time></trkpt><trkpt lat="44.42647" lon="9.1527917"><ele>363.0</ele><time>2026-04-28T16:21:23.874Z</time></trkpt><trkpt lat="44.4264633" lon="9.1529017"><ele>366.3333333333333</ele><time>2026-04-28T16:21:25.872Z</time></trkpt><trkpt lat="44.4265417" lon="9.1529833"><ele>369.66666666666663</ele><time>2026-04-28T16:21:31.874Z</time></trkpt><trkpt lat="44.426555" lon="9.1530783"><ele>373.0</ele><time>2026-04-28T16:21:32.877Z</time></trkpt><trkpt lat="44.4265517" lon="9.15319"><ele>377.0</ele><time>2026-04-28T16:21:40.875Z</time></trkpt><trkpt lat="44.4264917" lon="9.1532583"><ele>381.0</ele><time>2026-04-28T16:21:43.875Z</time></trkpt><trkpt lat="44.4264883" lon="9.1533583"><ele>385.0</ele><time>2026-04-28T16:21:47.874Z</time></trkpt><trkpt lat="44.4265067" lon="9.1534717"><ele>389.0</ele><time>2026-04-28T16:21:51.874Z</time></trkpt><trkpt lat="44.4265333" lon="9.15358"><ele>393.00000000000006</ele><time>2026-04-28T16:21:54.875Z</time></trkpt><trkpt lat="44.4265417" lon="9.1536917"><ele>397.0</ele><time>2026-04-28T16:21:56.876Z</time></trkpt><trkpt lat="44.4265333" lon="9.1538367"><ele>397.0</ele><time>2026-04-28T16:21:58.876Z</time></trkpt><trkpt lat="44.4265067" lon="9.1539183"><ele>397.0</ele><time>2026-04-28T16:22:00.876Z</time></trkpt><trkpt lat="44.4264867" lon="9.1540233"><ele>397.0</ele><time>2026-04-28T16:22:04.874Z</time></trkpt><trkpt lat="44.4264483" lon="9.1540933"><ele>397.0</ele><time>2026-04-28T16:22:07.874Z</time></trkpt><trkpt lat="44.4263833" lon="9.154105"><ele>397.0</ele><time>2026-04-28T16:22:11.875Z</time></trkpt><trkpt lat="44.4263017" lon="9.1541467"><ele>397.0</ele><time>2026-04-28T16:22:13.873Z</time></trkpt><trkpt lat="44.4262317" lon="9.1541217"><ele>397.0</ele><time>2026-04-28T16:22:18.876Z</time></trkpt><trkpt lat="44.426185" lon="9.1540617"><ele>399.6666666666667</ele><time>2026-04-28T16:22:22.874Z</time></trkpt><trkpt lat="44.426125" lon="9.1540067"><ele>402.33333333333337</ele><time>2026-04-28T16:22:25.876Z</time></trkpt><trkpt lat="44.4260533" lon="9.1539417"><ele>405.0</ele><time>2026-04-28T16:22:27.875Z</time></trkpt><trkpt lat="44.4259917" lon="9.1538983"><ele>407.66666666666663</ele><time>2026-04-28T16:22:29.874Z</time></trkpt><trkpt lat="44.42593" lon="9.1538783"><ele>410.3333333333333</ele><time>2026-04-28T16:22:32.877Z</time></trkpt><trkpt lat="44.4258517" lon="9.153825"><ele>413.0</ele><time>2026-04-28T16:22:35.875Z</time></trkpt><trkpt lat="44.4257467" lon="9.1537833"><ele>413.0</ele><time>2026-04-28T16:22:38.875Z</time></trkpt><trkpt lat="44.42563" lon="9.1537767"><ele>413.0</ele><time>2026-04-28T16:22:40.876Z</time></trkpt><trkpt lat="44.4255333" lon="9.153755"><ele>413.0</ele><time>2026-04-28T16:22:42.877Z</time></trkpt><trkpt lat="44.4254567" lon="9.15376"><ele>413.0</ele><time>2026-04-28T16:22:44.877Z</time></trkpt><trkpt lat="44.425355" lon="9.1538183"><ele>413.0</ele><time>2026-04-28T16:22:46.877Z</time></trkpt><trkpt lat="44.4252333" lon="9.153885"><ele>414.8333333333333</ele><time>2026-04-28T16:22:48.877Z</time></trkpt><trkpt lat="44.425175" lon="9.15393"><ele>416.66666666666663</ele><time>2026-04-28T16:22:49.875Z</time></trkpt><trkpt lat="44.42512" lon="9.1539733"><ele>418.5</ele><time>2026-04-28T16:22:50.876Z</time></trkpt><trkpt lat="44.4250367" lon="9.1540767"><ele>420.33333333333337</ele><time>2026-04-28T16:22:52.876Z</time></trkpt><trkpt lat="44.42499" lon="9.15417"><ele>422.1666666666667</ele><time>2026-04-28T16:22:54.878Z</time></trkpt><trkpt lat="44.4249167" lon="9.1542033"><ele>424.0</ele><time>2026-04-28T16:23:01.875Z</time></trkpt><trkpt lat="44.424845" lon="9.1542233"><ele>427.00000000000006</ele><time>2026-04-28T16:23:04.877Z</time></trkpt><trkpt lat="44.424765" lon="9.154225"><ele>430.0</ele><time>2026-04-28T16:23:06.876Z</time></trkpt><trkpt lat="44.4246617" lon="9.1541833"><ele>433.0</ele><time>2026-04-28T16:23:08.876Z</time></trkpt><trkpt lat="44.4245917" lon="9.1541767"><ele>436.0</ele><time>2026-04-28T16:23:09.875Z</time></trkpt><trkpt lat="44.4245083" lon="9.1541717"><ele>439.00000000000006</ele><time>2026-04-28T16:23:10.876Z</time></trkpt><trkpt lat="44.424405" lon="9.1541667"><ele>442.0</ele><time>2026-04-28T16:23:11.876Z</time></trkpt><trkpt lat="44.4243167" lon="9.1541617"><ele>443.8</ele><time>2026-04-28T16:23:12.875Z</time></trkpt><trkpt lat="44.4242383" lon="9.154155"><ele>445.6</ele><time>2026-04-28T16:23:13.876Z</time></trkpt><trkpt lat="44.4241633" lon="9.154155"><ele>447.40000000000003</ele><time>2026-04-28T16:23:14.878Z</time></trkpt><trkpt lat="44.4240583" lon="9.1541333"><ele>449.20000000000005</ele><time>2026-04-28T16:23:16.875Z</time></trkpt><trkpt lat="44.4239717" lon="9.1540833"><ele>451.0</ele><time>2026-04-28T16:23:18.876Z</time></trkpt><trkpt lat="44.4238783" lon="9.1540467"><ele>450.5</ele><time>2026-04-28T16:23:20.877Z</time></trkpt><trkpt lat="44.4237783" lon="9.154035"><ele>450.0</ele><time>2026-04-28T16:23:22.874Z</time></trkpt><trkpt lat="44.4236517" lon="9.154"><ele>449.5</ele><time>2026-04-28T16:23:24.879Z</time></trkpt><trkpt lat="44.4235383" lon="9.153935"><ele>449.0</ele><time>2026-04-28T16:23:26.876Z</time></trkpt><trkpt lat="44.423445" lon="9.1538333"><ele>448.99999999999994</ele><time>2026-04-28T16:23:28.875Z</time></trkpt><trkpt lat="44.42339" lon="9.15376"><ele>449.0</ele><time>2026-04-28T16:23:29.874Z</time></trkpt><trkpt lat="44.4233417" lon="9.1536967"><ele>449.0</ele><time>2026-04-28T16:23:30.879Z</time></trkpt><trkpt lat="44.4232933" lon="9.1536333"><ele>449.0</ele><time>2026-04-28T16:23:31.874Z</time></trkpt><trkpt lat="44.4231983" lon="9.15354"><ele>448.99999999999994</ele><time>2026-04-28T16:23:33.875Z</time></trkpt><trkpt lat="44.4231317" lon="9.1535133"><ele>449.0</ele><time>2026-04-28T16:23:34.874Z</time></trkpt><trkpt lat="44.4230017" lon="9.1535283"><ele>452.49999999999994</ele><time>2026-04-28T16:23:36.875Z</time></trkpt><trkpt lat="44.422925" lon="9.1535617"><ele>456.0</ele><time>2026-04-28T16:23:37.875Z</time></trkpt><trkpt lat="44.42285" lon="9.15357"><ele>459.5</ele><time>2026-04-28T16:23:38.876Z</time></trkpt><trkpt lat="44.4227767" lon="9.1535683"><ele>463.0</ele><time>2026-04-28T16:23:39.875Z</time></trkpt><trkpt lat="44.422695" lon="9.153525"><ele>466.49999999999994</ele><time>2026-04-28T16:23:41.875Z</time></trkpt><trkpt lat="44.42267" lon="9.1534217"><ele>470.0</ele><time>2026-04-28T16:24:00.875Z</time></trkpt><trkpt lat="44.4227017" lon="9.1533417"><ele>470.0</ele><time>2026-04-28T16:24:03.876Z</time></trkpt><trkpt lat="44.42275" lon="9.15324"><ele>470.0</ele><time>2026-04-28T16:24:05.876Z</time></trkpt><trkpt lat="44.4227967" lon="9.1530967"><ele>470.0</ele><time>2026-04-28T16:24:07.876Z</time></trkpt><trkpt lat="44.4228233" lon="9.1529617"><ele>470.0</ele><time>2026-04-28T16:24:09.876Z</time></trkpt><trkpt lat="44.4228383" lon="9.152855"><ele>470.0</ele><time>2026-04-28T16:24:11.876Z</time></trkpt><trkpt lat="44.4228383" lon="9.1527383"><ele>466.6</ele><time>2026-04-28T16:24:13.876Z</time></trkpt><trkpt lat="44.4228283" lon="9.152615"><ele>463.2</ele><time>2026-04-28T16:24:15.876Z</time></trkpt><trkpt lat="44.4228167" lon="9.1524967"><ele>459.79999999999995</ele><time>2026-04-28T16:24:17.876Z</time></trkpt><trkpt lat="44.4228267" lon="9.1523833"><ele>456.4</ele><time>2026-04-28T16:24:19.875Z</time></trkpt><trkpt lat="44.4228283" lon="9.1522333"><ele>453.0</ele><time>2026-04-28T16:24:21.875Z</time></trkpt><trkpt lat="44.4228" lon="9.1520683"><ele>448.4</ele><time>2026-04-28T16:24:23.877Z</time></trkpt><trkpt lat="44.4227467" lon="9.1519317"><ele>443.79999999999995</ele><time>2026-04-28T16:24:25.878Z</time></trkpt><trkpt lat="44.4226783" lon="9.1519183"><ele>439.2</ele><time>2026-04-28T16:24:26.877Z</time></trkpt><trkpt lat="44.422565" lon="9.1518717"><ele>434.6</ele><time>2026-04-28T16:24:28.874Z</time></trkpt><trkpt lat="44.422525" lon="9.1517417"><ele>430.0</ele><time>2026-04-28T16:24:30.877Z</time></trkpt><trkpt lat="44.4224883" lon="9.1516117"><ele>425.50000000000006</ele><time>2026-04-28T16:24:32.877Z</time></trkpt><trkpt lat="44.42245" lon="9.1515083"><ele>421.0</ele><time>2026-04-28T16:24:34.876Z</time></trkpt><trkpt lat="44.422475" lon="9.1514167"><ele>416.5</ele><time>2026-04-28T16:24:37.876Z</time></trkpt><trkpt lat="44.42253" lon="9.1513517"><ele>412.0</ele><time>2026-04-28T16:24:40.875Z</time></trkpt><trkpt lat="44.4226" lon="9.1512783"><ele>407.50000000000006</ele><time>2026-04-28T16:24:43.877Z</time></trkpt><trkpt lat="44.4226517" lon="9.151175"><ele>403.0</ele><time>2026-04-28T16:24:46.874Z</time></trkpt><trkpt lat="44.4227" lon="9.1511133"><ele>403.00000000000006</ele><time>2026-04-28T16:24:48.877Z</time></trkpt><trkpt lat="44.422775" lon="9.1510367"><ele>403.0</ele><time>2026-04-28T16:24:50.877Z</time></trkpt><trkpt lat="44.422835" lon="9.15098"><ele>403.0</ele><time>2026-04-28T16:24:52.874Z</time></trkpt><trkpt lat="44.42291" lon="9.150935"><ele>403.0</ele><time>2026-04-28T16:24:54.874Z</time></trkpt><trkpt lat="44.4230033" lon="9.1509083"><ele>403.00000000000006</ele><time>2026-04-28T16:24:56.877Z</time></trkpt><trkpt lat="44.4230683" lon="9.15093"><ele>403.0</ele><time>2026-04-28T16:24:58.876Z</time></trkpt><trkpt lat="44.42313" lon="9.150955"><ele>400.33333333333337</ele><time>2026-04-28T16:25:00.874Z</time></trkpt><trkpt lat="44.423195" lon="9.150935"><ele>397.6666666666667</ele><time>2026-04-28T16:25:02.878Z</time></trkpt><trkpt lat="44.423255" lon="9.1508617"><ele>395.0</ele><time>2026-04-28T16:25:04.877Z</time></trkpt><trkpt lat="44.4233183" lon="9.15076"><ele>392.33333333333337</ele><time>2026-04-28T16:25:06.875Z</time></trkpt><trkpt lat="44.42338" lon="9.1507017"><ele>389.6666666666667</ele><time>2026-04-28T16:25:08.879Z</time></trkpt><trkpt lat="44.423435" lon="9.1506533"><ele>387.0</ele><time>2026-04-28T16:25:10.875Z</time></trkpt><trkpt lat="44.423515" lon="9.1506767"><ele>387.0</ele><time>2026-04-28T16:25:15.875Z</time></trkpt><trkpt lat="44.42357" lon="9.15078"><ele>387.0</ele><time>2026-04-28T16:25:17.875Z</time></trkpt><trkpt lat="44.4236483" lon="9.15081"><ele>387.0</ele><time>2026-04-28T16:25:20.876Z</time></trkpt><trkpt lat="44.42372" lon="9.1507433"><ele>387.0</ele><time>2026-04-28T16:25:23.875Z</time></trkpt><trkpt lat="44.423805" lon="9.1506933"><ele>387.0</ele><time>2026-04-28T16:25:25.876Z</time></trkpt><trkpt lat="44.4238917" lon="9.1506083"><ele>381.40000000000003</ele><time>2026-04-28T16:25:27.876Z</time></trkpt><trkpt lat="44.4239583" lon="9.150535"><ele>375.8</ele><time>2026-04-28T16:25:29.875Z</time></trkpt><trkpt lat="44.42402" lon="9.15046"><ele>370.2</ele><time>2026-04-28T16:25:31.876Z</time></trkpt><trkpt lat="44.4240883" lon="9.1503633"><ele>364.6</ele><time>2026-04-28T16:25:33.875Z</time></trkpt><trkpt lat="44.4241483" lon="9.1502467"><ele>359.0</ele><time>2026-04-28T16:25:35.876Z</time></trkpt><trkpt lat="44.4242017" lon="9.1501083"><ele>359.0</ele><time>2026-04-28T16:25:37.877Z</time></trkpt><trkpt lat="44.4242317" lon="9.1500233"><ele>359.0</ele><time>2026-04-28T16:25:38.876Z</time></trkpt><trkpt lat="44.4242983" lon="9.1499033"><ele>359.0</ele><time>2026-04-28T16:25:40.875Z</time></trkpt><trkpt lat="44.424375" lon="9.1498083"><ele>359.0</ele><time>2026-04-28T16:25:42.877Z</time></trkpt><trkpt lat="44.4244733" lon="9.1497333"><ele>359.0</ele><time>2026-04-28T16:25:44.877Z</time></trkpt><trkpt lat="44.4245767" lon="9.1496767"><ele>353.6</ele><time>2026-04-28T16:25:46.876Z</time></trkpt><trkpt lat="44.4246783" lon="9.1495667"><ele>348.2</ele><time>2026-04-28T16:25:48.877Z</time></trkpt><trkpt lat="44.4247733" lon="9.1494583"><ele>342.8</ele><time>2026-04-28T16:25:50.876Z</time></trkpt><trkpt lat="44.4248333" lon="9.1493867"><ele>337.40000000000003</ele><time>2026-04-28T16:25:51.875Z</time></trkpt><trkpt lat="44.4249" lon="9.1492983"><ele>332.0</ele><time>2026-04-28T16:25:52.874Z</time></trkpt><trkpt lat="44.424955" lon="9.14921"><ele>332.0</ele><time>2026-04-28T16:25:53.875Z</time></trkpt><trkpt lat="44.4250167" lon="9.1491467"><ele>332.0</ele><time>2026-04-28T16:25:54.875Z</time></trkpt><trkpt lat="44.4250883" lon="9.1491167"><ele>332.0</ele><time>2026-04-28T16:25:55.874Z</time></trkpt><trkpt lat="44.4251667" lon="9.1491067"><ele>332.0</ele><time>2026-04-28T16:25:56.875Z</time></trkpt><trkpt lat="44.425235" lon="9.1490817"><ele>332.0</ele><time>2026-04-28T16:25:57.875Z</time></trkpt><trkpt lat="44.4252983" lon="9.1490417"><ele>332.0</ele><time>2026-04-28T16:25:58.875Z</time></trkpt><trkpt lat="44.425375" lon="9.14894"><ele>330.1666666666667</ele><time>2026-04-28T16:26:00.876Z</time></trkpt><trkpt lat="44.4254167" lon="9.1487867"><ele>328.33333333333337</ele><time>2026-04-28T16:26:02.875Z</time></trkpt><trkpt lat="44.42542" lon="9.1486733"><ele>326.5</ele><time>2026-04-28T16:26:03.876Z</time></trkpt><trkpt lat="44.4254167" lon="9.14856"><ele>324.6666666666667</ele><time>2026-04-28T16:26:04.875Z</time></trkpt><trkpt lat="44.4254133" lon="9.1484567"><ele>322.8333333333333</ele><time>2026-04-28T16:26:05.875Z</time></trkpt><trkpt lat="44.425415" lon="9.148345"><ele>321.0</ele><time>2026-04-28T16:26:06.874Z</time></trkpt><trkpt lat="44.425435" lon="9.14823"><ele>318.8333333333333</ele><time>2026-04-28T16:26:07.874Z</time></trkpt><trkpt lat="44.4254667" lon="9.1481283"><ele>316.6666666666667</ele><time>2026-04-28T16:26:08.875Z</time></trkpt><trkpt lat="44.4254917" lon="9.1480367"><ele>314.5</ele><time>2026-04-28T16:26:09.874Z</time></trkpt><trkpt lat="44.42551" lon="9.1479367"><ele>312.33333333333337</ele><time>2026-04-28T16:26:10.875Z</time></trkpt><trkpt lat="44.42551" lon="9.147815"><ele>310.1666666666667</ele><time>2026-04-28T16:26:11.874Z</time></trkpt><trkpt lat="44.4255083" lon="9.1476983"><ele>308.0</ele><time>2026-04-28T16:26:12.875Z</time></trkpt><trkpt lat="44.4254917" lon="9.1475617"><ele>308.0</ele><time>2026-04-28T16:26:13.875Z</time></trkpt><trkpt lat="44.4254717" lon="9.14744"><ele>308.0</ele><time>2026-04-28T16:26:14.877Z</time></trkpt><trkpt lat="44.4254567" lon="9.1473483"><ele>308.0</ele><time>2026-04-28T16:26:15.877Z</time></trkpt><trkpt lat="44.42544" lon="9.14723"><ele>308.0</ele><time>2026-04-28T16:26:17.874Z</time></trkpt><trkpt lat="44.42539" lon="9.1471567"><ele>308.0</ele><time>2026-04-28T16:26:19.875Z</time></trkpt><trkpt lat="44.4253167" lon="9.1470933"><ele>308.0</ele><time>2026-04-28T16:26:21.876Z</time></trkpt><trkpt lat="44.4252667" lon="9.1470367"><ele>304.0</ele><time>2026-04-28T16:26:23.874Z</time></trkpt><trkpt lat="44.425135" lon="9.1470517"><ele>300.0</ele><time>2026-04-28T16:26:25.877Z</time></trkpt><trkpt lat="44.4250533" lon="9.147055"><ele>296.0</ele><time>2026-04-28T16:26:26.878Z</time></trkpt><trkpt lat="44.4249683" lon="9.1470517"><ele>292.0</ele><time>2026-04-28T16:26:27.878Z</time></trkpt><trkpt lat="44.4248817" lon="9.1470367"><ele>288.0</ele><time>2026-04-28T16:26:28.874Z</time></trkpt><trkpt lat="44.4247867" lon="9.147005"><ele>288.0</ele><time>2026-04-28T16:26:29.875Z</time></trkpt><trkpt lat="44.4246933" lon="9.14697"><ele>288.0</ele><time>2026-04-28T16:26:30.875Z</time></trkpt><trkpt lat="44.424615" lon="9.1469317"><ele>288.0</ele><time>2026-04-28T16:26:31.874Z</time></trkpt><trkpt lat="44.42455" lon="9.1468883"><ele>288.0</ele><time>2026-04-28T16:26:32.876Z</time></trkpt><trkpt lat="44.4244967" lon="9.146835"><ele>288.0</ele><time>2026-04-28T16:26:33.874Z</time></trkpt><trkpt lat="44.4244383" lon="9.1467267"><ele>288.0</ele><time>2026-04-28T16:26:34.874Z</time></trkpt><trkpt lat="44.4243983" lon="9.146605"><ele>287.0</ele><time>2026-04-28T16:26:35.875Z</time></trkpt><trkpt lat="44.42436" lon="9.1464917"><ele>286.0</ele><time>2026-04-28T16:26:36.874Z</time></trkpt><trkpt lat="44.4243333" lon="9.1463883"><ele>285.0</ele><time>2026-04-28T16:26:37.875Z</time></trkpt><trkpt lat="44.4243217" lon="9.1462717"><ele>284.0</ele><time>2026-04-28T16:26:38.875Z</time></trkpt><trkpt lat="44.4243133" lon="9.1461667"><ele>283.0</ele><time>2026-04-28T16:26:39.875Z</time></trkpt><trkpt lat="44.4243233" lon="9.14607"><ele>282.0</ele><time>2026-04-28T16:26:40.874Z</time></trkpt><trkpt lat="44.42441" lon="9.14598"><ele>282.0</ele><time>2026-04-28T16:26:42.876Z</time></trkpt><trkpt lat="44.42454" lon="9.1460017"><ele>282.0</ele><time>2026-04-28T16:26:44.877Z</time></trkpt><trkpt lat="44.4246183" lon="9.1460167"><ele>282.0</ele><time>2026-04-28T16:26:45.875Z</time></trkpt><trkpt lat="44.424715" lon="9.1460183"><ele>282.0</ele><time>2026-04-28T16:26:46.875Z</time></trkpt><trkpt lat="44.42479" lon="9.1460033"><ele>282.0</ele><time>2026-04-28T16:26:47.875Z</time></trkpt><trkpt lat="44.4248583" lon="9.14598"><ele>280.6666666666667</ele><time>2026-04-28T16:26:48.876Z</time></trkpt><trkpt lat="44.424935" lon="9.145865"><ele>279.3333333333333</ele><time>2026-04-28T16:26:50.876Z</time></trkpt><trkpt lat="44.4249067" lon="9.1457617"><ele>278.0</ele><time>2026-04-28T16:26:51.872Z</time></trkpt><trkpt lat="44.4248883" lon="9.1456667"><ele>276.66666666666663</ele><time>2026-04-28T16:26:52.877Z</time></trkpt><trkpt lat="44.4248667" lon="9.1455633"><ele>275.3333333333333</ele><time>2026-04-28T16:26:53.878Z</time></trkpt><trkpt lat="44.4248333" lon="9.145475"><ele>274.0</ele><time>2026-04-28T16:26:54.875Z</time></trkpt><trkpt lat="44.4247933" lon="9.1453433"><ele>270.59999999999997</ele><time>2026-04-28T16:26:56.875Z</time></trkpt><trkpt lat="44.4247833" lon="9.145195"><ele>267.2</ele><time>2026-04-28T16:26:58.875Z</time></trkpt><trkpt lat="44.4247917" lon="9.1450367"><ele>263.79999999999995</ele><time>2026-04-28T16:27:00.875Z</time></trkpt><trkpt lat="44.424855" lon="9.1448933"><ele>260.4</ele><time>2026-04-28T16:27:02.877Z</time></trkpt><trkpt lat="44.4248517" lon="9.1447433"><ele>257.0</ele><time>2026-04-28T16:27:04.875Z</time></trkpt><trkpt lat="44.4248683" lon="9.14465"><ele>255.39999999999998</ele><time>2026-04-28T16:27:06.875Z</time></trkpt><trkpt lat="44.4249517" lon="9.14458"><ele>253.79999999999998</ele><time>2026-04-28T16:27:08.877Z</time></trkpt><trkpt lat="44.42507" lon="9.14455"><ele>252.2</ele><time>2026-04-28T16:27:10.877Z</time></trkpt><trkpt lat="44.4251417" lon="9.14452"><ele>250.6</ele><time>2026-04-28T16:27:11.874Z</time></trkpt><trkpt lat="44.4252033" lon="9.1444833"><ele>249.0</ele><time>2026-04-28T16:27:12.877Z</time></trkpt><trkpt lat="44.4252983" lon="9.14443"><ele>249.0</ele><time>2026-04-28T16:27:14.876Z</time></trkpt><trkpt lat="44.4253867" lon="9.1443833"><ele>249.0</ele><time>2026-04-28T16:27:16.875Z</time></trkpt><trkpt lat="44.4254667" lon="9.144385"><ele>249.0</ele><time>2026-04-28T16:27:18.876Z</time></trkpt><trkpt lat="44.42554" lon="9.14436"><ele>249.0</ele><time>2026-04-28T16:27:20.876Z</time></trkpt><trkpt lat="44.42559" lon="9.14427"><ele>249.0</ele><time>2026-04-28T16:27:22.876Z</time></trkpt><trkpt lat="44.4256017" lon="9.14417"><ele>249.0</ele><time>2026-04-28T16:27:24.878Z</time></trkpt><trkpt lat="44.425615" lon="9.1440817"><ele>251.16666666666666</ele><time>2026-04-28T16:27:26.875Z</time></trkpt><trkpt lat="44.4256217" lon="9.1439667"><ele>253.33333333333331</ele><time>2026-04-28T16:27:29.876Z</time></trkpt><trkpt lat="44.4255967" lon="9.1438817"><ele>255.5</ele><time>2026-04-28T16:27:31.875Z</time></trkpt><trkpt lat="44.425605" lon="9.143785"><ele>257.66666666666663</ele><time>2026-04-28T16:27:33.876Z</time></trkpt><trkpt lat="44.4256617" lon="9.14364"><ele>259.8333333333333</ele><time>2026-04-28T16:27:35.875Z</time></trkpt><trkpt lat="44.425705" lon="9.143565"><ele>262.0</ele><time>2026-04-28T16:27:36.875Z</time></trkpt><trkpt lat="44.42576" lon="9.143485"><ele>262.0</ele><time>2026-04-28T16:27:37.875Z</time></trkpt><trkpt lat="44.4257983" lon="9.14337"><ele>262.0</ele><time>2026-04-28T16:27:39.876Z</time></trkpt><trkpt lat="44.4257933" lon="9.14325"><ele>262.0</ele><time>2026-04-28T16:27:41.874Z</time></trkpt><trkpt lat="44.4257533" lon="9.1431783"><ele>262.0</ele><time>2026-04-28T16:27:42.875Z</time></trkpt><trkpt lat="44.4257067" lon="9.1430967"><ele>262.0</ele><time>2026-04-28T16:27:43.878Z</time></trkpt><trkpt lat="44.425675" lon="9.143015"><ele>262.0</ele><time>2026-04-28T16:27:44.876Z</time></trkpt><trkpt lat="44.42559" lon="9.1429017"><ele>262.6</ele><time>2026-04-28T16:27:46.875Z</time></trkpt><trkpt lat="44.4255333" lon="9.14284"><ele>263.2</ele><time>2026-04-28T16:27:48.877Z</time></trkpt><trkpt lat="44.425395" lon="9.142915"><ele>263.8</ele><time>2026-04-28T16:27:50.876Z</time></trkpt><trkpt lat="44.4253483" lon="9.1429783"><ele>264.4</ele><time>2026-04-28T16:27:51.875Z</time></trkpt><trkpt lat="44.4252983" lon="9.1431133"><ele>265.0</ele><time>2026-04-28T16:27:52.876Z</time></trkpt><trkpt lat="44.4252283" lon="9.1432333"><ele>265.0</ele><time>2026-04-28T16:27:53.875Z</time></trkpt><trkpt lat="44.4251733" lon="9.1433717"><ele>265.0</ele><time>2026-04-28T16:27:54.876Z</time></trkpt><trkpt lat="44.4251067" lon="9.1434533"><ele>265.0</ele><time>2026-04-28T16:27:55.876Z</time></trkpt><trkpt lat="44.4250367" lon="9.1435083"><ele>265.0</ele><time>2026-04-28T16:27:56.877Z</time></trkpt><trkpt lat="44.4248883" lon="9.1435267"><ele>265.0</ele><time>2026-04-28T16:27:57.876Z</time></trkpt><trkpt lat="44.424765" lon="9.1435567"><ele>265.0</ele><time>2026-04-28T16:27:58.875Z</time></trkpt><trkpt lat="44.42467" lon="9.1435733"><ele>265.0</ele><time>2026-04-28T16:27:59.876Z</time></trkpt><trkpt lat="44.4245717" lon="9.1435833"><ele>265.0</ele><time>2026-04-28T16:28:00.876Z</time></trkpt><trkpt lat="44.4245217" lon="9.143515"><ele>265.0</ele><time>2026-04-28T16:28:01.874Z</time></trkpt><trkpt lat="44.4244967" lon="9.143385"><ele>265.0</ele><time>2026-04-28T16:28:02.875Z</time></trkpt><trkpt lat="44.4244833" lon="9.1432067"><ele>263.4</ele><time>2026-04-28T16:28:03.874Z</time></trkpt><trkpt lat="44.4244817" lon="9.143035"><ele>261.8</ele><time>2026-04-28T16:28:04.873Z</time></trkpt><trkpt lat="44.4244683" lon="9.1428883"><ele>260.2</ele><time>2026-04-28T16:28:05.876Z</time></trkpt><trkpt lat="44.42443" lon="9.1427633"><ele>258.6</ele><time>2026-04-28T16:28:06.874Z</time></trkpt><trkpt lat="44.4243767" lon="9.1426483"><ele>257.0</ele><time>2026-04-28T16:28:07.875Z</time></trkpt><trkpt lat="44.4243133" lon="9.1425483"><ele>257.0</ele><time>2026-04-28T16:28:08.874Z</time></trkpt><trkpt lat="44.4242467" lon="9.1424667"><ele>257.0</ele><time>2026-04-28T16:28:09.874Z</time></trkpt><trkpt lat="44.424145" lon="9.14243"><ele>257.0</ele><time>2026-04-28T16:28:11.875Z</time></trkpt><trkpt lat="44.4240567" lon="9.1424983"><ele>257.0</ele><time>2026-04-28T16:28:13.874Z</time></trkpt><trkpt lat="44.4240117" lon="9.1425717"><ele>257.0</ele><time>2026-04-28T16:28:14.875Z</time></trkpt><trkpt lat="44.4239283" lon="9.142645"><ele>257.0</ele><time>2026-04-28T16:28:16.874Z</time></trkpt><trkpt lat="44.42382" lon="9.1426233"><ele>257.0</ele><time>2026-04-28T16:28:18.875Z</time></trkpt><trkpt lat="44.4237317" lon="9.1426367"><ele>257.0</ele><time>2026-04-28T16:28:19.874Z</time></trkpt><trkpt lat="44.42366" lon="9.142655"><ele>257.0</ele><time>2026-04-28T16:28:20.875Z</time></trkpt><trkpt lat="44.4235933" lon="9.1426717"><ele>257.0</ele><time>2026-04-28T16:28:21.875Z</time></trkpt><trkpt lat="44.4234783" lon="9.1427383"><ele>258.2</ele><time>2026-04-28T16:28:23.875Z</time></trkpt><trkpt lat="44.4234033" lon="9.1428183"><ele>259.4</ele><time>2026-04-28T16:28:25.876Z</time></trkpt><trkpt lat="44.4233633" lon="9.1429067"><ele>260.6</ele><time>2026-04-28T16:28:27.875Z</time></trkpt><trkpt lat="44.4234317" lon="9.142945"><ele>261.8</ele><time>2026-04-28T16:28:32.876Z</time></trkpt><trkpt lat="44.4235783" lon="9.142995"><ele>263.0</ele><time>2026-04-28T16:28:43.875Z</time></trkpt><trkpt lat="44.42359" lon="9.1431"><ele>264.6666666666667</ele><time>2026-04-28T16:28:47.874Z</time></trkpt><trkpt lat="44.4235633" lon="9.1432233"><ele>266.33333333333337</ele><time>2026-04-28T16:28:51.875Z</time></trkpt><trkpt lat="44.4235183" lon="9.143315"><ele>268.0</ele><time>2026-04-28T16:28:53.875Z</time></trkpt><trkpt lat="44.42348" lon="9.143385"><ele>269.6666666666667</ele><time>2026-04-28T16:28:54.875Z</time></trkpt><trkpt lat="44.42343" lon="9.14352"><ele>271.3333333333333</ele><time>2026-04-28T16:28:56.875Z</time></trkpt><trkpt lat="44.4233883" lon="9.143615"><ele>273.0</ele><time>2026-04-28T16:28:59.873Z</time></trkpt><trkpt lat="44.423335" lon="9.1436633"><ele>273.0</ele><time>2026-04-28T16:29:11.876Z</time></trkpt><trkpt lat="44.42325" lon="9.1436883"><ele>273.0</ele><time>2026-04-28T16:29:14.876Z</time></trkpt><trkpt lat="44.4231633" lon="9.1437117"><ele>273.0</ele><time>2026-04-28T16:29:17.876Z</time></trkpt><trkpt lat="44.4231017" lon="9.1437733"><ele>273.0</ele><time>2026-04-28T16:29:20.877Z</time></trkpt><trkpt lat="44.4230133" lon="9.14378"><ele>273.0</ele><time>2026-04-28T16:29:23.876Z</time></trkpt><trkpt lat="44.4229517" lon="9.143755"><ele>273.0</ele><time>2026-04-28T16:29:25.875Z</time></trkpt><trkpt lat="44.4228717" lon="9.1437483"><ele>280.5</ele><time>2026-04-28T16:29:29.875Z</time></trkpt><trkpt lat="44.4227517" lon="9.1437583"><ele>288.0</ele><time>2026-04-28T16:29:32.878Z</time></trkpt><trkpt lat="44.4226267" lon="9.1438067"><ele>295.5</ele><time>2026-04-28T16:29:34.877Z</time></trkpt><trkpt lat="44.4225217" lon="9.1438483"><ele>303.0</ele><time>2026-04-28T16:29:35.874Z</time></trkpt><trkpt lat="44.4224217" lon="9.1438967"><ele>303.0</ele><time>2026-04-28T16:29:36.874Z</time></trkpt><trkpt lat="44.4223467" lon="9.1439367"><ele>303.0</ele><time>2026-04-28T16:29:37.875Z</time></trkpt><trkpt lat="44.4222733" lon="9.1439733"><ele>303.0</ele><time>2026-04-28T16:29:38.875Z</time></trkpt><trkpt lat="44.4222067" lon="9.143985"><ele>303.0</ele><time>2026-04-28T16:29:39.876Z</time></trkpt><trkpt lat="44.42214" lon="9.143985"><ele>303.0</ele><time>2026-04-28T16:29:40.874Z</time></trkpt><trkpt lat="44.4220617" lon="9.1439867"><ele>303.0</ele><time>2026-04-28T16:29:41.874Z</time></trkpt><trkpt lat="44.4219933" lon="9.1439983"><ele>303.0</ele><time>2026-04-28T16:29:42.875Z</time></trkpt><trkpt lat="44.4218933" lon="9.144"><ele>307.2</ele><time>2026-04-28T16:29:44.877Z</time></trkpt><trkpt lat="44.4218183" lon="9.144005"><ele>311.4</ele><time>2026-04-28T16:29:47.875Z</time></trkpt><trkpt lat="44.4216713" lon="9.1439084"><ele>315.59999999999997</ele><time>2026-04-28T16:30:03.877Z</time></trkpt><trkpt lat="44.421588" lon="9.1439112"><ele>319.8</ele><time>2026-04-28T16:30:06.885Z</time></trkpt><trkpt lat="44.4214627" lon="9.1439158"><ele>324.0</ele><time>2026-04-28T16:30:09.901Z</time></trkpt><trkpt lat="44.4213875" lon="9.1439465"><ele>327.75</ele><time>2026-04-28T16:30:11.91Z</time></trkpt><trkpt lat="44.421262" lon="9.1439819"><ele>331.5</ele><time>2026-04-28T16:30:13.919Z</time></trkpt><trkpt lat="44.4211725" lon="9.1439946"><ele>335.25</ele><time>2026-04-28T16:30:15.929Z</time></trkpt><trkpt lat="44.4209981" lon="9.143963"><ele>339.0</ele><time>2026-04-28T16:30:18.876Z</time></trkpt><trkpt lat="44.4209142" lon="9.1439412"><ele>339.0</ele><time>2026-04-28T16:30:19.876Z</time></trkpt><trkpt lat="44.4208311" lon="9.1439286"><ele>339.0</ele><time>2026-04-28T16:30:20.878Z</time></trkpt><trkpt lat="44.4207444" lon="9.1439314"><ele>339.0</ele><time>2026-04-28T16:30:21.875Z</time></trkpt><trkpt lat="44.4206559" lon="9.1439387"><ele>339.0</ele><time>2026-04-28T16:30:22.876Z</time></trkpt><trkpt lat="44.4205713" lon="9.1439632"><ele>339.0</ele><time>2026-04-28T16:30:23.875Z</time></trkpt><trkpt lat="44.4205018" lon="9.1439885"><ele>339.0</ele><time>2026-04-28T16:30:24.873Z</time></trkpt><trkpt lat="44.4203879" lon="9.1440321"><ele>343.3333333333333</ele><time>2026-04-28T16:30:26.874Z</time></trkpt><trkpt lat="44.4202894" lon="9.1440652"><ele>347.6666666666667</ele><time>2026-04-28T16:30:28.874Z</time></trkpt><trkpt lat="44.4201758" lon="9.1440562"><ele>352.0</ele><time>2026-04-28T16:30:31.875Z</time></trkpt><trkpt lat="44.4201014" lon="9.1440595"><ele>356.33333333333337</ele><time>2026-04-28T16:30:33.874Z</time></trkpt><trkpt lat="44.420035" lon="9.144075"><ele>360.6666666666667</ele><time>2026-04-28T16:30:35.874Z</time></trkpt><trkpt lat="44.41996" lon="9.1440817"><ele>365.0</ele><time>2026-04-28T16:30:37.874Z</time></trkpt><trkpt lat="44.4198583" lon="9.1441083"><ele>365.0</ele><time>2026-04-28T16:30:39.876Z</time></trkpt><trkpt lat="44.419795" lon="9.1441367"><ele>365.0</ele><time>2026-04-28T16:30:40.875Z</time></trkpt><trkpt lat="44.4197217" lon="9.1441717"><ele>365.0</ele><time>2026-04-28T16:30:41.875Z</time></trkpt><trkpt lat="44.4196433" lon="9.1442317"><ele>365.0</ele><time>2026-04-28T16:30:43.875Z</time></trkpt><trkpt lat="44.4195517" lon="9.1443117"><ele>365.0</ele><time>2026-04-28T16:30:45.874Z</time></trkpt><trkpt lat="44.4194617" lon="9.144375"><ele>365.0</ele><time>2026-04-28T16:30:47.874Z</time></trkpt><trkpt lat="44.4194" lon="9.1443967"><ele>368.0</ele><time>2026-04-28T16:30:49.874Z</time></trkpt><trkpt lat="44.4193267" lon="9.14443"><ele>371.0</ele><time>2026-04-28T16:30:51.873Z</time></trkpt><trkpt lat="44.4192417" lon="9.1444433"><ele>374.0</ele><time>2026-04-28T16:30:54.875Z</time></trkpt><trkpt lat="44.4191733" lon="9.1444617"><ele>377.0</ele><time>2026-04-28T16:30:56.876Z</time></trkpt><trkpt lat="44.419115" lon="9.1445217"><ele>380.0</ele><time>2026-04-28T16:30:58.874Z</time></trkpt><trkpt lat="44.41905" lon="9.1445967"><ele>383.0</ele><time>2026-04-28T16:31:01.874Z</time></trkpt><trkpt lat="44.4190017" lon="9.1446767"><ele>383.0</ele><time>2026-04-28T16:31:03.874Z</time></trkpt><trkpt lat="44.4189283" lon="9.1447017"><ele>383.0</ele><time>2026-04-28T16:31:06.875Z</time></trkpt><trkpt lat="44.4188533" lon="9.1447917"><ele>383.0</ele><time>2026-04-28T16:31:09.874Z</time></trkpt><trkpt lat="44.4188067" lon="9.144875"><ele>383.0</ele><time>2026-04-28T16:31:11.876Z</time></trkpt><trkpt lat="44.4187383" lon="9.14497"><ele>383.0</ele><time>2026-04-28T16:31:13.873Z</time></trkpt><trkpt lat="44.418695" lon="9.1450417"><ele>383.0</ele><time>2026-04-28T16:31:15.875Z</time></trkpt><trkpt lat="44.4186167" lon="9.145075"><ele>387.6666666666667</ele><time>2026-04-28T16:31:19.875Z</time></trkpt><trkpt lat="44.4185417" lon="9.1450817"><ele>392.33333333333337</ele><time>2026-04-28T16:31:22.873Z</time></trkpt><trkpt lat="44.41838" lon="9.1451267"><ele>397.0</ele><time>2026-04-28T16:31:45.875Z</time></trkpt><trkpt lat="44.4183183" lon="9.14518"><ele>401.6666666666667</ele><time>2026-04-28T16:31:48.875Z</time></trkpt><trkpt lat="44.4182717" lon="9.14524"><ele>406.3333333333333</ele><time>2026-04-28T16:31:51.877Z</time></trkpt><trkpt lat="44.4182567" lon="9.1453283"><ele>411.0</ele><time>2026-04-28T16:31:54.875Z</time></trkpt><trkpt lat="44.41821" lon="9.1454067"><ele>411.0</ele><time>2026-04-28T16:31:56.875Z</time></trkpt><trkpt lat="44.4181533" lon="9.1454867"><ele>411.0</ele><time>2026-04-28T16:31:58.875Z</time></trkpt><trkpt lat="44.4181" lon="9.1455633"><ele>411.0</ele><time>2026-04-28T16:32:00.873Z</time></trkpt><trkpt lat="44.41804" lon="9.1456833"><ele>411.0</ele><time>2026-04-28T16:32:02.876Z</time></trkpt><trkpt lat="44.4179567" lon="9.1458267"><ele>411.0</ele><time>2026-04-28T16:32:04.874Z</time></trkpt><trkpt lat="44.4179133" lon="9.1459033"><ele>414.6666666666667</ele><time>2026-04-28T16:32:05.874Z</time></trkpt><trkpt lat="44.4178667" lon="9.145975"><ele>418.33333333333337</ele><time>2026-04-28T16:32:06.876Z</time></trkpt><trkpt lat="44.417815" lon="9.14604"><ele>422.0</ele><time>2026-04-28T16:32:07.875Z</time></trkpt><trkpt lat="44.4177617" lon="9.1460917"><ele>425.6666666666667</ele><time>2026-04-28T16:32:08.875Z</time></trkpt><trkpt lat="44.41767" lon="9.1461967"><ele>429.33333333333337</ele><time>2026-04-28T16:32:10.874Z</time></trkpt><trkpt lat="44.4175783" lon="9.1463033"><ele>433.0</ele><time>2026-04-28T16:32:12.874Z</time></trkpt><trkpt lat="44.417525" lon="9.1463533"><ele>433.00000000000006</ele><time>2026-04-28T16:32:13.875Z</time></trkpt><trkpt lat="44.41747" lon="9.14641"><ele>433.0</ele><time>2026-04-28T16:32:14.875Z</time></trkpt><trkpt lat="44.41742" lon="9.1464717"><ele>433.0</ele><time>2026-04-28T16:32:15.874Z</time></trkpt><trkpt lat="44.4173433" lon="9.1465983"><ele>433.0</ele><time>2026-04-28T16:32:17.876Z</time></trkpt><trkpt lat="44.417295" lon="9.1466783"><ele>433.00000000000006</ele><time>2026-04-28T16:32:19.873Z</time></trkpt><trkpt lat="44.4172717" lon="9.1465567"><ele>433.0</ele><time>2026-04-28T16:32:24.878Z</time></trkpt><trkpt lat="44.417225" lon="9.1464033"><ele>435.0</ele><time>2026-04-28T16:32:26.877Z</time></trkpt><trkpt lat="44.4171483" lon="9.1462733"><ele>436.99999999999994</ele><time>2026-04-28T16:32:28.874Z</time></trkpt><trkpt lat="44.4170633" lon="9.1461883"><ele>438.99999999999994</ele><time>2026-04-28T16:32:30.875Z</time></trkpt><trkpt lat="44.41702" lon="9.1460833"><ele>441.0</ele><time>2026-04-28T16:32:32.875Z</time></trkpt><trkpt lat="44.41695" lon="9.1459483"><ele>443.0</ele><time>2026-04-28T16:32:34.874Z</time></trkpt><trkpt lat="44.4169117" lon="9.1458767"><ele>443.0</ele><time>2026-04-28T16:32:35.876Z</time></trkpt><trkpt lat="44.416895" lon="9.1457333"><ele>442.99999999999994</ele><time>2026-04-28T16:32:37.876Z</time></trkpt><trkpt lat="44.4168833" lon="9.1456233"><ele>442.99999999999994</ele><time>2026-04-28T16:32:39.876Z</time></trkpt><trkpt lat="44.4168383" lon="9.1455167"><ele>443.0</ele><time>2026-04-28T16:32:41.876Z</time></trkpt><trkpt lat="44.4167533" lon="9.14541"><ele>443.0</ele><time>2026-04-28T16:32:43.876Z</time></trkpt><trkpt lat="44.4166917" lon="9.1453567"><ele>443.57142857142856</ele><time>2026-04-28T16:32:44.875Z</time></trkpt><trkpt lat="44.416625" lon="9.1453083"><ele>444.14285714285717</ele><time>2026-04-28T16:32:45.876Z</time></trkpt><trkpt lat="44.416565" lon="9.1452683"><ele>444.71428571428567</ele><time>2026-04-28T16:32:46.876Z</time></trkpt><trkpt lat="44.4165" lon="9.1452283"><ele>445.2857142857143</ele><time>2026-04-28T16:32:47.875Z</time></trkpt><trkpt lat="44.4164333" lon="9.1451933"><ele>445.85714285714283</ele><time>2026-04-28T16:32:48.876Z</time></trkpt><trkpt lat="44.416365" lon="9.1451617"><ele>446.4285714285714</ele><time>2026-04-28T16:32:49.875Z</time></trkpt><trkpt lat="44.4163083" lon="9.145115"><ele>447.0</ele><time>2026-04-28T16:32:50.876Z</time></trkpt><trkpt lat="44.416235" lon="9.1449917"><ele>442.20000000000005</ele><time>2026-04-28T16:32:52.874Z</time></trkpt><trkpt lat="44.4162067" lon="9.144845"><ele>437.40000000000003</ele><time>2026-04-28T16:32:54.875Z</time></trkpt><trkpt lat="44.4161367" lon="9.144715"><ele>432.6</ele><time>2026-04-28T16:32:56.877Z</time></trkpt><trkpt lat="44.4160717" lon="9.1446517"><ele>427.79999999999995</ele><time>2026-04-28T16:32:57.875Z</time></trkpt><trkpt lat="44.4159967" lon="9.1446067"><ele>423.0</ele><time>2026-04-28T16:32:58.874Z</time></trkpt><trkpt lat="44.415925" lon="9.1445633"><ele>423.0</ele><time>2026-04-28T16:32:59.875Z</time></trkpt><trkpt lat="44.41587" lon="9.144505"><ele>423.0</ele><time>2026-04-28T16:33:00.876Z</time></trkpt><trkpt lat="44.4158167" lon="9.1444383"><ele>423.0</ele><time>2026-04-28T16:33:01.874Z</time></trkpt><trkpt lat="44.4157683" lon="9.1443583"><ele>423.0</ele><time>2026-04-28T16:33:02.877Z</time></trkpt><trkpt lat="44.4157367" lon="9.14427"><ele>423.0</ele><time>2026-04-28T16:33:03.874Z</time></trkpt><trkpt lat="44.41572" lon="9.1441017"><ele>423.0</ele><time>2026-04-28T16:33:05.874Z</time></trkpt><trkpt lat="44.4157017" lon="9.1439683"><ele>421.2</ele><time>2026-04-28T16:33:07.875Z</time></trkpt><trkpt lat="44.415665" lon="9.1438767"><ele>419.4</ele><time>2026-04-28T16:33:09.875Z</time></trkpt><trkpt lat="44.4156283" lon="9.14372"><ele>417.59999999999997</ele><time>2026-04-28T16:33:11.874Z</time></trkpt><trkpt lat="44.4156083" lon="9.14361"><ele>415.79999999999995</ele><time>2026-04-28T16:33:12.877Z</time></trkpt><trkpt lat="44.4156017" lon="9.1434833"><ele>414.0</ele><time>2026-04-28T16:33:13.875Z</time></trkpt><trkpt lat="44.415595" lon="9.143355"><ele>414.0</ele><time>2026-04-28T16:33:14.877Z</time></trkpt><trkpt lat="44.4156017" lon="9.1432617"><ele>414.0</ele><time>2026-04-28T16:33:17.877Z</time></trkpt><trkpt lat="44.415545" lon="9.143195"><ele>414.0</ele><time>2026-04-28T16:33:21.874Z</time></trkpt><trkpt lat="44.4154817" lon="9.1431417"><ele>414.0</ele><time>2026-04-28T16:33:25.876Z</time></trkpt><trkpt lat="44.4154217" lon="9.1430483"><ele>414.0</ele><time>2026-04-28T16:33:27.876Z</time></trkpt><trkpt lat="44.4153767" lon="9.142985"><ele>414.0</ele><time>2026-04-28T16:33:29.877Z</time></trkpt><trkpt lat="44.4153083" lon="9.1429067"><ele>418.6666666666667</ele><time>2026-04-28T16:33:32.877Z</time></trkpt><trkpt lat="44.41528" lon="9.1428233"><ele>423.33333333333337</ele><time>2026-04-28T16:33:34.875Z</time></trkpt><trkpt lat="44.4152217" lon="9.1427467"><ele>428.0</ele><time>2026-04-28T16:33:36.879Z</time></trkpt><trkpt lat="44.4151633" lon="9.1426833"><ele>432.6666666666667</ele><time>2026-04-28T16:33:38.879Z</time></trkpt><trkpt lat="44.4150717" lon="9.1426367"><ele>437.33333333333337</ele><time>2026-04-28T16:33:40.877Z</time></trkpt><trkpt lat="44.415" lon="9.1426183"><ele>442.0</ele><time>2026-04-28T16:33:41.878Z</time></trkpt><trkpt lat="44.4149233" lon="9.1426083"><ele>442.0</ele><time>2026-04-28T16:33:42.88Z</time></trkpt><trkpt lat="44.4148033" lon="9.1425433"><ele>442.00000000000006</ele><time>2026-04-28T16:33:44.879Z</time></trkpt><trkpt lat="44.4147283" lon="9.14252"><ele>442.00000000000006</ele><time>2026-04-28T16:33:45.878Z</time></trkpt><trkpt lat="44.41462" lon="9.1425083"><ele>442.0</ele><time>2026-04-28T16:33:47.876Z</time></trkpt><trkpt lat="44.41453" lon="9.142545"><ele>442.0</ele><time>2026-04-28T16:33:49.878Z</time></trkpt><trkpt lat="44.4144" lon="9.14259"><ele>444.6666666666667</ele><time>2026-04-28T16:33:51.877Z</time></trkpt><trkpt lat="44.4143117" lon="9.1426017"><ele>447.33333333333337</ele><time>2026-04-28T16:33:52.876Z</time></trkpt><trkpt lat="44.41421" lon="9.1426217"><ele>450.0</ele><time>2026-04-28T16:33:53.874Z</time></trkpt><trkpt lat="44.4141233" lon="9.1426417"><ele>452.66666666666663</ele><time>2026-04-28T16:33:54.875Z</time></trkpt><trkpt lat="44.41403" lon="9.1426683"><ele>455.3333333333333</ele><time>2026-04-28T16:33:55.875Z</time></trkpt><trkpt lat="44.4139583" lon="9.1426817"><ele>458.0</ele><time>2026-04-28T16:33:56.874Z</time></trkpt><trkpt lat="44.4138867" lon="9.1426883"><ele>458.3333333333333</ele><time>2026-04-28T16:33:57.874Z</time></trkpt><trkpt lat="44.4138067" lon="9.1426933"><ele>458.66666666666663</ele><time>2026-04-28T16:33:58.874Z</time></trkpt><trkpt lat="44.4137267" lon="9.1426883"><ele>459.0</ele><time>2026-04-28T16:33:59.874Z</time></trkpt><trkpt lat="44.4136433" lon="9.14268"><ele>459.33333333333337</ele><time>2026-04-28T16:34:00.874Z</time></trkpt><trkpt lat="44.4135617" lon="9.1426617"><ele>459.6666666666667</ele><time>2026-04-28T16:34:01.874Z</time></trkpt><trkpt lat="44.41349" lon="9.142655"><ele>460.0</ele><time>2026-04-28T16:34:02.876Z</time></trkpt><trkpt lat="44.4133683" lon="9.1426933"><ele>460.0</ele><time>2026-04-28T16:34:04.874Z</time></trkpt><trkpt lat="44.41324" lon="9.1427217"><ele>460.0</ele><time>2026-04-28T16:34:06.875Z</time></trkpt><trkpt lat="44.4131783" lon="9.14274"><ele>460.0</ele><time>2026-04-28T16:34:07.874Z</time></trkpt><trkpt lat="44.4130567" lon="9.1427767"><ele>460.0</ele><time>2026-04-28T16:34:09.874Z</time></trkpt><trkpt lat="44.412965" lon="9.1428083"><ele>460.0</ele><time>2026-04-28T16:34:11.874Z</time></trkpt><trkpt lat="44.4129117" lon="9.142865"><ele>460.00000000000006</ele><time>2026-04-28T16:34:16.874Z</time></trkpt><trkpt lat="44.4129667" lon="9.1430033"><ele>460.0</ele><time>2026-04-28T16:34:19.877Z</time></trkpt><trkpt lat="44.4130333" lon="9.143115"><ele>460.0</ele><time>2026-04-28T16:34:21.875Z</time></trkpt><trkpt lat="44.413065" lon="9.1432033"><ele>460.0</ele><time>2026-04-28T16:34:22.873Z</time></trkpt><trkpt lat="44.4131067" lon="9.1432783"><ele>460.00000000000006</ele><time>2026-04-28T16:34:23.875Z</time></trkpt><trkpt lat="44.413155" lon="9.1433667"><ele>460.0</ele><time>2026-04-28T16:34:24.875Z</time></trkpt><trkpt lat="44.413205" lon="9.143455"><ele>460.50000000000006</ele><time>2026-04-28T16:34:25.875Z</time></trkpt><trkpt lat="44.413255" lon="9.1435483"><ele>461.0</ele><time>2026-04-28T16:34:26.875Z</time></trkpt><trkpt lat="44.413305" lon="9.1436583"><ele>461.5</ele><time>2026-04-28T16:34:27.875Z</time></trkpt><trkpt lat="44.41335" lon="9.143765"><ele>462.0</ele><time>2026-04-28T16:34:28.874Z</time></trkpt><trkpt lat="44.4133983" lon="9.1438683"><ele>462.50000000000006</ele><time>2026-04-28T16:34:29.874Z</time></trkpt><trkpt lat="44.4134533" lon="9.1439783"><ele>463.0</ele><time>2026-04-28T16:34:30.875Z</time></trkpt><trkpt lat="44.4135067" lon="9.1440917"><ele>463.0</ele><time>2026-04-28T16:34:31.876Z</time></trkpt><trkpt lat="44.4135583" lon="9.144205"><ele>462.99999999999994</ele><time>2026-04-28T16:34:32.876Z</time></trkpt><trkpt lat="44.41361" lon="9.1443183"><ele>462.99999999999994</ele><time>2026-04-28T16:34:33.874Z</time></trkpt><trkpt lat="44.4136567" lon="9.144445"><ele>463.0</ele><time>2026-04-28T16:34:34.875Z</time></trkpt><trkpt lat="44.413695" lon="9.1445667"><ele>463.0</ele><time>2026-04-28T16:34:35.874Z</time></trkpt><trkpt lat="44.41373" lon="9.1446933"><ele>463.0</ele><time>2026-04-28T16:34:36.879Z</time></trkpt><trkpt lat="44.4137683" lon="9.1448233"><ele>462.99999999999994</ele><time>2026-04-28T16:34:37.874Z</time></trkpt><trkpt lat="44.413805" lon="9.14495"><ele>462.99999999999994</ele><time>2026-04-28T16:34:38.875Z</time></trkpt><trkpt lat="44.4138433" lon="9.145085"><ele>463.0</ele><time>2026-04-28T16:34:39.875Z</time></trkpt><trkpt lat="44.4138783" lon="9.1452183"><ele>463.0</ele><time>2026-04-28T16:34:40.874Z</time></trkpt><trkpt lat="44.4139233" lon="9.1453583"><ele>462.4</ele><time>2026-04-28T16:34:41.874Z</time></trkpt><trkpt lat="44.41397" lon="9.1454983"><ele>461.79999999999995</ele><time>2026-04-28T16:34:42.875Z</time></trkpt><trkpt lat="44.4140117" lon="9.14564"><ele>461.2</ele><time>2026-04-28T16:34:43.872Z</time></trkpt><trkpt lat="44.4140533" lon="9.1457717"><ele>460.6</ele><time>2026-04-28T16:34:44.876Z</time></trkpt><trkpt lat="44.4140883" lon="9.1459"><ele>460.0</ele><time>2026-04-28T16:34:45.874Z</time></trkpt><trkpt lat="44.4141167" lon="9.1460283"><ele>460.0</ele><time>2026-04-28T16:34:46.874Z</time></trkpt><trkpt lat="44.414155" lon="9.146155"><ele>460.0</ele><time>2026-04-28T16:34:47.873Z</time></trkpt><trkpt lat="44.414195" lon="9.14627"><ele>460.0</ele><time>2026-04-28T16:34:48.874Z</time></trkpt><trkpt lat="44.41425" lon="9.1463767"><ele>460.0</ele><time>2026-04-28T16:34:49.876Z</time></trkpt><trkpt lat="44.4143133" lon="9.146475"><ele>460.0</ele><time>2026-04-28T16:34:50.875Z</time></trkpt><trkpt lat="44.414375" lon="9.14656"><ele>457.4</ele><time>2026-04-28T16:34:51.875Z</time></trkpt><trkpt lat="44.4144367" lon="9.1466617"><ele>454.8</ele><time>2026-04-28T16:34:52.872Z</time></trkpt><trkpt lat="44.4144867" lon="9.14677"><ele>452.20000000000005</ele><time>2026-04-28T16:34:53.877Z</time></trkpt><trkpt lat="44.41453" lon="9.146885"><ele>449.6</ele><time>2026-04-28T16:34:54.874Z</time></trkpt><trkpt lat="44.4145817" lon="9.146995"><ele>447.0</ele><time>2026-04-28T16:34:55.874Z</time></trkpt><trkpt lat="44.4146433" lon="9.1470833"><ele>452.8</ele><time>2026-04-28T16:34:56.876Z</time></trkpt><trkpt lat="44.414735" lon="9.1471417"><ele>458.6</ele><time>2026-04-28T16:34:57.874Z</time></trkpt><trkpt lat="44.4148367" lon="9.147165"><ele>464.40000000000003</ele><time>2026-04-28T16:34:58.874Z</time></trkpt><trkpt lat="44.4149433" lon="9.1472067"><ele>470.20000000000005</ele><time>2026-04-28T16:34:59.875Z</time></trkpt><trkpt lat="44.4150467" lon="9.1472483"><ele>476.0</ele><time>2026-04-28T16:35:00.876Z</time></trkpt><trkpt lat="44.415145" lon="9.1472967"><ele>476.0</ele><time>2026-04-28T16:35:01.875Z</time></trkpt><trkpt lat="44.415245" lon="9.14734"><ele>476.0</ele><time>2026-04-28T16:35:02.874Z</time></trkpt><trkpt lat="44.4153467" lon="9.1473567"><ele>476.0</ele><time>2026-04-28T16:35:03.873Z</time></trkpt><trkpt lat="44.4154483" lon="9.14735"><ele>476.0</ele><time>2026-04-28T16:35:04.874Z</time></trkpt><trkpt lat="44.415555" lon="9.1473433"><ele>476.0</ele><time>2026-04-28T16:35:05.874Z</time></trkpt><trkpt lat="44.415665" lon="9.1473433"><ele>476.0</ele><time>2026-04-28T16:35:06.875Z</time></trkpt><trkpt lat="44.4157783" lon="9.1473517"><ele>476.0</ele><time>2026-04-28T16:35:07.874Z</time></trkpt><trkpt lat="44.41588" lon="9.1473683"><ele>476.0</ele><time>2026-04-28T16:35:08.875Z</time></trkpt><trkpt lat="44.4159783" lon="9.1473917"><ele>476.0</ele><time>2026-04-28T16:35:09.875Z</time></trkpt><trkpt lat="44.4160733" lon="9.14743"><ele>476.0</ele><time>2026-04-28T16:35:10.874Z</time></trkpt><trkpt lat="44.4161617" lon="9.14747"><ele>472.8</ele><time>2026-04-28T16:35:11.874Z</time></trkpt><trkpt lat="44.4162467" lon="9.147505"><ele>469.6</ele><time>2026-04-28T16:35:12.875Z</time></trkpt><trkpt lat="44.4163233" lon="9.1475417"><ele>466.4</ele><time>2026-04-28T16:35:13.875Z</time></trkpt><trkpt lat="44.4164033" lon="9.1475767"><ele>463.2</ele><time>2026-04-28T16:35:14.875Z</time></trkpt><trkpt lat="44.4164867" lon="9.14762"><ele>460.0</ele><time>2026-04-28T16:35:15.874Z</time></trkpt><trkpt lat="44.4166317" lon="9.1477217"><ele>460.00000000000006</ele><time>2026-04-28T16:35:17.875Z</time></trkpt><trkpt lat="44.41669" lon="9.1477767"><ele>460.0</ele><time>2026-04-28T16:35:18.876Z</time></trkpt><trkpt lat="44.4167433" lon="9.14784"><ele>460.0</ele><time>2026-04-28T16:35:19.874Z</time></trkpt><trkpt lat="44.4167867" lon="9.14791"><ele>460.0</ele><time>2026-04-28T16:35:20.876Z</time></trkpt><trkpt lat="44.4168333" lon="9.147995"><ele>460.00000000000006</ele><time>2026-04-28T16:35:21.876Z</time></trkpt><trkpt lat="44.4168967" lon="9.14812"><ele>460.0</ele><time>2026-04-28T16:35:23.874Z</time></trkpt><trkpt lat="44.4169683" lon="9.148195"><ele>459.00000000000006</ele><time>2026-04-28T16:35:25.875Z</time></trkpt><trkpt lat="44.41709" lon="9.1482183"><ele>458.0</ele><time>2026-04-28T16:35:27.875Z</time></trkpt><trkpt lat="44.417165" lon="9.1482083"><ele>457.0</ele><time>2026-04-28T16:35:28.875Z</time></trkpt><trkpt lat="44.4172433" lon="9.1482167"><ele>456.0</ele><time>2026-04-28T16:35:29.875Z</time></trkpt><trkpt lat="44.4173217" lon="9.1482533"><ele>455.00000000000006</ele><time>2026-04-28T16:35:30.876Z</time></trkpt><trkpt lat="44.4173917" lon="9.148305"><ele>454.0</ele><time>2026-04-28T16:35:31.875Z</time></trkpt><trkpt lat="44.417445" lon="9.148435"><ele>454.0</ele><time>2026-04-28T16:35:32.877Z</time></trkpt><trkpt lat="44.4174917" lon="9.1485533"><ele>454.0</ele><time>2026-04-28T16:35:33.874Z</time></trkpt><trkpt lat="44.41755" lon="9.1486733"><ele>454.0</ele><time>2026-04-28T16:35:34.875Z</time></trkpt><trkpt lat="44.4176083" lon="9.1487733"><ele>454.0</ele><time>2026-04-28T16:35:35.876Z</time></trkpt><trkpt lat="44.4176617" lon="9.1488633"><ele>454.0</ele><time>2026-04-28T16:35:36.878Z</time></trkpt><trkpt lat="44.4177217" lon="9.1489633"><ele>455.0</ele><time>2026-04-28T16:35:37.874Z</time></trkpt><trkpt lat="44.4177883" lon="9.149065"><ele>456.0</ele><time>2026-04-28T16:35:38.875Z</time></trkpt><trkpt lat="44.4178617" lon="9.149195"><ele>457.0</ele><time>2026-04-28T16:35:39.874Z</time></trkpt><trkpt lat="44.41793" lon="9.1493167"><ele>458.0</ele><time>2026-04-28T16:35:40.875Z</time></trkpt><trkpt lat="44.4179867" lon="9.1494367"><ele>459.0</ele><time>2026-04-28T16:35:41.875Z</time></trkpt><trkpt lat="44.4180283" lon="9.1495283"><ele>459.0</ele><time>2026-04-28T16:35:42.877Z</time></trkpt><trkpt lat="44.41806" lon="9.1496067"><ele>459.0</ele><time>2026-04-28T16:35:43.876Z</time></trkpt><trkpt lat="44.4180517" lon="9.1494967"><ele>459.0</ele><time>2026-04-28T16:35:50.877Z</time></trkpt><trkpt lat="44.4180217" lon="9.1493767"><ele>459.0</ele><time>2026-04-28T16:35:52.876Z</time></trkpt><trkpt lat="44.4180067" lon="9.149495"><ele>459.0</ele><time>2026-04-28T16:36:33.875Z</time></trkpt><trkpt lat="44.4180283" lon="9.1496733"><ele>459.0</ele><time>2026-04-28T16:36:35.875Z</time></trkpt><trkpt lat="44.4180467" lon="9.149805"><ele>462.2</ele><time>2026-04-28T16:36:36.875Z</time></trkpt><trkpt lat="44.4180617" lon="9.1499433"><ele>465.4</ele><time>2026-04-28T16:36:37.874Z</time></trkpt><trkpt lat="44.4180933" lon="9.15009"><ele>468.6</ele><time>2026-04-28T16:36:38.875Z</time></trkpt><trkpt lat="44.4181267" lon="9.1502167"><ele>471.8</ele><time>2026-04-28T16:36:39.876Z</time></trkpt><trkpt lat="44.4181583" lon="9.1503567"><ele>475.0</ele><time>2026-04-28T16:36:40.871Z</time></trkpt><trkpt lat="44.418165" lon="9.1504617"><ele>475.00000000000006</ele><time>2026-04-28T16:36:41.872Z</time></trkpt><trkpt lat="44.4181617" lon="9.1505533"><ele>475.0</ele><time>2026-04-28T16:36:42.876Z</time></trkpt><trkpt lat="44.4181633" lon="9.15065"><ele>475.0</ele><time>2026-04-28T16:36:43.875Z</time></trkpt><trkpt lat="44.41816" lon="9.1508433"><ele>475.0</ele><time>2026-04-28T16:36:45.875Z</time></trkpt><trkpt lat="44.418165" lon="9.1509583"><ele>475.00000000000006</ele><time>2026-04-28T16:36:46.874Z</time></trkpt><trkpt lat="44.41818" lon="9.1510667"><ele>475.0</ele><time>2026-04-28T16:36:47.877Z</time></trkpt><trkpt lat="44.4182017" lon="9.1511667"><ele>476.2</ele><time>2026-04-28T16:36:48.877Z</time></trkpt><trkpt lat="44.418225" lon="9.1512533"><ele>477.4</ele><time>2026-04-28T16:36:49.875Z</time></trkpt><trkpt lat="44.41829" lon="9.1513883"><ele>478.6</ele><time>2026-04-28T16:36:51.874Z</time></trkpt><trkpt lat="44.4183633" lon="9.1515067"><ele>479.8</ele><time>2026-04-28T16:36:53.875Z</time></trkpt><trkpt lat="44.4184217" lon="9.151625"><ele>481.0</ele><time>2026-04-28T16:36:55.874Z</time></trkpt><trkpt lat="44.418475" lon="9.1517683"><ele>480.99999999999994</ele><time>2026-04-28T16:36:57.875Z</time></trkpt><trkpt lat="44.4185067" lon="9.151845"><ele>481.0</ele><time>2026-04-28T16:36:58.873Z</time></trkpt><trkpt lat="44.4185417" lon="9.1519217"><ele>480.99999999999994</ele><time>2026-04-28T16:36:59.875Z</time></trkpt><trkpt lat="44.4185833" lon="9.1520033"><ele>480.99999999999994</ele><time>2026-04-28T16:37:00.875Z</time></trkpt><trkpt lat="44.4186317" lon="9.152095"><ele>481.0</ele><time>2026-04-28T16:37:01.875Z</time></trkpt><trkpt lat="44.4186733" lon="9.1521767"><ele>480.99999999999994</ele><time>2026-04-28T16:37:02.875Z</time></trkpt><trkpt lat="44.41871" lon="9.1522517"><ele>480.99999999999994</ele><time>2026-04-28T16:37:03.875Z</time></trkpt><trkpt lat="44.4187667" lon="9.1524133"><ele>481.00000000000006</ele><time>2026-04-28T16:37:05.874Z</time></trkpt><trkpt lat="44.4187983" lon="9.15251"><ele>481.0</ele><time>2026-04-28T16:37:06.876Z</time></trkpt><trkpt lat="44.4188267" lon="9.1526067"><ele>481.0</ele><time>2026-04-28T16:37:07.874Z</time></trkpt><trkpt lat="44.41885" lon="9.1527"><ele>481.0</ele><time>2026-04-28T16:37:08.875Z</time></trkpt><trkpt lat="44.4188617" lon="9.1527883"><ele>481.00000000000006</ele><time>2026-04-28T16:37:09.875Z</time></trkpt><trkpt lat="44.4188517" lon="9.15296"><ele>481.0</ele><time>2026-04-28T16:37:11.874Z</time></trkpt><trkpt lat="44.4188383" lon="9.153055"><ele>487.83333333333337</ele><time>2026-04-28T16:37:12.875Z</time></trkpt><trkpt lat="44.4188283" lon="9.153145"><ele>494.6666666666667</ele><time>2026-04-28T16:37:13.875Z</time></trkpt><trkpt lat="44.4188267" lon="9.1533267"><ele>501.5</ele><time>2026-04-28T16:37:15.875Z</time></trkpt><trkpt lat="44.4188417" lon="9.1534133"><ele>508.33333333333337</ele><time>2026-04-28T16:37:16.876Z</time></trkpt><trkpt lat="44.41887" lon="9.1535017"><ele>515.1666666666666</ele><time>2026-04-28T16:37:17.874Z</time></trkpt><trkpt lat="44.4189067" lon="9.15359"><ele>522.0</ele><time>2026-04-28T16:37:18.876Z</time></trkpt><trkpt lat="44.4189517" lon="9.1536667"><ele>522.0</ele><time>2026-04-28T16:37:19.874Z</time></trkpt><trkpt lat="44.4190017" lon="9.1537483"><ele>522.0</ele><time>2026-04-28T16:37:20.876Z</time></trkpt><trkpt lat="44.4190867" lon="9.1538483"><ele>522.0</ele><time>2026-04-28T16:37:22.874Z</time></trkpt><trkpt lat="44.4191317" lon="9.1539767"><ele>522.0</ele><time>2026-04-28T16:37:24.875Z</time></trkpt><trkpt lat="44.4191317" lon="9.1540667"><ele>522.0</ele><time>2026-04-28T16:37:25.874Z</time></trkpt><trkpt lat="44.4190717" lon="9.1542733"><ele>521.8000000000001</ele><time>2026-04-28T16:37:27.875Z</time></trkpt><trkpt lat="44.4190267" lon="9.1544067"><ele>521.6</ele><time>2026-04-28T16:37:28.875Z</time></trkpt><trkpt lat="44.4190033" lon="9.15453"><ele>521.4000000000001</ele><time>2026-04-28T16:37:29.877Z</time></trkpt><trkpt lat="44.4189867" lon="9.1546317"><ele>521.2</ele><time>2026-04-28T16:37:30.875Z</time></trkpt><trkpt lat="44.4189633" lon="9.1547283"><ele>521.0</ele><time>2026-04-28T16:37:31.876Z</time></trkpt><trkpt lat="44.4189117" lon="9.1548767"><ele>521.0</ele><time>2026-04-28T16:37:33.874Z</time></trkpt><trkpt lat="44.4188867" lon="9.155025"><ele>521.0</ele><time>2026-04-28T16:37:35.875Z</time></trkpt><trkpt lat="44.4188933" lon="9.1551267"><ele>521.0</ele><time>2026-04-28T16:37:36.875Z</time></trkpt><trkpt lat="44.4189133" lon="9.1552283"><ele>521.0</ele><time>2026-04-28T16:37:37.875Z</time></trkpt><trkpt lat="44.4189367" lon="9.1553383"><ele>521.0</ele><time>2026-04-28T16:37:38.875Z</time></trkpt><trkpt lat="44.4189617" lon="9.1554317"><ele>521.0</ele><time>2026-04-28T16:37:39.875Z</time></trkpt><trkpt lat="44.4189733" lon="9.1555267"><ele>521.0</ele><time>2026-04-28T16:37:40.875Z</time></trkpt><trkpt lat="44.418985" lon="9.1556183"><ele>521.0</ele><time>2026-04-28T16:37:41.875Z</time></trkpt><trkpt lat="44.4189967" lon="9.155705"><ele>521.0</ele><time>2026-04-28T16:37:42.876Z</time></trkpt><trkpt lat="44.4190183" lon="9.1557933"><ele>521.0</ele><time>2026-04-28T16:37:43.876Z</time></trkpt><trkpt lat="44.4190433" lon="9.155875"><ele>521.0</ele><time>2026-04-28T16:37:44.875Z</time></trkpt><trkpt lat="44.4190767" lon="9.1559517"><ele>521.0</ele><time>2026-04-28T16:37:45.874Z</time></trkpt><trkpt lat="44.4191267" lon="9.15602"><ele>521.0</ele><time>2026-04-28T16:37:46.874Z</time></trkpt><trkpt lat="44.4191883" lon="9.1560867"><ele>521.3333333333333</ele><time>2026-04-28T16:37:47.874Z</time></trkpt><trkpt lat="44.4192533" lon="9.1561433"><ele>521.6666666666666</ele><time>2026-04-28T16:37:48.875Z</time></trkpt><trkpt lat="44.4193167" lon="9.156205"><ele>522.0</ele><time>2026-04-28T16:37:49.874Z</time></trkpt><trkpt lat="44.4193767" lon="9.1562833"><ele>522.3333333333334</ele><time>2026-04-28T16:37:50.876Z</time></trkpt><trkpt lat="44.4194383" lon="9.156365"><ele>522.6666666666667</ele><time>2026-04-28T16:37:51.874Z</time></trkpt><trkpt lat="44.4195" lon="9.156445"><ele>523.0</ele><time>2026-04-28T16:37:52.873Z</time></trkpt><trkpt lat="44.4195567" lon="9.1565283"><ele>523.0</ele><time>2026-04-28T16:37:53.874Z</time></trkpt><trkpt lat="44.419605" lon="9.15662"><ele>523.0</ele><time>2026-04-28T16:37:54.876Z</time></trkpt><trkpt lat="44.4196383" lon="9.1567217"><ele>523.0</ele><time>2026-04-28T16:37:55.875Z</time></trkpt><trkpt lat="44.419655" lon="9.1568367"><ele>523.0</ele><time>2026-04-28T16:37:56.877Z</time></trkpt><trkpt lat="44.4196633" lon="9.1569417"><ele>523.0</ele><time>2026-04-28T16:37:57.873Z</time></trkpt><trkpt lat="44.4196683" lon="9.1570333"><ele>523.0</ele><time>2026-04-28T16:37:58.877Z</time></trkpt><trkpt lat="44.4196833" lon="9.1572117"><ele>525.6666666666667</ele><time>2026-04-28T16:38:00.874Z</time></trkpt><trkpt lat="44.4196933" lon="9.157315"><ele>528.3333333333334</ele><time>2026-04-28T16:38:01.873Z</time></trkpt><trkpt lat="44.4197033" lon="9.1574267"><ele>531.0</ele><time>2026-04-28T16:38:02.871Z</time></trkpt><trkpt lat="44.419705" lon="9.15754"><ele>533.6666666666666</ele><time>2026-04-28T16:38:03.873Z</time></trkpt><trkpt lat="44.4197033" lon="9.15765"><ele>536.3333333333333</ele><time>2026-04-28T16:38:04.873Z</time></trkpt><trkpt lat="44.4196967" lon="9.157755"><ele>539.0</ele><time>2026-04-28T16:38:05.875Z</time></trkpt><trkpt lat="44.4196817" lon="9.1578567"><ele>539.0</ele><time>2026-04-28T16:38:06.877Z</time></trkpt><trkpt lat="44.4196633" lon="9.1579567"><ele>539.0</ele><time>2026-04-28T16:38:07.878Z</time></trkpt><trkpt lat="44.419645" lon="9.15805"><ele>539.0</ele><time>2026-04-28T16:38:08.877Z</time></trkpt><trkpt lat="44.4196233" lon="9.15814"><ele>539.0</ele><time>2026-04-28T16:38:09.874Z</time></trkpt><trkpt lat="44.41956" lon="9.158275"><ele>539.0</ele><time>2026-04-28T16:38:11.872Z</time></trkpt><trkpt lat="44.4194967" lon="9.1584167"><ele>539.0</ele><time>2026-04-28T16:38:13.876Z</time></trkpt><trkpt lat="44.4194783" lon="9.1585067"><ele>539.2857142857143</ele><time>2026-04-28T16:38:14.878Z</time></trkpt><trkpt lat="44.41946" lon="9.158595"><ele>539.5714285714286</ele><time>2026-04-28T16:38:15.876Z</time></trkpt><trkpt lat="44.419445" lon="9.1587017"><ele>539.8571428571429</ele><time>2026-04-28T16:38:16.876Z</time></trkpt><trkpt lat="44.4194333" lon="9.1588133"><ele>540.1428571428571</ele><time>2026-04-28T16:38:17.874Z</time></trkpt><trkpt lat="44.4194233" lon="9.1589217"><ele>540.4285714285714</ele><time>2026-04-28T16:38:18.874Z</time></trkpt><trkpt lat="44.4193983" lon="9.1590133"><ele>540.7142857142858</ele><time>2026-04-28T16:38:19.875Z</time></trkpt><trkpt lat="44.4193617" lon="9.1590883"><ele>541.0</ele><time>2026-04-28T16:38:20.874Z</time></trkpt><trkpt lat="44.4192533" lon="9.1591967"><ele>541.0</ele><time>2026-04-28T16:38:22.873Z</time></trkpt><trkpt lat="44.41919" lon="9.1592617"><ele>541.0</ele><time>2026-04-28T16:38:23.874Z</time></trkpt><trkpt lat="44.4191283" lon="9.1593133"><ele>541.0</ele><time>2026-04-28T16:38:24.875Z</time></trkpt><trkpt lat="44.4190317" lon="9.15942"><ele>541.0</ele><time>2026-04-28T16:38:26.876Z</time></trkpt><trkpt lat="44.4189867" lon="9.1594917"><ele>541.0</ele><time>2026-04-28T16:38:27.873Z</time></trkpt><trkpt lat="44.4189517" lon="9.1595717"><ele>541.0</ele><time>2026-04-28T16:38:28.874Z</time></trkpt><trkpt lat="44.4189217" lon="9.1596533"><ele>541.0</ele><time>2026-04-28T16:38:29.874Z</time></trkpt><trkpt lat="44.418895" lon="9.1597367"><ele>541.0</ele><time>2026-04-28T16:38:30.875Z</time></trkpt><trkpt lat="44.418875" lon="9.1598267"><ele>541.0</ele><time>2026-04-28T16:38:31.875Z</time></trkpt><trkpt lat="44.418855" lon="9.1599133"><ele>541.0</ele><time>2026-04-28T16:38:32.876Z</time></trkpt><trkpt lat="44.4188233" lon="9.1600667"><ele>541.0</ele><time>2026-04-28T16:38:34.874Z</time></trkpt><trkpt lat="44.4188267" lon="9.1602267"><ele>541.0</ele><time>2026-04-28T16:38:36.875Z</time></trkpt><trkpt lat="44.4188567" lon="9.16036"><ele>544.0</ele><time>2026-04-28T16:38:38.875Z</time></trkpt><trkpt lat="44.41894" lon="9.1603167"><ele>547.0</ele><time>2026-04-28T16:38:50.872Z</time></trkpt><trkpt lat="44.4190183" lon="9.1603367"><ele>550.0</ele><time>2026-04-28T16:38:53.876Z</time></trkpt><trkpt lat="44.4190583" lon="9.16041"><ele>553.0</ele><time>2026-04-28T16:38:55.876Z</time></trkpt><trkpt lat="44.4191167" lon="9.160475"><ele>556.0</ele><time>2026-04-28T16:38:57.878Z</time></trkpt><trkpt lat="44.41918" lon="9.1605383"><ele>559.0</ele><time>2026-04-28T16:39:00.879Z</time></trkpt><trkpt lat="44.41921" lon="9.1606383"><ele>562.1666666666667</ele><time>2026-04-28T16:39:02.876Z</time></trkpt><trkpt lat="44.41922" lon="9.1607517"><ele>565.3333333333334</ele><time>2026-04-28T16:39:05.875Z</time></trkpt><trkpt lat="44.4191667" lon="9.1608333"><ele>568.5</ele><time>2026-04-28T16:39:08.878Z</time></trkpt><trkpt lat="44.4191117" lon="9.1608883"><ele>571.6666666666666</ele><time>2026-04-28T16:39:10.874Z</time></trkpt><trkpt lat="44.4190433" lon="9.1609383"><ele>574.8333333333333</ele><time>2026-04-28T16:39:12.874Z</time></trkpt><trkpt lat="44.4189533" lon="9.1610083"><ele>578.0</ele><time>2026-04-28T16:39:14.876Z</time></trkpt><trkpt lat="44.41885" lon="9.1610733"><ele>573.6</ele><time>2026-04-28T16:39:16.874Z</time></trkpt><trkpt lat="44.4187617" lon="9.161125"><ele>569.1999999999999</ele><time>2026-04-28T16:39:18.877Z</time></trkpt><trkpt lat="44.41868" lon="9.1611333"><ele>564.8</ele><time>2026-04-28T16:39:20.877Z</time></trkpt><trkpt lat="44.4186117" lon="9.1611533"><ele>560.4</ele><time>2026-04-28T16:39:22.874Z</time></trkpt><trkpt lat="44.41854" lon="9.16125"><ele>556.0</ele><time>2026-04-28T16:39:24.876Z</time></trkpt><trkpt lat="44.4184583" lon="9.161395"><ele>556.0</ele><time>2026-04-28T16:39:26.875Z</time></trkpt><trkpt lat="44.4184117" lon="9.1614817"><ele>556.0</ele><time>2026-04-28T16:39:27.874Z</time></trkpt><trkpt lat="44.418365" lon="9.1615783"><ele>556.0</ele><time>2026-04-28T16:39:28.874Z</time></trkpt><trkpt lat="44.41832" lon="9.1616767"><ele>556.0</ele><time>2026-04-28T16:39:29.874Z</time></trkpt><trkpt lat="44.418285" lon="9.1617567"><ele>556.0</ele><time>2026-04-28T16:39:30.875Z</time></trkpt><trkpt lat="44.4182617" lon="9.1618433"><ele>556.0</ele><time>2026-04-28T16:39:31.875Z</time></trkpt><trkpt lat="44.4182283" lon="9.1619317"><ele>556.0</ele><time>2026-04-28T16:39:32.875Z</time></trkpt><trkpt lat="44.4181833" lon="9.1620367"><ele>556.3333333333334</ele><time>2026-04-28T16:39:33.874Z</time></trkpt><trkpt lat="44.4181283" lon="9.162145"><ele>556.6666666666667</ele><time>2026-04-28T16:39:34.873Z</time></trkpt><trkpt lat="44.41807" lon="9.162235"><ele>557.0</ele><time>2026-04-28T16:39:35.874Z</time></trkpt><trkpt lat="44.4180083" lon="9.1623067"><ele>557.3333333333334</ele><time>2026-04-28T16:39:36.874Z</time></trkpt><trkpt lat="44.4179483" lon="9.1623733"><ele>557.6666666666666</ele><time>2026-04-28T16:39:37.874Z</time></trkpt><trkpt lat="44.41789" lon="9.162445"><ele>558.0</ele><time>2026-04-28T16:39:38.876Z</time></trkpt><trkpt lat="44.417835" lon="9.1625183"><ele>558.0</ele><time>2026-04-28T16:39:39.873Z</time></trkpt><trkpt lat="44.4177783" lon="9.16259"><ele>558.0</ele><time>2026-04-28T16:39:40.874Z</time></trkpt><trkpt lat="44.4177233" lon="9.162655"><ele>558.0</ele><time>2026-04-28T16:39:41.874Z</time></trkpt><trkpt lat="44.41767" lon="9.1627283"><ele>558.0</ele><time>2026-04-28T16:39:42.876Z</time></trkpt><trkpt lat="44.41763" lon="9.1627983"><ele>558.0</ele><time>2026-04-28T16:39:43.875Z</time></trkpt><trkpt lat="44.417585" lon="9.1629417"><ele>558.0</ele><time>2026-04-28T16:39:45.875Z</time></trkpt><trkpt lat="44.4175333" lon="9.163115"><ele>559.5</ele><time>2026-04-28T16:39:47.874Z</time></trkpt><trkpt lat="44.4175183" lon="9.1632133"><ele>561.0</ele><time>2026-04-28T16:39:48.876Z</time></trkpt><trkpt lat="44.4175067" lon="9.1633267"><ele>562.5</ele><time>2026-04-28T16:39:49.875Z</time></trkpt><trkpt lat="44.4174817" lon="9.1634333"><ele>564.0</ele><time>2026-04-28T16:39:50.875Z</time></trkpt><trkpt lat="44.4174533" lon="9.1635433"><ele>565.5</ele><time>2026-04-28T16:39:51.873Z</time></trkpt><trkpt lat="44.417435" lon="9.16365"><ele>567.0</ele><time>2026-04-28T16:39:52.874Z</time></trkpt><trkpt lat="44.4174183" lon="9.1637433"><ele>567.0</ele><time>2026-04-28T16:39:53.875Z</time></trkpt><trkpt lat="44.4174067" lon="9.1638883"><ele>567.0</ele><time>2026-04-28T16:39:55.872Z</time></trkpt><trkpt lat="44.417365" lon="9.1640367"><ele>567.0</ele><time>2026-04-28T16:39:57.873Z</time></trkpt><trkpt lat="44.4173383" lon="9.1641217"><ele>567.0</ele><time>2026-04-28T16:39:58.876Z</time></trkpt><trkpt lat="44.41731" lon="9.1642167"><ele>567.0</ele><time>2026-04-28T16:39:59.874Z</time></trkpt><trkpt lat="44.41728" lon="9.164315"><ele>567.0</ele><time>2026-04-28T16:40:00.874Z</time></trkpt><trkpt lat="44.41726" lon="9.1644017"><ele>566.1666666666666</ele><time>2026-04-28T16:40:01.874Z</time></trkpt><trkpt lat="44.4172367" lon="9.1644867"><ele>565.3333333333334</ele><time>2026-04-28T16:40:02.876Z</time></trkpt><trkpt lat="44.4172133" lon="9.1645783"><ele>564.5</ele><time>2026-04-28T16:40:03.873Z</time></trkpt><trkpt lat="44.4172" lon="9.1646867"><ele>563.6666666666667</ele><time>2026-04-28T16:40:04.872Z</time></trkpt><trkpt lat="44.4171817" lon="9.16481"><ele>562.8333333333334</ele><time>2026-04-28T16:40:05.872Z</time></trkpt><trkpt lat="44.4171583" lon="9.1649267"><ele>562.0</ele><time>2026-04-28T16:40:06.877Z</time></trkpt><trkpt lat="44.4171383" lon="9.1650367"><ele>558.5</ele><time>2026-04-28T16:40:07.873Z</time></trkpt><trkpt lat="44.4171167" lon="9.1651383"><ele>555.0</ele><time>2026-04-28T16:40:08.873Z</time></trkpt><trkpt lat="44.417085" lon="9.1652283"><ele>551.5</ele><time>2026-04-28T16:40:09.874Z</time></trkpt><trkpt lat="44.4170517" lon="9.165315"><ele>548.0</ele><time>2026-04-28T16:40:10.875Z</time></trkpt><trkpt lat="44.416995" lon="9.16545"><ele>544.5</ele><time>2026-04-28T16:40:12.875Z</time></trkpt><trkpt lat="44.4169333" lon="9.1655517"><ele>541.0</ele><time>2026-04-28T16:40:14.875Z</time></trkpt><trkpt lat="44.416885" lon="9.165675"><ele>541.6</ele><time>2026-04-28T16:40:16.874Z</time></trkpt><trkpt lat="44.4167967" lon="9.165775"><ele>542.2</ele><time>2026-04-28T16:40:18.875Z</time></trkpt><trkpt lat="44.4167217" lon="9.1658817"><ele>542.8</ele><time>2026-04-28T16:40:20.874Z</time></trkpt><trkpt lat="44.4166833" lon="9.1659733"><ele>543.4</ele><time>2026-04-28T16:40:21.876Z</time></trkpt><trkpt lat="44.4166417" lon="9.166075"><ele>544.0</ele><time>2026-04-28T16:40:22.875Z</time></trkpt><trkpt lat="44.4165983" lon="9.1661917"><ele>544.0</ele><time>2026-04-28T16:40:23.873Z</time></trkpt><trkpt lat="44.4165433" lon="9.166325"><ele>544.0</ele><time>2026-04-28T16:40:24.873Z</time></trkpt><trkpt lat="44.4164833" lon="9.16646"><ele>544.0</ele><time>2026-04-28T16:40:25.873Z</time></trkpt><trkpt lat="44.41642" lon="9.16658"><ele>544.0</ele><time>2026-04-28T16:40:26.876Z</time></trkpt><trkpt lat="44.416365" lon="9.1666833"><ele>544.0</ele><time>2026-04-28T16:40:27.874Z</time></trkpt><trkpt lat="44.416325" lon="9.1667817"><ele>543.8333333333334</ele><time>2026-04-28T16:40:28.874Z</time></trkpt><trkpt lat="44.4163117" lon="9.1668767"><ele>543.6666666666667</ele><time>2026-04-28T16:40:29.877Z</time></trkpt><trkpt lat="44.416305" lon="9.1669717"><ele>543.5</ele><time>2026-04-28T16:40:30.875Z</time></trkpt><trkpt lat="44.4162917" lon="9.167105"><ele>543.3333333333334</ele><time>2026-04-28T16:40:32.875Z</time></trkpt><trkpt lat="44.4162367" lon="9.1672233"><ele>543.1666666666666</ele><time>2026-04-28T16:40:34.874Z</time></trkpt><trkpt lat="44.4162" lon="9.1672967"><ele>543.0</ele><time>2026-04-28T16:40:35.874Z</time></trkpt><trkpt lat="44.4161617" lon="9.1673717"><ele>543.0</ele><time>2026-04-28T16:40:36.874Z</time></trkpt><trkpt lat="44.4161183" lon="9.1674383"><ele>543.0</ele><time>2026-04-28T16:40:37.875Z</time></trkpt><trkpt lat="44.4160217" lon="9.1675367"><ele>543.0</ele><time>2026-04-28T16:40:39.874Z</time></trkpt><trkpt lat="44.4159067" lon="9.167545"><ele>543.0</ele><time>2026-04-28T16:40:41.874Z</time></trkpt><trkpt lat="44.4157933" lon="9.1675917"><ele>543.0</ele><time>2026-04-28T16:40:43.874Z</time></trkpt><trkpt lat="44.41568" lon="9.1676667"><ele>543.0</ele><time>2026-04-28T16:40:45.874Z</time></trkpt><trkpt lat="44.41563" lon="9.1677217"><ele>543.0</ele><time>2026-04-28T16:40:46.874Z</time></trkpt><trkpt lat="44.41559" lon="9.16779"><ele>543.0</ele><time>2026-04-28T16:40:47.875Z</time></trkpt><trkpt lat="44.4155583" lon="9.16787"><ele>543.0</ele><time>2026-04-28T16:40:48.878Z</time></trkpt><trkpt lat="44.4155333" lon="9.167965"><ele>543.0</ele><time>2026-04-28T16:40:49.876Z</time></trkpt><trkpt lat="44.415505" lon="9.16807"><ele>543.0</ele><time>2026-04-28T16:40:50.878Z</time></trkpt><trkpt lat="44.4154867" lon="9.1681767"><ele>543.0</ele><time>2026-04-28T16:40:51.878Z</time></trkpt><trkpt lat="44.4154767" lon="9.16827"><ele>545.1999999999999</ele><time>2026-04-28T16:40:52.875Z</time></trkpt><trkpt lat="44.4154567" lon="9.16844"><ele>547.4</ele><time>2026-04-28T16:40:54.876Z</time></trkpt><trkpt lat="44.4154583" lon="9.1685733"><ele>549.5999999999999</ele><time>2026-04-28T16:40:56.878Z</time></trkpt><trkpt lat="44.4154583" lon="9.1686917"><ele>551.8</ele><time>2026-04-28T16:40:58.875Z</time></trkpt><trkpt lat="44.41548" lon="9.1687917"><ele>554.0</ele><time>2026-04-28T16:41:00.875Z</time></trkpt><trkpt lat="44.4155217" lon="9.1689067"><ele>552.0</ele><time>2026-04-28T16:41:02.876Z</time></trkpt><trkpt lat="44.41553" lon="9.1690517"><ele>550.0</ele><time>2026-04-28T16:41:04.874Z</time></trkpt><trkpt lat="44.4154967" lon="9.1691883"><ele>548.0</ele><time>2026-04-28T16:41:06.877Z</time></trkpt><trkpt lat="44.41547" lon="9.1693267"><ele>546.0</ele><time>2026-04-28T16:41:08.877Z</time></trkpt><trkpt lat="44.4154483" lon="9.169475"><ele>544.0</ele><time>2026-04-28T16:41:10.875Z</time></trkpt><trkpt lat="44.41543" lon="9.1696133"><ele>540.2857142857142</ele><time>2026-04-28T16:41:12.877Z</time></trkpt><trkpt lat="44.4154467" lon="9.1697217"><ele>536.5714285714286</ele><time>2026-04-28T16:41:14.877Z</time></trkpt><trkpt lat="44.41548" lon="9.169825"><ele>532.8571428571429</ele><time>2026-04-28T16:41:17.877Z</time></trkpt><trkpt lat="44.4154733" lon="9.16992"><ele>529.1428571428571</ele><time>2026-04-28T16:41:19.877Z</time></trkpt><trkpt lat="44.4154483" lon="9.170025"><ele>525.4285714285714</ele><time>2026-04-28T16:41:22.877Z</time></trkpt><trkpt lat="44.4154267" lon="9.1701133"><ele>521.7142857142857</ele><time>2026-04-28T16:41:25.875Z</time></trkpt><trkpt lat="44.4154" lon="9.1701933"><ele>518.0</ele><time>2026-04-28T16:41:27.876Z</time></trkpt><trkpt lat="44.4153567" lon="9.170275"><ele>518.0</ele><time>2026-04-28T16:41:29.879Z</time></trkpt><trkpt lat="44.4153067" lon="9.1703667"><ele>518.0</ele><time>2026-04-28T16:41:32.877Z</time></trkpt><trkpt lat="44.41526" lon="9.1704333"><ele>518.0</ele><time>2026-04-28T16:41:34.876Z</time></trkpt><trkpt lat="44.41522" lon="9.17051"><ele>518.0</ele><time>2026-04-28T16:41:36.876Z</time></trkpt><trkpt lat="44.4151667" lon="9.1706033"><ele>518.0</ele><time>2026-04-28T16:41:39.876Z</time></trkpt><trkpt lat="44.4151267" lon="9.1707017"><ele>518.0</ele><time>2026-04-28T16:41:41.878Z</time></trkpt><trkpt lat="44.4151017" lon="9.170815"><ele>520.0</ele><time>2026-04-28T16:41:43.876Z</time></trkpt><trkpt lat="44.415085" lon="9.1709667"><ele>522.0</ele><time>2026-04-28T16:41:45.876Z</time></trkpt><trkpt lat="44.41508" lon="9.1711133"><ele>524.0</ele><time>2026-04-28T16:41:47.877Z</time></trkpt><trkpt lat="44.41507" lon="9.1712683"><ele>526.0</ele><time>2026-04-28T16:41:49.875Z</time></trkpt><trkpt lat="44.4150517" lon="9.1713583"><ele>528.0</ele><time>2026-04-28T16:41:50.876Z</time></trkpt><trkpt lat="44.4150317" lon="9.17145"><ele>528.8333333333334</ele><time>2026-04-28T16:41:51.876Z</time></trkpt><trkpt lat="44.4149817" lon="9.1716117"><ele>529.6666666666666</ele><time>2026-04-28T16:41:53.875Z</time></trkpt><trkpt lat="44.4149583" lon="9.1716983"><ele>530.5</ele><time>2026-04-28T16:41:54.876Z</time></trkpt><trkpt lat="44.4149233" lon="9.1718167"><ele>531.3333333333333</ele><time>2026-04-28T16:41:56.876Z</time></trkpt><trkpt lat="44.414955" lon="9.1719133"><ele>532.1666666666666</ele><time>2026-04-28T16:41:59.876Z</time></trkpt><trkpt lat="44.4149283" lon="9.1720017"><ele>533.0</ele><time>2026-04-28T16:42:01.878Z</time></trkpt><trkpt lat="44.4148633" lon="9.1720667"><ele>533.0</ele><time>2026-04-28T16:42:03.875Z</time></trkpt><trkpt lat="44.4148017" lon="9.17213"><ele>533.0</ele><time>2026-04-28T16:42:06.877Z</time></trkpt><trkpt lat="44.4148" lon="9.1722283"><ele>533.0</ele><time>2026-04-28T16:42:11.878Z</time></trkpt><trkpt lat="44.4147917" lon="9.17234"><ele>533.0</ele><time>2026-04-28T16:42:14.876Z</time></trkpt><trkpt lat="44.4147733" lon="9.1724733"><ele>533.0</ele><time>2026-04-28T16:42:17.872Z</time></trkpt><trkpt lat="44.414785" lon="9.1725817"><ele>533.0</ele><time>2026-04-28T16:42:19.877Z</time></trkpt><trkpt lat="44.41479" lon="9.1727267"><ele>532.8333333333333</ele><time>2026-04-28T16:42:21.874Z</time></trkpt><trkpt lat="44.414785" lon="9.1728283"><ele>532.6666666666666</ele><time>2026-04-28T16:42:22.877Z</time></trkpt><trkpt lat="44.4147833" lon="9.1729317"><ele>532.5</ele><time>2026-04-28T16:42:23.875Z</time></trkpt><trkpt lat="44.4147833" lon="9.1730383"><ele>532.3333333333334</ele><time>2026-04-28T16:42:24.875Z</time></trkpt><trkpt lat="44.4147817" lon="9.17315"><ele>532.1666666666667</ele><time>2026-04-28T16:42:25.876Z</time></trkpt><trkpt lat="44.4147717" lon="9.1732617"><ele>532.0</ele><time>2026-04-28T16:42:26.876Z</time></trkpt><trkpt lat="44.41476" lon="9.1733733"><ele>532.0</ele><time>2026-04-28T16:42:27.876Z</time></trkpt><trkpt lat="44.41475" lon="9.1734667"><ele>532.0</ele><time>2026-04-28T16:42:28.875Z</time></trkpt><trkpt lat="44.4147433" lon="9.1736283"><ele>532.0</ele><time>2026-04-28T16:42:30.876Z</time></trkpt><trkpt lat="44.414765" lon="9.173755"><ele>532.0</ele><time>2026-04-28T16:42:32.877Z</time></trkpt><trkpt lat="44.4147833" lon="9.173875"><ele>532.0</ele><time>2026-04-28T16:42:34.875Z</time></trkpt><trkpt lat="44.4147933" lon="9.1739967"><ele>534.1666666666667</ele><time>2026-04-28T16:42:36.876Z</time></trkpt><trkpt lat="44.414855" lon="9.174085"><ele>536.3333333333334</ele><time>2026-04-28T16:42:40.876Z</time></trkpt><trkpt lat="44.4149167" lon="9.1741233"><ele>538.5</ele><time>2026-04-28T16:42:42.877Z</time></trkpt><trkpt lat="44.4149567" lon="9.1742017"><ele>540.6666666666666</ele><time>2026-04-28T16:42:45.875Z</time></trkpt><trkpt lat="44.4149683" lon="9.1742933"><ele>542.8333333333333</ele><time>2026-04-28T16:42:56.875Z</time></trkpt><trkpt lat="44.4148917" lon="9.1742917"><ele>545.0</ele><time>2026-04-28T16:42:59.876Z</time></trkpt><trkpt lat="44.4147517" lon="9.174305"><ele>545.0</ele><time>2026-04-28T16:43:13.877Z</time></trkpt><trkpt lat="44.4146883" lon="9.1742983"><ele>545.0</ele><time>2026-04-28T16:43:17.876Z</time></trkpt><trkpt lat="44.41467" lon="9.17421"><ele>545.0</ele><time>2026-04-28T16:43:21.875Z</time></trkpt><trkpt lat="44.4146167" lon="9.1741533"><ele>545.0</ele><time>2026-04-28T16:43:32.877Z</time></trkpt><trkpt lat="44.4145467" lon="9.1741833"><ele>545.0</ele><time>2026-04-28T16:43:44.877Z</time></trkpt><trkpt lat="44.41448" lon="9.1742083"><ele>545.0</ele><time>2026-04-28T16:44:08.877Z</time></trkpt><trkpt lat="44.4145407" lon="9.1741666"><ele>545.0</ele><time>2026-04-28T16:46:22.946Z</time></trkpt><trkpt lat="44.4146033" lon="9.1741017"><ele>546.8333333333333</ele><time>2026-04-28T16:46:30.872Z</time></trkpt><trkpt lat="44.414515" lon="9.1741567"><ele>548.6666666666666</ele><time>2026-04-28T16:46:39.877Z</time></trkpt><trkpt lat="44.4144517" lon="9.1741633"><ele>550.5</ele><time>2026-04-28T16:46:44.873Z</time></trkpt><trkpt lat="44.414375" lon="9.17424"><ele>552.3333333333334</ele><time>2026-04-28T16:47:03.876Z</time></trkpt><trkpt lat="44.414375" lon="9.1743383"><ele>554.1666666666667</ele><time>2026-04-28T16:47:06.877Z</time></trkpt><trkpt lat="44.414365" lon="9.1744433"><ele>556.0</ele><time>2026-04-28T16:47:09.874Z</time></trkpt><trkpt lat="44.4143383" lon="9.174545"><ele>556.0</ele><time>2026-04-28T16:47:11.874Z</time></trkpt><trkpt lat="44.4143167" lon="9.1746333"><ele>556.0</ele><time>2026-04-28T16:47:13.875Z</time></trkpt><trkpt lat="44.4142783" lon="9.1747583"><ele>556.0</ele><time>2026-04-28T16:47:16.876Z</time></trkpt><trkpt lat="44.4142283" lon="9.1748583"><ele>556.0</ele><time>2026-04-28T16:47:18.877Z</time></trkpt><trkpt lat="44.4141767" lon="9.1749633"><ele>556.0</ele><time>2026-04-28T16:47:20.876Z</time></trkpt><trkpt lat="44.4141217" lon="9.1750867"><ele>556.0</ele><time>2026-04-28T16:47:22.875Z</time></trkpt><trkpt lat="44.4140717" lon="9.1752467"><ele>558.2</ele><time>2026-04-28T16:47:24.868Z</time></trkpt><trkpt lat="44.414035" lon="9.1753367"><ele>560.4000000000001</ele><time>2026-04-28T16:47:25.875Z</time></trkpt><trkpt lat="44.4139933" lon="9.1754483"><ele>562.6</ele><time>2026-04-28T16:47:26.879Z</time></trkpt><trkpt lat="44.4139617" lon="9.1755717"><ele>564.8000000000001</ele><time>2026-04-28T16:47:27.873Z</time></trkpt><trkpt lat="44.4139383" lon="9.1757133"><ele>567.0</ele><time>2026-04-28T16:47:28.874Z</time></trkpt><trkpt lat="44.413925" lon="9.1758417"><ele>569.0</ele><time>2026-04-28T16:47:29.874Z</time></trkpt><trkpt lat="44.4139083" lon="9.1759733"><ele>571.0</ele><time>2026-04-28T16:47:30.874Z</time></trkpt><trkpt lat="44.4138783" lon="9.176095"><ele>573.0</ele><time>2026-04-28T16:47:31.873Z</time></trkpt><trkpt lat="44.41385" lon="9.1762217"><ele>575.0</ele><time>2026-04-28T16:47:32.874Z</time></trkpt><trkpt lat="44.4138317" lon="9.1763483"><ele>577.0</ele><time>2026-04-28T16:47:33.873Z</time></trkpt><trkpt lat="44.413815" lon="9.1764683"><ele>577.8333333333334</ele><time>2026-04-28T16:47:34.873Z</time></trkpt><trkpt lat="44.41381" lon="9.1765817"><ele>578.6666666666667</ele><time>2026-04-28T16:47:35.874Z</time></trkpt><trkpt lat="44.4138333" lon="9.1767033"><ele>579.5</ele><time>2026-04-28T16:47:36.874Z</time></trkpt><trkpt lat="44.4138583" lon="9.1768217"><ele>580.3333333333334</ele><time>2026-04-28T16:47:37.874Z</time></trkpt><trkpt lat="44.4138683" lon="9.1769417"><ele>581.1666666666666</ele><time>2026-04-28T16:47:38.876Z</time></trkpt><trkpt lat="44.41386" lon="9.1770617"><ele>582.0</ele><time>2026-04-28T16:47:39.867Z</time></trkpt><trkpt lat="44.413845" lon="9.17718"><ele>582.0</ele><time>2026-04-28T16:47:40.873Z</time></trkpt><trkpt lat="44.41384" lon="9.177315"><ele>582.0</ele><time>2026-04-28T16:47:41.875Z</time></trkpt><trkpt lat="44.4138367" lon="9.1774483"><ele>582.0</ele><time>2026-04-28T16:47:42.875Z</time></trkpt><trkpt lat="44.4138267" lon="9.177555"><ele>582.0</ele><time>2026-04-28T16:47:43.874Z</time></trkpt><trkpt lat="44.4137967" lon="9.17765"><ele>582.0</ele><time>2026-04-28T16:47:44.875Z</time></trkpt><trkpt lat="44.41375" lon="9.177735"><ele>582.0</ele><time>2026-04-28T16:47:45.87Z</time></trkpt><trkpt lat="44.4137183" lon="9.177825"><ele>582.0</ele><time>2026-04-28T16:47:46.873Z</time></trkpt><trkpt lat="44.4136983" lon="9.1779467"><ele>582.0</ele><time>2026-04-28T16:47:47.874Z</time></trkpt><trkpt lat="44.4136817" lon="9.17808"><ele>582.0</ele><time>2026-04-28T16:47:48.871Z</time></trkpt><trkpt lat="44.413665" lon="9.1782033"><ele>582.0</ele><time>2026-04-28T16:47:49.874Z</time></trkpt><trkpt lat="44.4136333" lon="9.1783"><ele>582.0</ele><time>2026-04-28T16:47:50.875Z</time></trkpt><trkpt lat="44.4135933" lon="9.1783783"><ele>582.0</ele><time>2026-04-28T16:47:51.877Z</time></trkpt><trkpt lat="44.4134417" lon="9.178455"><ele>582.8000000000001</ele><time>2026-04-28T16:47:53.874Z</time></trkpt><trkpt lat="44.4133417" lon="9.1784833"><ele>583.6</ele><time>2026-04-28T16:47:54.874Z</time></trkpt><trkpt lat="44.4132533" lon="9.1785267"><ele>584.4000000000001</ele><time>2026-04-28T16:47:55.874Z</time></trkpt><trkpt lat="44.4131733" lon="9.1785717"><ele>585.2</ele><time>2026-04-28T16:47:56.875Z</time></trkpt><trkpt lat="44.41306" lon="9.1786067"><ele>586.0</ele><time>2026-04-28T16:47:57.872Z</time></trkpt><trkpt lat="44.41293" lon="9.1786367"><ele>586.0</ele><time>2026-04-28T16:47:58.872Z</time></trkpt><trkpt lat="44.4128267" lon="9.17867"><ele>586.0</ele><time>2026-04-28T16:47:59.874Z</time></trkpt><trkpt lat="44.4127467" lon="9.1787133"><ele>586.0</ele><time>2026-04-28T16:48:00.874Z</time></trkpt><trkpt lat="44.412675" lon="9.1787683"><ele>586.0</ele><time>2026-04-28T16:48:01.873Z</time></trkpt><trkpt lat="44.4126" lon="9.17884"><ele>586.0</ele><time>2026-04-28T16:48:02.875Z</time></trkpt><trkpt lat="44.4125317" lon="9.1789183"><ele>586.0</ele><time>2026-04-28T16:48:03.874Z</time></trkpt><trkpt lat="44.412465" lon="9.1790017"><ele>586.0</ele><time>2026-04-28T16:48:04.874Z</time></trkpt><trkpt lat="44.4123867" lon="9.1791"><ele>586.0</ele><time>2026-04-28T16:48:05.873Z</time></trkpt><trkpt lat="44.4123117" lon="9.1792"><ele>586.0</ele><time>2026-04-28T16:48:06.875Z</time></trkpt><trkpt lat="44.412255" lon="9.1792933"><ele>586.0</ele><time>2026-04-28T16:48:07.875Z</time></trkpt><trkpt lat="44.4122033" lon="9.1793967"><ele>585.3333333333334</ele><time>2026-04-28T16:48:08.875Z</time></trkpt><trkpt lat="44.4121583" lon="9.1794983"><ele>584.6666666666667</ele><time>2026-04-28T16:48:09.873Z</time></trkpt><trkpt lat="44.4121033" lon="9.1795767"><ele>584.0</ele><time>2026-04-28T16:48:10.875Z</time></trkpt><trkpt lat="44.4120483" lon="9.1796683"><ele>583.3333333333334</ele><time>2026-04-28T16:48:11.874Z</time></trkpt><trkpt lat="44.4119917" lon="9.1797567"><ele>582.6666666666666</ele><time>2026-04-28T16:48:12.875Z</time></trkpt><trkpt lat="44.4119267" lon="9.1798383"><ele>582.0</ele><time>2026-04-28T16:48:13.873Z</time></trkpt><trkpt lat="44.4118583" lon="9.179915"><ele>584.3333333333334</ele><time>2026-04-28T16:48:14.875Z</time></trkpt><trkpt lat="44.4117833" lon="9.17998"><ele>586.6666666666666</ele><time>2026-04-28T16:48:15.872Z</time></trkpt><trkpt lat="44.411705" lon="9.1800183"><ele>589.0</ele><time>2026-04-28T16:48:16.874Z</time></trkpt><trkpt lat="44.41161" lon="9.1800567"><ele>591.3333333333333</ele><time>2026-04-28T16:48:17.875Z</time></trkpt><trkpt lat="44.41152" lon="9.1800833"><ele>593.6666666666666</ele><time>2026-04-28T16:48:18.874Z</time></trkpt><trkpt lat="44.411435" lon="9.180105"><ele>596.0</ele><time>2026-04-28T16:48:19.874Z</time></trkpt><trkpt lat="44.411355" lon="9.18012"><ele>596.3333333333333</ele><time>2026-04-28T16:48:20.876Z</time></trkpt><trkpt lat="44.4112733" lon="9.1800433"><ele>596.6666666666666</ele><time>2026-04-28T16:48:22.875Z</time></trkpt><trkpt lat="44.411185" lon="9.1800017"><ele>597.0</ele><time>2026-04-28T16:48:24.875Z</time></trkpt><trkpt lat="44.4111" lon="9.18004"><ele>597.3333333333334</ele><time>2026-04-28T16:48:26.875Z</time></trkpt><trkpt lat="44.41106" lon="9.1801167"><ele>597.6666666666667</ele><time>2026-04-28T16:48:28.874Z</time></trkpt><trkpt lat="44.41104" lon="9.180235"><ele>598.0</ele><time>2026-04-28T16:48:30.88Z</time></trkpt><trkpt lat="44.41098" lon="9.18034"><ele>598.0</ele><time>2026-04-28T16:48:32.876Z</time></trkpt><trkpt lat="44.4109083" lon="9.180415"><ele>598.0</ele><time>2026-04-28T16:48:34.875Z</time></trkpt><trkpt lat="44.4108417" lon="9.1804917"><ele>598.0</ele><time>2026-04-28T16:48:36.875Z</time></trkpt><trkpt lat="44.41077" lon="9.1805533"><ele>598.0</ele><time>2026-04-28T16:48:38.877Z</time></trkpt><trkpt lat="44.4106733" lon="9.18062"><ele>598.0</ele><time>2026-04-28T16:48:40.875Z</time></trkpt><trkpt lat="44.4105983" lon="9.1807267"><ele>601.0</ele><time>2026-04-28T16:48:42.875Z</time></trkpt><trkpt lat="44.41056" lon="9.18083"><ele>604.0</ele><time>2026-04-28T16:48:43.875Z</time></trkpt><trkpt lat="44.4105167" lon="9.1809383"><ele>607.0</ele><time>2026-04-28T16:48:44.875Z</time></trkpt><trkpt lat="44.4104767" lon="9.18105"><ele>610.0</ele><time>2026-04-28T16:48:45.878Z</time></trkpt><trkpt lat="44.410435" lon="9.18115"><ele>613.0</ele><time>2026-04-28T16:48:46.875Z</time></trkpt><trkpt lat="44.4103817" lon="9.18123"><ele>616.0</ele><time>2026-04-28T16:48:47.877Z</time></trkpt><trkpt lat="44.4103333" lon="9.1812917"><ele>616.1666666666667</ele><time>2026-04-28T16:48:48.877Z</time></trkpt><trkpt lat="44.41029" lon="9.1814"><ele>616.3333333333334</ele><time>2026-04-28T16:48:50.874Z</time></trkpt><trkpt lat="44.4102633" lon="9.1814933"><ele>616.5</ele><time>2026-04-28T16:48:55.875Z</time></trkpt><trkpt lat="44.4102167" lon="9.1815583"><ele>616.6666666666666</ele><time>2026-04-28T16:48:58.878Z</time></trkpt><trkpt lat="44.4101433" lon="9.181625"><ele>616.8333333333333</ele><time>2026-04-28T16:49:01.882Z</time></trkpt><trkpt lat="44.4101033" lon="9.1817317"><ele>617.0</ele><time>2026-04-28T16:49:04.875Z</time></trkpt><trkpt lat="44.410055" lon="9.1817933"><ele>617.3333333333333</ele><time>2026-04-28T16:49:07.874Z</time></trkpt><trkpt lat="44.4099933" lon="9.181835"><ele>617.6666666666666</ele><time>2026-04-28T16:49:11.875Z</time></trkpt><trkpt lat="44.409925" lon="9.181825"><ele>618.0</ele><time>2026-04-28T16:49:14.877Z</time></trkpt><trkpt lat="44.4098617" lon="9.181835"><ele>618.3333333333334</ele><time>2026-04-28T16:49:16.876Z</time></trkpt><trkpt lat="44.4097967" lon="9.18189"><ele>618.6666666666667</ele><time>2026-04-28T16:49:19.875Z</time></trkpt><trkpt lat="44.4097333" lon="9.1819767"><ele>619.0</ele><time>2026-04-28T16:49:26.874Z</time></trkpt><trkpt lat="44.4096583" lon="9.182125"><ele>619.0</ele><time>2026-04-28T16:50:42.874Z</time></trkpt><trkpt lat="44.4096017" lon="9.1821917"><ele>619.0</ele><time>2026-04-28T16:50:44.876Z</time></trkpt><trkpt lat="44.4095517" lon="9.182275"><ele>619.0</ele><time>2026-04-28T16:50:46.874Z</time></trkpt><trkpt lat="44.4095183" lon="9.1823933"><ele>619.0</ele><time>2026-04-28T16:50:48.875Z</time></trkpt><trkpt lat="44.4094817" lon="9.1824833"><ele>619.0</ele><time>2026-04-28T16:50:50.876Z</time></trkpt><trkpt lat="44.409435" lon="9.1826"><ele>619.0</ele><time>2026-04-28T16:51:01.874Z</time></trkpt><trkpt lat="44.409385" lon="9.1826633"><ele>623.8</ele><time>2026-04-28T16:51:02.876Z</time></trkpt><trkpt lat="44.4092817" lon="9.18276"><ele>628.5999999999999</ele><time>2026-04-28T16:51:04.875Z</time></trkpt><trkpt lat="44.4091817" lon="9.1828533"><ele>633.4</ele><time>2026-04-28T16:51:06.872Z</time></trkpt><trkpt lat="44.4091333" lon="9.182915"><ele>638.1999999999999</ele><time>2026-04-28T16:51:07.874Z</time></trkpt><trkpt lat="44.4090917" lon="9.1829833"><ele>643.0</ele><time>2026-04-28T16:51:08.876Z</time></trkpt><trkpt lat="44.4090383" lon="9.1830583"><ele>643.0</ele><time>2026-04-28T16:51:09.874Z</time></trkpt><trkpt lat="44.4089817" lon="9.183125"><ele>643.0</ele><time>2026-04-28T16:51:10.874Z</time></trkpt><trkpt lat="44.40892" lon="9.18319"><ele>643.0</ele><time>2026-04-28T16:51:11.874Z</time></trkpt><trkpt lat="44.4088467" lon="9.183235"><ele>643.0</ele><time>2026-04-28T16:51:12.875Z</time></trkpt><trkpt lat="44.40878" lon="9.1832783"><ele>643.0</ele><time>2026-04-28T16:51:13.874Z</time></trkpt><trkpt lat="44.4087183" lon="9.183335"><ele>643.0</ele><time>2026-04-28T16:51:14.876Z</time></trkpt><trkpt lat="44.4086617" lon="9.183405"><ele>641.1999999999999</ele><time>2026-04-28T16:51:15.873Z</time></trkpt><trkpt lat="44.4086133" lon="9.18347"><ele>639.4</ele><time>2026-04-28T16:51:16.874Z</time></trkpt><trkpt lat="44.4085433" lon="9.1835467"><ele>637.5999999999999</ele><time>2026-04-28T16:51:18.876Z</time></trkpt><trkpt lat="44.4084583" lon="9.1836083"><ele>635.8</ele><time>2026-04-28T16:51:21.876Z</time></trkpt><trkpt lat="44.4083583" lon="9.1836583"><ele>634.0</ele><time>2026-04-28T16:51:23.878Z</time></trkpt><trkpt lat="44.4082483" lon="9.1837133"><ele>634.0</ele><time>2026-04-28T16:51:25.878Z</time></trkpt><trkpt lat="44.40816" lon="9.1838017"><ele>634.0</ele><time>2026-04-28T16:51:27.877Z</time></trkpt><trkpt lat="44.4080533" lon="9.1839083"><ele>634.0</ele><time>2026-04-28T16:51:29.875Z</time></trkpt><trkpt lat="44.4079967" lon="9.18398"><ele>634.0</ele><time>2026-04-28T16:51:30.875Z</time></trkpt><trkpt lat="44.4079467" lon="9.184055"><ele>634.0</ele><time>2026-04-28T16:51:31.875Z</time></trkpt><trkpt lat="44.407865" lon="9.1841533"><ele>631.8</ele><time>2026-04-28T16:51:33.875Z</time></trkpt><trkpt lat="44.40777" lon="9.184165"><ele>629.5999999999999</ele><time>2026-04-28T16:51:35.875Z</time></trkpt><trkpt lat="44.40764" lon="9.18417"><ele>627.4</ele><time>2026-04-28T16:51:37.874Z</time></trkpt><trkpt lat="44.4075567" lon="9.18419"><ele>625.1999999999999</ele><time>2026-04-28T16:51:38.878Z</time></trkpt><trkpt lat="44.4074583" lon="9.1842233"><ele>623.0</ele><time>2026-04-28T16:51:39.875Z</time></trkpt><trkpt lat="44.4073733" lon="9.1842433"><ele>623.0</ele><time>2026-04-28T16:51:40.874Z</time></trkpt><trkpt lat="44.4073" lon="9.1842583"><ele>623.0</ele><time>2026-04-28T16:51:41.875Z</time></trkpt><trkpt lat="44.4072333" lon="9.1842567"><ele>623.0</ele><time>2026-04-28T16:51:42.874Z</time></trkpt><trkpt lat="44.4071683" lon="9.1842533"><ele>623.0</ele><time>2026-04-28T16:51:43.874Z</time></trkpt><trkpt lat="44.4071" lon="9.1842767"><ele>623.0</ele><time>2026-04-28T16:51:44.876Z</time></trkpt><trkpt lat="44.4070233" lon="9.184325"><ele>623.0</ele><time>2026-04-28T16:51:45.874Z</time></trkpt><trkpt lat="44.4069483" lon="9.184375"><ele>623.0</ele><time>2026-04-28T16:51:46.873Z</time></trkpt><trkpt lat="44.4068667" lon="9.184385"><ele>620.8333333333333</ele><time>2026-04-28T16:51:48.877Z</time></trkpt><trkpt lat="44.40678" lon="9.1843633"><ele>618.6666666666666</ele><time>2026-04-28T16:51:51.877Z</time></trkpt><trkpt lat="44.406715" lon="9.1843983"><ele>616.5</ele><time>2026-04-28T16:51:53.876Z</time></trkpt><trkpt lat="44.4066317" lon="9.184395"><ele>614.3333333333334</ele><time>2026-04-28T16:51:55.879Z</time></trkpt><trkpt lat="44.40654" lon="9.184345"><ele>612.1666666666667</ele><time>2026-04-28T16:51:57.874Z</time></trkpt><trkpt lat="44.4064633" lon="9.184275"><ele>610.0</ele><time>2026-04-28T16:52:00.875Z</time></trkpt><trkpt lat="44.406455" lon="9.1841867"><ele>610.0</ele><time>2026-04-28T16:52:05.877Z</time></trkpt><trkpt lat="44.4064367" lon="9.1840767"><ele>610.0</ele><time>2026-04-28T16:52:08.877Z</time></trkpt><trkpt lat="44.406365" lon="9.18403"><ele>610.0</ele><time>2026-04-28T16:52:11.878Z</time></trkpt><trkpt lat="44.4062967" lon="9.1840167"><ele>610.0</ele><time>2026-04-28T16:52:13.875Z</time></trkpt><trkpt lat="44.4061783" lon="9.18403"><ele>610.0</ele><time>2026-04-28T16:52:15.876Z</time></trkpt><trkpt lat="44.4060617" lon="9.1840517"><ele>606.5</ele><time>2026-04-28T16:52:17.877Z</time></trkpt><trkpt lat="44.4059867" lon="9.1840517"><ele>603.0</ele><time>2026-04-28T16:52:18.876Z</time></trkpt><trkpt lat="44.4059117" lon="9.1840433"><ele>599.5</ele><time>2026-04-28T16:52:19.874Z</time></trkpt><trkpt lat="44.4058367" lon="9.1840417"><ele>596.0</ele><time>2026-04-28T16:52:20.876Z</time></trkpt><trkpt lat="44.40577" lon="9.1840433"><ele>592.5</ele><time>2026-04-28T16:52:21.874Z</time></trkpt><trkpt lat="44.4056733" lon="9.18404"><ele>589.0</ele><time>2026-04-28T16:52:23.876Z</time></trkpt><trkpt lat="44.4055983" lon="9.18399"><ele>586.0</ele><time>2026-04-28T16:52:25.875Z</time></trkpt><trkpt lat="44.4055517" lon="9.1839283"><ele>583.0</ele><time>2026-04-28T16:52:27.877Z</time></trkpt><trkpt lat="44.4054983" lon="9.1838733"><ele>580.0</ele><time>2026-04-28T16:52:29.875Z</time></trkpt><trkpt lat="44.40543" lon="9.1838817"><ele>577.0</ele><time>2026-04-28T16:52:31.875Z</time></trkpt><trkpt lat="44.4053233" lon="9.1838667"><ele>574.0</ele><time>2026-04-28T16:52:34.876Z</time></trkpt><trkpt lat="44.4052567" lon="9.1838333"><ele>571.0</ele><time>2026-04-28T16:52:35.874Z</time></trkpt><trkpt lat="44.405195" lon="9.18381"><ele>568.0</ele><time>2026-04-28T16:52:36.879Z</time></trkpt><trkpt lat="44.405095" lon="9.1837917"><ele>566.5</ele><time>2026-04-28T16:52:38.878Z</time></trkpt><trkpt lat="44.40499" lon="9.1837417"><ele>565.0</ele><time>2026-04-28T16:52:40.876Z</time></trkpt><trkpt lat="44.4049317" lon="9.1837067"><ele>563.5</ele><time>2026-04-28T16:52:41.875Z</time></trkpt><trkpt lat="44.40487" lon="9.1836733"><ele>562.0</ele><time>2026-04-28T16:52:42.876Z</time></trkpt><trkpt lat="44.4048067" lon="9.1836233"><ele>560.5</ele><time>2026-04-28T16:52:43.876Z</time></trkpt><trkpt lat="44.4047367" lon="9.183535"><ele>559.0</ele><time>2026-04-28T16:52:44.879Z</time></trkpt><trkpt lat="44.4046767" lon="9.1834367"><ele>556.0</ele><time>2026-04-28T16:52:45.878Z</time></trkpt><trkpt lat="44.4046217" lon="9.1833333"><ele>553.0</ele><time>2026-04-28T16:52:46.877Z</time></trkpt><trkpt lat="44.4045383" lon="9.18324"><ele>550.0</ele><time>2026-04-28T16:52:48.873Z</time></trkpt><trkpt lat="44.4044717" lon="9.18318"><ele>547.0</ele><time>2026-04-28T16:52:50.878Z</time></trkpt><trkpt lat="44.4044383" lon="9.1830933"><ele>544.0</ele><time>2026-04-28T16:52:53.879Z</time></trkpt><trkpt lat="44.4044867" lon="9.1830117"><ele>541.0</ele><time>2026-04-28T16:52:56.877Z</time></trkpt><trkpt lat="44.40449" lon="9.182915"><ele>540.6</ele><time>2026-04-28T16:53:00.874Z</time></trkpt><trkpt lat="44.4044433" lon="9.18284"><ele>540.2</ele><time>2026-04-28T16:53:02.876Z</time></trkpt><trkpt lat="44.4043433" lon="9.1827617"><ele>539.8</ele><time>2026-04-28T16:53:04.875Z</time></trkpt><trkpt lat="44.4042483" lon="9.1827217"><ele>539.4</ele><time>2026-04-28T16:53:06.873Z</time></trkpt><trkpt lat="44.4041767" lon="9.1827167"><ele>539.0</ele><time>2026-04-28T16:53:08.876Z</time></trkpt><trkpt lat="44.4042667" lon="9.1827567"><ele>539.0</ele><time>2026-04-28T16:53:19.875Z</time></trkpt><trkpt lat="44.40438" lon="9.1828167"><ele>539.0</ele><time>2026-04-28T16:53:21.877Z</time></trkpt><trkpt lat="44.4044667" lon="9.182885"><ele>539.0</ele><time>2026-04-28T16:53:23.875Z</time></trkpt><trkpt lat="44.40443" lon="9.182985"><ele>539.0</ele><time>2026-04-28T16:53:29.876Z</time></trkpt><trkpt lat="44.4043867" lon="9.1830717"><ele>539.0</ele><time>2026-04-28T16:53:32.877Z</time></trkpt><trkpt lat="44.40443" lon="9.1831517"><ele>539.0</ele><time>2026-04-28T16:53:35.875Z</time></trkpt><trkpt lat="44.404495" lon="9.1831983"><ele>539.3333333333333</ele><time>2026-04-28T16:53:37.875Z</time></trkpt><trkpt lat="44.4045567" lon="9.1832267"><ele>539.6666666666666</ele><time>2026-04-28T16:53:39.876Z</time></trkpt><trkpt lat="44.4046083" lon="9.1833183"><ele>540.0</ele><time>2026-04-28T16:53:41.874Z</time></trkpt><trkpt lat="44.4046483" lon="9.1833983"><ele>540.3333333333334</ele><time>2026-04-28T16:53:42.876Z</time></trkpt><trkpt lat="44.404705" lon="9.1834917"><ele>540.6666666666667</ele><time>2026-04-28T16:53:43.874Z</time></trkpt><trkpt lat="44.4047667" lon="9.1835767"><ele>541.0</ele><time>2026-04-28T16:53:44.875Z</time></trkpt><trkpt lat="44.4048267" lon="9.1836467"><ele>544.0</ele><time>2026-04-28T16:53:45.876Z</time></trkpt><trkpt lat="44.4048867" lon="9.1836983"><ele>547.0</ele><time>2026-04-28T16:53:46.875Z</time></trkpt><trkpt lat="44.4049433" lon="9.1837583"><ele>550.0</ele><time>2026-04-28T16:53:47.877Z</time></trkpt><trkpt lat="44.405005" lon="9.183805"><ele>553.0</ele><time>2026-04-28T16:53:48.877Z</time></trkpt><trkpt lat="44.4051033" lon="9.183845"><ele>556.0</ele><time>2026-04-28T16:53:50.878Z</time></trkpt><trkpt lat="44.4051683" lon="9.1838567"><ele>559.0</ele><time>2026-04-28T16:53:52.876Z</time></trkpt><trkpt lat="44.4052617" lon="9.18391"><ele>559.0</ele><time>2026-04-28T16:53:55.876Z</time></trkpt><trkpt lat="44.4053417" lon="9.1839433"><ele>559.0</ele><time>2026-04-28T16:53:57.877Z</time></trkpt><trkpt lat="44.4054133" lon="9.1839367"><ele>559.0</ele><time>2026-04-28T16:54:00.875Z</time></trkpt><trkpt lat="44.405485" lon="9.18395"><ele>559.0</ele><time>2026-04-28T16:54:03.877Z</time></trkpt><trkpt lat="44.4055367" lon="9.1840017"><ele>559.0</ele><time>2026-04-28T16:54:05.877Z</time></trkpt><trkpt lat="44.4055933" lon="9.1840433"><ele>559.0</ele><time>2026-04-28T16:54:07.876Z</time></trkpt><trkpt lat="44.4056617" lon="9.1840483"><ele>559.0</ele><time>2026-04-28T16:54:09.875Z</time></trkpt><trkpt lat="44.4057483" lon="9.1840383"><ele>565.0</ele><time>2026-04-28T16:54:11.873Z</time></trkpt><trkpt lat="44.40586" lon="9.1840433"><ele>571.0</ele><time>2026-04-28T16:54:13.876Z</time></trkpt><trkpt lat="44.4059283" lon="9.1840583"><ele>577.0</ele><time>2026-04-28T16:54:14.875Z</time></trkpt><trkpt lat="44.406021" lon="9.1840837"><ele>583.0</ele><time>2026-04-28T16:54:16.874Z</time></trkpt><trkpt lat="44.4060754" lon="9.1841632"><ele>589.0</ele><time>2026-04-28T16:54:19.875Z</time></trkpt><trkpt lat="44.4061583" lon="9.18424"><ele>589.0</ele><time>2026-04-28T16:54:32.877Z</time></trkpt><trkpt lat="44.4062217" lon="9.18426"><ele>589.0</ele><time>2026-04-28T16:54:34.874Z</time></trkpt><trkpt lat="44.4061621" lon="9.1842039"><ele>589.0</ele><time>2026-04-28T16:58:57.901Z</time></trkpt><trkpt lat="44.4061384" lon="9.1841143"><ele>589.0</ele><time>2026-04-28T16:59:01.964Z</time></trkpt><trkpt lat="44.4061527" lon="9.1840275"><ele>589.0</ele><time>2026-04-28T16:59:27.97Z</time></trkpt><trkpt lat="44.4062259" lon="9.1839947"><ele>589.0</ele><time>2026-04-28T16:59:31.908Z</time></trkpt><trkpt lat="44.4063037" lon="9.1840173"><ele>589.0</ele><time>2026-04-28T16:59:35.928Z</time></trkpt><trkpt lat="44.406367" lon="9.1840696"><ele>592.0</ele><time>2026-04-28T16:59:38.941Z</time></trkpt><trkpt lat="44.4064194" lon="9.1841343"><ele>595.0</ele><time>2026-04-28T16:59:43.876Z</time></trkpt><trkpt lat="44.4064947" lon="9.1842138"><ele>598.0</ele><time>2026-04-28T16:59:58.939Z</time></trkpt><trkpt lat="44.4065691" lon="9.1842649"><ele>601.0</ele><time>2026-04-28T17:00:03.875Z</time></trkpt><trkpt lat="44.4066368" lon="9.1842825"><ele>604.0</ele><time>2026-04-28T17:00:06.878Z</time></trkpt><trkpt lat="44.4067008" lon="9.184285"><ele>607.0</ele><time>2026-04-28T17:00:09.893Z</time></trkpt><trkpt lat="44.4067515" lon="9.1843373"><ele>610.0</ele><time>2026-04-28T17:00:16.926Z</time></trkpt><trkpt lat="44.4068233" lon="9.1843533"><ele>610.0</ele><time>2026-04-28T17:00:30.875Z</time></trkpt><trkpt lat="44.40689" lon="9.1843683"><ele>610.0</ele><time>2026-04-28T17:00:33.875Z</time></trkpt><trkpt lat="44.40697" lon="9.1843283"><ele>610.0</ele><time>2026-04-28T17:00:35.875Z</time></trkpt><trkpt lat="44.40707" lon="9.1842683"><ele>610.0</ele><time>2026-04-28T17:00:37.876Z</time></trkpt><trkpt lat="44.4071517" lon="9.1842383"><ele>610.0</ele><time>2026-04-28T17:00:39.876Z</time></trkpt><trkpt lat="44.4072333" lon="9.1842383"><ele>610.0</ele><time>2026-04-28T17:00:41.87Z</time></trkpt><trkpt lat="44.4073183" lon="9.1842283"><ele>612.6</ele><time>2026-04-28T17:00:43.876Z</time></trkpt><trkpt lat="44.4074333" lon="9.1841983"><ele>615.2</ele><time>2026-04-28T17:00:45.875Z</time></trkpt><trkpt lat="44.40756" lon="9.1841633"><ele>617.8</ele><time>2026-04-28T17:00:47.875Z</time></trkpt><trkpt lat="44.407665" lon="9.18415"><ele>620.4</ele><time>2026-04-28T17:00:49.874Z</time></trkpt><trkpt lat="44.4077583" lon="9.1841383"><ele>623.0</ele><time>2026-04-28T17:00:51.875Z</time></trkpt><trkpt lat="44.4078417" lon="9.1840683"><ele>621.1999999999999</ele><time>2026-04-28T17:00:53.875Z</time></trkpt><trkpt lat="44.4079467" lon="9.1839583"><ele>619.4</ele><time>2026-04-28T17:00:55.873Z</time></trkpt><trkpt lat="44.4080117" lon="9.183915"><ele>617.5999999999999</ele><time>2026-04-28T17:00:56.876Z</time></trkpt><trkpt lat="44.4080717" lon="9.183875"><ele>615.8</ele><time>2026-04-28T17:00:57.874Z</time></trkpt><trkpt lat="44.40816" lon="9.1837917"><ele>614.0</ele><time>2026-04-28T17:00:59.874Z</time></trkpt><trkpt lat="44.4082433" lon="9.18372"><ele>619.0</ele><time>2026-04-28T17:01:01.876Z</time></trkpt><trkpt lat="44.4083533" lon="9.18364"><ele>624.0</ele><time>2026-04-28T17:01:03.875Z</time></trkpt><trkpt lat="44.4084517" lon="9.1835717"><ele>629.0</ele><time>2026-04-28T17:01:05.874Z</time></trkpt><trkpt lat="44.4085517" lon="9.18351"><ele>634.0</ele><time>2026-04-28T17:01:07.873Z</time></trkpt><trkpt lat="44.4086567" lon="9.1834317"><ele>634.0</ele><time>2026-04-28T17:01:09.875Z</time></trkpt><trkpt lat="44.4087183" lon="9.1833833"><ele>634.0</ele><time>2026-04-28T17:01:10.874Z</time></trkpt><trkpt lat="44.4087917" lon="9.1833383"><ele>634.0</ele><time>2026-04-28T17:01:11.875Z</time></trkpt><trkpt lat="44.408865" lon="9.1832933"><ele>634.0</ele><time>2026-04-28T17:01:12.873Z</time></trkpt><trkpt lat="44.4089367" lon="9.183245"><ele>634.0</ele><time>2026-04-28T17:01:13.876Z</time></trkpt><trkpt lat="44.4090033" lon="9.1831817"><ele>634.0</ele><time>2026-04-28T17:01:14.877Z</time></trkpt><trkpt lat="44.4090617" lon="9.1831133"><ele>635.2857142857143</ele><time>2026-04-28T17:01:15.875Z</time></trkpt><trkpt lat="44.4091133" lon="9.1830367"><ele>636.5714285714286</ele><time>2026-04-28T17:01:16.875Z</time></trkpt><trkpt lat="44.4091633" lon="9.1829667"><ele>637.8571428571429</ele><time>2026-04-28T17:01:17.874Z</time></trkpt><trkpt lat="44.4092217" lon="9.1829033"><ele>639.1428571428571</ele><time>2026-04-28T17:01:18.875Z</time></trkpt><trkpt lat="44.409285" lon="9.1828417"><ele>640.4285714285714</ele><time>2026-04-28T17:01:19.874Z</time></trkpt><trkpt lat="44.4093367" lon="9.1827767"><ele>641.7142857142857</ele><time>2026-04-28T17:01:20.876Z</time></trkpt><trkpt lat="44.4093867" lon="9.1826983"><ele>643.0</ele><time>2026-04-28T17:01:21.877Z</time></trkpt><trkpt lat="44.4094333" lon="9.1826183"><ele>643.0</ele><time>2026-04-28T17:01:22.876Z</time></trkpt><trkpt lat="44.409475" lon="9.182535"><ele>643.0</ele><time>2026-04-28T17:01:23.876Z</time></trkpt><trkpt lat="44.4095083" lon="9.18245"><ele>643.0</ele><time>2026-04-28T17:01:24.873Z</time></trkpt><trkpt lat="44.4095383" lon="9.1823583"><ele>643.0</ele><time>2026-04-28T17:01:25.874Z</time></trkpt><trkpt lat="44.4095617" lon="9.18227"><ele>643.0</ele><time>2026-04-28T17:01:26.875Z</time></trkpt><trkpt lat="44.409635" lon="9.18213"><ele>643.0</ele><time>2026-04-28T17:01:28.874Z</time></trkpt><trkpt lat="44.4097117" lon="9.1820117"><ele>643.1666666666667</ele><time>2026-04-28T17:01:30.873Z</time></trkpt><trkpt lat="44.4097683" lon="9.1819133"><ele>643.3333333333334</ele><time>2026-04-28T17:01:32.875Z</time></trkpt><trkpt lat="44.4098433" lon="9.1818617"><ele>643.5</ele><time>2026-04-28T17:01:34.874Z</time></trkpt><trkpt lat="44.4099233" lon="9.1818583"><ele>643.6666666666666</ele><time>2026-04-28T17:01:36.875Z</time></trkpt><trkpt lat="44.409985" lon="9.1818767"><ele>643.8333333333333</ele><time>2026-04-28T17:01:38.875Z</time></trkpt><trkpt lat="44.41005" lon="9.1818567"><ele>644.0</ele><time>2026-04-28T17:01:58.873Z</time></trkpt><trkpt lat="44.4100717" lon="9.1817633"><ele>644.0</ele><time>2026-04-28T17:02:00.877Z</time></trkpt><trkpt lat="44.4101267" lon="9.1816667"><ele>644.0</ele><time>2026-04-28T17:02:02.876Z</time></trkpt><trkpt lat="44.4101833" lon="9.1815867"><ele>644.0</ele><time>2026-04-28T17:02:04.875Z</time></trkpt><trkpt lat="44.410245" lon="9.1815283"><ele>644.0</ele><time>2026-04-28T17:02:06.873Z</time></trkpt><trkpt lat="44.4102883" lon="9.1814583"><ele>644.0</ele><time>2026-04-28T17:02:08.876Z</time></trkpt><trkpt lat="44.4103067" lon="9.1813733"><ele>644.0</ele><time>2026-04-28T17:02:10.873Z</time></trkpt><trkpt lat="44.4103283" lon="9.18129"><ele>644.0</ele><time>2026-04-28T17:02:12.874Z</time></trkpt><trkpt lat="44.4103867" lon="9.181195"><ele>637.25</ele><time>2026-04-28T17:02:14.877Z</time></trkpt><trkpt lat="44.4104283" lon="9.181065"><ele>630.5</ele><time>2026-04-28T17:02:16.874Z</time></trkpt><trkpt lat="44.4104767" lon="9.1809117"><ele>623.75</ele><time>2026-04-28T17:02:18.874Z</time></trkpt><trkpt lat="44.410515" lon="9.1807583"><ele>617.0</ele><time>2026-04-28T17:02:20.877Z</time></trkpt><trkpt lat="44.4105683" lon="9.1806167"><ele>613.2</ele><time>2026-04-28T17:02:22.873Z</time></trkpt><trkpt lat="44.41066" lon="9.1805133"><ele>609.4000000000001</ele><time>2026-04-28T17:02:24.876Z</time></trkpt><trkpt lat="44.41075" lon="9.1804283"><ele>605.5999999999999</ele><time>2026-04-28T17:02:26.877Z</time></trkpt><trkpt lat="44.4108467" lon="9.180355"><ele>601.8</ele><time>2026-04-28T17:02:28.874Z</time></trkpt><trkpt lat="44.410945" lon="9.1802817"><ele>598.0</ele><time>2026-04-28T17:02:30.874Z</time></trkpt><trkpt lat="44.4109983" lon="9.1802083"><ele>598.0</ele><time>2026-04-28T17:02:32.874Z</time></trkpt><trkpt lat="44.4110233" lon="9.1801133"><ele>598.0</ele><time>2026-04-28T17:02:34.873Z</time></trkpt><trkpt lat="44.4110983" lon="9.1800267"><ele>598.0</ele><time>2026-04-28T17:02:36.876Z</time></trkpt><trkpt lat="44.41118" lon="9.1799933"><ele>598.0</ele><time>2026-04-28T17:02:38.877Z</time></trkpt><trkpt lat="44.4112517" lon="9.180015"><ele>598.0</ele><time>2026-04-28T17:02:40.874Z</time></trkpt><trkpt lat="44.41136" lon="9.1800533"><ele>598.0</ele><time>2026-04-28T17:02:42.875Z</time></trkpt><trkpt lat="44.4114583" lon="9.1800133"><ele>597.6</ele><time>2026-04-28T17:02:43.875Z</time></trkpt><trkpt lat="44.41157" lon="9.1799633"><ele>597.1999999999999</ele><time>2026-04-28T17:02:44.875Z</time></trkpt><trkpt lat="44.411665" lon="9.179925"><ele>596.8</ele><time>2026-04-28T17:02:45.876Z</time></trkpt><trkpt lat="44.4117517" lon="9.1798917"><ele>596.4</ele><time>2026-04-28T17:02:46.875Z</time></trkpt><trkpt lat="44.411845" lon="9.1798567"><ele>596.0</ele><time>2026-04-28T17:02:47.874Z</time></trkpt><trkpt lat="44.411935" lon="9.1798283"><ele>596.5</ele><time>2026-04-28T17:02:48.876Z</time></trkpt><trkpt lat="44.4120083" lon="9.17978"><ele>597.0</ele><time>2026-04-28T17:02:49.873Z</time></trkpt><trkpt lat="44.412065" lon="9.1797133"><ele>597.5</ele><time>2026-04-28T17:02:50.875Z</time></trkpt><trkpt lat="44.4121217" lon="9.1796367"><ele>598.0</ele><time>2026-04-28T17:02:51.875Z</time></trkpt><trkpt lat="44.41217" lon="9.1795517"><ele>598.5</ele><time>2026-04-28T17:02:52.874Z</time></trkpt><trkpt lat="44.4122167" lon="9.1794517"><ele>599.0</ele><time>2026-04-28T17:02:53.874Z</time></trkpt><trkpt lat="44.41226" lon="9.1793567"><ele>599.0</ele><time>2026-04-28T17:02:54.876Z</time></trkpt><trkpt lat="44.41231" lon="9.1792517"><ele>599.0</ele><time>2026-04-28T17:02:55.874Z</time></trkpt><trkpt lat="44.4123733" lon="9.1791383"><ele>599.0</ele><time>2026-04-28T17:02:56.875Z</time></trkpt><trkpt lat="44.4124367" lon="9.1790483"><ele>599.0</ele><time>2026-04-28T17:02:57.872Z</time></trkpt><trkpt lat="44.412495" lon="9.1789633"><ele>599.0</ele><time>2026-04-28T17:02:58.874Z</time></trkpt><trkpt lat="44.4125633" lon="9.17888"><ele>597.6666666666666</ele><time>2026-04-28T17:02:59.873Z</time></trkpt><trkpt lat="44.41263" lon="9.178805"><ele>596.3333333333333</ele><time>2026-04-28T17:03:00.875Z</time></trkpt><trkpt lat="44.4126983" lon="9.1787417"><ele>595.0</ele><time>2026-04-28T17:03:01.875Z</time></trkpt><trkpt lat="44.4127667" lon="9.1786867"><ele>593.6666666666666</ele><time>2026-04-28T17:03:02.874Z</time></trkpt><trkpt lat="44.4128417" lon="9.178645"><ele>592.3333333333334</ele><time>2026-04-28T17:03:03.875Z</time></trkpt><trkpt lat="44.4129517" lon="9.17861"><ele>591.0</ele><time>2026-04-28T17:03:04.875Z</time></trkpt><trkpt lat="44.4130667" lon="9.1785833"><ele>591.0</ele><time>2026-04-28T17:03:05.875Z</time></trkpt><trkpt lat="44.4131667" lon="9.1785417"><ele>591.0</ele><time>2026-04-28T17:03:06.877Z</time></trkpt><trkpt lat="44.413255" lon="9.1784983"><ele>591.0</ele><time>2026-04-28T17:03:07.875Z</time></trkpt><trkpt lat="44.4133483" lon="9.17846"><ele>591.0</ele><time>2026-04-28T17:03:08.875Z</time></trkpt><trkpt lat="44.4134417" lon="9.1784217"><ele>591.0</ele><time>2026-04-28T17:03:09.874Z</time></trkpt><trkpt lat="44.41353" lon="9.1783867"><ele>591.0</ele><time>2026-04-28T17:03:10.873Z</time></trkpt><trkpt lat="44.41361" lon="9.1783383"><ele>591.0</ele><time>2026-04-28T17:03:11.874Z</time></trkpt><trkpt lat="44.413675" lon="9.1782767"><ele>591.0</ele><time>2026-04-28T17:03:12.873Z</time></trkpt><trkpt lat="44.4137133" lon="9.1781983"><ele>591.0</ele><time>2026-04-28T17:03:13.873Z</time></trkpt><trkpt lat="44.4137317" lon="9.178065"><ele>591.0</ele><time>2026-04-28T17:03:14.874Z</time></trkpt><trkpt lat="44.4137433" lon="9.1779283"><ele>591.0</ele><time>2026-04-28T17:03:15.874Z</time></trkpt><trkpt lat="44.4137567" lon="9.1778083"><ele>590.3333333333334</ele><time>2026-04-28T17:03:16.873Z</time></trkpt><trkpt lat="44.4137817" lon="9.1776933"><ele>589.6666666666666</ele><time>2026-04-28T17:03:17.873Z</time></trkpt><trkpt lat="44.4138117" lon="9.1775867"><ele>589.0</ele><time>2026-04-28T17:03:18.875Z</time></trkpt><trkpt lat="44.4138283" lon="9.1774883"><ele>588.3333333333333</ele><time>2026-04-28T17:03:19.875Z</time></trkpt><trkpt lat="44.4138333" lon="9.1773817"><ele>587.6666666666666</ele><time>2026-04-28T17:03:20.875Z</time></trkpt><trkpt lat="44.4138333" lon="9.1772633"><ele>587.0</ele><time>2026-04-28T17:03:21.874Z</time></trkpt><trkpt lat="44.413845" lon="9.1771317"><ele>586.1666666666666</ele><time>2026-04-28T17:03:22.875Z</time></trkpt><trkpt lat="44.41386" lon="9.177005"><ele>585.3333333333333</ele><time>2026-04-28T17:03:23.875Z</time></trkpt><trkpt lat="44.4138683" lon="9.1768917"><ele>584.5</ele><time>2026-04-28T17:03:24.876Z</time></trkpt><trkpt lat="44.4138683" lon="9.1767733"><ele>583.6666666666666</ele><time>2026-04-28T17:03:25.874Z</time></trkpt><trkpt lat="44.4138567" lon="9.176655"><ele>582.8333333333334</ele><time>2026-04-28T17:03:26.876Z</time></trkpt><trkpt lat="44.413845" lon="9.176535"><ele>582.0</ele><time>2026-04-28T17:03:27.876Z</time></trkpt><trkpt lat="44.4138467" lon="9.1764267"><ele>581.2857142857142</ele><time>2026-04-28T17:03:28.875Z</time></trkpt><trkpt lat="44.4138533" lon="9.1763217"><ele>580.5714285714286</ele><time>2026-04-28T17:03:29.876Z</time></trkpt><trkpt lat="44.4138583" lon="9.176225"><ele>579.8571428571429</ele><time>2026-04-28T17:03:30.877Z</time></trkpt><trkpt lat="44.413865" lon="9.1761233"><ele>579.1428571428571</ele><time>2026-04-28T17:03:31.876Z</time></trkpt><trkpt lat="44.4138767" lon="9.17602"><ele>578.4285714285714</ele><time>2026-04-28T17:03:32.876Z</time></trkpt><trkpt lat="44.4138917" lon="9.17591"><ele>577.7142857142857</ele><time>2026-04-28T17:03:33.874Z</time></trkpt><trkpt lat="44.4139033" lon="9.1758067"><ele>577.0</ele><time>2026-04-28T17:03:34.874Z</time></trkpt><trkpt lat="44.4139183" lon="9.1757067"><ele>575.3333333333334</ele><time>2026-04-28T17:03:35.874Z</time></trkpt><trkpt lat="44.4139417" lon="9.1756017"><ele>573.6666666666667</ele><time>2026-04-28T17:03:36.873Z</time></trkpt><trkpt lat="44.41398" lon="9.1755067"><ele>572.0</ele><time>2026-04-28T17:03:37.874Z</time></trkpt><trkpt lat="44.4140167" lon="9.1754217"><ele>570.3333333333334</ele><time>2026-04-28T17:03:38.875Z</time></trkpt><trkpt lat="44.41408" lon="9.175275"><ele>568.6666666666666</ele><time>2026-04-28T17:03:40.875Z</time></trkpt><trkpt lat="44.41412" lon="9.1752017"><ele>567.0</ele><time>2026-04-28T17:03:41.873Z</time></trkpt><trkpt lat="44.4141567" lon="9.175115"><ele>567.0</ele><time>2026-04-28T17:03:42.873Z</time></trkpt><trkpt lat="44.41419" lon="9.17502"><ele>567.0</ele><time>2026-04-28T17:03:43.874Z</time></trkpt><trkpt lat="44.414235" lon="9.17493"><ele>567.0</ele><time>2026-04-28T17:03:44.875Z</time></trkpt><trkpt lat="44.41428" lon="9.1748483"><ele>567.0</ele><time>2026-04-28T17:03:45.874Z</time></trkpt><trkpt lat="44.4143117" lon="9.174765"><ele>567.0</ele><time>2026-04-28T17:03:46.873Z</time></trkpt><trkpt lat="44.4143367" lon="9.1746633"><ele>567.0</ele><time>2026-04-28T17:03:47.874Z</time></trkpt><trkpt lat="44.4143583" lon="9.1745517"><ele>565.1666666666666</ele><time>2026-04-28T17:03:48.876Z</time></trkpt><trkpt lat="44.4143717" lon="9.1744433"><ele>563.3333333333334</ele><time>2026-04-28T17:03:49.873Z</time></trkpt><trkpt lat="44.41438" lon="9.1743417"><ele>561.5</ele><time>2026-04-28T17:03:50.876Z</time></trkpt><trkpt lat="44.4143717" lon="9.1742217"><ele>559.6666666666667</ele><time>2026-04-28T17:03:51.874Z</time></trkpt><trkpt lat="44.4143617" lon="9.174105"><ele>557.8333333333334</ele><time>2026-04-28T17:03:52.873Z</time></trkpt><trkpt lat="44.4143567" lon="9.1739867"><ele>556.0</ele><time>2026-04-28T17:03:53.874Z</time></trkpt><trkpt lat="44.4143633" lon="9.17387"><ele>554.0</ele><time>2026-04-28T17:03:54.878Z</time></trkpt><trkpt lat="44.414375" lon="9.17376"><ele>552.0</ele><time>2026-04-28T17:03:55.875Z</time></trkpt><trkpt lat="44.414395" lon="9.1736433"><ele>550.0</ele><time>2026-04-28T17:03:56.877Z</time></trkpt><trkpt lat="44.41441" lon="9.1735333"><ele>548.0</ele><time>2026-04-28T17:03:57.873Z</time></trkpt><trkpt lat="44.4144183" lon="9.173425"><ele>546.0</ele><time>2026-04-28T17:03:58.873Z</time></trkpt><trkpt lat="44.4144283" lon="9.1733267"><ele>544.0</ele><time>2026-04-28T17:03:59.873Z</time></trkpt><trkpt lat="44.4144267" lon="9.1732283"><ele>540.3333333333334</ele><time>2026-04-28T17:04:00.875Z</time></trkpt><trkpt lat="44.4144367" lon="9.17314"><ele>536.6666666666667</ele><time>2026-04-28T17:04:01.872Z</time></trkpt><trkpt lat="44.4144833" lon="9.1729717"><ele>533.0</ele><time>2026-04-28T17:04:03.873Z</time></trkpt><trkpt lat="44.4145233" lon="9.1728683"><ele>529.3333333333334</ele><time>2026-04-28T17:04:04.872Z</time></trkpt><trkpt lat="44.414565" lon="9.1727667"><ele>525.6666666666666</ele><time>2026-04-28T17:04:05.874Z</time></trkpt><trkpt lat="44.4146033" lon="9.1726717"><ele>522.0</ele><time>2026-04-28T17:04:06.874Z</time></trkpt><trkpt lat="44.4146267" lon="9.1725817"><ele>522.0</ele><time>2026-04-28T17:04:07.874Z</time></trkpt><trkpt lat="44.4146467" lon="9.1724967"><ele>522.0</ele><time>2026-04-28T17:04:08.874Z</time></trkpt><trkpt lat="44.4146633" lon="9.1724083"><ele>522.0</ele><time>2026-04-28T17:04:09.874Z</time></trkpt><trkpt lat="44.41469" lon="9.1723283"><ele>522.0</ele><time>2026-04-28T17:04:10.874Z</time></trkpt><trkpt lat="44.4147383" lon="9.1721933"><ele>522.0</ele><time>2026-04-28T17:04:12.872Z</time></trkpt><trkpt lat="44.4148033" lon="9.17212"><ele>522.0</ele><time>2026-04-28T17:04:14.875Z</time></trkpt><trkpt lat="44.41488" lon="9.1720717"><ele>523.0</ele><time>2026-04-28T17:04:16.876Z</time></trkpt><trkpt lat="44.4149617" lon="9.1719917"><ele>524.0</ele><time>2026-04-28T17:04:18.875Z</time></trkpt><trkpt lat="44.4149917" lon="9.1718933"><ele>525.0</ele><time>2026-04-28T17:04:20.875Z</time></trkpt><trkpt lat="44.414965" lon="9.171805"><ele>526.0</ele><time>2026-04-28T17:04:22.875Z</time></trkpt><trkpt lat="44.4149983" lon="9.1716683"><ele>527.0</ele><time>2026-04-28T17:04:24.874Z</time></trkpt><trkpt lat="44.4150333" lon="9.1715683"><ele>528.0</ele><time>2026-04-28T17:04:25.874Z</time></trkpt><trkpt lat="44.41507" lon="9.17145"><ele>528.0</ele><time>2026-04-28T17:04:26.874Z</time></trkpt><trkpt lat="44.4150967" lon="9.1713267"><ele>528.0</ele><time>2026-04-28T17:04:27.874Z</time></trkpt><trkpt lat="44.4151133" lon="9.171205"><ele>528.0</ele><time>2026-04-28T17:04:28.874Z</time></trkpt><trkpt lat="44.4151183" lon="9.171095"><ele>528.0</ele><time>2026-04-28T17:04:29.874Z</time></trkpt><trkpt lat="44.4151267" lon="9.1709783"><ele>528.0</ele><time>2026-04-28T17:04:30.872Z</time></trkpt><trkpt lat="44.415135" lon="9.1708683"><ele>528.0</ele><time>2026-04-28T17:04:31.874Z</time></trkpt><trkpt lat="44.41515" lon="9.17077"><ele>526.3333333333334</ele><time>2026-04-28T17:04:32.874Z</time></trkpt><trkpt lat="44.415175" lon="9.170675"><ele>524.6666666666666</ele><time>2026-04-28T17:04:33.873Z</time></trkpt><trkpt lat="44.41521" lon="9.17059"><ele>523.0</ele><time>2026-04-28T17:04:34.872Z</time></trkpt><trkpt lat="44.4152433" lon="9.170515"><ele>521.3333333333333</ele><time>2026-04-28T17:04:35.875Z</time></trkpt><trkpt lat="44.4153033" lon="9.1703667"><ele>519.6666666666666</ele><time>2026-04-28T17:04:37.873Z</time></trkpt><trkpt lat="44.4153483" lon="9.1702167"><ele>518.0</ele><time>2026-04-28T17:04:39.874Z</time></trkpt><trkpt lat="44.4154133" lon="9.17009"><ele>518.0</ele><time>2026-04-28T17:04:41.874Z</time></trkpt><trkpt lat="44.4154483" lon="9.1699317"><ele>518.0</ele><time>2026-04-28T17:04:43.872Z</time></trkpt><trkpt lat="44.4154717" lon="9.1697833"><ele>518.0</ele><time>2026-04-28T17:04:45.873Z</time></trkpt><trkpt lat="44.4154433" lon="9.1696317"><ele>518.0</ele><time>2026-04-28T17:04:47.873Z</time></trkpt><trkpt lat="44.4154517" lon="9.1694667"><ele>517.4</ele><time>2026-04-28T17:04:49.875Z</time></trkpt><trkpt lat="44.4154767" lon="9.169305"><ele>516.8</ele><time>2026-04-28T17:04:51.875Z</time></trkpt><trkpt lat="44.4154933" lon="9.1691683"><ele>516.2</ele><time>2026-04-28T17:04:53.876Z</time></trkpt><trkpt lat="44.4155233" lon="9.169035"><ele>515.6</ele><time>2026-04-28T17:04:55.873Z</time></trkpt><trkpt lat="44.4155167" lon="9.1688967"><ele>515.0</ele><time>2026-04-28T17:04:57.875Z</time></trkpt><trkpt lat="44.4154783" lon="9.1687717"><ele>515.0</ele><time>2026-04-28T17:04:59.875Z</time></trkpt><trkpt lat="44.4154483" lon="9.1686667"><ele>515.0</ele><time>2026-04-28T17:05:01.877Z</time></trkpt><trkpt lat="44.4154433" lon="9.1685433"><ele>515.0</ele><time>2026-04-28T17:05:03.873Z</time></trkpt><trkpt lat="44.4154517" lon="9.1684517"><ele>515.0</ele><time>2026-04-28T17:05:06.876Z</time></trkpt><trkpt lat="44.4154483" lon="9.1683233"><ele>515.0</ele><time>2026-04-28T17:05:11.889Z</time></trkpt><trkpt lat="44.4154767" lon="9.16816"><ele>515.0</ele><time>2026-04-28T17:05:13.877Z</time></trkpt><trkpt lat="44.4154983" lon="9.1680767"><ele>520.6</ele><time>2026-04-28T17:05:14.876Z</time></trkpt><trkpt lat="44.415525" lon="9.1679233"><ele>526.2</ele><time>2026-04-28T17:05:16.875Z</time></trkpt><trkpt lat="44.4155467" lon="9.167835"><ele>531.8</ele><time>2026-04-28T17:05:17.874Z</time></trkpt><trkpt lat="44.4155683" lon="9.1677517"><ele>537.4</ele><time>2026-04-28T17:05:18.878Z</time></trkpt><trkpt lat="44.4156317" lon="9.1676433"><ele>543.0</ele><time>2026-04-28T17:05:20.877Z</time></trkpt><trkpt lat="44.4157467" lon="9.1675567"><ele>543.0</ele><time>2026-04-28T17:05:22.875Z</time></trkpt><trkpt lat="44.415815" lon="9.1675317"><ele>543.0</ele><time>2026-04-28T17:05:23.875Z</time></trkpt><trkpt lat="44.4158817" lon="9.1675217"><ele>543.0</ele><time>2026-04-28T17:05:24.875Z</time></trkpt><trkpt lat="44.41595" lon="9.16751"><ele>543.0</ele><time>2026-04-28T17:05:25.874Z</time></trkpt><trkpt lat="44.4160167" lon="9.1674883"><ele>543.0</ele><time>2026-04-28T17:05:26.875Z</time></trkpt><trkpt lat="44.4160783" lon="9.1674517"><ele>543.0</ele><time>2026-04-28T17:05:27.874Z</time></trkpt><trkpt lat="44.4161633" lon="9.16733"><ele>541.6</ele><time>2026-04-28T17:05:29.876Z</time></trkpt><trkpt lat="44.4162383" lon="9.1671917"><ele>540.1999999999999</ele><time>2026-04-28T17:05:31.873Z</time></trkpt><trkpt lat="44.41628" lon="9.1670567"><ele>538.8</ele><time>2026-04-28T17:05:33.874Z</time></trkpt><trkpt lat="44.4162867" lon="9.16691"><ele>537.4</ele><time>2026-04-28T17:05:35.876Z</time></trkpt><trkpt lat="44.416295" lon="9.1668067"><ele>536.0</ele><time>2026-04-28T17:05:36.875Z</time></trkpt><trkpt lat="44.4163517" lon="9.1666967"><ele>536.0</ele><time>2026-04-28T17:05:37.874Z</time></trkpt><trkpt lat="44.41643" lon="9.1665833"><ele>536.0</ele><time>2026-04-28T17:05:38.876Z</time></trkpt><trkpt lat="44.4164983" lon="9.1664433"><ele>536.0</ele><time>2026-04-28T17:05:39.874Z</time></trkpt><trkpt lat="44.4165617" lon="9.1662967"><ele>536.0</ele><time>2026-04-28T17:05:40.874Z</time></trkpt><trkpt lat="44.4166233" lon="9.1661317"><ele>537.0</ele><time>2026-04-28T17:05:41.874Z</time></trkpt><trkpt lat="44.4166717" lon="9.1659933"><ele>538.0</ele><time>2026-04-28T17:05:42.874Z</time></trkpt><trkpt lat="44.41671" lon="9.1658983"><ele>539.0</ele><time>2026-04-28T17:05:43.875Z</time></trkpt><trkpt lat="44.4168033" lon="9.16578"><ele>540.0</ele><time>2026-04-28T17:05:45.874Z</time></trkpt><trkpt lat="44.4168767" lon="9.1656683"><ele>541.0</ele><time>2026-04-28T17:05:47.874Z</time></trkpt><trkpt lat="44.416925" lon="9.16553"><ele>541.0</ele><time>2026-04-28T17:05:49.875Z</time></trkpt><trkpt lat="44.4169883" lon="9.1654167"><ele>541.0</ele><time>2026-04-28T17:05:51.876Z</time></trkpt><trkpt lat="44.4170533" lon="9.165335"><ele>541.0</ele><time>2026-04-28T17:05:53.874Z</time></trkpt><trkpt lat="44.4171283" lon="9.1651683"><ele>541.0</ele><time>2026-04-28T17:05:55.874Z</time></trkpt><trkpt lat="44.417145" lon="9.165015"><ele>541.0</ele><time>2026-04-28T17:05:56.873Z</time></trkpt><trkpt lat="44.4171617" lon="9.1648867"><ele>544.5</ele><time>2026-04-28T17:05:57.869Z</time></trkpt><trkpt lat="44.4171767" lon="9.1647733"><ele>548.0</ele><time>2026-04-28T17:05:58.873Z</time></trkpt><trkpt lat="44.417195" lon="9.16467"><ele>551.5</ele><time>2026-04-28T17:05:59.873Z</time></trkpt><trkpt lat="44.4172283" lon="9.164565"><ele>555.0</ele><time>2026-04-28T17:06:00.876Z</time></trkpt><trkpt lat="44.4172667" lon="9.164465"><ele>558.5</ele><time>2026-04-28T17:06:01.874Z</time></trkpt><trkpt lat="44.4172983" lon="9.1643583"><ele>562.0</ele><time>2026-04-28T17:06:02.877Z</time></trkpt><trkpt lat="44.4173283" lon="9.16425"><ele>562.0</ele><time>2026-04-28T17:06:03.876Z</time></trkpt><trkpt lat="44.417365" lon="9.164145"><ele>562.0</ele><time>2026-04-28T17:06:04.874Z</time></trkpt><trkpt lat="44.4173983" lon="9.1640483"><ele>562.0</ele><time>2026-04-28T17:06:05.876Z</time></trkpt><trkpt lat="44.417435" lon="9.1639317"><ele>562.0</ele><time>2026-04-28T17:06:07.874Z</time></trkpt><trkpt lat="44.4174333" lon="9.1638267"><ele>562.0</ele><time>2026-04-28T17:06:09.876Z</time></trkpt><trkpt lat="44.41744" lon="9.163735"><ele>562.0</ele><time>2026-04-28T17:06:10.874Z</time></trkpt><trkpt lat="44.4174533" lon="9.1636217"><ele>561.2</ele><time>2026-04-28T17:06:11.875Z</time></trkpt><trkpt lat="44.41748" lon="9.163495"><ele>560.4000000000001</ele><time>2026-04-28T17:06:12.876Z</time></trkpt><trkpt lat="44.41751" lon="9.1633583"><ele>559.5999999999999</ele><time>2026-04-28T17:06:13.875Z</time></trkpt><trkpt lat="44.41754" lon="9.163225"><ele>558.8</ele><time>2026-04-28T17:06:14.876Z</time></trkpt><trkpt lat="44.4175717" lon="9.1630817"><ele>558.0</ele><time>2026-04-28T17:06:15.875Z</time></trkpt><trkpt lat="44.4176" lon="9.1629633"><ele>558.0</ele><time>2026-04-28T17:06:16.877Z</time></trkpt><trkpt lat="44.4176283" lon="9.162805"><ele>558.0</ele><time>2026-04-28T17:06:17.876Z</time></trkpt><trkpt lat="44.4176683" lon="9.1627017"><ele>558.0</ele><time>2026-04-28T17:06:18.875Z</time></trkpt><trkpt lat="44.4177317" lon="9.1625983"><ele>558.0</ele><time>2026-04-28T17:06:19.875Z</time></trkpt><trkpt lat="44.41779" lon="9.16251"><ele>558.0</ele><time>2026-04-28T17:06:20.874Z</time></trkpt><trkpt lat="44.4178617" lon="9.1624283"><ele>560.5</ele><time>2026-04-28T17:06:21.877Z</time></trkpt><trkpt lat="44.4179433" lon="9.1623583"><ele>563.0</ele><time>2026-04-28T17:06:22.876Z</time></trkpt><trkpt lat="44.4180083" lon="9.16229"><ele>565.5</ele><time>2026-04-28T17:06:23.875Z</time></trkpt><trkpt lat="44.4180767" lon="9.1622117"><ele>568.0</ele><time>2026-04-28T17:06:24.877Z</time></trkpt><trkpt lat="44.418135" lon="9.162115"><ele>570.5</ele><time>2026-04-28T17:06:25.874Z</time></trkpt><trkpt lat="44.41818" lon="9.162025"><ele>573.0</ele><time>2026-04-28T17:06:26.878Z</time></trkpt><trkpt lat="44.4182117" lon="9.1619333"><ele>573.0</ele><time>2026-04-28T17:06:27.875Z</time></trkpt><trkpt lat="44.4182617" lon="9.16178"><ele>573.0</ele><time>2026-04-28T17:06:29.875Z</time></trkpt><trkpt lat="44.4183083" lon="9.161695"><ele>573.0</ele><time>2026-04-28T17:06:30.875Z</time></trkpt><trkpt lat="44.4183567" lon="9.1616033"><ele>573.0</ele><time>2026-04-28T17:06:31.875Z</time></trkpt><trkpt lat="44.4184033" lon="9.1615117"><ele>573.0</ele><time>2026-04-28T17:06:32.874Z</time></trkpt><trkpt lat="44.41845" lon="9.1614267"><ele>573.0</ele><time>2026-04-28T17:06:33.875Z</time></trkpt><trkpt lat="44.4185033" lon="9.1613433"><ele>573.8333333333334</ele><time>2026-04-28T17:06:34.874Z</time></trkpt><trkpt lat="44.4185483" lon="9.1612733"><ele>574.6666666666666</ele><time>2026-04-28T17:06:35.875Z</time></trkpt><trkpt lat="44.4186167" lon="9.1612133"><ele>575.5</ele><time>2026-04-28T17:06:37.874Z</time></trkpt><trkpt lat="44.4186983" lon="9.16122"><ele>576.3333333333333</ele><time>2026-04-28T17:06:39.876Z</time></trkpt><trkpt lat="44.4188133" lon="9.1611733"><ele>577.1666666666666</ele><time>2026-04-28T17:06:41.876Z</time></trkpt><trkpt lat="44.4188817" lon="9.1611283"><ele>578.0</ele><time>2026-04-28T17:06:42.875Z</time></trkpt><trkpt lat="44.418945" lon="9.1610967"><ele>578.0</ele><time>2026-04-28T17:06:43.874Z</time></trkpt><trkpt lat="44.4190433" lon="9.1610133"><ele>578.0</ele><time>2026-04-28T17:06:45.874Z</time></trkpt><trkpt lat="44.4190983" lon="9.1609683"><ele>578.0</ele><time>2026-04-28T17:06:46.874Z</time></trkpt><trkpt lat="44.4191917" lon="9.1609017"><ele>578.0</ele><time>2026-04-28T17:06:48.874Z</time></trkpt><trkpt lat="44.4192133" lon="9.1607633"><ele>578.0</ele><time>2026-04-28T17:06:50.875Z</time></trkpt><trkpt lat="44.4192233" lon="9.1606467"><ele>574.8333333333333</ele><time>2026-04-28T17:06:52.874Z</time></trkpt><trkpt lat="44.4191833" lon="9.16053"><ele>571.6666666666666</ele><time>2026-04-28T17:06:55.874Z</time></trkpt><trkpt lat="44.41915" lon="9.1604117"><ele>568.5</ele><time>2026-04-28T17:06:57.874Z</time></trkpt><trkpt lat="44.4191" lon="9.160305"><ele>565.3333333333334</ele><time>2026-04-28T17:06:59.875Z</time></trkpt><trkpt lat="44.419015" lon="9.1602683"><ele>562.1666666666667</ele><time>2026-04-28T17:07:01.876Z</time></trkpt><trkpt lat="44.4189367" lon="9.1602717"><ele>559.0</ele><time>2026-04-28T17:07:03.876Z</time></trkpt><trkpt lat="44.4188517" lon="9.1601917"><ele>556.0</ele><time>2026-04-28T17:07:05.874Z</time></trkpt><trkpt lat="44.4187983" lon="9.1600617"><ele>553.0</ele><time>2026-04-28T17:07:07.888Z</time></trkpt><trkpt lat="44.4187833" lon="9.15996"><ele>550.0</ele><time>2026-04-28T17:07:09.876Z</time></trkpt><trkpt lat="44.4188017" lon="9.1598233"><ele>547.0</ele><time>2026-04-28T17:07:11.876Z</time></trkpt><trkpt lat="44.4188233" lon="9.15973"><ele>544.0</ele><time>2026-04-28T17:07:12.876Z</time></trkpt><trkpt lat="44.4188683" lon="9.1596217"><ele>541.0</ele><time>2026-04-28T17:07:13.875Z</time></trkpt><trkpt lat="44.4189133" lon="9.15955"><ele>541.0</ele><time>2026-04-28T17:07:14.876Z</time></trkpt><trkpt lat="44.41896" lon="9.159485"><ele>541.0</ele><time>2026-04-28T17:07:15.875Z</time></trkpt><trkpt lat="44.419055" lon="9.1593967"><ele>541.0</ele><time>2026-04-28T17:07:16.875Z</time></trkpt><trkpt lat="44.4191667" lon="9.1593033"><ele>541.0</ele><time>2026-04-28T17:07:17.875Z</time></trkpt><trkpt lat="44.41926" lon="9.1592067"><ele>541.0</ele><time>2026-04-28T17:07:18.874Z</time></trkpt><trkpt lat="44.4193233" lon="9.15911"><ele>538.0</ele><time>2026-04-28T17:07:19.875Z</time></trkpt><trkpt lat="44.41937" lon="9.1590067"><ele>535.0</ele><time>2026-04-28T17:07:20.874Z</time></trkpt><trkpt lat="44.4194" lon="9.1588517"><ele>532.0</ele><time>2026-04-28T17:07:21.873Z</time></trkpt><trkpt lat="44.419425" lon="9.1586917"><ele>529.0</ele><time>2026-04-28T17:07:22.873Z</time></trkpt><trkpt lat="44.4194433" lon="9.1585517"><ele>526.0</ele><time>2026-04-28T17:07:23.873Z</time></trkpt><trkpt lat="44.4194667" lon="9.158435"><ele>526.0</ele><time>2026-04-28T17:07:24.873Z</time></trkpt><trkpt lat="44.4195033" lon="9.158315"><ele>526.0</ele><time>2026-04-28T17:07:26.875Z</time></trkpt><trkpt lat="44.4194517" lon="9.1582583"><ele>526.0</ele><time>2026-04-28T17:07:29.875Z</time></trkpt><trkpt lat="44.4193783" lon="9.1582517"><ele>526.0</ele><time>2026-04-28T17:07:31.875Z</time></trkpt><trkpt lat="44.4193033" lon="9.1582283"><ele>526.0</ele><time>2026-04-28T17:07:33.874Z</time></trkpt><trkpt lat="44.4192283" lon="9.1582867"><ele>526.0</ele><time>2026-04-28T17:07:35.877Z</time></trkpt><trkpt lat="44.4191467" lon="9.1584183"><ele>526.0</ele><time>2026-04-28T17:07:37.875Z</time></trkpt><trkpt lat="44.419095" lon="9.158475"><ele>526.0</ele><time>2026-04-28T17:07:38.874Z</time></trkpt><trkpt lat="44.4190317" lon="9.1585217"><ele>526.0</ele><time>2026-04-28T17:07:39.875Z</time></trkpt><trkpt lat="44.41895" lon="9.1585567"><ele>526.0</ele><time>2026-04-28T17:07:40.874Z</time></trkpt><trkpt lat="44.418865" lon="9.1585867"><ele>526.0</ele><time>2026-04-28T17:07:41.873Z</time></trkpt><trkpt lat="44.4187817" lon="9.1586283"><ele>526.0</ele><time>2026-04-28T17:07:42.873Z</time></trkpt><trkpt lat="44.4187033" lon="9.158675"><ele>524.1428571428571</ele><time>2026-04-28T17:07:43.874Z</time></trkpt><trkpt lat="44.4186367" lon="9.1587283"><ele>522.2857142857142</ele><time>2026-04-28T17:07:44.876Z</time></trkpt><trkpt lat="44.4185717" lon="9.1587783"><ele>520.4285714285714</ele><time>2026-04-28T17:07:45.873Z</time></trkpt><trkpt lat="44.4185083" lon="9.15881"><ele>518.5714285714286</ele><time>2026-04-28T17:07:46.874Z</time></trkpt><trkpt lat="44.4184467" lon="9.15886"><ele>516.7142857142858</ele><time>2026-04-28T17:07:47.874Z</time></trkpt><trkpt lat="44.4183933" lon="9.1589233"><ele>514.8571428571429</ele><time>2026-04-28T17:07:48.875Z</time></trkpt><trkpt lat="44.4183517" lon="9.158995"><ele>513.0</ele><time>2026-04-28T17:07:49.873Z</time></trkpt><trkpt lat="44.41829" lon="9.1591367"><ele>513.0</ele><time>2026-04-28T17:07:51.876Z</time></trkpt><trkpt lat="44.4182233" lon="9.15926"><ele>513.0</ele><time>2026-04-28T17:07:53.873Z</time></trkpt><trkpt lat="44.41816" lon="9.1593883"><ele>513.0</ele><time>2026-04-28T17:07:55.874Z</time></trkpt><trkpt lat="44.4180933" lon="9.1595267"><ele>513.0</ele><time>2026-04-28T17:07:57.873Z</time></trkpt><trkpt lat="44.4179717" lon="9.1595733"><ele>508.8333333333333</ele><time>2026-04-28T17:07:59.876Z</time></trkpt><trkpt lat="44.41789" lon="9.1596067"><ele>504.66666666666663</ele><time>2026-04-28T17:08:00.874Z</time></trkpt><trkpt lat="44.417815" lon="9.1596417"><ele>500.5</ele><time>2026-04-28T17:08:01.875Z</time></trkpt><trkpt lat="44.4177417" lon="9.1596683"><ele>496.3333333333333</ele><time>2026-04-28T17:08:02.872Z</time></trkpt><trkpt lat="44.417675" lon="9.1596983"><ele>492.16666666666663</ele><time>2026-04-28T17:08:03.875Z</time></trkpt><trkpt lat="44.4175633" lon="9.1597667"><ele>488.0</ele><time>2026-04-28T17:08:05.874Z</time></trkpt><trkpt lat="44.4174717" lon="9.159855"><ele>491.2</ele><time>2026-04-28T17:08:07.874Z</time></trkpt><trkpt lat="44.417395" lon="9.1599467"><ele>494.4</ele><time>2026-04-28T17:08:09.876Z</time></trkpt><trkpt lat="44.4173017" lon="9.1600533"><ele>497.59999999999997</ele><time>2026-04-28T17:08:11.874Z</time></trkpt><trkpt lat="44.417245" lon="9.1601083"><ele>500.79999999999995</ele><time>2026-04-28T17:08:12.876Z</time></trkpt><trkpt lat="44.41718" lon="9.1602383"><ele>504.0</ele><time>2026-04-28T17:08:14.875Z</time></trkpt><trkpt lat="44.4171167" lon="9.1603833"><ele>501.4</ele><time>2026-04-28T17:08:16.874Z</time></trkpt><trkpt lat="44.41704" lon="9.16046"><ele>498.79999999999995</ele><time>2026-04-28T17:08:18.875Z</time></trkpt><trkpt lat="44.4169367" lon="9.1604867"><ele>496.20000000000005</ele><time>2026-04-28T17:08:20.877Z</time></trkpt><trkpt lat="44.41684" lon="9.1606083"><ele>493.6</ele><time>2026-04-28T17:08:22.876Z</time></trkpt><trkpt lat="44.4168033" lon="9.1607117"><ele>491.0</ele><time>2026-04-28T17:08:23.875Z</time></trkpt><trkpt lat="44.4167483" lon="9.1608117"><ele>490.99999999999994</ele><time>2026-04-28T17:08:24.876Z</time></trkpt><trkpt lat="44.4166733" lon="9.16092"><ele>491.0</ele><time>2026-04-28T17:08:25.877Z</time></trkpt><trkpt lat="44.4166033" lon="9.16102"><ele>491.0</ele><time>2026-04-28T17:08:26.875Z</time></trkpt><trkpt lat="44.4165383" lon="9.161105"><ele>491.0</ele><time>2026-04-28T17:08:27.875Z</time></trkpt><trkpt lat="44.4164717" lon="9.1611533"><ele>490.99999999999994</ele><time>2026-04-28T17:08:28.874Z</time></trkpt><trkpt lat="44.41641" lon="9.1611933"><ele>491.0</ele><time>2026-04-28T17:08:29.875Z</time></trkpt><trkpt lat="44.4162833" lon="9.1612667"><ele>489.16666666666663</ele><time>2026-04-28T17:08:31.875Z</time></trkpt><trkpt lat="44.41621" lon="9.1613067"><ele>487.3333333333333</ele><time>2026-04-28T17:08:32.875Z</time></trkpt><trkpt lat="44.4161483" lon="9.16135"><ele>485.5</ele><time>2026-04-28T17:08:33.877Z</time></trkpt><trkpt lat="44.416095" lon="9.16142"><ele>483.66666666666663</ele><time>2026-04-28T17:08:34.875Z</time></trkpt><trkpt lat="44.416045" lon="9.1614783"><ele>481.8333333333333</ele><time>2026-04-28T17:08:35.875Z</time></trkpt><trkpt lat="44.4159917" lon="9.161575"><ele>480.0</ele><time>2026-04-28T17:08:36.874Z</time></trkpt><trkpt lat="44.41594" lon="9.161715"><ele>480.0</ele><time>2026-04-28T17:08:37.874Z</time></trkpt><trkpt lat="44.4158983" lon="9.16186"><ele>480.0</ele><time>2026-04-28T17:08:38.874Z</time></trkpt><trkpt lat="44.415865" lon="9.162005"><ele>480.0</ele><time>2026-04-28T17:08:39.874Z</time></trkpt><trkpt lat="44.4158317" lon="9.16216"><ele>480.0</ele><time>2026-04-28T17:08:40.882Z</time></trkpt><trkpt lat="44.4158017" lon="9.1623217"><ele>481.4</ele><time>2026-04-28T17:08:41.874Z</time></trkpt><trkpt lat="44.41578" lon="9.1624767"><ele>482.8</ele><time>2026-04-28T17:08:42.876Z</time></trkpt><trkpt lat="44.41575" lon="9.162625"><ele>484.20000000000005</ele><time>2026-04-28T17:08:43.874Z</time></trkpt><trkpt lat="44.415715" lon="9.1627617"><ele>485.6</ele><time>2026-04-28T17:08:44.875Z</time></trkpt><trkpt lat="44.4156817" lon="9.1628633"><ele>487.0</ele><time>2026-04-28T17:08:45.874Z</time></trkpt><trkpt lat="44.4156483" lon="9.162945"><ele>487.00000000000006</ele><time>2026-04-28T17:08:46.874Z</time></trkpt><trkpt lat="44.41559" lon="9.1630033"><ele>487.0</ele><time>2026-04-28T17:08:47.876Z</time></trkpt><trkpt lat="44.4155367" lon="9.16307"><ele>487.0</ele><time>2026-04-28T17:08:48.874Z</time></trkpt><trkpt lat="44.4154567" lon="9.1631433"><ele>487.0</ele><time>2026-04-28T17:08:49.873Z</time></trkpt><trkpt lat="44.4153633" lon="9.1632"><ele>487.00000000000006</ele><time>2026-04-28T17:08:50.873Z</time></trkpt><trkpt lat="44.4152783" lon="9.1632617"><ele>487.0</ele><time>2026-04-28T17:08:51.876Z</time></trkpt><trkpt lat="44.415205" lon="9.1633267"><ele>483.6</ele><time>2026-04-28T17:08:52.873Z</time></trkpt><trkpt lat="44.41515" lon="9.163385"><ele>480.20000000000005</ele><time>2026-04-28T17:08:53.874Z</time></trkpt><trkpt lat="44.4150967" lon="9.16351"><ele>476.8</ele><time>2026-04-28T17:08:55.873Z</time></trkpt><trkpt lat="44.4150933" lon="9.163645"><ele>473.4</ele><time>2026-04-28T17:08:57.874Z</time></trkpt><trkpt lat="44.41512" lon="9.1637817"><ele>470.0</ele><time>2026-04-28T17:08:59.874Z</time></trkpt><trkpt lat="44.41514" lon="9.16391"><ele>469.99999999999994</ele><time>2026-04-28T17:09:01.874Z</time></trkpt><trkpt lat="44.415145" lon="9.16401"><ele>470.0</ele><time>2026-04-28T17:09:03.873Z</time></trkpt><trkpt lat="44.41508" lon="9.1640917"><ele>470.0</ele><time>2026-04-28T17:09:05.875Z</time></trkpt><trkpt lat="44.4149767" lon="9.164165"><ele>470.0</ele><time>2026-04-28T17:09:07.874Z</time></trkpt><trkpt lat="44.414915" lon="9.1642183"><ele>469.99999999999994</ele><time>2026-04-28T17:09:08.875Z</time></trkpt><trkpt lat="44.4148433" lon="9.1642517"><ele>470.0</ele><time>2026-04-28T17:09:09.872Z</time></trkpt><trkpt lat="44.414775" lon="9.1643017"><ele>470.4</ele><time>2026-04-28T17:09:10.874Z</time></trkpt><trkpt lat="44.4146733" lon="9.164375"><ele>470.8</ele><time>2026-04-28T17:09:12.874Z</time></trkpt><trkpt lat="44.4145817" lon="9.16452"><ele>471.20000000000005</ele><time>2026-04-28T17:09:14.877Z</time></trkpt><trkpt lat="44.4145417" lon="9.1646167"><ele>471.6</ele><time>2026-04-28T17:09:15.874Z</time></trkpt><trkpt lat="44.4145017" lon="9.1647117"><ele>472.0</ele><time>2026-04-28T17:09:16.873Z</time></trkpt><trkpt lat="44.414465" lon="9.1648067"><ele>467.33333333333337</ele><time>2026-04-28T17:09:17.873Z</time></trkpt><trkpt lat="44.4144267" lon="9.1648917"><ele>462.6666666666667</ele><time>2026-04-28T17:09:18.874Z</time></trkpt><trkpt lat="44.4144017" lon="9.1649817"><ele>458.0</ele><time>2026-04-28T17:09:19.873Z</time></trkpt><trkpt lat="44.4143883" lon="9.1650767"><ele>453.33333333333337</ele><time>2026-04-28T17:09:20.873Z</time></trkpt><trkpt lat="44.41439" lon="9.1651683"><ele>448.6666666666667</ele><time>2026-04-28T17:09:21.873Z</time></trkpt><trkpt lat="44.4144283" lon="9.1652417"><ele>444.0</ele><time>2026-04-28T17:09:22.873Z</time></trkpt><trkpt lat="44.4144933" lon="9.165375"><ele>444.0</ele><time>2026-04-28T17:09:24.875Z</time></trkpt><trkpt lat="44.4145083" lon="9.1654783"><ele>444.0</ele><time>2026-04-28T17:09:26.876Z</time></trkpt><trkpt lat="44.41445" lon="9.1655717"><ele>444.0</ele><time>2026-04-28T17:09:28.874Z</time></trkpt><trkpt lat="44.414345" lon="9.1656433"><ele>444.0</ele><time>2026-04-28T17:09:30.876Z</time></trkpt><trkpt lat="44.41427" lon="9.1656633"><ele>444.0</ele><time>2026-04-28T17:09:31.877Z</time></trkpt><trkpt lat="44.4141817" lon="9.16569"><ele>444.0</ele><time>2026-04-28T17:09:32.879Z</time></trkpt><trkpt lat="44.4140983" lon="9.1657117"><ele>445.2</ele><time>2026-04-28T17:09:33.875Z</time></trkpt><trkpt lat="44.4140033" lon="9.165735"><ele>446.4</ele><time>2026-04-28T17:09:34.874Z</time></trkpt><trkpt lat="44.4138967" lon="9.165765"><ele>447.6</ele><time>2026-04-28T17:09:35.874Z</time></trkpt><trkpt lat="44.4137933" lon="9.1658167"><ele>448.8</ele><time>2026-04-28T17:09:36.875Z</time></trkpt><trkpt lat="44.4137033" lon="9.165875"><ele>450.0</ele><time>2026-04-28T17:09:37.875Z</time></trkpt><trkpt lat="44.413635" lon="9.1659367"><ele>446.5</ele><time>2026-04-28T17:09:38.876Z</time></trkpt><trkpt lat="44.4135717" lon="9.1660083"><ele>443.0</ele><time>2026-04-28T17:09:39.874Z</time></trkpt><trkpt lat="44.4135233" lon="9.1660733"><ele>439.5</ele><time>2026-04-28T17:09:40.873Z</time></trkpt><trkpt lat="44.4134667" lon="9.1661417"><ele>436.0</ele><time>2026-04-28T17:09:41.874Z</time></trkpt><trkpt lat="44.4134117" lon="9.1662067"><ele>432.5</ele><time>2026-04-28T17:09:42.875Z</time></trkpt><trkpt lat="44.4133383" lon="9.1662667"><ele>429.0</ele><time>2026-04-28T17:09:44.875Z</time></trkpt><trkpt lat="44.4132617" lon="9.16626"><ele>429.0</ele><time>2026-04-28T17:09:50.876Z</time></trkpt><trkpt lat="44.4132033" lon="9.166295"><ele>429.0</ele><time>2026-04-28T17:09:52.876Z</time></trkpt><trkpt lat="44.413135" lon="9.1663533"><ele>429.0</ele><time>2026-04-28T17:09:54.872Z</time></trkpt><trkpt lat="44.4130483" lon="9.1663917"><ele>429.0</ele><time>2026-04-28T17:09:56.877Z</time></trkpt><trkpt lat="44.412995" lon="9.1664883"><ele>429.0</ele><time>2026-04-28T17:09:58.876Z</time></trkpt><trkpt lat="44.4129433" lon="9.1665967"><ele>429.0</ele><time>2026-04-28T17:10:00.874Z</time></trkpt><trkpt lat="44.4128767" lon="9.1667083"><ele>424.8333333333333</ele><time>2026-04-28T17:10:02.875Z</time></trkpt><trkpt lat="44.4128233" lon="9.166825"><ele>420.66666666666663</ele><time>2026-04-28T17:10:04.874Z</time></trkpt><trkpt lat="44.4128033" lon="9.16696"><ele>416.5</ele><time>2026-04-28T17:10:06.877Z</time></trkpt><trkpt lat="44.4127967" lon="9.1670733"><ele>412.3333333333333</ele><time>2026-04-28T17:10:08.875Z</time></trkpt><trkpt lat="44.4127917" lon="9.1671717"><ele>408.16666666666663</ele><time>2026-04-28T17:10:12.873Z</time></trkpt><trkpt lat="44.4127433" lon="9.1670883"><ele>404.0</ele><time>2026-04-28T17:10:17.877Z</time></trkpt><trkpt lat="44.412695" lon="9.1669883"><ele>404.0</ele><time>2026-04-28T17:10:21.877Z</time></trkpt><trkpt lat="44.4126383" lon="9.16688"><ele>404.0</ele><time>2026-04-28T17:10:24.876Z</time></trkpt><trkpt lat="44.4125983" lon="9.1668017"><ele>404.0</ele><time>2026-04-28T17:10:26.878Z</time></trkpt><trkpt lat="44.41258" lon="9.1666533"><ele>404.0</ele><time>2026-04-28T17:11:06.874Z</time></trkpt><trkpt lat="44.4125917" lon="9.166555"><ele>404.0</ele><time>2026-04-28T17:11:37.874Z</time></trkpt><trkpt lat="44.4125933" lon="9.166375"><ele>402.66666666666663</ele><time>2026-04-28T17:11:39.875Z</time></trkpt><trkpt lat="44.4126017" lon="9.1662567"><ele>401.3333333333333</ele><time>2026-04-28T17:11:40.874Z</time></trkpt><trkpt lat="44.412615" lon="9.1661317"><ele>400.0</ele><time>2026-04-28T17:11:41.873Z</time></trkpt><trkpt lat="44.4126283" lon="9.1660133"><ele>398.66666666666663</ele><time>2026-04-28T17:11:42.873Z</time></trkpt><trkpt lat="44.4126467" lon="9.1658967"><ele>397.3333333333333</ele><time>2026-04-28T17:11:43.872Z</time></trkpt><trkpt lat="44.4126683" lon="9.1657867"><ele>396.0</ele><time>2026-04-28T17:11:44.874Z</time></trkpt><trkpt lat="44.4126917" lon="9.1656817"><ele>394.6666666666667</ele><time>2026-04-28T17:11:45.873Z</time></trkpt><trkpt lat="44.41272" lon="9.16558"><ele>393.33333333333337</ele><time>2026-04-28T17:11:46.873Z</time></trkpt><trkpt lat="44.4127567" lon="9.1654783"><ele>392.0</ele><time>2026-04-28T17:11:47.873Z</time></trkpt><trkpt lat="44.4127983" lon="9.1653767"><ele>390.6666666666667</ele><time>2026-04-28T17:11:48.874Z</time></trkpt><trkpt lat="44.4128283" lon="9.16527"><ele>389.33333333333337</ele><time>2026-04-28T17:11:49.875Z</time></trkpt><trkpt lat="44.4128567" lon="9.1651667"><ele>388.0</ele><time>2026-04-28T17:11:50.876Z</time></trkpt><trkpt lat="44.4128917" lon="9.1650667"><ele>388.00000000000006</ele><time>2026-04-28T17:11:51.873Z</time></trkpt><trkpt lat="44.412935" lon="9.1649883"><ele>388.0</ele><time>2026-04-28T17:11:52.874Z</time></trkpt><trkpt lat="44.4130533" lon="9.164955"><ele>388.0</ele><time>2026-04-28T17:11:54.874Z</time></trkpt><trkpt lat="44.41312" lon="9.1649683"><ele>388.0</ele><time>2026-04-28T17:11:55.872Z</time></trkpt><trkpt lat="44.41319" lon="9.16497"><ele>388.00000000000006</ele><time>2026-04-28T17:11:56.873Z</time></trkpt><trkpt lat="44.413255" lon="9.1649517"><ele>388.0</ele><time>2026-04-28T17:11:57.875Z</time></trkpt><trkpt lat="44.4133183" lon="9.1648267"><ele>389.00000000000006</ele><time>2026-04-28T17:11:59.873Z</time></trkpt><trkpt lat="44.4133533" lon="9.1647367"><ele>390.0</ele><time>2026-04-28T17:12:00.874Z</time></trkpt><trkpt lat="44.4133567" lon="9.164615"><ele>391.0</ele><time>2026-04-28T17:12:01.873Z</time></trkpt><trkpt lat="44.4133433" lon="9.16449"><ele>392.0</ele><time>2026-04-28T17:12:02.874Z</time></trkpt><trkpt lat="44.4133217" lon="9.1643583"><ele>393.00000000000006</ele><time>2026-04-28T17:12:03.873Z</time></trkpt><trkpt lat="44.4132983" lon="9.1642433"><ele>394.0</ele><time>2026-04-28T17:12:04.874Z</time></trkpt><trkpt lat="44.4132833" lon="9.1641267"><ele>393.14285714285717</ele><time>2026-04-28T17:12:05.874Z</time></trkpt><trkpt lat="44.4132783" lon="9.1640217"><ele>392.28571428571433</ele><time>2026-04-28T17:12:06.876Z</time></trkpt><trkpt lat="44.4132983" lon="9.163925"><ele>391.42857142857144</ele><time>2026-04-28T17:12:07.874Z</time></trkpt><trkpt lat="44.4133283" lon="9.163845"><ele>390.57142857142856</ele><time>2026-04-28T17:12:08.875Z</time></trkpt><trkpt lat="44.41336" lon="9.16376"><ele>389.7142857142857</ele><time>2026-04-28T17:12:09.873Z</time></trkpt><trkpt lat="44.4133817" lon="9.163675"><ele>388.85714285714283</ele><time>2026-04-28T17:12:10.873Z</time></trkpt><trkpt lat="44.4133933" lon="9.1635883"><ele>388.0</ele><time>2026-04-28T17:12:11.871Z</time></trkpt><trkpt lat="44.4133817" lon="9.16349"><ele>388.00000000000006</ele><time>2026-04-28T17:12:12.875Z</time></trkpt><trkpt lat="44.413365" lon="9.16338"><ele>388.0</ele><time>2026-04-28T17:12:13.873Z</time></trkpt><trkpt lat="44.4133433" lon="9.1632767"><ele>388.0</ele><time>2026-04-28T17:12:14.875Z</time></trkpt><trkpt lat="44.413325" lon="9.1631733"><ele>388.0</ele><time>2026-04-28T17:12:15.875Z</time></trkpt><trkpt lat="44.4133067" lon="9.1630783"><ele>388.00000000000006</ele><time>2026-04-28T17:12:16.874Z</time></trkpt><trkpt lat="44.4132917" lon="9.1629917"><ele>388.0</ele><time>2026-04-28T17:12:17.875Z</time></trkpt><trkpt lat="44.4132517" lon="9.16286"><ele>388.0</ele><time>2026-04-28T17:12:19.873Z</time></trkpt><trkpt lat="44.413275" lon="9.162995"><ele>388.0</ele><time>2026-04-28T17:12:36.875Z</time></trkpt><trkpt lat="44.4132983" lon="9.1631167"><ele>388.0</ele><time>2026-04-28T17:12:37.873Z</time></trkpt><trkpt lat="44.4133117" lon="9.1632567"><ele>388.0</ele><time>2026-04-28T17:12:38.877Z</time></trkpt><trkpt lat="44.4133083" lon="9.16342"><ele>388.0</ele><time>2026-04-28T17:12:39.875Z</time></trkpt><trkpt lat="44.4132733" lon="9.16358"><ele>388.0</ele><time>2026-04-28T17:12:40.872Z</time></trkpt><trkpt lat="44.4132383" lon="9.163745"><ele>388.0</ele><time>2026-04-28T17:12:41.873Z</time></trkpt><trkpt lat="44.4131967" lon="9.1639133"><ele>388.0</ele><time>2026-04-28T17:12:42.876Z</time></trkpt><trkpt lat="44.413155" lon="9.164075"><ele>388.0</ele><time>2026-04-28T17:12:43.872Z</time></trkpt><trkpt lat="44.4130967" lon="9.164215"><ele>389.5</ele><time>2026-04-28T17:12:44.873Z</time></trkpt><trkpt lat="44.41301" lon="9.164305"><ele>391.0</ele><time>2026-04-28T17:12:45.872Z</time></trkpt><trkpt lat="44.4129" lon="9.1643517"><ele>392.5</ele><time>2026-04-28T17:12:46.872Z</time></trkpt><trkpt lat="44.4127783" lon="9.1643867"><ele>394.0</ele><time>2026-04-28T17:12:47.875Z</time></trkpt><trkpt lat="44.4126567" lon="9.1644167"><ele>385.75</ele><time>2026-04-28T17:12:48.877Z</time></trkpt><trkpt lat="44.4125383" lon="9.1644683"><ele>377.5</ele><time>2026-04-28T17:12:49.875Z</time></trkpt><trkpt lat="44.4124317" lon="9.1645283"><ele>369.25</ele><time>2026-04-28T17:12:50.875Z</time></trkpt><trkpt lat="44.4123283" lon="9.1646"><ele>361.0</ele><time>2026-04-28T17:12:51.877Z</time></trkpt><trkpt lat="44.4122267" lon="9.1646517"><ele>355.25</ele><time>2026-04-28T17:12:52.875Z</time></trkpt><trkpt lat="44.4121067" lon="9.16467"><ele>349.5</ele><time>2026-04-28T17:12:53.874Z</time></trkpt><trkpt lat="44.4119883" lon="9.1647017"><ele>343.75</ele><time>2026-04-28T17:12:54.875Z</time></trkpt><trkpt lat="44.4118733" lon="9.1647567"><ele>338.0</ele><time>2026-04-28T17:12:55.876Z</time></trkpt><trkpt lat="44.4117867" lon="9.1648317"><ele>342.4</ele><time>2026-04-28T17:12:56.874Z</time></trkpt><trkpt lat="44.4117067" lon="9.164925"><ele>346.79999999999995</ele><time>2026-04-28T17:12:57.875Z</time></trkpt><trkpt lat="44.41165" lon="9.165045"><ele>351.2</ele><time>2026-04-28T17:12:58.873Z</time></trkpt><trkpt lat="44.4116083" lon="9.1651733"><ele>355.6</ele><time>2026-04-28T17:12:59.874Z</time></trkpt><trkpt lat="44.4115917" lon="9.1653067"><ele>360.0</ele><time>2026-04-28T17:13:00.876Z</time></trkpt><trkpt lat="44.4116133" lon="9.1654317"><ele>360.0</ele><time>2026-04-28T17:13:01.875Z</time></trkpt><trkpt lat="44.41164" lon="9.1655567"><ele>360.0</ele><time>2026-04-28T17:13:02.874Z</time></trkpt><trkpt lat="44.4116583" lon="9.165665"><ele>360.0</ele><time>2026-04-28T17:13:03.874Z</time></trkpt><trkpt lat="44.4116567" lon="9.1657717"><ele>360.0</ele><time>2026-04-28T17:13:04.874Z</time></trkpt><trkpt lat="44.4116483" lon="9.1658767"><ele>360.0</ele><time>2026-04-28T17:13:05.873Z</time></trkpt><trkpt lat="44.411625" lon="9.1659667"><ele>360.0</ele><time>2026-04-28T17:13:06.875Z</time></trkpt><trkpt lat="44.4115383" lon="9.165935"><ele>361.4</ele><time>2026-04-28T17:13:07.874Z</time></trkpt><trkpt lat="44.41145" lon="9.1659233"><ele>362.8</ele><time>2026-04-28T17:13:08.876Z</time></trkpt><trkpt lat="44.411345" lon="9.1659217"><ele>364.20000000000005</ele><time>2026-04-28T17:13:09.876Z</time></trkpt><trkpt lat="44.4112367" lon="9.165955"><ele>365.6</ele><time>2026-04-28T17:13:10.873Z</time></trkpt><trkpt lat="44.4111567" lon="9.166015"><ele>367.0</ele><time>2026-04-28T17:13:11.873Z</time></trkpt><trkpt lat="44.411085" lon="9.1662517"><ele>365.16666666666663</ele><time>2026-04-28T17:13:13.874Z</time></trkpt><trkpt lat="44.4110667" lon="9.16638"><ele>363.3333333333333</ele><time>2026-04-28T17:13:14.874Z</time></trkpt><trkpt lat="44.4110533" lon="9.1664883"><ele>361.5</ele><time>2026-04-28T17:13:15.873Z</time></trkpt><trkpt lat="44.4110417" lon="9.1665817"><ele>359.6666666666667</ele><time>2026-04-28T17:13:16.873Z</time></trkpt><trkpt lat="44.4110017" lon="9.1667"><ele>357.83333333333337</ele><time>2026-04-28T17:13:18.875Z</time></trkpt><trkpt lat="44.4108983" lon="9.166675"><ele>356.0</ele><time>2026-04-28T17:13:20.875Z</time></trkpt><trkpt lat="44.4108833" lon="9.1664767"><ele>354.33333333333337</ele><time>2026-04-28T17:13:22.873Z</time></trkpt><trkpt lat="44.4108967" lon="9.16636"><ele>352.6666666666667</ele><time>2026-04-28T17:13:23.874Z</time></trkpt><trkpt lat="44.4108917" lon="9.1662667"><ele>351.0</ele><time>2026-04-28T17:13:24.875Z</time></trkpt><trkpt lat="44.410925" lon="9.1661533"><ele>349.3333333333333</ele><time>2026-04-28T17:13:25.875Z</time></trkpt><trkpt lat="44.4109183" lon="9.166045"><ele>347.66666666666663</ele><time>2026-04-28T17:13:27.873Z</time></trkpt><trkpt lat="44.4108433" lon="9.1660067"><ele>346.0</ele><time>2026-04-28T17:13:31.875Z</time></trkpt><trkpt lat="44.4107883" lon="9.16607"><ele>346.0</ele><time>2026-04-28T17:13:34.874Z</time></trkpt><trkpt lat="44.4107183" lon="9.16619"><ele>346.0</ele><time>2026-04-28T17:19:09.876Z</time></trkpt><trkpt lat="44.4107617" lon="9.1663"><ele>346.0</ele><time>2026-04-28T17:19:11.875Z</time></trkpt><trkpt lat="44.4108133" lon="9.16637"><ele>346.0</ele><time>2026-04-28T17:19:13.873Z</time></trkpt><trkpt lat="44.41088" lon="9.166275"><ele>346.0</ele><time>2026-04-28T17:19:15.873Z</time></trkpt><trkpt lat="44.41091" lon="9.1661633"><ele>346.0</ele><time>2026-04-28T17:19:16.875Z</time></trkpt><trkpt lat="44.410955" lon="9.1659967"><ele>346.0</ele><time>2026-04-28T17:19:17.874Z</time></trkpt><trkpt lat="44.41101" lon="9.1658233"><ele>346.0</ele><time>2026-04-28T17:19:18.874Z</time></trkpt><trkpt lat="44.411085" lon="9.165675"><ele>346.0</ele><time>2026-04-28T17:19:19.874Z</time></trkpt><trkpt lat="44.4111317" lon="9.1655483"><ele>345.4</ele><time>2026-04-28T17:19:20.877Z</time></trkpt><trkpt lat="44.4111517" lon="9.1654283"><ele>344.8</ele><time>2026-04-28T17:19:21.873Z</time></trkpt><trkpt lat="44.41113" lon="9.1653083"><ele>344.2</ele><time>2026-04-28T17:19:22.873Z</time></trkpt><trkpt lat="44.4110783" lon="9.165185"><ele>343.59999999999997</ele><time>2026-04-28T17:19:23.875Z</time></trkpt><trkpt lat="44.4110317" lon="9.1650667"><ele>343.0</ele><time>2026-04-28T17:19:24.874Z</time></trkpt><trkpt lat="44.4110117" lon="9.164925"><ele>342.0</ele><time>2026-04-28T17:19:25.875Z</time></trkpt><trkpt lat="44.4110133" lon="9.1647733"><ele>341.0</ele><time>2026-04-28T17:19:26.874Z</time></trkpt><trkpt lat="44.41106" lon="9.1646533"><ele>340.0</ele><time>2026-04-28T17:19:27.875Z</time></trkpt><trkpt lat="44.4111417" lon="9.164545"><ele>339.0</ele><time>2026-04-28T17:19:28.873Z</time></trkpt><trkpt lat="44.4112567" lon="9.1644683"><ele>338.0</ele><time>2026-04-28T17:19:29.876Z</time></trkpt><trkpt lat="44.411385" lon="9.1644533"><ele>338.0</ele><time>2026-04-28T17:19:30.872Z</time></trkpt><trkpt lat="44.4114817" lon="9.164445"><ele>338.0</ele><time>2026-04-28T17:19:31.875Z</time></trkpt><trkpt lat="44.41157" lon="9.164445"><ele>338.0</ele><time>2026-04-28T17:19:32.874Z</time></trkpt><trkpt lat="44.4116533" lon="9.164445"><ele>338.0</ele><time>2026-04-28T17:19:33.873Z</time></trkpt><trkpt lat="44.41173" lon="9.1644367"><ele>338.0</ele><time>2026-04-28T17:19:34.872Z</time></trkpt><trkpt lat="44.4118017" lon="9.16441"><ele>338.0</ele><time>2026-04-28T17:19:35.873Z</time></trkpt><trkpt lat="44.4118533" lon="9.1643433"><ele>338.0</ele><time>2026-04-28T17:19:36.874Z</time></trkpt><trkpt lat="44.4118767" lon="9.1642167"><ele>338.0</ele><time>2026-04-28T17:19:38.876Z</time></trkpt><trkpt lat="44.41183" lon="9.164135"><ele>338.0</ele><time>2026-04-28T17:19:40.873Z</time></trkpt><trkpt lat="44.4118067" lon="9.1642783"><ele>338.0</ele><time>2026-04-28T17:20:09.876Z</time></trkpt><trkpt lat="44.4117817" lon="9.1644033"><ele>338.0</ele><time>2026-04-28T17:23:30.876Z</time></trkpt><trkpt lat="44.4117683" lon="9.1643"><ele>338.0</ele><time>2026-04-28T17:29:03.877Z</time></trkpt><trkpt lat="44.4116996" lon="9.16436"><ele>338.0</ele><time>2026-04-28T17:31:18.899Z</time></trkpt><trkpt lat="44.4116243" lon="9.164391"><ele>338.0</ele><time>2026-04-28T17:31:20.909Z</time></trkpt><trkpt lat="44.4115386" lon="9.1644009"><ele>338.0</ele><time>2026-04-28T17:31:22.919Z</time></trkpt><trkpt lat="44.4112666" lon="9.1643215"><ele>338.0</ele><time>2026-04-28T17:31:24.876Z</time></trkpt><trkpt lat="44.4111941" lon="9.1642867"><ele>338.0</ele><time>2026-04-28T17:31:25.875Z</time></trkpt><trkpt lat="44.4111303" lon="9.1642269"><ele>338.0</ele><time>2026-04-28T17:31:27.875Z</time></trkpt><trkpt lat="44.4111816" lon="9.1641278"><ele>338.0</ele><time>2026-04-28T17:31:30.876Z</time></trkpt><trkpt lat="44.411305" lon="9.164155"><ele>338.0</ele><time>2026-04-28T17:31:32.877Z</time></trkpt><trkpt lat="44.411375" lon="9.1641617"><ele>338.0</ele><time>2026-04-28T17:31:33.876Z</time></trkpt><trkpt lat="44.4114483" lon="9.164155"><ele>338.0</ele><time>2026-04-28T17:31:34.876Z</time></trkpt><trkpt lat="44.4115133" lon="9.164125"><ele>338.0</ele><time>2026-04-28T17:31:35.876Z</time></trkpt><trkpt lat="44.4115833" lon="9.16409"><ele>338.0</ele><time>2026-04-28T17:31:36.875Z</time></trkpt><trkpt lat="44.4116483" lon="9.1640433"><ele>338.0</ele><time>2026-04-28T17:31:37.877Z</time></trkpt><trkpt lat="44.4117067" lon="9.16399"><ele>338.0</ele><time>2026-04-28T17:31:38.877Z</time></trkpt><trkpt lat="44.41177" lon="9.1639483"><ele>338.0</ele><time>2026-04-28T17:31:39.875Z</time></trkpt><trkpt lat="44.4118383" lon="9.16392"><ele>338.0</ele><time>2026-04-28T17:31:40.875Z</time></trkpt><trkpt lat="44.4119033" lon="9.1639017"><ele>338.0</ele><time>2026-04-28T17:31:41.876Z</time></trkpt><trkpt lat="44.4119717" lon="9.163895"><ele>339.83333333333337</ele><time>2026-04-28T17:31:42.877Z</time></trkpt><trkpt lat="44.4120383" lon="9.1638933"><ele>341.6666666666667</ele><time>2026-04-28T17:31:43.875Z</time></trkpt><trkpt lat="44.4121017" lon="9.1639"><ele>343.5</ele><time>2026-04-28T17:31:44.875Z</time></trkpt><trkpt lat="44.412165" lon="9.1639"><ele>345.3333333333333</ele><time>2026-04-28T17:31:45.874Z</time></trkpt><trkpt lat="44.4122183" lon="9.1638"><ele>347.16666666666663</ele><time>2026-04-28T17:31:47.874Z</time></trkpt><trkpt lat="44.4121933" lon="9.1636283"><ele>349.0</ele><time>2026-04-28T17:31:49.876Z</time></trkpt><trkpt lat="44.412165" lon="9.1635167"><ele>344.0</ele><time>2026-04-28T17:31:50.876Z</time></trkpt><trkpt lat="44.4121483" lon="9.16341"><ele>339.0</ele><time>2026-04-28T17:31:51.876Z</time></trkpt><trkpt lat="44.4121283" lon="9.1633"><ele>334.0</ele><time>2026-04-28T17:31:52.875Z</time></trkpt><trkpt lat="44.4121167" lon="9.1631817"><ele>329.0</ele><time>2026-04-28T17:31:53.877Z</time></trkpt><trkpt lat="44.4121067" lon="9.1630617"><ele>324.0</ele><time>2026-04-28T17:31:54.884Z</time></trkpt><trkpt lat="44.412105" lon="9.16294"><ele>319.0</ele><time>2026-04-28T17:31:55.876Z</time></trkpt><trkpt lat="44.4121133" lon="9.162815"><ele>317.4</ele><time>2026-04-28T17:31:56.877Z</time></trkpt><trkpt lat="44.4121267" lon="9.1626933"><ele>315.79999999999995</ele><time>2026-04-28T17:31:57.875Z</time></trkpt><trkpt lat="44.4121467" lon="9.162565"><ele>314.20000000000005</ele><time>2026-04-28T17:31:58.875Z</time></trkpt><trkpt lat="44.4121683" lon="9.1624383"><ele>312.6</ele><time>2026-04-28T17:31:59.876Z</time></trkpt><trkpt lat="44.4121983" lon="9.1623083"><ele>311.0</ele><time>2026-04-28T17:32:00.876Z</time></trkpt><trkpt lat="44.412235" lon="9.1621783"><ele>315.6666666666667</ele><time>2026-04-28T17:32:01.876Z</time></trkpt><trkpt lat="44.4122783" lon="9.1620517"><ele>320.33333333333337</ele><time>2026-04-28T17:32:02.877Z</time></trkpt><trkpt lat="44.4123217" lon="9.16194"><ele>325.0</ele><time>2026-04-28T17:32:03.875Z</time></trkpt><trkpt lat="44.412365" lon="9.1618367"><ele>329.6666666666667</ele><time>2026-04-28T17:32:04.874Z</time></trkpt><trkpt lat="44.41241" lon="9.16174"><ele>334.3333333333333</ele><time>2026-04-28T17:32:05.875Z</time></trkpt><trkpt lat="44.412455" lon="9.161655"><ele>339.0</ele><time>2026-04-28T17:32:06.877Z</time></trkpt><trkpt lat="44.4124967" lon="9.1615683"><ele>337.1666666666667</ele><time>2026-04-28T17:32:07.878Z</time></trkpt><trkpt lat="44.41254" lon="9.1614867"><ele>335.3333333333333</ele><time>2026-04-28T17:32:08.876Z</time></trkpt><trkpt lat="44.4125717" lon="9.1613967"><ele>333.5</ele><time>2026-04-28T17:32:09.87Z</time></trkpt><trkpt lat="44.4125883" lon="9.1612967"><ele>331.66666666666663</ele><time>2026-04-28T17:32:10.876Z</time></trkpt><trkpt lat="44.4126017" lon="9.16118"><ele>329.8333333333333</ele><time>2026-04-28T17:32:11.875Z</time></trkpt><trkpt lat="44.4126033" lon="9.1610667"><ele>328.0</ele><time>2026-04-28T17:32:12.88Z</time></trkpt><trkpt lat="44.4126033" lon="9.1609517"><ele>328.0</ele><time>2026-04-28T17:32:13.875Z</time></trkpt><trkpt lat="44.4126117" lon="9.1608367"><ele>328.0</ele><time>2026-04-28T17:32:14.878Z</time></trkpt><trkpt lat="44.41263" lon="9.1607317"><ele>328.0</ele><time>2026-04-28T17:32:15.875Z</time></trkpt><trkpt lat="44.4126617" lon="9.16063"><ele>328.0</ele><time>2026-04-28T17:32:16.876Z</time></trkpt><trkpt lat="44.4126833" lon="9.16054"><ele>328.0</ele><time>2026-04-28T17:32:17.874Z</time></trkpt><trkpt lat="44.4127017" lon="9.1604533"><ele>328.0</ele><time>2026-04-28T17:32:18.875Z</time></trkpt><trkpt lat="44.4126867" lon="9.1602867"><ele>328.16666666666663</ele><time>2026-04-28T17:32:20.876Z</time></trkpt><trkpt lat="44.4125917" lon="9.1601583"><ele>328.3333333333333</ele><time>2026-04-28T17:32:22.874Z</time></trkpt><trkpt lat="44.4125317" lon="9.160105"><ele>328.5</ele><time>2026-04-28T17:32:23.875Z</time></trkpt><trkpt lat="44.4124683" lon="9.1600617"><ele>328.6666666666667</ele><time>2026-04-28T17:32:24.875Z</time></trkpt><trkpt lat="44.4124" lon="9.1600267"><ele>328.83333333333337</ele><time>2026-04-28T17:32:25.874Z</time></trkpt><trkpt lat="44.4123283" lon="9.1599883"><ele>329.0</ele><time>2026-04-28T17:32:26.878Z</time></trkpt><trkpt lat="44.41225" lon="9.15994"><ele>328.1666666666667</ele><time>2026-04-28T17:32:27.875Z</time></trkpt><trkpt lat="44.4122033" lon="9.1598533"><ele>327.33333333333337</ele><time>2026-04-28T17:32:28.875Z</time></trkpt><trkpt lat="44.4121933" lon="9.1597383"><ele>326.5</ele><time>2026-04-28T17:32:29.875Z</time></trkpt><trkpt lat="44.4122017" lon="9.1596167"><ele>325.6666666666667</ele><time>2026-04-28T17:32:30.876Z</time></trkpt><trkpt lat="44.4122183" lon="9.1595083"><ele>324.8333333333333</ele><time>2026-04-28T17:32:31.875Z</time></trkpt><trkpt lat="44.4122683" lon="9.1594183"><ele>324.0</ele><time>2026-04-28T17:32:32.877Z</time></trkpt><trkpt lat="44.4123467" lon="9.15935"><ele>324.0</ele><time>2026-04-28T17:32:33.876Z</time></trkpt><trkpt lat="44.4124467" lon="9.1592917"><ele>324.0</ele><time>2026-04-28T17:32:34.874Z</time></trkpt><trkpt lat="44.4125417" lon="9.1592317"><ele>324.0</ele><time>2026-04-28T17:32:35.875Z</time></trkpt><trkpt lat="44.4126283" lon="9.1591717"><ele>324.0</ele><time>2026-04-28T17:32:36.877Z</time></trkpt><trkpt lat="44.41271" lon="9.1591183"><ele>324.0</ele><time>2026-04-28T17:32:37.876Z</time></trkpt><trkpt lat="44.41279" lon="9.1590717"><ele>324.0</ele><time>2026-04-28T17:32:38.876Z</time></trkpt><trkpt lat="44.4128583" lon="9.15903"><ele>324.0</ele><time>2026-04-28T17:32:39.876Z</time></trkpt><trkpt lat="44.4129367" lon="9.1590067"><ele>324.0</ele><time>2026-04-28T17:32:41.875Z</time></trkpt><trkpt lat="44.4128483" lon="9.1591317"><ele>324.0</ele><time>2026-04-28T17:32:45.874Z</time></trkpt><trkpt lat="44.41276" lon="9.159235"><ele>324.0</ele><time>2026-04-28T17:32:47.874Z</time></trkpt><trkpt lat="44.41275" lon="9.1593317"><ele>324.0</ele><time>2026-04-28T17:32:49.875Z</time></trkpt><trkpt lat="44.412685" lon="9.1593433"><ele>324.0</ele><time>2026-04-28T17:37:11.877Z</time></trkpt><trkpt lat="44.412745" lon="9.159375"><ele>324.0</ele><time>2026-04-28T17:38:06.876Z</time></trkpt></trkseg></trk></gpx>